<?xml version='1.0' encoding='UTF-8'?><gpx version="1.1" creator="JPX - https://github.com/jenetics/jpx" xmlns="http://www.topografix.com/GPX/1/1"><trk><trkseg><trkpt lat="45.507911271458035" lon="11.467744829143832"><ele>42.0</ele><time>2026-03-22T06:42:28.201Z</time></trkpt><trkpt lat="45.50777007829911" lon="11.467346353467057"><ele>42.0</ele><time>2026-03-22T06:42:29.198Z</time></trkpt><trkpt lat="45.507680894849365" lon="11.467325901623319"><ele>42.0</ele><time>2026-03-22T06:42:32.98Z</time></trkpt><trkpt lat="45.50767515324569" lon="11.467049214999626"><ele>42.0</ele><time>2026-03-22T06:42:33.981Z</time></trkpt><trkpt lat="45.507577797440355" lon="11.467033037926505"><ele>42.0</ele><time>2026-03-22T06:42:36.985Z</time></trkpt><trkpt lat="45.50750772472984" lon="11.467046029876421"><ele>42.0</ele><time>2026-03-22T06:42:38.987Z</time></trkpt><trkpt lat="45.507444161033916" lon="11.467066318836576"><ele>42.0</ele><time>2026-03-22T06:42:40.988Z</time></trkpt><trkpt lat="45.5074499735536" lon="11.467201294443957"><ele>42.0</ele><time>2026-03-22T06:42:42.99Z</time></trkpt><trkpt lat="45.50746145477391" lon="11.46733209496695"><ele>42.0</ele><time>2026-03-22T06:42:45.992Z</time></trkpt><trkpt lat="45.507481153648094" lon="11.467455273278588"><ele>42.0</ele><time>2026-03-22T06:42:47.993Z</time></trkpt><trkpt lat="45.50750357758285" lon="11.467572335428358"><ele>42.0</ele><time>2026-03-22T06:42:49.994Z</time></trkpt><trkpt lat="45.50751710134335" lon="11.467681910124593"><ele>42.0</ele><time>2026-03-22T06:42:51.995Z</time></trkpt><trkpt lat="45.507528614860036" lon="11.467773005160787"><ele>42.0</ele><time>2026-03-22T06:42:53.995Z</time></trkpt><trkpt lat="45.50753675509701" lon="11.467867171626144"><ele>42.0</ele><time>2026-03-22T06:42:55.996Z</time></trkpt><trkpt lat="45.50753539936207" lon="11.46799173136435"><ele>42.0</ele><time>2026-03-22T06:42:58.996Z</time></trkpt><trkpt lat="45.50748820747045" lon="11.468107351481837"><ele>42.166666666666664</ele><time>2026-03-22T06:43:01.997Z</time></trkpt><trkpt lat="45.50739755132304" lon="11.46815567076452"><ele>42.333333333333336</ele><time>2026-03-22T06:43:04.998Z</time></trkpt><trkpt lat="45.50730336051038" lon="11.46820268208362"><ele>42.5</ele><time>2026-03-22T06:43:07.998Z</time></trkpt><trkpt lat="45.507247237569324" lon="11.468274472593157"><ele>42.66666666666667</ele><time>2026-03-22T06:43:10.998Z</time></trkpt><trkpt lat="45.50724205783339" lon="11.468377206953821"><ele>42.833333333333336</ele><time>2026-03-22T06:43:12.998Z</time></trkpt><trkpt lat="45.507281525519836" lon="11.468494889714021"><ele>43.0</ele><time>2026-03-22T06:43:14.998Z</time></trkpt><trkpt lat="45.50733196971511" lon="11.468628016946157"><ele>42.75</ele><time>2026-03-22T06:43:16.999Z</time></trkpt><trkpt lat="45.50738305458702" lon="11.468786227859171"><ele>42.5</ele><time>2026-03-22T06:43:18.999Z</time></trkpt><trkpt lat="45.50743874077835" lon="11.468933547548612"><ele>42.25</ele><time>2026-03-22T06:43:20.999Z</time></trkpt><trkpt lat="45.50749803996405" lon="11.469081535510979"><ele>42.0</ele><time>2026-03-22T06:43:22.999Z</time></trkpt><trkpt lat="45.507569765770185" lon="11.469214303343906"><ele>42.0</ele><time>2026-03-22T06:43:24.999Z</time></trkpt><trkpt lat="45.50765030062809" lon="11.469327436332167"><ele>42.0</ele><time>2026-03-22T06:43:26.999Z</time></trkpt><trkpt lat="45.50773001698188" lon="11.469448526737818"><ele>42.0</ele><time>2026-03-22T06:43:28.999Z</time></trkpt><trkpt lat="45.507811605944894" lon="11.469565932208264"><ele>42.0</ele><time>2026-03-22T06:43:30.999Z</time></trkpt><trkpt lat="45.507879444191865" lon="11.46961671896005"><ele>42.0</ele><time>2026-03-22T06:43:31.999Z</time></trkpt><trkpt lat="45.507957850882974" lon="11.46972401793877"><ele>42.8</ele><time>2026-03-22T06:43:33.999Z</time></trkpt><trkpt lat="45.50804077748097" lon="11.469844555614987"><ele>43.6</ele><time>2026-03-22T06:43:35.999Z</time></trkpt><trkpt lat="45.50813921315561" lon="11.469942963183465"><ele>44.4</ele><time>2026-03-22T06:43:37.999Z</time></trkpt><trkpt lat="45.508209707205154" lon="11.470036269106416"><ele>45.199999999999996</ele><time>2026-03-22T06:43:39.999Z</time></trkpt><trkpt lat="45.508223742321846" lon="11.470151802180462"><ele>46.0</ele><time>2026-03-22T06:43:41.999Z</time></trkpt><trkpt lat="45.50821752127657" lon="11.470310635051256"><ele>46.199999999999996</ele><time>2026-03-22T06:43:43.999Z</time></trkpt><trkpt lat="45.508240494806984" lon="11.470481041909224"><ele>46.4</ele><time>2026-03-22T06:43:45.999Z</time></trkpt><trkpt lat="45.50826754678424" lon="11.470565228403384"><ele>46.6</ele><time>2026-03-22T06:43:46.999Z</time></trkpt><trkpt lat="45.50830175284614" lon="11.470719822320081"><ele>46.8</ele><time>2026-03-22T06:43:48.999Z</time></trkpt><trkpt lat="45.508354662115295" lon="11.470852194728517"><ele>47.0</ele><time>2026-03-22T06:43:50.999Z</time></trkpt><trkpt lat="45.50840942737255" lon="11.470974325593152"><ele>47.0</ele><time>2026-03-22T06:43:52.999Z</time></trkpt><trkpt lat="45.50847920805421" lon="11.471104243689615"><ele>47.0</ele><time>2026-03-22T06:43:54.999Z</time></trkpt><trkpt lat="45.50853033054627" lon="11.471260983878471"><ele>47.0</ele><time>2026-03-22T06:43:56.999Z</time></trkpt><trkpt lat="45.508592679462986" lon="11.471407943078436"><ele>47.0</ele><time>2026-03-22T06:43:58.999Z</time></trkpt><trkpt lat="45.50866899651274" lon="11.471546795157776"><ele>46.83333333333333</ele><time>2026-03-22T06:44:00.999Z</time></trkpt><trkpt lat="45.50868962770579" lon="11.471631694338317"><ele>46.666666666666664</ele><time>2026-03-22T06:44:01.999Z</time></trkpt><trkpt lat="45.508696977450015" lon="11.471721284475128"><ele>46.5</ele><time>2026-03-22T06:44:02.999Z</time></trkpt><trkpt lat="45.508665994155656" lon="11.471893733582304"><ele>46.333333333333336</ele><time>2026-03-22T06:44:04.998Z</time></trkpt><trkpt lat="45.50863067680748" lon="11.471975840304255"><ele>46.16666666666667</ele><time>2026-03-22T06:44:05.998Z</time></trkpt><trkpt lat="45.50858582737801" lon="11.472049289891691"><ele>46.0</ele><time>2026-03-22T06:44:06.998Z</time></trkpt><trkpt lat="45.508531751807205" lon="11.472113843155965"><ele>45.285714285714285</ele><time>2026-03-22T06:44:07.998Z</time></trkpt><trkpt lat="45.508476975355904" lon="11.472172945119306"><ele>44.57142857142857</ele><time>2026-03-22T06:44:08.998Z</time></trkpt><trkpt lat="45.508416370452046" lon="11.472235593198745"><ele>43.857142857142854</ele><time>2026-03-22T06:44:09.998Z</time></trkpt><trkpt lat="45.5083612102689" lon="11.47229764152347"><ele>43.14285714285714</ele><time>2026-03-22T06:44:10.998Z</time></trkpt><trkpt lat="45.50830246160384" lon="11.472357330441293"><ele>42.42857142857143</ele><time>2026-03-22T06:44:11.998Z</time></trkpt><trkpt lat="45.5082471701396" lon="11.472421701243665"><ele>41.71428571428571</ele><time>2026-03-22T06:44:12.998Z</time></trkpt><trkpt lat="45.5081892529301" lon="11.472486433950264"><ele>41.0</ele><time>2026-03-22T06:44:13.998Z</time></trkpt><trkpt lat="45.5081336166708" lon="11.472552666182006"><ele>41.0</ele><time>2026-03-22T06:44:14.998Z</time></trkpt><trkpt lat="45.50808169340868" lon="11.472615430254095"><ele>41.0</ele><time>2026-03-22T06:44:15.998Z</time></trkpt><trkpt lat="45.50802476808007" lon="11.472677401041148"><ele>41.0</ele><time>2026-03-22T06:44:16.998Z</time></trkpt><trkpt lat="45.50797346719728" lon="11.472737481234324"><ele>41.0</ele><time>2026-03-22T06:44:17.998Z</time></trkpt><trkpt lat="45.50789607329586" lon="11.472817380929124"><ele>41.0</ele><time>2026-03-22T06:44:19.998Z</time></trkpt><trkpt lat="45.50780979314749" lon="11.472889754817075"><ele>41.0</ele><time>2026-03-22T06:44:22.018Z</time></trkpt><trkpt lat="45.50772895883884" lon="11.472990540645872"><ele>40.8</ele><time>2026-03-22T06:44:23.998Z</time></trkpt><trkpt lat="45.507652618272054" lon="11.473092342636354"><ele>40.599999999999994</ele><time>2026-03-22T06:44:24.998Z</time></trkpt><trkpt lat="45.507620855434446" lon="11.47317638561846"><ele>40.4</ele><time>2026-03-22T06:44:25.998Z</time></trkpt><trkpt lat="45.507626983121625" lon="11.473324482278398"><ele>40.2</ele><time>2026-03-22T06:44:27.998Z</time></trkpt><trkpt lat="45.50770426094343" lon="11.473445124159841"><ele>40.0</ele><time>2026-03-22T06:44:29.998Z</time></trkpt><trkpt lat="45.50776848194309" lon="11.473577578329383"><ele>40.0</ele><time>2026-03-22T06:44:31.998Z</time></trkpt><trkpt lat="45.50782056499074" lon="11.473731976991376"><ele>40.0</ele><time>2026-03-22T06:44:33.998Z</time></trkpt><trkpt lat="45.507878514083735" lon="11.473887496754232"><ele>40.0</ele><time>2026-03-22T06:44:35.998Z</time></trkpt><trkpt lat="45.50793123632179" lon="11.474028276207859"><ele>40.0</ele><time>2026-03-22T06:44:37.998Z</time></trkpt><trkpt lat="45.50798904710804" lon="11.474186126186316"><ele>39.5</ele><time>2026-03-22T06:44:40.001Z</time></trkpt><trkpt lat="45.508044187150546" lon="11.474332997881895"><ele>39.0</ele><time>2026-03-22T06:44:42.001Z</time></trkpt><trkpt lat="45.50809983728012" lon="11.474492009107417"><ele>38.5</ele><time>2026-03-22T06:44:44Z</time></trkpt><trkpt lat="45.50815696118279" lon="11.47464460927381"><ele>38.0</ele><time>2026-03-22T06:44:46Z</time></trkpt><trkpt lat="45.50821299454466" lon="11.474793878648367"><ele>38.0</ele><time>2026-03-22T06:44:48Z</time></trkpt><trkpt lat="45.50824347937084" lon="11.47488261384763"><ele>38.0</ele><time>2026-03-22T06:44:49Z</time></trkpt><trkpt lat="45.50829887581007" lon="11.475027066336326"><ele>38.0</ele><time>2026-03-22T06:44:51Z</time></trkpt><trkpt lat="45.50835339631008" lon="11.475179986637146"><ele>38.0</ele><time>2026-03-22T06:44:53Z</time></trkpt><trkpt lat="45.508412110905155" lon="11.47532736119392"><ele>38.0</ele><time>2026-03-22T06:44:55Z</time></trkpt><trkpt lat="45.508467380683946" lon="11.47547101221499"><ele>38.0</ele><time>2026-03-22T06:44:57Z</time></trkpt><trkpt lat="45.50851388298172" lon="11.475602255774012"><ele>38.0</ele><time>2026-03-22T06:44:59Z</time></trkpt><trkpt lat="45.508566747127446" lon="11.47572980177671"><ele>38.0</ele><time>2026-03-22T06:45:01Z</time></trkpt><trkpt lat="45.50861846211131" lon="11.475855135988933"><ele>38.0</ele><time>2026-03-22T06:45:03Z</time></trkpt><trkpt lat="45.50867185997408" lon="11.47600470380032"><ele>38.0</ele><time>2026-03-22T06:45:05Z</time></trkpt><trkpt lat="45.508725917632724" lon="11.476152035418261"><ele>38.0</ele><time>2026-03-22T06:45:07Z</time></trkpt><trkpt lat="45.50878022948116" lon="11.476302524189986"><ele>38.0</ele><time>2026-03-22T06:45:09Z</time></trkpt><trkpt lat="45.50883656801433" lon="11.476459638979017"><ele>38.0</ele><time>2026-03-22T06:45:11Z</time></trkpt><trkpt lat="45.50889448652193" lon="11.476611291377091"><ele>38.0</ele><time>2026-03-22T06:45:12.999Z</time></trkpt><trkpt lat="45.50895363310565" lon="11.476761654719086"><ele>38.0</ele><time>2026-03-22T06:45:14.999Z</time></trkpt><trkpt lat="45.5090076932481" lon="11.476922330030645"><ele>38.0</ele><time>2026-03-22T06:45:16.999Z</time></trkpt><trkpt lat="45.50905936963996" lon="11.477067389163796"><ele>38.0</ele><time>2026-03-22T06:45:18.999Z</time></trkpt><trkpt lat="45.50911014247635" lon="11.477207260954868"><ele>38.0</ele><time>2026-03-22T06:45:20.999Z</time></trkpt><trkpt lat="45.50915981347095" lon="11.477340566854554"><ele>37.75</ele><time>2026-03-22T06:45:22.999Z</time></trkpt><trkpt lat="45.50921379741408" lon="11.477481477318552"><ele>37.5</ele><time>2026-03-22T06:45:24.999Z</time></trkpt><trkpt lat="45.50926700318235" lon="11.4776332944669"><ele>37.25</ele><time>2026-03-22T06:45:26.999Z</time></trkpt><trkpt lat="45.509318797642734" lon="11.477784112654575"><ele>37.0</ele><time>2026-03-22T06:45:28.999Z</time></trkpt><trkpt lat="45.50936752632084" lon="11.477937357925313"><ele>37.0</ele><time>2026-03-22T06:45:30.999Z</time></trkpt><trkpt lat="45.50940806814003" lon="11.478085606226658"><ele>37.0</ele><time>2026-03-22T06:45:32.999Z</time></trkpt><trkpt lat="45.50944535862517" lon="11.47822908528066"><ele>37.0</ele><time>2026-03-22T06:45:34.999Z</time></trkpt><trkpt lat="45.509472177759065" lon="11.478374231079036"><ele>37.0</ele><time>2026-03-22T06:45:36.999Z</time></trkpt><trkpt lat="45.50949504920428" lon="11.478541875032445"><ele>37.0</ele><time>2026-03-22T06:45:38.999Z</time></trkpt><trkpt lat="45.50950528659297" lon="11.47871799480249"><ele>37.0</ele><time>2026-03-22T06:45:40.999Z</time></trkpt><trkpt lat="45.50950332674697" lon="11.47888492881425"><ele>37.0</ele><time>2026-03-22T06:45:42.999Z</time></trkpt><trkpt lat="45.50949692310188" lon="11.479050527189367"><ele>37.0</ele><time>2026-03-22T06:45:44.999Z</time></trkpt><trkpt lat="45.50948381626578" lon="11.479203621337753"><ele>37.0</ele><time>2026-03-22T06:45:46.999Z</time></trkpt><trkpt lat="45.509465992608135" lon="11.479354084960978"><ele>37.0</ele><time>2026-03-22T06:45:48.998Z</time></trkpt><trkpt lat="45.50943384816778" lon="11.479516966768992"><ele>37.5</ele><time>2026-03-22T06:45:50.998Z</time></trkpt><trkpt lat="45.50939280161932" lon="11.479683021668135"><ele>38.0</ele><time>2026-03-22T06:45:52.998Z</time></trkpt><trkpt lat="45.50935073905135" lon="11.479836892148388"><ele>38.5</ele><time>2026-03-22T06:45:54.998Z</time></trkpt><trkpt lat="45.509316175260416" lon="11.479985631425775"><ele>39.0</ele><time>2026-03-22T06:45:56.998Z</time></trkpt><trkpt lat="45.509282607854026" lon="11.480121489288084"><ele>39.0</ele><time>2026-03-22T06:45:58.998Z</time></trkpt><trkpt lat="45.509237992864726" lon="11.480252893445925"><ele>39.0</ele><time>2026-03-22T06:46:00.998Z</time></trkpt><trkpt lat="45.50920571063666" lon="11.48037626801426"><ele>39.0</ele><time>2026-03-22T06:46:02.998Z</time></trkpt><trkpt lat="45.50918032204102" lon="11.480494470225361"><ele>39.0</ele><time>2026-03-22T06:46:04.998Z</time></trkpt><trkpt lat="45.509158264281034" lon="11.480606928455407"><ele>39.0</ele><time>2026-03-22T06:46:06.998Z</time></trkpt><trkpt lat="45.50914394924011" lon="11.480712193607223"><ele>39.0</ele><time>2026-03-22T06:46:08.998Z</time></trkpt><trkpt lat="45.509133792394614" lon="11.480830676750177"><ele>39.0</ele><time>2026-03-22T06:46:10.998Z</time></trkpt><trkpt lat="45.509127571812066" lon="11.480975167149689"><ele>39.0</ele><time>2026-03-22T06:46:12.998Z</time></trkpt><trkpt lat="45.50913961972995" lon="11.48113883070877"><ele>39.0</ele><time>2026-03-22T06:46:14.998Z</time></trkpt><trkpt lat="45.509158722184814" lon="11.481307418188004"><ele>39.0</ele><time>2026-03-22T06:46:16.998Z</time></trkpt><trkpt lat="45.50917205056927" lon="11.481396752409479"><ele>39.0</ele><time>2026-03-22T06:46:17.998Z</time></trkpt><trkpt lat="45.50920076256895" lon="11.481564193085847"><ele>38.75</ele><time>2026-03-22T06:46:19.998Z</time></trkpt><trkpt lat="45.50922823380318" lon="11.48173428019271"><ele>38.5</ele><time>2026-03-22T06:46:21.998Z</time></trkpt><trkpt lat="45.50925960927228" lon="11.481904899617717"><ele>38.25</ele><time>2026-03-22T06:46:23.998Z</time></trkpt><trkpt lat="45.50927699329713" lon="11.482078588440764"><ele>38.0</ele><time>2026-03-22T06:46:25.997Z</time></trkpt><trkpt lat="45.50926336514363" lon="11.48224662199792"><ele>37.6</ele><time>2026-03-22T06:46:27.997Z</time></trkpt><trkpt lat="45.50922293633327" lon="11.48240680254383"><ele>37.199999999999996</ele><time>2026-03-22T06:46:29.997Z</time></trkpt><trkpt lat="45.50918408394886" lon="11.482477493105096"><ele>36.8</ele><time>2026-03-22T06:46:30.997Z</time></trkpt><trkpt lat="45.509097007168094" lon="11.482598720370081"><ele>36.4</ele><time>2026-03-22T06:46:32.997Z</time></trkpt><trkpt lat="45.509002647002895" lon="11.48271090464741"><ele>36.0</ele><time>2026-03-22T06:46:34.997Z</time></trkpt><trkpt lat="45.50890735102941" lon="11.482828505390955"><ele>35.4</ele><time>2026-03-22T06:46:36.997Z</time></trkpt><trkpt lat="45.50881582941541" lon="11.482944087398646"><ele>34.8</ele><time>2026-03-22T06:46:38.997Z</time></trkpt><trkpt lat="45.50873338516914" lon="11.483052391242468"><ele>34.199999999999996</ele><time>2026-03-22T06:46:40.997Z</time></trkpt><trkpt lat="45.50864983801323" lon="11.483147183569148"><ele>33.6</ele><time>2026-03-22T06:46:42.997Z</time></trkpt><trkpt lat="45.50856544235993" lon="11.483229331270044"><ele>33.0</ele><time>2026-03-22T06:46:45Z</time></trkpt><trkpt lat="45.50847891651626" lon="11.483306221558939"><ele>32.75</ele><time>2026-03-22T06:46:47Z</time></trkpt><trkpt lat="45.508375742459656" lon="11.483374968702268"><ele>32.5</ele><time>2026-03-22T06:46:49Z</time></trkpt><trkpt lat="45.50827355163831" lon="11.483447809546268"><ele>32.25</ele><time>2026-03-22T06:46:51Z</time></trkpt><trkpt lat="45.508166499280726" lon="11.483518633356976"><ele>32.0</ele><time>2026-03-22T06:46:53Z</time></trkpt><trkpt lat="45.508060008407824" lon="11.483589224308236"><ele>32.0</ele><time>2026-03-22T06:46:55Z</time></trkpt><trkpt lat="45.507949936791306" lon="11.483659425468257"><ele>32.0</ele><time>2026-03-22T06:46:57Z</time></trkpt><trkpt lat="45.507841493575945" lon="11.483731652627943"><ele>32.0</ele><time>2026-03-22T06:46:59Z</time></trkpt><trkpt lat="45.50773339483216" lon="11.483802090555885"><ele>32.0</ele><time>2026-03-22T06:47:01Z</time></trkpt><trkpt lat="45.507623035966" lon="11.483873988811279"><ele>32.5</ele><time>2026-03-22T06:47:03Z</time></trkpt><trkpt lat="45.507509425059574" lon="11.483946399018938"><ele>33.0</ele><time>2026-03-22T06:47:05Z</time></trkpt><trkpt lat="45.50740036677499" lon="11.484019701325138"><ele>33.5</ele><time>2026-03-22T06:47:07Z</time></trkpt><trkpt lat="45.507293773034796" lon="11.484090862293295"><ele>34.0</ele><time>2026-03-22T06:47:09Z</time></trkpt><trkpt lat="45.507180969680036" lon="11.4841639014899"><ele>34.0</ele><time>2026-03-22T06:47:11Z</time></trkpt><trkpt lat="45.507078891905635" lon="11.48423408494521"><ele>34.0</ele><time>2026-03-22T06:47:13Z</time></trkpt><trkpt lat="45.50698125236688" lon="11.484298020709286"><ele>34.0</ele><time>2026-03-22T06:47:15Z</time></trkpt><trkpt lat="45.50689382331704" lon="11.484363258190763"><ele>34.0</ele><time>2026-03-22T06:47:16.999Z</time></trkpt><trkpt lat="45.50678832460901" lon="11.48442529262463"><ele>34.0</ele><time>2026-03-22T06:47:18.999Z</time></trkpt><trkpt lat="45.506684570405774" lon="11.484492139219899"><ele>33.8</ele><time>2026-03-22T06:47:20.999Z</time></trkpt><trkpt lat="45.50658100199277" lon="11.484559596853662"><ele>33.599999999999994</ele><time>2026-03-22T06:47:22.999Z</time></trkpt><trkpt lat="45.50647270616543" lon="11.4846228379239"><ele>33.4</ele><time>2026-03-22T06:47:24.999Z</time></trkpt><trkpt lat="45.50636895795129" lon="11.484687714853104"><ele>33.199999999999996</ele><time>2026-03-22T06:47:26.999Z</time></trkpt><trkpt lat="45.50627927300022" lon="11.484765119276897"><ele>33.0</ele><time>2026-03-22T06:47:28.999Z</time></trkpt><trkpt lat="45.506248281835475" lon="11.484916545651107"><ele>33.0</ele><time>2026-03-22T06:47:30.999Z</time></trkpt><trkpt lat="45.50630950394831" lon="11.485056025681224"><ele>33.0</ele><time>2026-03-22T06:47:32.999Z</time></trkpt><trkpt lat="45.50639608230368" lon="11.485180206117626"><ele>33.0</ele><time>2026-03-22T06:47:34.999Z</time></trkpt><trkpt lat="45.506439447397526" lon="11.485247370546855"><ele>33.0</ele><time>2026-03-22T06:47:35.999Z</time></trkpt><trkpt lat="45.50651343294353" lon="11.485375892178885"><ele>33.0</ele><time>2026-03-22T06:47:37.999Z</time></trkpt><trkpt lat="45.50657848039446" lon="11.48550127093512"><ele>33.6</ele><time>2026-03-22T06:47:39.999Z</time></trkpt><trkpt lat="45.50663360528268" lon="11.48562645978327"><ele>34.199999999999996</ele><time>2026-03-22T06:47:41.999Z</time></trkpt><trkpt lat="45.50668471036865" lon="11.485752124888071"><ele>34.8</ele><time>2026-03-22T06:47:43.999Z</time></trkpt><trkpt lat="45.50673684408531" lon="11.485894505687329"><ele>35.4</ele><time>2026-03-22T06:47:45.999Z</time></trkpt><trkpt lat="45.50677069292156" lon="11.486047091778847"><ele>36.0</ele><time>2026-03-22T06:47:47.999Z</time></trkpt><trkpt lat="45.506774206328835" lon="11.486214591707695"><ele>38.0</ele><time>2026-03-22T06:47:49.999Z</time></trkpt><trkpt lat="45.50677864212563" lon="11.486382539727293"><ele>40.0</ele><time>2026-03-22T06:47:51.999Z</time></trkpt><trkpt lat="45.506793202401944" lon="11.486550042563623"><ele>42.0</ele><time>2026-03-22T06:47:53.998Z</time></trkpt><trkpt lat="45.50680757058395" lon="11.48672512566913"><ele>44.0</ele><time>2026-03-22T06:47:55.998Z</time></trkpt><trkpt lat="45.506828247827286" lon="11.486882471301634"><ele>44.0</ele><time>2026-03-22T06:47:57.998Z</time></trkpt><trkpt lat="45.50686276781205" lon="11.487008442126893"><ele>44.0</ele><time>2026-03-22T06:47:59.998Z</time></trkpt><trkpt lat="45.50690131223188" lon="11.487118588757296"><ele>44.0</ele><time>2026-03-22T06:48:01.998Z</time></trkpt><trkpt lat="45.50695770940264" lon="11.487224465517496"><ele>44.0</ele><time>2026-03-22T06:48:03.998Z</time></trkpt><trkpt lat="45.5070180399414" lon="11.487344804816832"><ele>44.0</ele><time>2026-03-22T06:48:05.998Z</time></trkpt><trkpt lat="45.507087565288224" lon="11.487460280635172"><ele>42.800000000000004</ele><time>2026-03-22T06:48:07.998Z</time></trkpt><trkpt lat="45.50716160334351" lon="11.487578202863405"><ele>41.6</ele><time>2026-03-22T06:48:09.998Z</time></trkpt><trkpt lat="45.5072320270376" lon="11.487698659314951"><ele>40.4</ele><time>2026-03-22T06:48:11.998Z</time></trkpt><trkpt lat="45.50730623467527" lon="11.487816966330751"><ele>39.2</ele><time>2026-03-22T06:48:13.998Z</time></trkpt><trkpt lat="45.50738261366547" lon="11.487942561446816"><ele>38.0</ele><time>2026-03-22T06:48:15.998Z</time></trkpt><trkpt lat="45.5074619255496" lon="11.48807107751687"><ele>41.25</ele><time>2026-03-22T06:48:17.998Z</time></trkpt><trkpt lat="45.50754264694492" lon="11.488200023701355"><ele>44.5</ele><time>2026-03-22T06:48:19.998Z</time></trkpt><trkpt lat="45.5076211926282" lon="11.488324252073568"><ele>47.75</ele><time>2026-03-22T06:48:21.998Z</time></trkpt><trkpt lat="45.50769331418037" lon="11.488456468693139"><ele>51.0</ele><time>2026-03-22T06:48:23.998Z</time></trkpt><trkpt lat="45.507768400479065" lon="11.488572907066201"><ele>51.0</ele><time>2026-03-22T06:48:25.998Z</time></trkpt><trkpt lat="45.50784489560596" lon="11.488694941770405"><ele>51.0</ele><time>2026-03-22T06:48:27.998Z</time></trkpt><trkpt lat="45.50792156774309" lon="11.488824298295249"><ele>51.0</ele><time>2026-03-22T06:48:29.998Z</time></trkpt><trkpt lat="45.50799747061152" lon="11.488953493626825"><ele>51.0</ele><time>2026-03-22T06:48:31.997Z</time></trkpt><trkpt lat="45.508072803050645" lon="11.48907491766684"><ele>50.199999999999996</ele><time>2026-03-22T06:48:33.997Z</time></trkpt><trkpt lat="45.50814039633173" lon="11.489189631503121"><ele>49.4</ele><time>2026-03-22T06:48:35.997Z</time></trkpt><trkpt lat="45.50821072637891" lon="11.489300285050133"><ele>48.6</ele><time>2026-03-22T06:48:37.997Z</time></trkpt><trkpt lat="45.50828992495926" lon="11.489406648892903"><ele>47.8</ele><time>2026-03-22T06:48:39.997Z</time></trkpt><trkpt lat="45.50837203404748" lon="11.489522011601828"><ele>47.0</ele><time>2026-03-22T06:48:41.997Z</time></trkpt><trkpt lat="45.50845558919336" lon="11.489625577723235"><ele>45.4</ele><time>2026-03-22T06:48:43.997Z</time></trkpt><trkpt lat="45.50854075546113" lon="11.489728730176326"><ele>43.800000000000004</ele><time>2026-03-22T06:48:45.997Z</time></trkpt><trkpt lat="45.508619062909744" lon="11.489824033703135"><ele>42.2</ele><time>2026-03-22T06:48:47.997Z</time></trkpt><trkpt lat="45.508691945764554" lon="11.489907329726849"><ele>40.6</ele><time>2026-03-22T06:48:49.997Z</time></trkpt><trkpt lat="45.50877150860973" lon="11.490003039630135"><ele>39.0</ele><time>2026-03-22T06:48:52Z</time></trkpt><trkpt lat="45.508855502550894" lon="11.490109452472966"><ele>39.0</ele><time>2026-03-22T06:48:54Z</time></trkpt><trkpt lat="45.508938054759405" lon="11.490207470096593"><ele>39.0</ele><time>2026-03-22T06:48:56Z</time></trkpt><trkpt lat="45.509020936326024" lon="11.490324197106922"><ele>39.0</ele><time>2026-03-22T06:48:58Z</time></trkpt><trkpt lat="45.50910335603391" lon="11.490440361934022"><ele>39.0</ele><time>2026-03-22T06:49:00Z</time></trkpt><trkpt lat="45.509182376099595" lon="11.490566226392888"><ele>42.5</ele><time>2026-03-22T06:49:02Z</time></trkpt><trkpt lat="45.509261882458574" lon="11.490694534121033"><ele>46.0</ele><time>2026-03-22T06:49:04Z</time></trkpt><trkpt lat="45.50934196637546" lon="11.490816505478069"><ele>49.5</ele><time>2026-03-22T06:49:06Z</time></trkpt><trkpt lat="45.50942179827871" lon="11.490950347701762"><ele>53.0</ele><time>2026-03-22T06:49:08Z</time></trkpt><trkpt lat="45.509500184314284" lon="11.49106423549254"><ele>52.4</ele><time>2026-03-22T06:49:10Z</time></trkpt><trkpt lat="45.50957857690463" lon="11.491179124203928"><ele>51.8</ele><time>2026-03-22T06:49:12Z</time></trkpt><trkpt lat="45.50966377001362" lon="11.491277925794494"><ele>51.2</ele><time>2026-03-22T06:49:14Z</time></trkpt><trkpt lat="45.50975064087442" lon="11.491375822426434"><ele>50.6</ele><time>2026-03-22T06:49:16Z</time></trkpt><trkpt lat="45.509842206028566" lon="11.491466274520537"><ele>50.0</ele><time>2026-03-22T06:49:18Z</time></trkpt><trkpt lat="45.50993117302433" lon="11.491551879976688"><ele>50.0</ele><time>2026-03-22T06:49:20Z</time></trkpt><trkpt lat="45.510022013349854" lon="11.491632981208573"><ele>50.0</ele><time>2026-03-22T06:49:21.999Z</time></trkpt><trkpt lat="45.51011074503496" lon="11.491704077320271"><ele>50.0</ele><time>2026-03-22T06:49:23.999Z</time></trkpt><trkpt lat="45.5101999345567" lon="11.491782043686452"><ele>50.0</ele><time>2026-03-22T06:49:25.999Z</time></trkpt><trkpt lat="45.510286138968624" lon="11.491857624114456"><ele>50.0</ele><time>2026-03-22T06:49:27.999Z</time></trkpt><trkpt lat="45.51037947570838" lon="11.491937985074456"><ele>49.2</ele><time>2026-03-22T06:49:29.999Z</time></trkpt><trkpt lat="45.51048382059797" lon="11.492029288329686"><ele>48.4</ele><time>2026-03-22T06:49:31.999Z</time></trkpt><trkpt lat="45.51058736297347" lon="11.492122703035298"><ele>47.599999999999994</ele><time>2026-03-22T06:49:33.999Z</time></trkpt><trkpt lat="45.510691210016255" lon="11.492222692276998"><ele>46.8</ele><time>2026-03-22T06:49:35.999Z</time></trkpt><trkpt lat="45.510742825273304" lon="11.492274294389155"><ele>46.0</ele><time>2026-03-22T06:49:36.999Z</time></trkpt><trkpt lat="45.51079560481767" lon="11.492328818008684"><ele>46.0</ele><time>2026-03-22T06:49:37.999Z</time></trkpt><trkpt lat="45.51084882006178" lon="11.492379470113299"><ele>46.0</ele><time>2026-03-22T06:49:38.999Z</time></trkpt><trkpt lat="45.510900574954015" lon="11.492437884411343"><ele>46.0</ele><time>2026-03-22T06:49:39.999Z</time></trkpt><trkpt lat="45.51095454885003" lon="11.49249562003534"><ele>46.0</ele><time>2026-03-22T06:49:40.999Z</time></trkpt><trkpt lat="45.511008347200466" lon="11.492555393924489"><ele>46.0</ele><time>2026-03-22T06:49:41.999Z</time></trkpt><trkpt lat="45.511060237678954" lon="11.492616127126999"><ele>46.0</ele><time>2026-03-22T06:49:42.999Z</time></trkpt><trkpt lat="45.51110681394341" lon="11.49268547238402"><ele>46.0</ele><time>2026-03-22T06:49:43.999Z</time></trkpt><trkpt lat="45.51115032652824" lon="11.492754480991165"><ele>46.0</ele><time>2026-03-22T06:49:44.999Z</time></trkpt><trkpt lat="45.51118880282576" lon="11.492826473091426"><ele>46.0</ele><time>2026-03-22T06:49:45.999Z</time></trkpt><trkpt lat="45.5112544972829" lon="11.492965191304055"><ele>46.0</ele><time>2026-03-22T06:49:47.999Z</time></trkpt><trkpt lat="45.511300076901215" lon="11.493108400169525"><ele>46.0</ele><time>2026-03-22T06:49:49.999Z</time></trkpt><trkpt lat="45.5113409503448" lon="11.493245869862003"><ele>46.0</ele><time>2026-03-22T06:49:51.999Z</time></trkpt><trkpt lat="45.51138288324753" lon="11.493394017577861"><ele>45.25</ele><time>2026-03-22T06:49:53.999Z</time></trkpt><trkpt lat="45.511426343405894" lon="11.493542919192551"><ele>44.5</ele><time>2026-03-22T06:49:55.999Z</time></trkpt><trkpt lat="45.511471039772985" lon="11.493697177513917"><ele>43.75</ele><time>2026-03-22T06:49:57.999Z</time></trkpt><trkpt lat="45.51151651370707" lon="11.49385916737686"><ele>43.0</ele><time>2026-03-22T06:49:59.998Z</time></trkpt><trkpt lat="45.51156550037954" lon="11.494010735085457"><ele>43.0</ele><time>2026-03-22T06:50:01.998Z</time></trkpt><trkpt lat="45.51161890517417" lon="11.49416925919308"><ele>43.0</ele><time>2026-03-22T06:50:03.998Z</time></trkpt><trkpt lat="45.511675625581326" lon="11.494310294167155"><ele>43.0</ele><time>2026-03-22T06:50:05.998Z</time></trkpt><trkpt lat="45.51173345000522" lon="11.494441733716572"><ele>43.0</ele><time>2026-03-22T06:50:07.998Z</time></trkpt><trkpt lat="45.51179193095565" lon="11.494559664253092"><ele>43.0</ele><time>2026-03-22T06:50:09.998Z</time></trkpt><trkpt lat="45.51186384245284" lon="11.494699710670618"><ele>42.0</ele><time>2026-03-22T06:50:11.998Z</time></trkpt><trkpt lat="45.511935883483844" lon="11.494827995123133"><ele>41.0</ele><time>2026-03-22T06:50:13.998Z</time></trkpt><trkpt lat="45.51200402265216" lon="11.49497086632632"><ele>40.0</ele><time>2026-03-22T06:50:15.998Z</time></trkpt><trkpt lat="45.51206836691026" lon="11.495113394247513"><ele>39.0</ele><time>2026-03-22T06:50:17.998Z</time></trkpt><trkpt lat="45.51213112515415" lon="11.495256451081898"><ele>39.0</ele><time>2026-03-22T06:50:19.998Z</time></trkpt><trkpt lat="45.51219002173567" lon="11.495398563476664"><ele>39.0</ele><time>2026-03-22T06:50:21.998Z</time></trkpt><trkpt lat="45.51224403446089" lon="11.495546498612208"><ele>39.0</ele><time>2026-03-22T06:50:23.998Z</time></trkpt><trkpt lat="45.512290933012125" lon="11.495681662018065"><ele>39.0</ele><time>2026-03-22T06:50:25.998Z</time></trkpt><trkpt lat="45.512331468549796" lon="11.495812200091356"><ele>39.0</ele><time>2026-03-22T06:50:27.998Z</time></trkpt><trkpt lat="45.51236804886075" lon="11.495950146454884"><ele>39.4</ele><time>2026-03-22T06:50:29.998Z</time></trkpt><trkpt lat="45.51238234538589" lon="11.496081157394643"><ele>39.8</ele><time>2026-03-22T06:50:31.998Z</time></trkpt><trkpt lat="45.51238795258744" lon="11.496213015007418"><ele>40.199999999999996</ele><time>2026-03-22T06:50:33.998Z</time></trkpt><trkpt lat="45.51237628838788" lon="11.496358516874615"><ele>40.599999999999994</ele><time>2026-03-22T06:50:35.998Z</time></trkpt><trkpt lat="45.51234444002702" lon="11.496508125663256"><ele>41.0</ele><time>2026-03-22T06:50:37.997Z</time></trkpt><trkpt lat="45.512288454984194" lon="11.496654562406663"><ele>41.199999999999996</ele><time>2026-03-22T06:50:39.997Z</time></trkpt><trkpt lat="45.512209246592505" lon="11.496783797458747"><ele>41.4</ele><time>2026-03-22T06:50:41.997Z</time></trkpt><trkpt lat="45.51213876288596" lon="11.496907947435684"><ele>41.6</ele><time>2026-03-22T06:50:43.997Z</time></trkpt><trkpt lat="45.51206450987703" lon="11.497043027580366"><ele>41.8</ele><time>2026-03-22T06:50:45.997Z</time></trkpt><trkpt lat="45.51202219829393" lon="11.497110812906989"><ele>42.0</ele><time>2026-03-22T06:50:46.997Z</time></trkpt><trkpt lat="45.51194764339007" lon="11.497246316011012"><ele>44.2</ele><time>2026-03-22T06:50:48.997Z</time></trkpt><trkpt lat="45.511905989187284" lon="11.497314438795122"><ele>46.400000000000006</ele><time>2026-03-22T06:50:49.997Z</time></trkpt><trkpt lat="45.511830504926046" lon="11.497447612211342"><ele>48.599999999999994</ele><time>2026-03-22T06:50:51.997Z</time></trkpt><trkpt lat="45.51175722064887" lon="11.497581575580924"><ele>50.8</ele><time>2026-03-22T06:50:53.997Z</time></trkpt><trkpt lat="45.51169145438094" lon="11.497710635209344"><ele>53.0</ele><time>2026-03-22T06:50:55.997Z</time></trkpt><trkpt lat="45.511627278282624" lon="11.497839642187952"><ele>50.0</ele><time>2026-03-22T06:50:58Z</time></trkpt><trkpt lat="45.511571351434384" lon="11.497980374778193"><ele>47.0</ele><time>2026-03-22T06:51:00Z</time></trkpt><trkpt lat="45.51152413663333" lon="11.49813445258203"><ele>44.0</ele><time>2026-03-22T06:51:02Z</time></trkpt><trkpt lat="45.511510531861184" lon="11.498307762905506"><ele>41.0</ele><time>2026-03-22T06:51:04Z</time></trkpt><trkpt lat="45.511529830648946" lon="11.498482617943688"><ele>41.0</ele><time>2026-03-22T06:51:06Z</time></trkpt><trkpt lat="45.51156036925635" lon="11.498642939024695"><ele>41.0</ele><time>2026-03-22T06:51:08Z</time></trkpt><trkpt lat="45.51160167594626" lon="11.498794145785029"><ele>41.0</ele><time>2026-03-22T06:51:10Z</time></trkpt><trkpt lat="45.51164843099634" lon="11.49893156034378"><ele>41.0</ele><time>2026-03-22T06:51:12Z</time></trkpt><trkpt lat="45.51169198586287" lon="11.49907197718138"><ele>41.0</ele><time>2026-03-22T06:51:14Z</time></trkpt><trkpt lat="45.51173085228636" lon="11.499203394060501"><ele>40.5</ele><time>2026-03-22T06:51:16Z</time></trkpt><trkpt lat="45.51176378874963" lon="11.499346288770209"><ele>40.0</ele><time>2026-03-22T06:51:18Z</time></trkpt><trkpt lat="45.511790229129424" lon="11.499510219535864"><ele>39.5</ele><time>2026-03-22T06:51:20Z</time></trkpt><trkpt lat="45.51181442262704" lon="11.499678782396387"><ele>39.0</ele><time>2026-03-22T06:51:22Z</time></trkpt><trkpt lat="45.51183412262714" lon="11.499844219124817"><ele>40.0</ele><time>2026-03-22T06:51:24Z</time></trkpt><trkpt lat="45.51184484330921" lon="11.499932889214785"><ele>41.0</ele><time>2026-03-22T06:51:25Z</time></trkpt><trkpt lat="45.51186303577048" lon="11.5001002629015"><ele>42.0</ele><time>2026-03-22T06:51:27Z</time></trkpt><trkpt lat="45.51187358894171" lon="11.500191066289577"><ele>43.0</ele><time>2026-03-22T06:51:27.999Z</time></trkpt><trkpt lat="45.51188955613214" lon="11.500360023332275"><ele>44.0</ele><time>2026-03-22T06:51:29.999Z</time></trkpt><trkpt lat="45.51191022742986" lon="11.500524621578814"><ele>45.0</ele><time>2026-03-22T06:51:31.999Z</time></trkpt><trkpt lat="45.511922765357696" lon="11.500679102310258"><ele>46.0</ele><time>2026-03-22T06:51:33.999Z</time></trkpt><trkpt lat="45.51193574677821" lon="11.500817786094174"><ele>47.0</ele><time>2026-03-22T06:51:35.999Z</time></trkpt><trkpt lat="45.51193736464019" lon="11.500965153100463"><ele>48.0</ele><time>2026-03-22T06:51:37.999Z</time></trkpt><trkpt lat="45.511938626271046" lon="11.501106584993368"><ele>49.0</ele><time>2026-03-22T06:51:39.999Z</time></trkpt><trkpt lat="45.51194441953351" lon="11.501250235081821"><ele>49.5</ele><time>2026-03-22T06:51:41.999Z</time></trkpt><trkpt lat="45.511949634430664" lon="11.501408073940445"><ele>50.0</ele><time>2026-03-22T06:51:43.999Z</time></trkpt><trkpt lat="45.51196997999225" lon="11.501576980501111"><ele>50.5</ele><time>2026-03-22T06:51:45.999Z</time></trkpt><trkpt lat="45.511998542361546" lon="11.501738435583011"><ele>51.0</ele><time>2026-03-22T06:51:47.999Z</time></trkpt><trkpt lat="45.51204381954834" lon="11.50189991728627"><ele>46.8</ele><time>2026-03-22T06:51:49.999Z</time></trkpt><trkpt lat="45.5120935770046" lon="11.502045791942232"><ele>42.599999999999994</ele><time>2026-03-22T06:51:51.999Z</time></trkpt><trkpt lat="45.512154914093216" lon="11.502174448579384"><ele>38.4</ele><time>2026-03-22T06:51:53.999Z</time></trkpt><trkpt lat="45.51221404676563" lon="11.502287897977165"><ele>34.2</ele><time>2026-03-22T06:51:55.999Z</time></trkpt><trkpt lat="45.512269555561176" lon="11.5024071351596"><ele>30.0</ele><time>2026-03-22T06:51:57.999Z</time></trkpt><trkpt lat="45.51232984655402" lon="11.502540478884267"><ele>30.0</ele><time>2026-03-22T06:51:59.999Z</time></trkpt><trkpt lat="45.51238228910654" lon="11.502674810460913"><ele>30.0</ele><time>2026-03-22T06:52:01.999Z</time></trkpt><trkpt lat="45.5124292056766" lon="11.502821200185908"><ele>30.0</ele><time>2026-03-22T06:52:03.999Z</time></trkpt><trkpt lat="45.51248221467041" lon="11.502972341135491"><ele>30.0</ele><time>2026-03-22T06:52:05.998Z</time></trkpt><trkpt lat="45.51253543126238" lon="11.50311979116567"><ele>33.6</ele><time>2026-03-22T06:52:07.998Z</time></trkpt><trkpt lat="45.51258764263688" lon="11.5032697917742"><ele>37.2</ele><time>2026-03-22T06:52:09.998Z</time></trkpt><trkpt lat="45.51265726170615" lon="11.503408088021915"><ele>40.8</ele><time>2026-03-22T06:52:11.998Z</time></trkpt><trkpt lat="45.512731902609694" lon="11.503539345945518"><ele>44.4</ele><time>2026-03-22T06:52:13.998Z</time></trkpt><trkpt lat="45.512772136041285" lon="11.503609294317142"><ele>48.0</ele><time>2026-03-22T06:52:14.998Z</time></trkpt><trkpt lat="45.51284465870393" lon="11.503739507373563"><ele>50.8</ele><time>2026-03-22T06:52:16.998Z</time></trkpt><trkpt lat="45.51290143339479" lon="11.503854271695895"><ele>53.599999999999994</ele><time>2026-03-22T06:52:18.998Z</time></trkpt><trkpt lat="45.512952641184995" lon="11.50394914310551"><ele>56.400000000000006</ele><time>2026-03-22T06:52:20.998Z</time></trkpt><trkpt lat="45.5130216887053" lon="11.504059314376171"><ele>59.2</ele><time>2026-03-22T06:52:22.998Z</time></trkpt><trkpt lat="45.513085721453706" lon="11.504171541839199"><ele>62.0</ele><time>2026-03-22T06:52:24.998Z</time></trkpt><trkpt lat="45.51314348195977" lon="11.504281430976247"><ele>55.6</ele><time>2026-03-22T06:52:26.998Z</time></trkpt><trkpt lat="45.51320454853217" lon="11.50438584263954"><ele>49.2</ele><time>2026-03-22T06:52:28.998Z</time></trkpt><trkpt lat="45.51327174401765" lon="11.504490483068302"><ele>42.8</ele><time>2026-03-22T06:52:30.998Z</time></trkpt><trkpt lat="45.51334985721228" lon="11.504577749568584"><ele>36.4</ele><time>2026-03-22T06:52:32.998Z</time></trkpt><trkpt lat="45.51344746584844" lon="11.504537921079114"><ele>30.0</ele><time>2026-03-22T06:52:34.998Z</time></trkpt><trkpt lat="45.51352334158463" lon="11.504450061007619"><ele>30.0</ele><time>2026-03-22T06:52:36.998Z</time></trkpt><trkpt lat="45.51360893497222" lon="11.504371366231124"><ele>30.0</ele><time>2026-03-22T06:52:38.998Z</time></trkpt><trkpt lat="45.51371599320652" lon="11.50427293185645"><ele>30.0</ele><time>2026-03-22T06:52:40.998Z</time></trkpt><trkpt lat="45.51376804063934" lon="11.504219435107032"><ele>30.0</ele><time>2026-03-22T06:52:41.997Z</time></trkpt><trkpt lat="45.513852437558526" lon="11.50414160409727"><ele>30.0</ele><time>2026-03-22T06:52:43.997Z</time></trkpt><trkpt lat="45.51392003379063" lon="11.50408953253165"><ele>30.0</ele><time>2026-03-22T06:52:45.997Z</time></trkpt><trkpt lat="45.51386572609162" lon="11.504146088233874"><ele>30.0</ele><time>2026-03-22T06:54:37.998Z</time></trkpt><trkpt lat="45.513798665652494" lon="11.504210398134331"><ele>30.0</ele><time>2026-03-22T06:54:39.998Z</time></trkpt><trkpt lat="45.513723821548695" lon="11.504281241805133"><ele>30.0</ele><time>2026-03-22T06:54:41.998Z</time></trkpt><trkpt lat="45.51365717566177" lon="11.504344418401013"><ele>30.0</ele><time>2026-03-22T06:54:43.998Z</time></trkpt><trkpt lat="45.513593816015195" lon="11.504412673898932"><ele>30.0</ele><time>2026-03-22T06:54:45.998Z</time></trkpt><trkpt lat="45.51352182198247" lon="11.504469281869037"><ele>30.0</ele><time>2026-03-22T06:54:47.997Z</time></trkpt><trkpt lat="45.51345090976876" lon="11.504532066639864"><ele>30.0</ele><time>2026-03-22T06:54:49.997Z</time></trkpt><trkpt lat="45.51339652271606" lon="11.504586821831747"><ele>30.0</ele><time>2026-03-22T06:54:51.997Z</time></trkpt><trkpt lat="45.51336193649586" lon="11.504722026950425"><ele>30.0</ele><time>2026-03-22T06:54:54.997Z</time></trkpt><trkpt lat="45.51339021648166" lon="11.504872745892111"><ele>30.0</ele><time>2026-03-22T06:54:56.997Z</time></trkpt><trkpt lat="45.51342393437699" lon="11.505013900616625"><ele>31.6</ele><time>2026-03-22T06:54:58.997Z</time></trkpt><trkpt lat="45.51344299388225" lon="11.505152728349813"><ele>33.2</ele><time>2026-03-22T06:55:00.997Z</time></trkpt><trkpt lat="45.51345930995954" lon="11.505284623408844"><ele>34.8</ele><time>2026-03-22T06:55:02.997Z</time></trkpt><trkpt lat="45.513476631476344" lon="11.505401299051373"><ele>36.4</ele><time>2026-03-22T06:55:04.997Z</time></trkpt><trkpt lat="45.51349965639892" lon="11.505513750997851"><ele>38.0</ele><time>2026-03-22T06:55:06.997Z</time></trkpt><trkpt lat="45.51352560000929" lon="11.505658116965348"><ele>38.0</ele><time>2026-03-22T06:55:09Z</time></trkpt><trkpt lat="45.51354235020844" lon="11.505823589106592"><ele>38.0</ele><time>2026-03-22T06:55:11Z</time></trkpt><trkpt lat="45.513563499365596" lon="11.505996382059578"><ele>38.0</ele><time>2026-03-22T06:55:13Z</time></trkpt><trkpt lat="45.513591303061375" lon="11.506175227542064"><ele>38.0</ele><time>2026-03-22T06:55:15Z</time></trkpt><trkpt lat="45.51361754647478" lon="11.506344766860222"><ele>36.6</ele><time>2026-03-22T06:55:17Z</time></trkpt><trkpt lat="45.51363389326484" lon="11.50643289933366"><ele>35.199999999999996</ele><time>2026-03-22T06:55:18Z</time></trkpt><trkpt lat="45.51364583345406" lon="11.506524093555754"><ele>33.8</ele><time>2026-03-22T06:55:19Z</time></trkpt><trkpt lat="45.5136819050264" lon="11.506701687126716"><ele>32.4</ele><time>2026-03-22T06:55:21Z</time></trkpt><trkpt lat="45.513678339688326" lon="11.506866883282154"><ele>31.0</ele><time>2026-03-22T06:55:23Z</time></trkpt><trkpt lat="45.51359289424628" lon="11.506966773011097"><ele>31.0</ele><time>2026-03-22T06:55:25Z</time></trkpt><trkpt lat="45.51348657785376" lon="11.50700312219553"><ele>31.0</ele><time>2026-03-22T06:55:27Z</time></trkpt><trkpt lat="45.51338548742562" lon="11.507015667195835"><ele>31.0</ele><time>2026-03-22T06:55:29Z</time></trkpt><trkpt lat="45.51327555314429" lon="11.507039668821244"><ele>31.0</ele><time>2026-03-22T06:55:31Z</time></trkpt><trkpt lat="45.51316895846365" lon="11.507030852483883"><ele>31.0</ele><time>2026-03-22T06:55:33Z</time></trkpt><trkpt lat="45.51306039229623" lon="11.5069676057723"><ele>31.0</ele><time>2026-03-22T06:55:35Z</time></trkpt><trkpt lat="45.51295928573654" lon="11.506900854118493"><ele>31.0</ele><time>2026-03-22T06:55:37Z</time></trkpt><trkpt lat="45.51285877676238" lon="11.506840964652993"><ele>31.0</ele><time>2026-03-22T06:55:39Z</time></trkpt><trkpt lat="45.51274620319816" lon="11.506787206429276"><ele>31.0</ele><time>2026-03-22T06:55:40.999Z</time></trkpt><trkpt lat="45.512645992651976" lon="11.506723268063178"><ele>31.0</ele><time>2026-03-22T06:55:42.999Z</time></trkpt><trkpt lat="45.51254808683943" lon="11.506644853308435"><ele>31.4</ele><time>2026-03-22T06:55:44.999Z</time></trkpt><trkpt lat="45.512456681222204" lon="11.506590380277494"><ele>31.8</ele><time>2026-03-22T06:55:46.999Z</time></trkpt><trkpt lat="45.51236619014232" lon="11.506526040885268"><ele>32.199999999999996</ele><time>2026-03-22T06:55:48.999Z</time></trkpt><trkpt lat="45.51226510461222" lon="11.506456018157573"><ele>32.6</ele><time>2026-03-22T06:55:50.999Z</time></trkpt><trkpt lat="45.512157740901635" lon="11.506397765388133"><ele>33.0</ele><time>2026-03-22T06:55:52.999Z</time></trkpt><trkpt lat="45.51205459837338" lon="11.506330536001766"><ele>33.0</ele><time>2026-03-22T06:55:54.999Z</time></trkpt><trkpt lat="45.51196564638498" lon="11.506266358622135"><ele>33.0</ele><time>2026-03-22T06:55:56.999Z</time></trkpt><trkpt lat="45.51188696486611" lon="11.506202772021975"><ele>33.0</ele><time>2026-03-22T06:55:58.999Z</time></trkpt><trkpt lat="45.5117962256013" lon="11.50614318255847"><ele>33.0</ele><time>2026-03-22T06:56:00.999Z</time></trkpt><trkpt lat="45.5117123640545" lon="11.5061006944404"><ele>33.0</ele><time>2026-03-22T06:56:02.999Z</time></trkpt><trkpt lat="45.51163252612477" lon="11.506089902575246"><ele>33.0</ele><time>2026-03-22T06:56:04.999Z</time></trkpt><trkpt lat="45.51156623338497" lon="11.506081450079611"><ele>33.0</ele><time>2026-03-22T06:56:06.999Z</time></trkpt><trkpt lat="45.511514413735625" lon="11.50616367077179"><ele>33.0</ele><time>2026-03-22T06:56:08.999Z</time></trkpt><trkpt lat="45.511491088421174" lon="11.506315977565581"><ele>33.0</ele><time>2026-03-22T06:56:10.999Z</time></trkpt><trkpt lat="45.51145158136267" lon="11.506463948647744"><ele>33.0</ele><time>2026-03-22T06:56:12.999Z</time></trkpt><trkpt lat="45.51140625596562" lon="11.506615396898232"><ele>33.0</ele><time>2026-03-22T06:56:14.999Z</time></trkpt><trkpt lat="45.51136917592399" lon="11.506758856103053"><ele>33.0</ele><time>2026-03-22T06:56:16.999Z</time></trkpt><trkpt lat="45.511330879460154" lon="11.50688997563756"><ele>33.0</ele><time>2026-03-22T06:56:18.998Z</time></trkpt><trkpt lat="45.51129174661519" lon="11.507002415749962"><ele>33.0</ele><time>2026-03-22T06:56:20.998Z</time></trkpt><trkpt lat="45.511238210719625" lon="11.507065198265671"><ele>33.0</ele><time>2026-03-22T06:56:22.998Z</time></trkpt><trkpt lat="45.511156732519424" lon="11.507058793664912"><ele>33.0</ele><time>2026-03-22T06:56:24.998Z</time></trkpt><trkpt lat="45.51105832216395" lon="11.507000696570444"><ele>33.199999999999996</ele><time>2026-03-22T06:56:26.998Z</time></trkpt><trkpt lat="45.51095219600948" lon="11.506955555801344"><ele>33.4</ele><time>2026-03-22T06:56:28.998Z</time></trkpt><trkpt lat="45.51085081902276" lon="11.506931026051026"><ele>33.599999999999994</ele><time>2026-03-22T06:56:30.998Z</time></trkpt><trkpt lat="45.510731473264926" lon="11.50694387222912"><ele>33.8</ele><time>2026-03-22T06:56:32.998Z</time></trkpt><trkpt lat="45.51062244930019" lon="11.506920501543386"><ele>34.0</ele><time>2026-03-22T06:56:34.998Z</time></trkpt><trkpt lat="45.51051000538658" lon="11.50686381154177"><ele>34.5</ele><time>2026-03-22T06:56:36.998Z</time></trkpt><trkpt lat="45.51039688413109" lon="11.506813028852607"><ele>35.0</ele><time>2026-03-22T06:56:38.998Z</time></trkpt><trkpt lat="45.510281409953656" lon="11.50676637549142"><ele>35.5</ele><time>2026-03-22T06:56:40.998Z</time></trkpt><trkpt lat="45.5101694020691" lon="11.506720600715019"><ele>36.0</ele><time>2026-03-22T06:56:42.998Z</time></trkpt><trkpt lat="45.51005376626046" lon="11.506670577405655"><ele>36.0</ele><time>2026-03-22T06:56:44.998Z</time></trkpt><trkpt lat="45.50993694440232" lon="11.506628349331583"><ele>36.0</ele><time>2026-03-22T06:56:46.998Z</time></trkpt><trkpt lat="45.50983288452866" lon="11.50659556637494"><ele>36.0</ele><time>2026-03-22T06:56:48.998Z</time></trkpt><trkpt lat="45.50977271077258" lon="11.506653263823008"><ele>36.0</ele><time>2026-03-22T06:56:50.998Z</time></trkpt><trkpt lat="45.50978667157286" lon="11.506766561648561"><ele>36.0</ele><time>2026-03-22T06:56:52.998Z</time></trkpt><trkpt lat="45.50970982712957" lon="11.506826699383062"><ele>36.0</ele><time>2026-03-22T06:56:56.997Z</time></trkpt><trkpt lat="45.50962184242313" lon="11.506808162812828"><ele>36.0</ele><time>2026-03-22T06:56:58.997Z</time></trkpt><trkpt lat="45.509525657069" lon="11.506798060101657"><ele>36.0</ele><time>2026-03-22T06:57:00.997Z</time></trkpt><trkpt lat="45.509442368583976" lon="11.506786321317556"><ele>36.0</ele><time>2026-03-22T06:57:02.997Z</time></trkpt><trkpt lat="45.50936852870902" lon="11.50678365215445"><ele>36.0</ele><time>2026-03-22T06:57:04.997Z</time></trkpt><trkpt lat="45.50928353030907" lon="11.506784927303883"><ele>36.0</ele><time>2026-03-22T06:57:07.997Z</time></trkpt><trkpt lat="45.50929437291405" lon="11.506927387996043"><ele>35.85714285714286</ele><time>2026-03-22T06:57:10.997Z</time></trkpt><trkpt lat="45.50931340274406" lon="11.50702132349272"><ele>35.714285714285715</ele><time>2026-03-22T06:57:13.997Z</time></trkpt><trkpt lat="45.509303239548395" lon="11.507123552198307"><ele>35.57142857142857</ele><time>2026-03-22T06:57:18Z</time></trkpt><trkpt lat="45.509346459132004" lon="11.507214631126962"><ele>35.42857142857143</ele><time>2026-03-22T06:57:23Z</time></trkpt><trkpt lat="45.50937621199027" lon="11.507309742188827"><ele>35.285714285714285</ele><time>2026-03-22T06:57:26Z</time></trkpt><trkpt lat="45.50931417207407" lon="11.507338811765022"><ele>35.142857142857146</ele><time>2026-03-22T06:59:34Z</time></trkpt><trkpt lat="45.509243260575666" lon="11.507328741746223"><ele>35.0</ele><time>2026-03-22T06:59:38Z</time></trkpt><trkpt lat="45.50916289680556" lon="11.507346788075216"><ele>34.857142857142854</ele><time>2026-03-22T06:59:41Z</time></trkpt><trkpt lat="45.5091039524029" lon="11.507290775886426"><ele>34.714285714285715</ele><time>2026-03-22T06:59:44Z</time></trkpt><trkpt lat="45.50905068247468" lon="11.507239009494837"><ele>34.57142857142857</ele><time>2026-03-22T06:59:48Z</time></trkpt><trkpt lat="45.50897782638403" lon="11.50720413305028"><ele>34.42857142857143</ele><time>2026-03-22T07:00:41.998Z</time></trkpt><trkpt lat="45.5089038032498" lon="11.507214819260849"><ele>34.285714285714285</ele><time>2026-03-22T07:00:45.998Z</time></trkpt><trkpt lat="45.50886452015602" lon="11.507296236085184"><ele>34.14285714285714</ele><time>2026-03-22T07:00:48.998Z</time></trkpt><trkpt lat="45.50880613698387" lon="11.507339498249438"><ele>34.0</ele><time>2026-03-22T07:00:52.998Z</time></trkpt><trkpt lat="45.508736913555374" lon="11.50730432754395"><ele>33.857142857142854</ele><time>2026-03-22T07:03:29.997Z</time></trkpt><trkpt lat="45.508732150741714" lon="11.507403997114954"><ele>33.714285714285715</ele><time>2026-03-22T07:08:00Z</time></trkpt><trkpt lat="45.50868778748274" lon="11.507478580723827"><ele>33.57142857142857</ele><time>2026-03-22T07:08:03Z</time></trkpt><trkpt lat="45.50863815725298" lon="11.507555906114808"><ele>33.42857142857143</ele><time>2026-03-22T07:08:06Z</time></trkpt><trkpt lat="45.508574462509685" lon="11.507618173952372"><ele>33.285714285714285</ele><time>2026-03-22T07:08:09Z</time></trkpt><trkpt lat="45.50851757826866" lon="11.507668623263015"><ele>33.14285714285714</ele><time>2026-03-22T07:08:12Z</time></trkpt><trkpt lat="45.508442736747355" lon="11.507736728333553"><ele>33.0</ele><time>2026-03-22T07:08:15Z</time></trkpt><trkpt lat="45.50836307402345" lon="11.507809336151766"><ele>33.0</ele><time>2026-03-22T07:08:17.999Z</time></trkpt><trkpt lat="45.50830743841079" lon="11.507856372013162"><ele>33.0</ele><time>2026-03-22T07:08:19.999Z</time></trkpt><trkpt lat="45.50823418442746" lon="11.507907157477078"><ele>33.0</ele><time>2026-03-22T07:08:22.999Z</time></trkpt><trkpt lat="45.5081669365743" lon="11.507963676272889"><ele>33.0</ele><time>2026-03-22T07:08:24.999Z</time></trkpt><trkpt lat="45.50810184384201" lon="11.508022194158038"><ele>33.0</ele><time>2026-03-22T07:08:26.999Z</time></trkpt><trkpt lat="45.50802402287251" lon="11.508081185424635"><ele>33.0</ele><time>2026-03-22T07:08:28.999Z</time></trkpt><trkpt lat="45.50795704167649" lon="11.508143422232116"><ele>33.0</ele><time>2026-03-22T07:08:30.999Z</time></trkpt><trkpt lat="45.50788224908569" lon="11.508230633653115"><ele>33.0</ele><time>2026-03-22T07:08:32.999Z</time></trkpt><trkpt lat="45.507809699818544" lon="11.50831698718909"><ele>33.0</ele><time>2026-03-22T07:08:34.999Z</time></trkpt><trkpt lat="45.50773962899665" lon="11.508411943193229"><ele>33.0</ele><time>2026-03-22T07:08:36.999Z</time></trkpt><trkpt lat="45.50766198253555" lon="11.508504791609804"><ele>33.0</ele><time>2026-03-22T07:08:38.999Z</time></trkpt><trkpt lat="45.507590854469" lon="11.508593650936932"><ele>33.0</ele><time>2026-03-22T07:08:40.999Z</time></trkpt><trkpt lat="45.50752510479263" lon="11.508675520099056"><ele>33.0</ele><time>2026-03-22T07:08:42.999Z</time></trkpt><trkpt lat="45.50745220241273" lon="11.508766872774187"><ele>33.0</ele><time>2026-03-22T07:08:44.999Z</time></trkpt><trkpt lat="45.50738542130266" lon="11.508855786490699"><ele>33.0</ele><time>2026-03-22T07:08:46.999Z</time></trkpt><trkpt lat="45.50731834545599" lon="11.508938630551825"><ele>33.0</ele><time>2026-03-22T07:08:48.999Z</time></trkpt><trkpt lat="45.50725388366139" lon="11.509023616784155"><ele>33.0</ele><time>2026-03-22T07:08:50.999Z</time></trkpt><trkpt lat="45.50718877192574" lon="11.509106083277752"><ele>33.0</ele><time>2026-03-22T07:08:52.999Z</time></trkpt><trkpt lat="45.507119970774625" lon="11.509195988473742"><ele>33.0</ele><time>2026-03-22T07:08:54.998Z</time></trkpt><trkpt lat="45.50705137955135" lon="11.509275296830683"><ele>33.0</ele><time>2026-03-22T07:08:56.998Z</time></trkpt><trkpt lat="45.50698041796147" lon="11.509368243468012"><ele>33.0</ele><time>2026-03-22T07:08:58.998Z</time></trkpt><trkpt lat="45.50691371628712" lon="11.509451039382892"><ele>33.0</ele><time>2026-03-22T07:09:00.998Z</time></trkpt><trkpt lat="45.506843300885926" lon="11.509537562238648"><ele>33.0</ele><time>2026-03-22T07:09:02.998Z</time></trkpt><trkpt lat="45.506772459302105" lon="11.509626021228728"><ele>33.0</ele><time>2026-03-22T07:09:04.998Z</time></trkpt><trkpt lat="45.50670691961306" lon="11.509709062565536"><ele>33.0</ele><time>2026-03-22T07:09:06.998Z</time></trkpt><trkpt lat="45.50662448117778" lon="11.509743114494732"><ele>33.0</ele><time>2026-03-22T07:09:08.998Z</time></trkpt><trkpt lat="45.50653908688554" lon="11.509661238457602"><ele>33.0</ele><time>2026-03-22T07:09:10.998Z</time></trkpt><trkpt lat="45.50647877161699" lon="11.509538466304653"><ele>33.0</ele><time>2026-03-22T07:09:12.998Z</time></trkpt><trkpt lat="45.50642235338413" lon="11.509445390348247"><ele>33.0</ele><time>2026-03-22T07:09:14.998Z</time></trkpt><trkpt lat="45.50637188365543" lon="11.509336910079218"><ele>33.0</ele><time>2026-03-22T07:09:16.998Z</time></trkpt><trkpt lat="45.506320969195194" lon="11.509246344622088"><ele>33.0</ele><time>2026-03-22T07:09:18.998Z</time></trkpt><trkpt lat="45.50626555717567" lon="11.509153819359385"><ele>33.0</ele><time>2026-03-22T07:09:20.998Z</time></trkpt><trkpt lat="45.50621230491189" lon="11.50905506724573"><ele>33.0</ele><time>2026-03-22T07:09:22.998Z</time></trkpt><trkpt lat="45.506158146655466" lon="11.508968237796715"><ele>33.0</ele><time>2026-03-22T07:09:24.998Z</time></trkpt><trkpt lat="45.50610461834605" lon="11.508897479483764"><ele>33.0</ele><time>2026-03-22T07:09:26.998Z</time></trkpt><trkpt lat="45.50603784406441" lon="11.508838061668037"><ele>33.0</ele><time>2026-03-22T07:09:28.998Z</time></trkpt><trkpt lat="45.50598188095804" lon="11.508770748304876"><ele>33.0</ele><time>2026-03-22T07:09:30.998Z</time></trkpt><trkpt lat="45.505925949646674" lon="11.508669125229266"><ele>33.0</ele><time>2026-03-22T07:09:33.997Z</time></trkpt><trkpt lat="45.50587907785188" lon="11.508596188205109"><ele>33.0</ele><time>2026-03-22T07:09:35.997Z</time></trkpt><trkpt lat="45.50582369528024" lon="11.508505503607456"><ele>33.0</ele><time>2026-03-22T07:09:38.997Z</time></trkpt><trkpt lat="45.505783342176976" lon="11.508426284104539"><ele>33.0</ele><time>2026-03-22T07:09:40.997Z</time></trkpt><trkpt lat="45.50573909140092" lon="11.508342466809548"><ele>33.0</ele><time>2026-03-22T07:09:42.997Z</time></trkpt><trkpt lat="45.505694189000316" lon="11.508263074632332"><ele>33.0</ele><time>2026-03-22T07:09:44.997Z</time></trkpt><trkpt lat="45.505651209062634" lon="11.508172965713861"><ele>33.0</ele><time>2026-03-22T07:09:46.997Z</time></trkpt><trkpt lat="45.50561856990936" lon="11.508055371519381"><ele>33.0</ele><time>2026-03-22T07:09:48.997Z</time></trkpt><trkpt lat="45.50560097108557" lon="11.507939297413127"><ele>33.0</ele><time>2026-03-22T07:09:51Z</time></trkpt><trkpt lat="45.505597336957045" lon="11.507817947593628"><ele>33.0</ele><time>2026-03-22T07:09:53Z</time></trkpt><trkpt lat="45.50561325673942" lon="11.507692859895597"><ele>33.0</ele><time>2026-03-22T07:09:55Z</time></trkpt><trkpt lat="45.50563845676418" lon="11.50758031069789"><ele>33.0</ele><time>2026-03-22T07:09:57Z</time></trkpt><trkpt lat="45.50562704866554" lon="11.507467799192431"><ele>33.0</ele><time>2026-03-22T07:09:59Z</time></trkpt><trkpt lat="45.505568600346066" lon="11.507393835556254"><ele>33.0</ele><time>2026-03-22T07:10:01Z</time></trkpt><trkpt lat="45.505493041790096" lon="11.507367239626005"><ele>33.0</ele><time>2026-03-22T07:10:03Z</time></trkpt><trkpt lat="45.505420295549825" lon="11.507355706110197"><ele>33.0</ele><time>2026-03-22T07:10:05Z</time></trkpt><trkpt lat="45.505353575170396" lon="11.50734387665271"><ele>33.0</ele><time>2026-03-22T07:10:07Z</time></trkpt><trkpt lat="45.50528476120759" lon="11.50733057911548"><ele>33.0</ele><time>2026-03-22T07:10:09Z</time></trkpt><trkpt lat="45.50521464486255" lon="11.50732126454568"><ele>33.0</ele><time>2026-03-22T07:10:11Z</time></trkpt><trkpt lat="45.50514144213208" lon="11.507314811957544"><ele>33.0</ele><time>2026-03-22T07:10:13Z</time></trkpt><trkpt lat="45.50507132018912" lon="11.507298876565143"><ele>32.857142857142854</ele><time>2026-03-22T07:10:15Z</time></trkpt><trkpt lat="45.50500179815258" lon="11.507288269631571"><ele>32.714285714285715</ele><time>2026-03-22T07:10:17Z</time></trkpt><trkpt lat="45.50493051072542" lon="11.507270440606035"><ele>32.57142857142857</ele><time>2026-03-22T07:10:19Z</time></trkpt><trkpt lat="45.50485862577795" lon="11.507255876265933"><ele>32.42857142857143</ele><time>2026-03-22T07:10:21Z</time></trkpt><trkpt lat="45.50478439132441" lon="11.507236090384042"><ele>32.285714285714285</ele><time>2026-03-22T07:10:22.999Z</time></trkpt><trkpt lat="45.50470959554775" lon="11.5072053743905"><ele>32.14285714285714</ele><time>2026-03-22T07:10:24.999Z</time></trkpt><trkpt lat="45.50464018925721" lon="11.50718496824595"><ele>32.0</ele><time>2026-03-22T07:10:26.999Z</time></trkpt><trkpt lat="45.50457357121876" lon="11.507147815567011"><ele>31.857142857142854</ele><time>2026-03-22T07:10:28.999Z</time></trkpt><trkpt lat="45.504506637375925" lon="11.50711355223076"><ele>31.71428571428571</ele><time>2026-03-22T07:10:30.999Z</time></trkpt><trkpt lat="45.50444367797134" lon="11.50707797129595"><ele>31.57142857142857</ele><time>2026-03-22T07:10:32.999Z</time></trkpt><trkpt lat="45.50436972562343" lon="11.507040766702655"><ele>31.42857142857143</ele><time>2026-03-22T07:10:34.999Z</time></trkpt><trkpt lat="45.504305527076966" lon="11.507000338879108"><ele>31.28571428571429</ele><time>2026-03-22T07:10:36.999Z</time></trkpt><trkpt lat="45.50424092282417" lon="11.506960458636806"><ele>31.142857142857146</ele><time>2026-03-22T07:10:38.999Z</time></trkpt><trkpt lat="45.50417017888083" lon="11.506920499750034"><ele>31.0</ele><time>2026-03-22T07:10:40.999Z</time></trkpt><trkpt lat="45.50409977759596" lon="11.506877052400318"><ele>31.000000000000004</ele><time>2026-03-22T07:10:42.999Z</time></trkpt><trkpt lat="45.504023635276326" lon="11.506837528689994"><ele>31.0</ele><time>2026-03-22T07:10:44.999Z</time></trkpt><trkpt lat="45.503948368810114" lon="11.50680084500332"><ele>31.0</ele><time>2026-03-22T07:10:46.999Z</time></trkpt><trkpt lat="45.50387256835834" lon="11.50676474764496"><ele>31.0</ele><time>2026-03-22T07:10:48.999Z</time></trkpt><trkpt lat="45.50379193522113" lon="11.506725255148773"><ele>31.000000000000004</ele><time>2026-03-22T07:10:50.999Z</time></trkpt><trkpt lat="45.50371133353205" lon="11.506693481792503"><ele>31.0</ele><time>2026-03-22T07:10:52.999Z</time></trkpt><trkpt lat="45.50363705440626" lon="11.506662690099384"><ele>30.571428571428573</ele><time>2026-03-22T07:10:54.999Z</time></trkpt><trkpt lat="45.503568133280346" lon="11.506630888781373"><ele>30.142857142857146</ele><time>2026-03-22T07:10:56.999Z</time></trkpt><trkpt lat="45.50349997971254" lon="11.506605073562428"><ele>29.714285714285715</ele><time>2026-03-22T07:10:58.998Z</time></trkpt><trkpt lat="45.50343566645816" lon="11.506571187976888"><ele>29.285714285714285</ele><time>2026-03-22T07:11:00.998Z</time></trkpt><trkpt lat="45.50337417002158" lon="11.506550787746521"><ele>28.857142857142858</ele><time>2026-03-22T07:11:02.998Z</time></trkpt><trkpt lat="45.50328340205072" lon="11.506516469875262"><ele>28.42857142857143</ele><time>2026-03-22T07:11:05.998Z</time></trkpt><trkpt lat="45.50321463536819" lon="11.506480619476845"><ele>28.0</ele><time>2026-03-22T07:11:07.998Z</time></trkpt><trkpt lat="45.50313896424924" lon="11.506444469975378"><ele>28.0</ele><time>2026-03-22T07:11:09.998Z</time></trkpt><trkpt lat="45.50306493367204" lon="11.506419817893255"><ele>28.0</ele><time>2026-03-22T07:11:11.998Z</time></trkpt><trkpt lat="45.50298977171563" lon="11.506386259653524"><ele>28.0</ele><time>2026-03-22T07:11:13.998Z</time></trkpt><trkpt lat="45.502924068371684" lon="11.506372650188615"><ele>28.0</ele><time>2026-03-22T07:11:15.998Z</time></trkpt><trkpt lat="45.50285973815398" lon="11.506344243367872"><ele>28.0</ele><time>2026-03-22T07:11:17.998Z</time></trkpt><trkpt lat="45.50279088783126" lon="11.50631843333219"><ele>28.0</ele><time>2026-03-22T07:11:19.998Z</time></trkpt><trkpt lat="45.502721161541075" lon="11.506298062191812"><ele>28.0</ele><time>2026-03-22T07:11:21.998Z</time></trkpt><trkpt lat="45.50265639603693" lon="11.50627947954384"><ele>28.285714285714285</ele><time>2026-03-22T07:11:23.998Z</time></trkpt><trkpt lat="45.5025946531482" lon="11.506248470373004"><ele>28.57142857142857</ele><time>2026-03-22T07:11:25.998Z</time></trkpt><trkpt lat="45.50254420745891" lon="11.506187581031961"><ele>28.857142857142858</ele><time>2026-03-22T07:11:27.998Z</time></trkpt><trkpt lat="45.5025513600488" lon="11.506063825806416"><ele>29.142857142857142</ele><time>2026-03-22T07:11:29.998Z</time></trkpt><trkpt lat="45.50257505521323" lon="11.50596398910742"><ele>29.428571428571427</ele><time>2026-03-22T07:11:31.998Z</time></trkpt><trkpt lat="45.502591807958545" lon="11.505871544629352"><ele>29.714285714285715</ele><time>2026-03-22T07:11:33.998Z</time></trkpt><trkpt lat="45.50260327175031" lon="11.505776603392265"><ele>30.0</ele><time>2026-03-22T07:11:35.998Z</time></trkpt><trkpt lat="45.50262007181498" lon="11.50567557294599"><ele>30.333333333333332</ele><time>2026-03-22T07:11:37.997Z</time></trkpt><trkpt lat="45.50263870432447" lon="11.505588849098052"><ele>30.666666666666664</ele><time>2026-03-22T07:11:39.997Z</time></trkpt><trkpt lat="45.502656615207705" lon="11.50549694597923"><ele>31.0</ele><time>2026-03-22T07:11:41.997Z</time></trkpt><trkpt lat="45.50267676491724" lon="11.505380657036698"><ele>31.333333333333332</ele><time>2026-03-22T07:11:45.997Z</time></trkpt><trkpt lat="45.502608723174546" lon="11.505326205884112"><ele>31.666666666666664</ele><time>2026-03-22T07:11:48.997Z</time></trkpt><trkpt lat="45.5025379587154" lon="11.505337542411688"><ele>32.0</ele><time>2026-03-22T07:11:50.997Z</time></trkpt><trkpt lat="45.5024520137837" lon="11.505329214453278"><ele>34.166666666666664</ele><time>2026-03-22T07:11:52.997Z</time></trkpt><trkpt lat="45.50237909479661" lon="11.505296938622648"><ele>36.33333333333333</ele><time>2026-03-22T07:11:54.997Z</time></trkpt><trkpt lat="45.502310891090744" lon="11.505226787125176"><ele>38.5</ele><time>2026-03-22T07:11:57Z</time></trkpt><trkpt lat="45.50225067269362" lon="11.505153489094674"><ele>40.666666666666664</ele><time>2026-03-22T07:11:59Z</time></trkpt><trkpt lat="45.50220091592655" lon="11.50506198162753"><ele>42.833333333333336</ele><time>2026-03-22T07:12:01Z</time></trkpt><trkpt lat="45.50216186032196" lon="11.504976916621452"><ele>45.0</ele><time>2026-03-22T07:12:03Z</time></trkpt><trkpt lat="45.50212185354083" lon="11.504883424113709"><ele>45.0</ele><time>2026-03-22T07:12:05Z</time></trkpt><trkpt lat="45.50209373251144" lon="11.50479271813182"><ele>45.0</ele><time>2026-03-22T07:12:07Z</time></trkpt><trkpt lat="45.50207162342655" lon="11.504707651224175"><ele>45.0</ele><time>2026-03-22T07:12:09Z</time></trkpt><trkpt lat="45.50206260856808" lon="11.504613225742393"><ele>45.0</ele><time>2026-03-22T07:12:11Z</time></trkpt><trkpt lat="45.50205820653783" lon="11.504514151223086"><ele>45.0</ele><time>2026-03-22T07:12:13Z</time></trkpt><trkpt lat="45.50206071114505" lon="11.504411147802191"><ele>45.0</ele><time>2026-03-22T07:12:15Z</time></trkpt><trkpt lat="45.50208605054418" lon="11.504312993510842"><ele>45.0</ele><time>2026-03-22T07:12:17Z</time></trkpt><trkpt lat="45.50211393073628" lon="11.504219567403545"><ele>44.57142857142857</ele><time>2026-03-22T07:12:19Z</time></trkpt><trkpt lat="45.50214882888051" lon="11.504130381030595"><ele>44.142857142857146</ele><time>2026-03-22T07:12:21Z</time></trkpt><trkpt lat="45.50218164905274" lon="11.504041472164552"><ele>43.714285714285715</ele><time>2026-03-22T07:12:23Z</time></trkpt><trkpt lat="45.50221473163645" lon="11.50395178323877"><ele>43.285714285714285</ele><time>2026-03-22T07:12:25Z</time></trkpt><trkpt lat="45.50224189419011" lon="11.503832079482398"><ele>42.85714285714286</ele><time>2026-03-22T07:12:28Z</time></trkpt><trkpt lat="45.50225352862072" lon="11.503737001181547"><ele>42.42857142857143</ele><time>2026-03-22T07:12:29.999Z</time></trkpt><trkpt lat="45.50225343934445" lon="11.503645096234633"><ele>42.0</ele><time>2026-03-22T07:12:31.999Z</time></trkpt><trkpt lat="45.502248527358" lon="11.503505579913377"><ele>42.0</ele><time>2026-03-22T07:12:34.999Z</time></trkpt><trkpt lat="45.50224035513311" lon="11.503407278762422"><ele>42.0</ele><time>2026-03-22T07:12:36.999Z</time></trkpt><trkpt lat="45.50222916300199" lon="11.503307665749949"><ele>42.0</ele><time>2026-03-22T07:12:38.999Z</time></trkpt><trkpt lat="45.502216934819124" lon="11.50320693336248"><ele>42.0</ele><time>2026-03-22T07:12:40.999Z</time></trkpt><trkpt lat="45.502204881268256" lon="11.503109194925015"><ele>42.0</ele><time>2026-03-22T07:12:42.999Z</time></trkpt><trkpt lat="45.502195064897776" lon="11.503008590821272"><ele>42.0</ele><time>2026-03-22T07:12:44.999Z</time></trkpt><trkpt lat="45.50218333041271" lon="11.502910752552571"><ele>42.0</ele><time>2026-03-22T07:12:46.999Z</time></trkpt><trkpt lat="45.502169556510445" lon="11.502817925149245"><ele>41.42857142857143</ele><time>2026-03-22T07:12:48.999Z</time></trkpt><trkpt lat="45.50215475943005" lon="11.502714583402865"><ele>40.85714285714286</ele><time>2026-03-22T07:12:50.999Z</time></trkpt><trkpt lat="45.50214262674104" lon="11.502618000871093"><ele>40.285714285714285</ele><time>2026-03-22T07:12:52.999Z</time></trkpt><trkpt lat="45.502120041998964" lon="11.502521261986182"><ele>39.714285714285715</ele><time>2026-03-22T07:12:54.999Z</time></trkpt><trkpt lat="45.50208795584514" lon="11.502428118507174"><ele>39.142857142857146</ele><time>2026-03-22T07:12:56.999Z</time></trkpt><trkpt lat="45.502048980842865" lon="11.502342873608274"><ele>38.57142857142857</ele><time>2026-03-22T07:12:58.999Z</time></trkpt><trkpt lat="45.50200467015302" lon="11.502263638848355"><ele>38.0</ele><time>2026-03-22T07:13:00.999Z</time></trkpt><trkpt lat="45.50194786062816" lon="11.502187574236656"><ele>38.0</ele><time>2026-03-22T07:13:02.999Z</time></trkpt><trkpt lat="45.50188268518764" lon="11.50211594130043"><ele>38.0</ele><time>2026-03-22T07:13:04.999Z</time></trkpt><trkpt lat="45.501809346975044" lon="11.502052732909124"><ele>38.0</ele><time>2026-03-22T07:13:06.998Z</time></trkpt><trkpt lat="45.501739300690495" lon="11.501986585689657"><ele>38.0</ele><time>2026-03-22T07:13:08.998Z</time></trkpt><trkpt lat="45.50167443048709" lon="11.501930798201293"><ele>38.0</ele><time>2026-03-22T07:13:10.998Z</time></trkpt><trkpt lat="45.501609162448645" lon="11.501868184718335"><ele>38.0</ele><time>2026-03-22T07:13:12.998Z</time></trkpt><trkpt lat="45.501553482247274" lon="11.50180031689852"><ele>39.83333333333333</ele><time>2026-03-22T07:13:14.998Z</time></trkpt><trkpt lat="45.50150141665942" lon="11.501715493560498"><ele>41.666666666666664</ele><time>2026-03-22T07:13:16.998Z</time></trkpt><trkpt lat="45.50146554503052" lon="11.501614652906772"><ele>43.5</ele><time>2026-03-22T07:13:18.998Z</time></trkpt><trkpt lat="45.501441324863066" lon="11.50150972186485"><ele>45.33333333333333</ele><time>2026-03-22T07:13:20.998Z</time></trkpt><trkpt lat="45.50142673096215" lon="11.501407510840178"><ele>47.166666666666664</ele><time>2026-03-22T07:13:22.998Z</time></trkpt><trkpt lat="45.50142499403184" lon="11.501301353495377"><ele>49.0</ele><time>2026-03-22T07:13:24.998Z</time></trkpt><trkpt lat="45.50142803699462" lon="11.501195737044291"><ele>49.285714285714285</ele><time>2026-03-22T07:13:26.998Z</time></trkpt><trkpt lat="45.50144124038582" lon="11.501091713147206"><ele>49.57142857142857</ele><time>2026-03-22T07:13:28.998Z</time></trkpt><trkpt lat="45.50145751898257" lon="11.50099374973246"><ele>49.85714285714286</ele><time>2026-03-22T07:13:30.998Z</time></trkpt><trkpt lat="45.50147814744217" lon="11.500899733063806"><ele>50.14285714285714</ele><time>2026-03-22T07:13:32.998Z</time></trkpt><trkpt lat="45.50149510838482" lon="11.500807193151104"><ele>50.42857142857143</ele><time>2026-03-22T07:13:34.998Z</time></trkpt><trkpt lat="45.5015126209373" lon="11.500713448622209"><ele>50.714285714285715</ele><time>2026-03-22T07:13:36.998Z</time></trkpt><trkpt lat="45.501527026891594" lon="11.5006196292297"><ele>51.0</ele><time>2026-03-22T07:13:38.998Z</time></trkpt><trkpt lat="45.501534157311056" lon="11.50052412805725"><ele>51.0</ele><time>2026-03-22T07:13:40.998Z</time></trkpt><trkpt lat="45.50154037717108" lon="11.500426922264065"><ele>51.0</ele><time>2026-03-22T07:13:42.997Z</time></trkpt><trkpt lat="45.501538484363934" lon="11.500336014983123"><ele>51.0</ele><time>2026-03-22T07:13:44.997Z</time></trkpt><trkpt lat="45.50151747221013" lon="11.500205515874127"><ele>51.0</ele><time>2026-03-22T07:13:47.997Z</time></trkpt><trkpt lat="45.50149438096578" lon="11.500115465812893"><ele>51.0</ele><time>2026-03-22T07:13:49.997Z</time></trkpt><trkpt lat="45.50145569964244" lon="11.50002690790772"><ele>51.0</ele><time>2026-03-22T07:13:51.997Z</time></trkpt><trkpt lat="45.50140571999955" lon="11.499932928249866"><ele>51.0</ele><time>2026-03-22T07:13:53.997Z</time></trkpt><trkpt lat="45.50134232521494" lon="11.499830058397254"><ele>50.75</ele><time>2026-03-22T07:13:55.997Z</time></trkpt><trkpt lat="45.50125937805912" lon="11.499744283571324"><ele>50.5</ele><time>2026-03-22T07:13:57.997Z</time></trkpt><trkpt lat="45.50115990958278" lon="11.49967328544752"><ele>50.25</ele><time>2026-03-22T07:13:59.997Z</time></trkpt><trkpt lat="45.50105560252706" lon="11.49960068425136"><ele>50.0</ele><time>2026-03-22T07:14:01.997Z</time></trkpt><trkpt lat="45.50094661674974" lon="11.49952298332079"><ele>50.0</ele><time>2026-03-22T07:14:04Z</time></trkpt><trkpt lat="45.50083390483444" lon="11.499441339979409"><ele>50.0</ele><time>2026-03-22T07:14:06Z</time></trkpt><trkpt lat="45.5007328958172" lon="11.499358317792638"><ele>50.0</ele><time>2026-03-22T07:14:08Z</time></trkpt><trkpt lat="45.50063840635178" lon="11.499258821255419"><ele>50.0</ele><time>2026-03-22T07:14:10Z</time></trkpt><trkpt lat="45.5005513019138" lon="11.499158997166424"><ele>50.00000000000001</ele><time>2026-03-22T07:14:12Z</time></trkpt><trkpt lat="45.50048387929764" lon="11.499055803602532"><ele>50.0</ele><time>2026-03-22T07:14:14Z</time></trkpt><trkpt lat="45.50044508696484" lon="11.498976205466233"><ele>50.0</ele><time>2026-03-22T07:14:16Z</time></trkpt><trkpt lat="45.500419222341" lon="11.49888211170206"><ele>50.0</ele><time>2026-03-22T07:14:19Z</time></trkpt><trkpt lat="45.50036408055948" lon="11.49877416001056"><ele>50.00000000000001</ele><time>2026-03-22T07:14:22Z</time></trkpt><trkpt lat="45.50030506091598" lon="11.498667042217242"><ele>50.0</ele><time>2026-03-22T07:14:25Z</time></trkpt><trkpt lat="45.500246976327446" lon="11.49858882536685"><ele>48.57142857142858</ele><time>2026-03-22T07:14:27Z</time></trkpt><trkpt lat="45.5001859065751" lon="11.498505281426175"><ele>47.142857142857146</ele><time>2026-03-22T07:14:29Z</time></trkpt><trkpt lat="45.50013073765273" lon="11.498458501160947"><ele>45.714285714285715</ele><time>2026-03-22T07:14:31Z</time></trkpt><trkpt lat="45.5000834400103" lon="11.498398915337097"><ele>44.28571428571429</ele><time>2026-03-22T07:14:33Z</time></trkpt><trkpt lat="45.500026442408" lon="11.498345481699637"><ele>42.85714285714286</ele><time>2026-03-22T07:14:34.999Z</time></trkpt><trkpt lat="45.499968081761786" lon="11.498297249674325"><ele>41.42857142857143</ele><time>2026-03-22T07:14:36.999Z</time></trkpt><trkpt lat="45.49991076604809" lon="11.498236322676135"><ele>40.0</ele><time>2026-03-22T07:14:38.999Z</time></trkpt><trkpt lat="45.499857365188035" lon="11.498169832603422"><ele>40.0</ele><time>2026-03-22T07:14:40.999Z</time></trkpt><trkpt lat="45.499803473927265" lon="11.498112711129"><ele>40.0</ele><time>2026-03-22T07:14:42.999Z</time></trkpt><trkpt lat="45.499752312089335" lon="11.49805083051686"><ele>40.0</ele><time>2026-03-22T07:14:44.999Z</time></trkpt><trkpt lat="45.499702012314465" lon="11.497974185144754"><ele>40.0</ele><time>2026-03-22T07:14:46.999Z</time></trkpt><trkpt lat="45.499653669734855" lon="11.497910044247172"><ele>40.0</ele><time>2026-03-22T07:14:48.999Z</time></trkpt><trkpt lat="45.49960759491371" lon="11.497835372382356"><ele>40.0</ele><time>2026-03-22T07:14:50.999Z</time></trkpt><trkpt lat="45.49954053321227" lon="11.497727686030572"><ele>40.0</ele><time>2026-03-22T07:14:53.999Z</time></trkpt><trkpt lat="45.49949228472643" lon="11.497645782947624"><ele>39.66666666666667</ele><time>2026-03-22T07:14:55.999Z</time></trkpt><trkpt lat="45.499450390661934" lon="11.49756369743101"><ele>39.333333333333336</ele><time>2026-03-22T07:14:57.999Z</time></trkpt><trkpt lat="45.49940248167768" lon="11.497475023982378"><ele>39.0</ele><time>2026-03-22T07:14:59.999Z</time></trkpt><trkpt lat="45.499354047579864" lon="11.497388232015744"><ele>38.666666666666664</ele><time>2026-03-22T07:15:01.999Z</time></trkpt><trkpt lat="45.49930221443553" lon="11.497288093887066"><ele>38.33333333333333</ele><time>2026-03-22T07:15:03.999Z</time></trkpt><trkpt lat="45.49925020101878" lon="11.497190004369774"><ele>38.0</ele><time>2026-03-22T07:15:05.999Z</time></trkpt><trkpt lat="45.49920190135745" lon="11.497082322171568"><ele>37.8</ele><time>2026-03-22T07:15:07.999Z</time></trkpt><trkpt lat="45.499151928815614" lon="11.496968805890184"><ele>37.599999999999994</ele><time>2026-03-22T07:15:09.999Z</time></trkpt><trkpt lat="45.49910200798404" lon="11.496840221818404"><ele>37.400000000000006</ele><time>2026-03-22T07:15:11.998Z</time></trkpt><trkpt lat="45.499058935523834" lon="11.496698433309557"><ele>37.2</ele><time>2026-03-22T07:15:13.998Z</time></trkpt><trkpt lat="45.49902745408123" lon="11.496575232292457"><ele>37.0</ele><time>2026-03-22T07:15:15.998Z</time></trkpt><trkpt lat="45.49899869039672" lon="11.4964401687073"><ele>37.0</ele><time>2026-03-22T07:15:17.998Z</time></trkpt><trkpt lat="45.498965113059704" lon="11.496303236579855"><ele>37.0</ele><time>2026-03-22T07:15:19.998Z</time></trkpt><trkpt lat="45.49893010245549" lon="11.496171211189443"><ele>37.0</ele><time>2026-03-22T07:15:21.998Z</time></trkpt><trkpt lat="45.49889997506806" lon="11.496044973561958"><ele>37.0</ele><time>2026-03-22T07:15:23.998Z</time></trkpt><trkpt lat="45.49886927633485" lon="11.495935721121178"><ele>37.0</ele><time>2026-03-22T07:15:25.998Z</time></trkpt><trkpt lat="45.49883851662127" lon="11.495824915514238"><ele>37.0</ele><time>2026-03-22T07:15:27.998Z</time></trkpt><trkpt lat="45.498810616530655" lon="11.495701793376421"><ele>37.0</ele><time>2026-03-22T07:15:29.998Z</time></trkpt><trkpt lat="45.49877539092027" lon="11.495587343298435"><ele>37.0</ele><time>2026-03-22T07:15:31.998Z</time></trkpt><trkpt lat="45.49872881545015" lon="11.495489460278181"><ele>37.0</ele><time>2026-03-22T07:15:33.998Z</time></trkpt><trkpt lat="45.498681811515524" lon="11.49538963037353"><ele>37.0</ele><time>2026-03-22T07:15:35.998Z</time></trkpt><trkpt lat="45.498629239956834" lon="11.495315696183122"><ele>37.0</ele><time>2026-03-22T07:15:37.998Z</time></trkpt><trkpt lat="45.49856479530395" lon="11.49521203074244"><ele>37.0</ele><time>2026-03-22T07:15:39.998Z</time></trkpt><trkpt lat="45.4985031617677" lon="11.495144446580417"><ele>37.0</ele><time>2026-03-22T07:15:41.998Z</time></trkpt><trkpt lat="45.49843875268735" lon="11.495078932059599"><ele>37.0</ele><time>2026-03-22T07:15:43.998Z</time></trkpt><trkpt lat="45.498377207251494" lon="11.495021630422904"><ele>37.0</ele><time>2026-03-22T07:15:45.998Z</time></trkpt><trkpt lat="45.4983128009927" lon="11.494967995040122"><ele>37.0</ele><time>2026-03-22T07:15:47.998Z</time></trkpt><trkpt lat="45.49824683353316" lon="11.494921153395257"><ele>37.0</ele><time>2026-03-22T07:15:49.997Z</time></trkpt><trkpt lat="45.4981824146868" lon="11.49487981864986"><ele>37.0</ele><time>2026-03-22T07:15:51.997Z</time></trkpt><trkpt lat="45.49811675895421" lon="11.49484160837177"><ele>37.0</ele><time>2026-03-22T07:15:53.997Z</time></trkpt><trkpt lat="45.49804490815083" lon="11.494798189739118"><ele>37.0</ele><time>2026-03-22T07:15:55.997Z</time></trkpt><trkpt lat="45.49796964055444" lon="11.494749469364507"><ele>37.0</ele><time>2026-03-22T07:15:57.997Z</time></trkpt><trkpt lat="45.49789436021083" lon="11.494700259511152"><ele>37.0</ele><time>2026-03-22T07:15:59.997Z</time></trkpt><trkpt lat="45.49781159707085" lon="11.494650782056459"><ele>37.0</ele><time>2026-03-22T07:16:01.997Z</time></trkpt><trkpt lat="45.497728982831134" lon="11.494601535937063"><ele>37.0</ele><time>2026-03-22T07:16:03.997Z</time></trkpt><trkpt lat="45.49764466625092" lon="11.494549923968956"><ele>38.16666666666667</ele><time>2026-03-22T07:16:05.997Z</time></trkpt><trkpt lat="45.4975609212978" lon="11.494500772622295"><ele>39.333333333333336</ele><time>2026-03-22T07:16:07.997Z</time></trkpt><trkpt lat="45.49748046549654" lon="11.494436645062953"><ele>40.5</ele><time>2026-03-22T07:16:10Z</time></trkpt><trkpt lat="45.497401291478205" lon="11.494385924468073"><ele>41.666666666666664</ele><time>2026-03-22T07:16:12Z</time></trkpt><trkpt lat="45.49732308225411" lon="11.494337393260277"><ele>42.83333333333333</ele><time>2026-03-22T07:16:14Z</time></trkpt><trkpt lat="45.497247736520414" lon="11.494285893685705"><ele>44.0</ele><time>2026-03-22T07:16:16Z</time></trkpt><trkpt lat="45.49717590806006" lon="11.494245346979843"><ele>44.0</ele><time>2026-03-22T07:16:18Z</time></trkpt><trkpt lat="45.49711095404566" lon="11.49421431144149"><ele>44.0</ele><time>2026-03-22T07:16:20Z</time></trkpt><trkpt lat="45.49704256895283" lon="11.494202569103955"><ele>44.0</ele><time>2026-03-22T07:16:22Z</time></trkpt><trkpt lat="45.496970561794086" lon="11.494192541863638"><ele>44.0</ele><time>2026-03-22T07:16:24Z</time></trkpt><trkpt lat="45.49689638779097" lon="11.49418648889859"><ele>44.0</ele><time>2026-03-22T07:16:26Z</time></trkpt><trkpt lat="45.496820852357956" lon="11.494183621636456"><ele>44.0</ele><time>2026-03-22T07:16:28Z</time></trkpt><trkpt lat="45.49674096227064" lon="11.494174616740077"><ele>44.0</ele><time>2026-03-22T07:16:30Z</time></trkpt><trkpt lat="45.496666340828256" lon="11.494152089814632"><ele>43.5</ele><time>2026-03-22T07:16:32Z</time></trkpt><trkpt lat="45.49659330015848" lon="11.494119409832106"><ele>43.0</ele><time>2026-03-22T07:16:34Z</time></trkpt><trkpt lat="45.49652144886865" lon="11.494086404805941"><ele>42.5</ele><time>2026-03-22T07:16:36Z</time></trkpt><trkpt lat="45.49645128866033" lon="11.494047323270097"><ele>42.0</ele><time>2026-03-22T07:16:38Z</time></trkpt><trkpt lat="45.49637939366166" lon="11.493992372092173"><ele>41.5</ele><time>2026-03-22T07:16:40Z</time></trkpt><trkpt lat="45.49631368231619" lon="11.493942426975355"><ele>41.0</ele><time>2026-03-22T07:16:41.999Z</time></trkpt><trkpt lat="45.496255948027176" lon="11.493889504371348"><ele>41.99999999999999</ele><time>2026-03-22T07:16:43.999Z</time></trkpt><trkpt lat="45.49619488057657" lon="11.493823129771801"><ele>43.0</ele><time>2026-03-22T07:16:45.999Z</time></trkpt><trkpt lat="45.496140024686106" lon="11.493761621267044"><ele>44.0</ele><time>2026-03-22T07:16:47.999Z</time></trkpt><trkpt lat="45.49608258604314" lon="11.493697998189571"><ele>45.0</ele><time>2026-03-22T07:16:49.999Z</time></trkpt><trkpt lat="45.49602945527138" lon="11.493648663428404"><ele>46.0</ele><time>2026-03-22T07:16:51.999Z</time></trkpt><trkpt lat="45.49596948706246" lon="11.49358849514588"><ele>46.99999999999999</ele><time>2026-03-22T07:16:53.999Z</time></trkpt><trkpt lat="45.495910947197984" lon="11.4935297973106"><ele>48.0</ele><time>2026-03-22T07:16:55.999Z</time></trkpt><trkpt lat="45.49584307796613" lon="11.49345950766302"><ele>48.0</ele><time>2026-03-22T07:16:57.999Z</time></trkpt><trkpt lat="45.4957755173846" lon="11.493396317910374"><ele>48.0</ele><time>2026-03-22T07:16:59.999Z</time></trkpt><trkpt lat="45.49570180176502" lon="11.493320281814611"><ele>48.0</ele><time>2026-03-22T07:17:01.999Z</time></trkpt><trkpt lat="45.495633063754575" lon="11.493264701175773"><ele>48.0</ele><time>2026-03-22T07:17:03.999Z</time></trkpt><trkpt lat="45.49556409407408" lon="11.493201780773317"><ele>48.0</ele><time>2026-03-22T07:17:05.999Z</time></trkpt><trkpt lat="45.49549211938579" lon="11.493139771772757"><ele>48.0</ele><time>2026-03-22T07:17:07.999Z</time></trkpt><trkpt lat="45.49542533677974" lon="11.493076749294257"><ele>47.5</ele><time>2026-03-22T07:17:09.999Z</time></trkpt><trkpt lat="45.495357608944126" lon="11.49300998514918"><ele>47.0</ele><time>2026-03-22T07:17:11.999Z</time></trkpt><trkpt lat="45.49529623792712" lon="11.492953548283433"><ele>46.5</ele><time>2026-03-22T07:17:13.999Z</time></trkpt><trkpt lat="45.49523524989013" lon="11.492895253737732"><ele>46.0</ele><time>2026-03-22T07:17:15.999Z</time></trkpt><trkpt lat="45.49517160794135" lon="11.492837564954058"><ele>45.5</ele><time>2026-03-22T07:17:17.999Z</time></trkpt><trkpt lat="45.495116184584006" lon="11.492771538711725"><ele>45.0</ele><time>2026-03-22T07:17:19.998Z</time></trkpt><trkpt lat="45.49506043760897" lon="11.492697148052118"><ele>45.0</ele><time>2026-03-22T07:17:21.998Z</time></trkpt><trkpt lat="45.49500899876927" lon="11.492625463122177"><ele>45.0</ele><time>2026-03-22T07:17:23.998Z</time></trkpt><trkpt lat="45.49495532932044" lon="11.492550373405967"><ele>45.0</ele><time>2026-03-22T07:17:25.998Z</time></trkpt><trkpt lat="45.49490453346565" lon="11.492482438276193"><ele>45.0</ele><time>2026-03-22T07:17:27.998Z</time></trkpt><trkpt lat="45.49484968336729" lon="11.492420431768394"><ele>45.0</ele><time>2026-03-22T07:17:29.998Z</time></trkpt><trkpt lat="45.494795484750185" lon="11.492356872709456"><ele>45.0</ele><time>2026-03-22T07:17:31.998Z</time></trkpt><trkpt lat="45.494715012298606" lon="11.492288320301194"><ele>45.0</ele><time>2026-03-22T07:17:34.998Z</time></trkpt><trkpt lat="45.49466261132151" lon="11.49222058587147"><ele>45.0</ele><time>2026-03-22T07:17:36.998Z</time></trkpt><trkpt lat="45.494596217818334" lon="11.492191774277293"><ele>45.0</ele><time>2026-03-22T07:17:38.998Z</time></trkpt><trkpt lat="45.49452914252325" lon="11.492152058764828"><ele>45.0</ele><time>2026-03-22T07:17:40.998Z</time></trkpt><trkpt lat="45.49446671133374" lon="11.49211074247475"><ele>45.0</ele><time>2026-03-22T07:17:42.998Z</time></trkpt><trkpt lat="45.49439885690839" lon="11.492082710286487"><ele>45.0</ele><time>2026-03-22T07:17:44.998Z</time></trkpt><trkpt lat="45.49433051334275" lon="11.49205719300634"><ele>45.0</ele><time>2026-03-22T07:17:46.998Z</time></trkpt><trkpt lat="45.49426465833881" lon="11.492015202574793"><ele>46.285714285714285</ele><time>2026-03-22T07:17:48.998Z</time></trkpt><trkpt lat="45.49419885422973" lon="11.491976083146596"><ele>47.57142857142858</ele><time>2026-03-22T07:17:50.998Z</time></trkpt><trkpt lat="45.494132670014515" lon="11.49193201962843"><ele>48.85714285714286</ele><time>2026-03-22T07:17:52.998Z</time></trkpt><trkpt lat="45.49407477437265" lon="11.491877773149954"><ele>50.14285714285714</ele><time>2026-03-22T07:17:54.998Z</time></trkpt><trkpt lat="45.494014968195664" lon="11.491822651651738"><ele>51.42857142857143</ele><time>2026-03-22T07:17:56.997Z</time></trkpt><trkpt lat="45.493960506646225" lon="11.49177391859313"><ele>52.714285714285715</ele><time>2026-03-22T07:17:58.997Z</time></trkpt><trkpt lat="45.49387926469324" lon="11.49170661980468"><ele>54.0</ele><time>2026-03-22T07:18:01.997Z</time></trkpt><trkpt lat="45.49380560616173" lon="11.491624357887675"><ele>52.666666666666664</ele><time>2026-03-22T07:18:04.997Z</time></trkpt><trkpt lat="45.49373853789844" lon="11.491551388005139"><ele>51.333333333333336</ele><time>2026-03-22T07:18:07.997Z</time></trkpt><trkpt lat="45.4936773561166" lon="11.491467136695055"><ele>50.0</ele><time>2026-03-22T07:18:10.997Z</time></trkpt><trkpt lat="45.493620111508925" lon="11.49138775998486"><ele>48.66666666666667</ele><time>2026-03-22T07:18:13.997Z</time></trkpt><trkpt lat="45.4935596771046" lon="11.491288952300618"><ele>47.333333333333336</ele><time>2026-03-22T07:18:17Z</time></trkpt><trkpt lat="45.49350256467057" lon="11.491192958710823"><ele>46.0</ele><time>2026-03-22T07:18:20Z</time></trkpt><trkpt lat="45.49344690309638" lon="11.491104534166102"><ele>46.0</ele><time>2026-03-22T07:18:23Z</time></trkpt><trkpt lat="45.493404554386565" lon="11.491012639524827"><ele>46.0</ele><time>2026-03-22T07:18:26Z</time></trkpt><trkpt lat="45.49336869592959" lon="11.490920819183293"><ele>46.0</ele><time>2026-03-22T07:18:29Z</time></trkpt><trkpt lat="45.493335158599905" lon="11.490823331464513"><ele>46.0</ele><time>2026-03-22T07:18:32Z</time></trkpt><trkpt lat="45.49330031881058" lon="11.490730081420695"><ele>46.0</ele><time>2026-03-22T07:18:35Z</time></trkpt><trkpt lat="45.49327194235548" lon="11.490645242919138"><ele>46.0</ele><time>2026-03-22T07:18:38Z</time></trkpt><trkpt lat="45.49324330526252" lon="11.490549028433769"><ele>46.0</ele><time>2026-03-22T07:18:41Z</time></trkpt><trkpt lat="45.493213426870156" lon="11.490437204214599"><ele>48.66666666666667</ele><time>2026-03-22T07:18:45Z</time></trkpt><trkpt lat="45.49319957687453" lon="11.490341089693725"><ele>51.333333333333336</ele><time>2026-03-22T07:18:47.999Z</time></trkpt><trkpt lat="45.49318706655662" lon="11.490243392388056"><ele>54.0</ele><time>2026-03-22T07:18:50.999Z</time></trkpt><trkpt lat="45.49316912516616" lon="11.49012430656842"><ele>56.66666666666667</ele><time>2026-03-22T07:18:54.999Z</time></trkpt><trkpt lat="45.49315628314317" lon="11.49000495432416"><ele>59.333333333333336</ele><time>2026-03-22T07:18:58.999Z</time></trkpt><trkpt lat="45.49314796144582" lon="11.489913402192684"><ele>62.0</ele><time>2026-03-22T07:19:01.999Z</time></trkpt><trkpt lat="45.49312836180411" lon="11.48979757285706"><ele>62.0</ele><time>2026-03-22T07:19:05.999Z</time></trkpt><trkpt lat="45.4930970219022" lon="11.489692578530807"><ele>62.00000000000001</ele><time>2026-03-22T07:19:09.999Z</time></trkpt><trkpt lat="45.49306579746991" lon="11.489613245423987"><ele>62.0</ele><time>2026-03-22T07:19:12.999Z</time></trkpt><trkpt lat="45.49302118753838" lon="11.489534374537241"><ele>62.0</ele><time>2026-03-22T07:19:16.999Z</time></trkpt><trkpt lat="45.492975540082426" lon="11.489440585177443"><ele>62.00000000000001</ele><time>2026-03-22T07:19:20.999Z</time></trkpt><trkpt lat="45.492941734548104" lon="11.489363344403877"><ele>62.0</ele><time>2026-03-22T07:19:23.999Z</time></trkpt><trkpt lat="45.492901096854666" lon="11.48926967057338"><ele>62.0</ele><time>2026-03-22T07:19:27.998Z</time></trkpt><trkpt lat="45.492859753435255" lon="11.489177605374486"><ele>60.142857142857146</ele><time>2026-03-22T07:19:31.998Z</time></trkpt><trkpt lat="45.49281837482971" lon="11.489103397855684"><ele>58.28571428571429</ele><time>2026-03-22T07:19:35.998Z</time></trkpt><trkpt lat="45.49278218391141" lon="11.489028049169763"><ele>56.42857142857143</ele><time>2026-03-22T07:19:39.998Z</time></trkpt><trkpt lat="45.49274512670192" lon="11.488944053174645"><ele>54.57142857142857</ele><time>2026-03-22T07:19:42.998Z</time></trkpt><trkpt lat="45.49269649737076" lon="11.488848296369921"><ele>52.714285714285715</ele><time>2026-03-22T07:19:46.998Z</time></trkpt><trkpt lat="45.492653170518636" lon="11.488747770535463"><ele>50.85714285714286</ele><time>2026-03-22T07:19:50.998Z</time></trkpt><trkpt lat="45.49261292357538" lon="11.488655341969238"><ele>49.0</ele><time>2026-03-22T07:19:54.998Z</time></trkpt><trkpt lat="45.49256967592387" lon="11.48855295297489"><ele>53.666666666666664</ele><time>2026-03-22T07:19:58.998Z</time></trkpt><trkpt lat="45.49252179156919" lon="11.48847082788864"><ele>58.33333333333333</ele><time>2026-03-22T07:20:02.997Z</time></trkpt><trkpt lat="45.492483024160165" lon="11.48837506217449"><ele>63.0</ele><time>2026-03-22T07:20:06.997Z</time></trkpt><trkpt lat="45.492433623590834" lon="11.48828167336628"><ele>67.66666666666667</ele><time>2026-03-22T07:20:10.997Z</time></trkpt><trkpt lat="45.49237735226215" lon="11.488204237760012"><ele>72.33333333333334</ele><time>2026-03-22T07:20:14.997Z</time></trkpt><trkpt lat="45.49233265263934" lon="11.488137303872517"><ele>77.0</ele><time>2026-03-22T07:20:17.997Z</time></trkpt><trkpt lat="45.492277740290106" lon="11.488068094423282"><ele>77.0</ele><time>2026-03-22T07:20:22Z</time></trkpt><trkpt lat="45.49223532651093" lon="11.48800013830346"><ele>77.0</ele><time>2026-03-22T07:20:25Z</time></trkpt><trkpt lat="45.4921849299432" lon="11.487940649940203"><ele>77.0</ele><time>2026-03-22T07:20:29Z</time></trkpt><trkpt lat="45.492127307243734" lon="11.487862716562889"><ele>77.0</ele><time>2026-03-22T07:20:33Z</time></trkpt><trkpt lat="45.49207072421644" lon="11.487786223498494"><ele>77.0</ele><time>2026-03-22T07:20:37Z</time></trkpt><trkpt lat="45.492025747472375" lon="11.487715264224596"><ele>77.0</ele><time>2026-03-22T07:20:41Z</time></trkpt><trkpt lat="45.49198893951385" lon="11.487626155528815"><ele>77.0</ele><time>2026-03-22T07:20:45Z</time></trkpt><trkpt lat="45.49194564368632" lon="11.487555181310661"><ele>77.71428571428571</ele><time>2026-03-22T07:20:48Z</time></trkpt><trkpt lat="45.49188933334925" lon="11.487507832093323"><ele>78.42857142857143</ele><time>2026-03-22T07:20:51Z</time></trkpt><trkpt lat="45.491820239044905" lon="11.48745528810062"><ele>79.14285714285714</ele><time>2026-03-22T07:20:54.999Z</time></trkpt><trkpt lat="45.49176705045852" lon="11.487396061390346"><ele>79.85714285714286</ele><time>2026-03-22T07:20:57.999Z</time></trkpt><trkpt lat="45.49170940855549" lon="11.487344328650408"><ele>80.57142857142857</ele><time>2026-03-22T07:21:00.999Z</time></trkpt><trkpt lat="45.49165615514542" lon="11.48728942558497"><ele>81.28571428571428</ele><time>2026-03-22T07:21:03.999Z</time></trkpt><trkpt lat="45.49159971303375" lon="11.487249047684534"><ele>82.0</ele><time>2026-03-22T07:21:06.999Z</time></trkpt><trkpt lat="45.49154321213931" lon="11.487196443069896"><ele>81.99999999999999</ele><time>2026-03-22T07:21:09.999Z</time></trkpt><trkpt lat="45.49148788167864" lon="11.487151847639513"><ele>82.0</ele><time>2026-03-22T07:21:12.999Z</time></trkpt><trkpt lat="45.49141266316763" lon="11.487106720453164"><ele>82.0</ele><time>2026-03-22T07:21:16.999Z</time></trkpt><trkpt lat="45.49133807454507" lon="11.487050254485897"><ele>82.0</ele><time>2026-03-22T07:21:20.999Z</time></trkpt><trkpt lat="45.49127914777796" lon="11.487008915105513"><ele>82.0</ele><time>2026-03-22T07:21:23.999Z</time></trkpt><trkpt lat="45.4912051071808" lon="11.486970009109047"><ele>81.99999999999999</ele><time>2026-03-22T07:21:27.999Z</time></trkpt><trkpt lat="45.49113867729875" lon="11.486928595479032"><ele>82.0</ele><time>2026-03-22T07:21:30.999Z</time></trkpt><trkpt lat="45.49106275674672" lon="11.486893679284607"><ele>83.99999999999999</ele><time>2026-03-22T07:21:34.998Z</time></trkpt><trkpt lat="45.49099060432304" lon="11.486850656723178"><ele>86.0</ele><time>2026-03-22T07:21:38.998Z</time></trkpt><trkpt lat="45.49092251738864" lon="11.486810349911577"><ele>88.0</ele><time>2026-03-22T07:21:41.998Z</time></trkpt><trkpt lat="45.49086298401435" lon="11.486767316737094"><ele>90.0</ele><time>2026-03-22T07:21:44.998Z</time></trkpt><trkpt lat="45.490798349808564" lon="11.486718195754866"><ele>92.0</ele><time>2026-03-22T07:21:47.998Z</time></trkpt><trkpt lat="45.490724963190026" lon="11.486665233563194"><ele>93.99999999999999</ele><time>2026-03-22T07:21:51.998Z</time></trkpt><trkpt lat="45.490673248744464" lon="11.486611727281725"><ele>96.0</ele><time>2026-03-22T07:21:54.998Z</time></trkpt><trkpt lat="45.49060356553381" lon="11.486538555711814"><ele>95.99999999999999</ele><time>2026-03-22T07:21:58.998Z</time></trkpt><trkpt lat="45.490541313336294" lon="11.48647369368047"><ele>96.0</ele><time>2026-03-22T07:22:02.998Z</time></trkpt><trkpt lat="45.49047337665963" lon="11.486416936001744"><ele>96.0</ele><time>2026-03-22T07:22:06.998Z</time></trkpt><trkpt lat="45.49041970829539" lon="11.486368396155973"><ele>96.0</ele><time>2026-03-22T07:22:09.997Z</time></trkpt><trkpt lat="45.49034547950044" lon="11.486311380404079"><ele>96.0</ele><time>2026-03-22T07:22:13.997Z</time></trkpt><trkpt lat="45.490283940838545" lon="11.486271203548444"><ele>95.99999999999999</ele><time>2026-03-22T07:22:16.997Z</time></trkpt><trkpt lat="45.490222874144145" lon="11.486248561498046"><ele>96.0</ele><time>2026-03-22T07:22:19.997Z</time></trkpt><trkpt lat="45.490161760536566" lon="11.486199192057162"><ele>100.16666666666667</ele><time>2026-03-22T07:22:22.997Z</time></trkpt><trkpt lat="45.49009664905119" lon="11.4861642202506"><ele>104.33333333333334</ele><time>2026-03-22T07:22:25.997Z</time></trkpt><trkpt lat="45.49001653852829" lon="11.486117841243754"><ele>108.5</ele><time>2026-03-22T07:22:30Z</time></trkpt><trkpt lat="45.48995646833461" lon="11.486088521669744"><ele>112.66666666666667</ele><time>2026-03-22T07:22:33Z</time></trkpt><trkpt lat="45.48987947600223" lon="11.486054676945368"><ele>116.83333333333334</ele><time>2026-03-22T07:22:37Z</time></trkpt><trkpt lat="45.489799536267725" lon="11.486011740634314"><ele>121.0</ele><time>2026-03-22T07:22:41Z</time></trkpt><trkpt lat="45.489722273278154" lon="11.485963856784247"><ele>121.00000000000001</ele><time>2026-03-22T07:22:45Z</time></trkpt><trkpt lat="45.48964420055592" lon="11.485922902320446"><ele>121.0</ele><time>2026-03-22T07:22:49Z</time></trkpt><trkpt lat="45.489566071654004" lon="11.485889162866556"><ele>121.0</ele><time>2026-03-22T07:22:53Z</time></trkpt><trkpt lat="45.48949187747103" lon="11.485852783604722"><ele>121.0</ele><time>2026-03-22T07:22:57Z</time></trkpt><trkpt lat="45.489430528601694" lon="11.485816881973308"><ele>121.00000000000001</ele><time>2026-03-22T07:22:59.999Z</time></trkpt><trkpt lat="45.489357282733636" lon="11.485774411380074"><ele>121.0</ele><time>2026-03-22T07:23:03.999Z</time></trkpt><trkpt lat="45.48928831157827" lon="11.485709522234096"><ele>118.33333333333334</ele><time>2026-03-22T07:23:07.999Z</time></trkpt><trkpt lat="45.48921030290015" lon="11.485680124013713"><ele>115.66666666666667</ele><time>2026-03-22T07:23:11.999Z</time></trkpt><trkpt lat="45.4891266885476" lon="11.485652536772642"><ele>113.0</ele><time>2026-03-22T07:23:15.999Z</time></trkpt><trkpt lat="45.48906468885767" lon="11.48560281969222"><ele>110.33333333333334</ele><time>2026-03-22T07:23:18.999Z</time></trkpt><trkpt lat="45.488986955669326" lon="11.485560703264534"><ele>107.66666666666667</ele><time>2026-03-22T07:23:22.999Z</time></trkpt><trkpt lat="45.48892848929047" lon="11.485526526667176"><ele>105.0</ele><time>2026-03-22T07:23:25.999Z</time></trkpt><trkpt lat="45.4888588131195" lon="11.485456049183133"><ele>108.0</ele><time>2026-03-22T07:23:29.999Z</time></trkpt><trkpt lat="45.48878213802198" lon="11.485421598792511"><ele>111.0</ele><time>2026-03-22T07:23:33.999Z</time></trkpt><trkpt lat="45.48870293700972" lon="11.48538035838385"><ele>114.0</ele><time>2026-03-22T07:23:37.998Z</time></trkpt><trkpt lat="45.4886336120684" lon="11.485312997571006"><ele>117.0</ele><time>2026-03-22T07:23:41.998Z</time></trkpt><trkpt lat="45.48855787697686" lon="11.48526649809699"><ele>120.0</ele><time>2026-03-22T07:23:45.998Z</time></trkpt><trkpt lat="45.4884894852842" lon="11.485207886887409"><ele>123.0</ele><time>2026-03-22T07:23:49.998Z</time></trkpt><trkpt lat="45.48841871797172" lon="11.485136827690742"><ele>123.0</ele><time>2026-03-22T07:23:53.998Z</time></trkpt><trkpt lat="45.488355792004306" lon="11.485027337801528"><ele>123.00000000000001</ele><time>2026-03-22T07:23:56.998Z</time></trkpt><trkpt lat="45.48828501075584" lon="11.484956123073665"><ele>123.00000000000001</ele><time>2026-03-22T07:23:58.998Z</time></trkpt><trkpt lat="45.488205296790504" lon="11.484861309934066"><ele>123.0</ele><time>2026-03-22T07:24:00.998Z</time></trkpt><trkpt lat="45.488121417043125" lon="11.484753712237303"><ele>123.0</ele><time>2026-03-22T07:24:02.998Z</time></trkpt><trkpt lat="45.48804670411651" lon="11.484648170149429"><ele>122.2</ele><time>2026-03-22T07:24:04.998Z</time></trkpt><trkpt lat="45.48799132766164" lon="11.48454767329874"><ele>121.4</ele><time>2026-03-22T07:24:06.998Z</time></trkpt><trkpt lat="45.48793723972414" lon="11.484428391660407"><ele>120.60000000000001</ele><time>2026-03-22T07:24:08.998Z</time></trkpt><trkpt lat="45.487886006769536" lon="11.484294150549307"><ele>119.80000000000001</ele><time>2026-03-22T07:24:10.998Z</time></trkpt><trkpt lat="45.48785017842572" lon="11.484185625838313"><ele>119.0</ele><time>2026-03-22T07:24:12.998Z</time></trkpt><trkpt lat="45.48781295224176" lon="11.484057907697737"><ele>118.99999999999999</ele><time>2026-03-22T07:24:14.997Z</time></trkpt><trkpt lat="45.487789739502354" lon="11.483922352061894"><ele>119.0</ele><time>2026-03-22T07:24:16.997Z</time></trkpt><trkpt lat="45.48778508186245" lon="11.483789939063016"><ele>119.0</ele><time>2026-03-22T07:24:18.997Z</time></trkpt><trkpt lat="45.48778309098521" lon="11.483695093370184"><ele>119.0</ele><time>2026-03-22T07:24:20.997Z</time></trkpt><trkpt lat="45.48778360393632" lon="11.483600750384682"><ele>118.99999999999999</ele><time>2026-03-22T07:24:23.997Z</time></trkpt><trkpt lat="45.48778166614624" lon="11.483499007260203"><ele>119.0</ele><time>2026-03-22T07:24:26.997Z</time></trkpt><trkpt lat="45.487783026826364" lon="11.483389550069637"><ele>121.0</ele><time>2026-03-22T07:24:29.997Z</time></trkpt><trkpt lat="45.487789885224366" lon="11.483290848163746"><ele>123.0</ele><time>2026-03-22T07:24:33Z</time></trkpt><trkpt lat="45.48780786472673" lon="11.483195567099942"><ele>125.0</ele><time>2026-03-22T07:24:36Z</time></trkpt><trkpt lat="45.48783438596671" lon="11.483109730795416"><ele>127.0</ele><time>2026-03-22T07:24:39Z</time></trkpt><trkpt lat="45.48785406337302" lon="11.483000415381733"><ele>129.0</ele><time>2026-03-22T07:24:42Z</time></trkpt><trkpt lat="45.48788002860078" lon="11.482892550642317"><ele>131.0</ele><time>2026-03-22T07:24:46Z</time></trkpt><trkpt lat="45.48790216615788" lon="11.482794125479883"><ele>133.0</ele><time>2026-03-22T07:24:49Z</time></trkpt><trkpt lat="45.48791503058165" lon="11.482689586714137"><ele>135.28571428571428</ele><time>2026-03-22T07:24:52Z</time></trkpt><trkpt lat="45.4879159412876" lon="11.48258112559102"><ele>137.57142857142856</ele><time>2026-03-22T07:24:55Z</time></trkpt><trkpt lat="45.487897157460175" lon="11.482490168960782"><ele>139.85714285714286</ele><time>2026-03-22T07:24:58Z</time></trkpt><trkpt lat="45.487832651608315" lon="11.48243836573199"><ele>142.14285714285714</ele><time>2026-03-22T07:25:02Z</time></trkpt><trkpt lat="45.48776776357721" lon="11.4824378909212"><ele>144.42857142857142</ele><time>2026-03-22T07:25:05Z</time></trkpt><trkpt lat="45.48770297638674" lon="11.482463815299788"><ele>146.71428571428572</ele><time>2026-03-22T07:25:07.999Z</time></trkpt><trkpt lat="45.48762972522148" lon="11.482490736731313"><ele>149.0</ele><time>2026-03-22T07:25:10.999Z</time></trkpt><trkpt lat="45.48756176288408" lon="11.482506063692366"><ele>149.0</ele><time>2026-03-22T07:25:13.999Z</time></trkpt><trkpt lat="45.48748174500888" lon="11.482534736068638"><ele>149.0</ele><time>2026-03-22T07:25:16.999Z</time></trkpt><trkpt lat="45.487409891409676" lon="11.482548868041302"><ele>149.0</ele><time>2026-03-22T07:25:19.999Z</time></trkpt><trkpt lat="45.48733745031935" lon="11.482553596697006"><ele>149.0</ele><time>2026-03-22T07:25:22.999Z</time></trkpt><trkpt lat="45.48726133363236" lon="11.482568920464553"><ele>149.0</ele><time>2026-03-22T07:25:25.999Z</time></trkpt><trkpt lat="45.48720705370928" lon="11.482614541321226"><ele>149.0</ele><time>2026-03-22T07:25:28.999Z</time></trkpt><trkpt lat="45.48713414705318" lon="11.482674920354276"><ele>148.0</ele><time>2026-03-22T07:25:30.999Z</time></trkpt><trkpt lat="45.48705067159251" lon="11.48272113412408"><ele>147.0</ele><time>2026-03-22T07:25:32.999Z</time></trkpt><trkpt lat="45.48696846446981" lon="11.482672084633895"><ele>146.0</ele><time>2026-03-22T07:25:34.999Z</time></trkpt><trkpt lat="45.48691918071289" lon="11.482615498042373"><ele>145.0</ele><time>2026-03-22T07:25:35.999Z</time></trkpt><trkpt lat="45.48686935995268" lon="11.482552674782282"><ele>144.0</ele><time>2026-03-22T07:25:36.999Z</time></trkpt><trkpt lat="45.48679089259528" lon="11.482411063942669"><ele>143.0</ele><time>2026-03-22T07:25:38.999Z</time></trkpt><trkpt lat="45.486712680124846" lon="11.482279074569115"><ele>143.0</ele><time>2026-03-22T07:25:40.999Z</time></trkpt><trkpt lat="45.4866591613555" lon="11.482138958882095"><ele>143.0</ele><time>2026-03-22T07:25:42.998Z</time></trkpt><trkpt lat="45.486600410044794" lon="11.482018735168534"><ele>143.0</ele><time>2026-03-22T07:25:44.998Z</time></trkpt><trkpt lat="45.486539377673296" lon="11.48192214990358"><ele>143.0</ele><time>2026-03-22T07:25:46.998Z</time></trkpt><trkpt lat="45.486454680894106" lon="11.481838020800508"><ele>143.0</ele><time>2026-03-22T07:25:48.998Z</time></trkpt><trkpt lat="45.48636339015914" lon="11.481792826629263"><ele>143.6</ele><time>2026-03-22T07:25:50.998Z</time></trkpt><trkpt lat="45.48626888856474" lon="11.481763898727706"><ele>144.20000000000002</ele><time>2026-03-22T07:25:52.998Z</time></trkpt><trkpt lat="45.486191958042205" lon="11.481727161180354"><ele>144.8</ele><time>2026-03-22T07:25:54.998Z</time></trkpt><trkpt lat="45.48610717250933" lon="11.481679473898097"><ele>145.4</ele><time>2026-03-22T07:25:56.998Z</time></trkpt><trkpt lat="45.486012798277876" lon="11.481597979863675"><ele>146.0</ele><time>2026-03-22T07:25:58.998Z</time></trkpt><trkpt lat="45.485920957951066" lon="11.481521960745974"><ele>146.0</ele><time>2026-03-22T07:26:00.998Z</time></trkpt><trkpt lat="45.48585216323401" lon="11.481464470128016"><ele>146.0</ele><time>2026-03-22T07:26:02.998Z</time></trkpt><trkpt lat="45.48576525253716" lon="11.481421712027538"><ele>146.0</ele><time>2026-03-22T07:26:04.998Z</time></trkpt><trkpt lat="45.48569605004312" lon="11.481397176239764"><ele>146.0</ele><time>2026-03-22T07:26:06.998Z</time></trkpt><trkpt lat="45.48559931967182" lon="11.481364295799684"><ele>146.0</ele><time>2026-03-22T07:26:09.998Z</time></trkpt><trkpt lat="45.48552020216881" lon="11.481335790076075"><ele>146.0</ele><time>2026-03-22T07:26:11.998Z</time></trkpt><trkpt lat="45.485467985453646" lon="11.481231395691488"><ele>149.83333333333331</ele><time>2026-03-22T07:26:13.998Z</time></trkpt><trkpt lat="45.48542197381458" lon="11.481150184685625"><ele>153.66666666666666</ele><time>2026-03-22T07:26:15.998Z</time></trkpt><trkpt lat="45.485352573453255" lon="11.48110054749916"><ele>157.5</ele><time>2026-03-22T07:26:17.998Z</time></trkpt><trkpt lat="45.485260974650394" lon="11.481155240804203"><ele>161.33333333333334</ele><time>2026-03-22T07:26:20.997Z</time></trkpt><trkpt lat="45.48518354285486" lon="11.481184833184692"><ele>165.16666666666669</ele><time>2026-03-22T07:26:22.997Z</time></trkpt><trkpt lat="45.48511009103442" lon="11.48121023453076"><ele>169.0</ele><time>2026-03-22T07:26:24.997Z</time></trkpt><trkpt lat="45.48502736117233" lon="11.481253584048247"><ele>168.5</ele><time>2026-03-22T07:26:26.997Z</time></trkpt><trkpt lat="45.48493837741281" lon="11.481291990027303"><ele>168.0</ele><time>2026-03-22T07:26:29.997Z</time></trkpt><trkpt lat="45.48485764253891" lon="11.481330529354786"><ele>167.5</ele><time>2026-03-22T07:26:31.997Z</time></trkpt><trkpt lat="45.48477856857685" lon="11.481365558939297"><ele>167.0</ele><time>2026-03-22T07:26:33.997Z</time></trkpt><trkpt lat="45.48469912484747" lon="11.481401597790336"><ele>166.5</ele><time>2026-03-22T07:26:35.997Z</time></trkpt><trkpt lat="45.48461692750309" lon="11.48143560063322"><ele>166.0</ele><time>2026-03-22T07:26:37.997Z</time></trkpt><trkpt lat="45.48454864221402" lon="11.481467787769894"><ele>166.0</ele><time>2026-03-22T07:26:40Z</time></trkpt><trkpt lat="45.4844686309858" lon="11.481515008987213"><ele>166.0</ele><time>2026-03-22T07:26:42Z</time></trkpt><trkpt lat="45.484393675837396" lon="11.481571021322077"><ele>166.0</ele><time>2026-03-22T07:26:44Z</time></trkpt><trkpt lat="45.48433855443032" lon="11.481645420438149"><ele>166.0</ele><time>2026-03-22T07:26:46Z</time></trkpt><trkpt lat="45.48427837137699" lon="11.481712221508893"><ele>166.0</ele><time>2026-03-22T07:26:48Z</time></trkpt><trkpt lat="45.48421593549317" lon="11.48177061596522"><ele>166.0</ele><time>2026-03-22T07:26:50Z</time></trkpt><trkpt lat="45.48415990713885" lon="11.481853575528007"><ele>166.0</ele><time>2026-03-22T07:26:52Z</time></trkpt><trkpt lat="45.48410238075263" lon="11.481940336745478"><ele>166.0</ele><time>2026-03-22T07:26:54Z</time></trkpt><trkpt lat="45.484033340711804" lon="11.48206184308571"><ele>166.0</ele><time>2026-03-22T07:26:56Z</time></trkpt><trkpt lat="45.48397704218371" lon="11.4821813737013"><ele>166.0</ele><time>2026-03-22T07:26:58Z</time></trkpt><trkpt lat="45.48391746803781" lon="11.482291497344097"><ele>166.0</ele><time>2026-03-22T07:27:00Z</time></trkpt><trkpt lat="45.48386308489071" lon="11.482392367411972"><ele>164.5</ele><time>2026-03-22T07:27:02Z</time></trkpt><trkpt lat="45.48381691518862" lon="11.482482921650758"><ele>163.0</ele><time>2026-03-22T07:27:04Z</time></trkpt><trkpt lat="45.483762632850244" lon="11.482585940486432"><ele>161.5</ele><time>2026-03-22T07:27:06Z</time></trkpt><trkpt lat="45.483717508108114" lon="11.482678710250331"><ele>160.0</ele><time>2026-03-22T07:27:08Z</time></trkpt><trkpt lat="45.48366412765312" lon="11.482784477385596"><ele>158.5</ele><time>2026-03-22T07:27:10Z</time></trkpt><trkpt lat="45.48361451447671" lon="11.482886580645467"><ele>157.0</ele><time>2026-03-22T07:27:11.999Z</time></trkpt><trkpt lat="45.48356728118272" lon="11.482986844527355"><ele>161.39999999999998</ele><time>2026-03-22T07:27:13.999Z</time></trkpt><trkpt lat="45.48352262383107" lon="11.483100897607903"><ele>165.79999999999998</ele><time>2026-03-22T07:27:15.999Z</time></trkpt><trkpt lat="45.48347526533838" lon="11.483226622079867"><ele>170.2</ele><time>2026-03-22T07:27:17.999Z</time></trkpt><trkpt lat="45.483447153297696" lon="11.483366180421946"><ele>174.6</ele><time>2026-03-22T07:27:19.999Z</time></trkpt><trkpt lat="45.4834281558864" lon="11.483505180195083"><ele>179.0</ele><time>2026-03-22T07:27:21.999Z</time></trkpt><trkpt lat="45.48340590127822" lon="11.48362064478204"><ele>179.0</ele><time>2026-03-22T07:27:23.999Z</time></trkpt><trkpt lat="45.48339503943179" lon="11.483735576304115"><ele>179.0</ele><time>2026-03-22T07:27:25.999Z</time></trkpt><trkpt lat="45.4833966397948" lon="11.483841368060181"><ele>179.0</ele><time>2026-03-22T07:27:27.999Z</time></trkpt><trkpt lat="45.483401314245896" lon="11.48395893742275"><ele>179.0</ele><time>2026-03-22T07:27:29.999Z</time></trkpt><trkpt lat="45.48339441209453" lon="11.484070705564207"><ele>179.0</ele><time>2026-03-22T07:27:31.999Z</time></trkpt><trkpt lat="45.48339129526968" lon="11.484171420056576"><ele>179.0</ele><time>2026-03-22T07:27:33.999Z</time></trkpt><trkpt lat="45.48339237968462" lon="11.484269362152194"><ele>179.16666666666666</ele><time>2026-03-22T07:27:35.999Z</time></trkpt><trkpt lat="45.48337459978457" lon="11.484359529736418"><ele>179.33333333333331</ele><time>2026-03-22T07:27:37.999Z</time></trkpt><trkpt lat="45.48334850116002" lon="11.4844552376036"><ele>179.5</ele><time>2026-03-22T07:27:39.999Z</time></trkpt><trkpt lat="45.48330231697553" lon="11.484521312070688"><ele>179.66666666666666</ele><time>2026-03-22T07:27:41.999Z</time></trkpt><trkpt lat="45.48326918278422" lon="11.484622689188658"><ele>179.83333333333334</ele><time>2026-03-22T07:27:44.999Z</time></trkpt><trkpt lat="45.48321247190301" lon="11.484724803551416"><ele>180.0</ele><time>2026-03-22T07:27:47.998Z</time></trkpt><trkpt lat="45.48317208079244" lon="11.48484426418296"><ele>179.57142857142856</ele><time>2026-03-22T07:27:50.998Z</time></trkpt><trkpt lat="45.48314833925155" lon="11.484928175832554"><ele>179.14285714285717</ele><time>2026-03-22T07:27:52.998Z</time></trkpt><trkpt lat="45.48313248065748" lon="11.48503465701352"><ele>178.71428571428572</ele><time>2026-03-22T07:27:55.998Z</time></trkpt><trkpt lat="45.48309204012054" lon="11.485143829216872"><ele>178.28571428571428</ele><time>2026-03-22T07:27:58.998Z</time></trkpt><trkpt lat="45.483065590768" lon="11.48522964092962"><ele>177.85714285714283</ele><time>2026-03-22T07:28:00.998Z</time></trkpt><trkpt lat="45.48303071278008" lon="11.485305725725128"><ele>177.42857142857144</ele><time>2026-03-22T07:28:02.998Z</time></trkpt><trkpt lat="45.482950118752484" lon="11.485366850516641"><ele>177.0</ele><time>2026-03-22T07:28:05.998Z</time></trkpt><trkpt lat="45.48287076130492" lon="11.485386225137448"><ele>182.16666666666666</ele><time>2026-03-22T07:28:08.998Z</time></trkpt><trkpt lat="45.48279329996383" lon="11.485414519513283"><ele>187.33333333333331</ele><time>2026-03-22T07:28:11.998Z</time></trkpt><trkpt lat="45.48269992513808" lon="11.4854092104607"><ele>192.5</ele><time>2026-03-22T07:28:14.998Z</time></trkpt><trkpt lat="45.48263610897745" lon="11.48539532131029"><ele>197.66666666666666</ele><time>2026-03-22T07:28:16.998Z</time></trkpt><trkpt lat="45.48254424987776" lon="11.485369284731114"><ele>202.83333333333331</ele><time>2026-03-22T07:28:19.998Z</time></trkpt><trkpt lat="45.48248172370575" lon="11.485357856862572"><ele>208.0</ele><time>2026-03-22T07:28:21.998Z</time></trkpt><trkpt lat="45.4824227388456" lon="11.485316029207574"><ele>208.0</ele><time>2026-03-22T07:28:23.998Z</time></trkpt><trkpt lat="45.482341321337344" lon="11.485317367178517"><ele>208.0</ele><time>2026-03-22T07:28:26.997Z</time></trkpt><trkpt lat="45.48225140203028" lon="11.485306364823906"><ele>208.0</ele><time>2026-03-22T07:28:29.997Z</time></trkpt><trkpt lat="45.482183666775896" lon="11.485307008165774"><ele>208.0</ele><time>2026-03-22T07:28:31.997Z</time></trkpt><trkpt lat="45.48212039889172" lon="11.485295250912875"><ele>208.0</ele><time>2026-03-22T07:28:33.997Z</time></trkpt><trkpt lat="45.482053605293885" lon="11.485303521461844"><ele>208.0</ele><time>2026-03-22T07:28:35.997Z</time></trkpt><trkpt lat="45.48198544906805" lon="11.485295179505535"><ele>208.0</ele><time>2026-03-22T07:28:37.997Z</time></trkpt><trkpt lat="45.48190685252866" lon="11.48529773459528"><ele>209.99999999999997</ele><time>2026-03-22T07:28:40.997Z</time></trkpt><trkpt lat="45.481836688518506" lon="11.485290109255244"><ele>212.0</ele><time>2026-03-22T07:28:43.997Z</time></trkpt><trkpt lat="45.481769889364124" lon="11.485297937225804"><ele>214.0</ele><time>2026-03-22T07:28:46Z</time></trkpt><trkpt lat="45.48169145031308" lon="11.485276773868103"><ele>216.0</ele><time>2026-03-22T07:28:49Z</time></trkpt><trkpt lat="45.481604669423604" lon="11.485279427614156"><ele>217.99999999999997</ele><time>2026-03-22T07:28:53Z</time></trkpt><trkpt lat="45.481533469034275" lon="11.485283379325184"><ele>220.0</ele><time>2026-03-22T07:28:56Z</time></trkpt><trkpt lat="45.481456244930406" lon="11.485280382241672"><ele>219.99999999999997</ele><time>2026-03-22T07:28:59Z</time></trkpt><trkpt lat="45.48137273023419" lon="11.485223436124109"><ele>220.0</ele><time>2026-03-22T07:29:02Z</time></trkpt><trkpt lat="45.48131896232007" lon="11.485170303421395"><ele>220.0</ele><time>2026-03-22T07:29:04Z</time></trkpt><trkpt lat="45.48124360781358" lon="11.485118379681042"><ele>220.0</ele><time>2026-03-22T07:29:07Z</time></trkpt><trkpt lat="45.48116779531858" lon="11.485026525015169"><ele>219.99999999999997</ele><time>2026-03-22T07:29:10Z</time></trkpt><trkpt lat="45.48111285255405" lon="11.484961614854448"><ele>220.0</ele><time>2026-03-22T07:29:13Z</time></trkpt><trkpt lat="45.48106734004205" lon="11.484879063851674"><ele>221.83333333333331</ele><time>2026-03-22T07:29:15Z</time></trkpt><trkpt lat="45.480987104820876" lon="11.484829597346152"><ele>223.66666666666666</ele><time>2026-03-22T07:29:17.999Z</time></trkpt><trkpt lat="45.4809166670399" lon="11.484806135255061"><ele>225.5</ele><time>2026-03-22T07:29:21.999Z</time></trkpt><trkpt lat="45.48084152036603" lon="11.484798744084436"><ele>227.33333333333331</ele><time>2026-03-22T07:29:24.999Z</time></trkpt><trkpt lat="45.48078006966979" lon="11.484752024763566"><ele>229.16666666666666</ele><time>2026-03-22T07:29:26.999Z</time></trkpt><trkpt lat="45.480712353591926" lon="11.484705302543057"><ele>231.0</ele><time>2026-03-22T07:29:28.999Z</time></trkpt><trkpt lat="45.48063618513557" lon="11.48466184012882"><ele>231.0</ele><time>2026-03-22T07:29:31.999Z</time></trkpt><trkpt lat="45.480572749349676" lon="11.484573211047252"><ele>231.0</ele><time>2026-03-22T07:29:34.999Z</time></trkpt><trkpt lat="45.4805007437073" lon="11.484501814474292"><ele>231.0</ele><time>2026-03-22T07:29:37.999Z</time></trkpt><trkpt lat="45.480438159092486" lon="11.484423117995227"><ele>231.0</ele><time>2026-03-22T07:29:40.999Z</time></trkpt><trkpt lat="45.48036477771547" lon="11.4843611778011"><ele>231.0</ele><time>2026-03-22T07:29:43.999Z</time></trkpt><trkpt lat="45.48030517689924" lon="11.48432562164176"><ele>231.0</ele><time>2026-03-22T07:29:46.999Z</time></trkpt><trkpt lat="45.48025366120682" lon="11.484241900277048"><ele>231.0</ele><time>2026-03-22T07:29:48.999Z</time></trkpt><trkpt lat="45.48019435430356" lon="11.484165153553207"><ele>231.0</ele><time>2026-03-22T07:29:51.999Z</time></trkpt><trkpt lat="45.480133367645024" lon="11.484122022333697"><ele>231.0</ele><time>2026-03-22T07:29:53.999Z</time></trkpt><trkpt lat="45.48006885031918" lon="11.484093246234877"><ele>231.0</ele><time>2026-03-22T07:29:55.998Z</time></trkpt><trkpt lat="45.47998521403696" lon="11.484095625655204"><ele>231.0</ele><time>2026-03-22T07:29:58.998Z</time></trkpt><trkpt lat="45.47991823691792" lon="11.48410696694432"><ele>231.0</ele><time>2026-03-22T07:30:01.998Z</time></trkpt><trkpt lat="45.47983134938765" lon="11.484113314718236"><ele>231.0</ele><time>2026-03-22T07:30:04.998Z</time></trkpt><trkpt lat="45.479763714780866" lon="11.484112777962865"><ele>231.0</ele><time>2026-03-22T07:30:06.998Z</time></trkpt><trkpt lat="45.47968816000863" lon="11.484132848858266"><ele>231.0</ele><time>2026-03-22T07:30:09.998Z</time></trkpt><trkpt lat="45.47961169255895" lon="11.48416322938794"><ele>231.0</ele><time>2026-03-22T07:30:12.998Z</time></trkpt><trkpt lat="45.479541081608446" lon="11.484232369118502"><ele>231.0</ele><time>2026-03-22T07:30:15.998Z</time></trkpt><trkpt lat="45.47949047472755" lon="11.484305763470156"><ele>231.0</ele><time>2026-03-22T07:30:18.998Z</time></trkpt><trkpt lat="45.47944759340119" lon="11.484384301646758"><ele>232.66666666666666</ele><time>2026-03-22T07:30:21.998Z</time></trkpt><trkpt lat="45.479399651955944" lon="11.4844773705477"><ele>234.33333333333331</ele><time>2026-03-22T07:30:24.998Z</time></trkpt><trkpt lat="45.4793481470378" lon="11.48456893502648"><ele>236.0</ele><time>2026-03-22T07:30:27.998Z</time></trkpt><trkpt lat="45.47928694887667" lon="11.48464467952528"><ele>237.66666666666666</ele><time>2026-03-22T07:30:30.998Z</time></trkpt><trkpt lat="45.479227955521424" lon="11.484700977106307"><ele>239.33333333333331</ele><time>2026-03-22T07:30:32.997Z</time></trkpt><trkpt lat="45.47915812720741" lon="11.484740217272222"><ele>241.0</ele><time>2026-03-22T07:30:34.997Z</time></trkpt><trkpt lat="45.47909553029627" lon="11.484774367645924"><ele>240.33333333333331</ele><time>2026-03-22T07:30:36.997Z</time></trkpt><trkpt lat="45.479021712449565" lon="11.484760688152084"><ele>239.66666666666666</ele><time>2026-03-22T07:30:39.997Z</time></trkpt><trkpt lat="45.47893553494162" lon="11.484716313674793"><ele>239.0</ele><time>2026-03-22T07:30:42.997Z</time></trkpt><trkpt lat="45.47886114546726" lon="11.484700142008313"><ele>238.33333333333331</ele><time>2026-03-22T07:30:45.997Z</time></trkpt><trkpt lat="45.47878615095635" lon="11.484659466464237"><ele>237.66666666666666</ele><time>2026-03-22T07:30:48.997Z</time></trkpt><trkpt lat="45.47873579438112" lon="11.484500054928347"><ele>237.0</ele><time>2026-03-22T07:35:20Z</time></trkpt><trkpt lat="45.47871607433005" lon="11.484593980735431"><ele>238.0</ele><time>2026-03-22T07:37:47.999Z</time></trkpt><trkpt lat="45.4786580902988" lon="11.484639261329148"><ele>239.0</ele><time>2026-03-22T07:37:49.999Z</time></trkpt><trkpt lat="45.47858563762381" lon="11.48469956714125"><ele>240.0</ele><time>2026-03-22T07:37:51.999Z</time></trkpt><trkpt lat="45.478515903507734" lon="11.484808408298406"><ele>241.0</ele><time>2026-03-22T07:37:53.999Z</time></trkpt><trkpt lat="45.47847790982843" lon="11.4849839563165"><ele>242.0</ele><time>2026-03-22T07:37:55.999Z</time></trkpt><trkpt lat="45.47841974530589" lon="11.48510093842514"><ele>242.00000000000003</ele><time>2026-03-22T07:37:57.999Z</time></trkpt><trkpt lat="45.478395045930064" lon="11.485226165926253"><ele>242.0</ele><time>2026-03-22T07:38:00.999Z</time></trkpt><trkpt lat="45.47836498711277" lon="11.485354689867508"><ele>242.0</ele><time>2026-03-22T07:38:03.999Z</time></trkpt><trkpt lat="45.4783300279957" lon="11.48548402078036"><ele>242.0</ele><time>2026-03-22T07:38:06.999Z</time></trkpt><trkpt lat="45.47831448681388" lon="11.485576752015897"><ele>242.00000000000003</ele><time>2026-03-22T07:38:08.999Z</time></trkpt><trkpt lat="45.478286781059076" lon="11.485662512634784"><ele>242.0</ele><time>2026-03-22T07:38:10.999Z</time></trkpt><trkpt lat="45.47826389369737" lon="11.485754470750141"><ele>242.85714285714283</ele><time>2026-03-22T07:38:12.999Z</time></trkpt><trkpt lat="45.478240351362544" lon="11.485842535146157"><ele>243.7142857142857</ele><time>2026-03-22T07:38:14.999Z</time></trkpt><trkpt lat="45.47821939676929" lon="11.48592985680512"><ele>244.57142857142856</ele><time>2026-03-22T07:38:16.999Z</time></trkpt><trkpt lat="45.478203050329505" lon="11.486027792667342"><ele>245.42857142857144</ele><time>2026-03-22T07:38:18.998Z</time></trkpt><trkpt lat="45.478191192652545" lon="11.486126693088938"><ele>246.2857142857143</ele><time>2026-03-22T07:38:20.998Z</time></trkpt><trkpt lat="45.47815566797221" lon="11.486254370856606"><ele>247.14285714285717</ele><time>2026-03-22T07:38:23.998Z</time></trkpt><trkpt lat="45.47813751639346" lon="11.486347888931034"><ele>248.0</ele><time>2026-03-22T07:38:25.998Z</time></trkpt><trkpt lat="45.4781188719116" lon="11.486438078040042"><ele>248.66666666666669</ele><time>2026-03-22T07:38:27.998Z</time></trkpt><trkpt lat="45.47810288170147" lon="11.486562284960922"><ele>249.33333333333334</ele><time>2026-03-22T07:38:30.998Z</time></trkpt><trkpt lat="45.47807838190785" lon="11.486664156737923"><ele>250.0</ele><time>2026-03-22T07:38:32.998Z</time></trkpt><trkpt lat="45.47805947791306" lon="11.486800363682516"><ele>250.66666666666669</ele><time>2026-03-22T07:38:35.998Z</time></trkpt><trkpt lat="45.47806512681818" lon="11.486899681993876"><ele>251.33333333333334</ele><time>2026-03-22T07:38:37.998Z</time></trkpt><trkpt lat="45.47804429683851" lon="11.486989501604743"><ele>252.0</ele><time>2026-03-22T07:38:39.998Z</time></trkpt><trkpt lat="45.47802887513172" lon="11.487086059996432"><ele>252.16666666666666</ele><time>2026-03-22T07:38:41.998Z</time></trkpt><trkpt lat="45.47801141664989" lon="11.487217187450888"><ele>252.33333333333331</ele><time>2026-03-22T07:38:44.998Z</time></trkpt><trkpt lat="45.47800366995726" lon="11.4873160314095"><ele>252.5</ele><time>2026-03-22T07:38:46.998Z</time></trkpt><trkpt lat="45.47799864840429" lon="11.487462008254997"><ele>252.66666666666666</ele><time>2026-03-22T07:38:49.998Z</time></trkpt><trkpt lat="45.47798352418143" lon="11.48757595247367"><ele>252.83333333333331</ele><time>2026-03-22T07:38:52.998Z</time></trkpt><trkpt lat="45.47797320641176" lon="11.487699737521634"><ele>253.0</ele><time>2026-03-22T07:38:55.997Z</time></trkpt><trkpt lat="45.47796809774197" lon="11.487833374510013"><ele>251.99999999999997</ele><time>2026-03-22T07:38:58.997Z</time></trkpt><trkpt lat="45.477972915602344" lon="11.487938950318059"><ele>251.0</ele><time>2026-03-22T07:39:00.997Z</time></trkpt><trkpt lat="45.47798372050378" lon="11.48804643202902"><ele>250.0</ele><time>2026-03-22T07:39:02.997Z</time></trkpt><trkpt lat="45.47800122667985" lon="11.48814365016663"><ele>249.0</ele><time>2026-03-22T07:39:04.997Z</time></trkpt><trkpt lat="45.47801468951289" lon="11.488249502077458"><ele>247.99999999999997</ele><time>2026-03-22T07:39:06.997Z</time></trkpt><trkpt lat="45.47803619994842" lon="11.488362435776622"><ele>247.0</ele><time>2026-03-22T07:39:08.997Z</time></trkpt><trkpt lat="45.47805039347663" lon="11.488480714814616"><ele>246.99999999999997</ele><time>2026-03-22T07:39:10.997Z</time></trkpt><trkpt lat="45.478066911193785" lon="11.488587163397641"><ele>247.0</ele><time>2026-03-22T07:39:12.997Z</time></trkpt><trkpt lat="45.4780815765832" lon="11.488686760905093"><ele>247.0</ele><time>2026-03-22T07:39:15Z</time></trkpt><trkpt lat="45.478095604750486" lon="11.488786318335055"><ele>247.0</ele><time>2026-03-22T07:39:17Z</time></trkpt><trkpt lat="45.4781194939953" lon="11.488895364466542"><ele>246.99999999999997</ele><time>2026-03-22T07:39:19Z</time></trkpt><trkpt lat="45.47813466607613" lon="11.48900472646796"><ele>247.0</ele><time>2026-03-22T07:39:21Z</time></trkpt><trkpt lat="45.47815381587332" lon="11.489112577944947"><ele>246.71428571428572</ele><time>2026-03-22T07:39:23Z</time></trkpt><trkpt lat="45.47817425377463" lon="11.489215093860654"><ele>246.42857142857142</ele><time>2026-03-22T07:39:25Z</time></trkpt><trkpt lat="45.47819885047348" lon="11.489311672013956"><ele>246.14285714285714</ele><time>2026-03-22T07:39:27Z</time></trkpt><trkpt lat="45.47821902969088" lon="11.489407422460692"><ele>245.85714285714286</ele><time>2026-03-22T07:39:29Z</time></trkpt><trkpt lat="45.47824625507139" lon="11.489501773568076"><ele>245.57142857142856</ele><time>2026-03-22T07:39:31Z</time></trkpt><trkpt lat="45.47827433756555" lon="11.489595985463293"><ele>245.28571428571428</ele><time>2026-03-22T07:39:33Z</time></trkpt><trkpt lat="45.47830266591597" lon="11.489696774426303"><ele>245.0</ele><time>2026-03-22T07:39:35Z</time></trkpt><trkpt lat="45.478328229454206" lon="11.489792748051304"><ele>245.8</ele><time>2026-03-22T07:39:37Z</time></trkpt><trkpt lat="45.47835451231668" lon="11.489901031056608"><ele>246.6</ele><time>2026-03-22T07:39:39Z</time></trkpt><trkpt lat="45.4783713589471" lon="11.490015379810295"><ele>247.39999999999998</ele><time>2026-03-22T07:39:41Z</time></trkpt><trkpt lat="45.478373117448875" lon="11.490149292626327"><ele>248.2</ele><time>2026-03-22T07:39:43Z</time></trkpt><trkpt lat="45.478369839446984" lon="11.490300933301022"><ele>249.0</ele><time>2026-03-22T07:39:45Z</time></trkpt><trkpt lat="45.47836525315734" lon="11.490450187629936"><ele>249.25</ele><time>2026-03-22T07:39:46.999Z</time></trkpt><trkpt lat="45.47836525759224" lon="11.490610021932442"><ele>249.5</ele><time>2026-03-22T07:39:48.999Z</time></trkpt><trkpt lat="45.47836508587124" lon="11.490783029657978"><ele>249.75</ele><time>2026-03-22T07:39:50.999Z</time></trkpt><trkpt lat="45.478356954489385" lon="11.490967468499884"><ele>250.0</ele><time>2026-03-22T07:39:52.999Z</time></trkpt><trkpt lat="45.47834140269225" lon="11.49115096216627"><ele>249.99999999999997</ele><time>2026-03-22T07:39:54.999Z</time></trkpt><trkpt lat="45.478329086024594" lon="11.491240028588944"><ele>250.0</ele><time>2026-03-22T07:39:55.999Z</time></trkpt><trkpt lat="45.47830638973316" lon="11.49133173956111"><ele>250.0</ele><time>2026-03-22T07:39:56.999Z</time></trkpt><trkpt lat="45.478287846462685" lon="11.49141958707468"><ele>250.0</ele><time>2026-03-22T07:39:57.999Z</time></trkpt><trkpt lat="45.47825976730069" lon="11.491500142544384"><ele>249.99999999999997</ele><time>2026-03-22T07:39:58.999Z</time></trkpt><trkpt lat="45.4782171268816" lon="11.491655504544353"><ele>250.0</ele><time>2026-03-22T07:40:00.999Z</time></trkpt><trkpt lat="45.47816084545245" lon="11.491805964355935"><ele>248.6</ele><time>2026-03-22T07:40:02.999Z</time></trkpt><trkpt lat="45.47812056485188" lon="11.491962251238204"><ele>247.2</ele><time>2026-03-22T07:40:04.999Z</time></trkpt><trkpt lat="45.47807321681978" lon="11.49210204962557"><ele>245.8</ele><time>2026-03-22T07:40:06.999Z</time></trkpt><trkpt lat="45.47803199466385" lon="11.492244934659102"><ele>244.4</ele><time>2026-03-22T07:40:08.999Z</time></trkpt><trkpt lat="45.47798721889848" lon="11.49238911515734"><ele>243.0</ele><time>2026-03-22T07:40:10.999Z</time></trkpt><trkpt lat="45.477947159139916" lon="11.492515847450578"><ele>242.4</ele><time>2026-03-22T07:40:12.999Z</time></trkpt><trkpt lat="45.47788693926315" lon="11.492626157895383"><ele>241.8</ele><time>2026-03-22T07:40:14.999Z</time></trkpt><trkpt lat="45.47781445930396" lon="11.49271725120969"><ele>241.2</ele><time>2026-03-22T07:40:16.999Z</time></trkpt><trkpt lat="45.477738878492275" lon="11.492788633953275"><ele>240.6</ele><time>2026-03-22T07:40:18.999Z</time></trkpt><trkpt lat="45.477657405854686" lon="11.492854476692175"><ele>240.0</ele><time>2026-03-22T07:40:20.999Z</time></trkpt><trkpt lat="45.477569747821754" lon="11.492922873971692"><ele>240.0</ele><time>2026-03-22T07:40:22.999Z</time></trkpt><trkpt lat="45.4774746689521" lon="11.492997891329086"><ele>240.0</ele><time>2026-03-22T07:40:24.998Z</time></trkpt><trkpt lat="45.47738118201846" lon="11.493070980200729"><ele>240.0</ele><time>2026-03-22T07:40:26.998Z</time></trkpt><trkpt lat="45.477292160091785" lon="11.49313002799936"><ele>240.0</ele><time>2026-03-22T07:40:28.998Z</time></trkpt><trkpt lat="45.47720558513777" lon="11.493180305910679"><ele>240.0</ele><time>2026-03-22T07:40:30.998Z</time></trkpt><trkpt lat="45.4771041206064" lon="11.49322344554592"><ele>241.8</ele><time>2026-03-22T07:40:32.998Z</time></trkpt><trkpt lat="45.47700693694888" lon="11.493294150136755"><ele>243.6</ele><time>2026-03-22T07:40:34.998Z</time></trkpt><trkpt lat="45.4769139199611" lon="11.493295798221492"><ele>245.39999999999998</ele><time>2026-03-22T07:40:36.998Z</time></trkpt><trkpt lat="45.47681966124709" lon="11.49333801479753"><ele>247.2</ele><time>2026-03-22T07:40:38.998Z</time></trkpt><trkpt lat="45.47672353404477" lon="11.493385327877839"><ele>249.0</ele><time>2026-03-22T07:40:40.998Z</time></trkpt><trkpt lat="45.476640380969926" lon="11.493434033132813"><ele>249.0</ele><time>2026-03-22T07:40:42.998Z</time></trkpt><trkpt lat="45.47655616621649" lon="11.493498161310537"><ele>249.0</ele><time>2026-03-22T07:40:44.998Z</time></trkpt><trkpt lat="45.47648217043512" lon="11.493550591386176"><ele>249.0</ele><time>2026-03-22T07:40:46.998Z</time></trkpt><trkpt lat="45.476376682295104" lon="11.493639933796874"><ele>249.0</ele><time>2026-03-22T07:40:48.998Z</time></trkpt><trkpt lat="45.4763152409676" lon="11.493696996429799"><ele>249.0</ele><time>2026-03-22T07:40:49.998Z</time></trkpt><trkpt lat="45.47625034445086" lon="11.493735921397025"><ele>249.0</ele><time>2026-03-22T07:40:50.998Z</time></trkpt><trkpt lat="45.476182395001146" lon="11.493786395010895"><ele>249.33333333333334</ele><time>2026-03-22T07:40:51.998Z</time></trkpt><trkpt lat="45.47611180042777" lon="11.493836073733002"><ele>249.66666666666669</ele><time>2026-03-22T07:40:52.998Z</time></trkpt><trkpt lat="45.47604398883926" lon="11.493914847287357"><ele>250.0</ele><time>2026-03-22T07:40:53.998Z</time></trkpt><trkpt lat="45.47597718190565" lon="11.49397024161634"><ele>250.33333333333334</ele><time>2026-03-22T07:40:54.998Z</time></trkpt><trkpt lat="45.47591002477226" lon="11.494035177347808"><ele>250.66666666666669</ele><time>2026-03-22T07:40:55.998Z</time></trkpt><trkpt lat="45.47584978977919" lon="11.494107291681114"><ele>251.0</ele><time>2026-03-22T07:40:56.998Z</time></trkpt><trkpt lat="45.47579064035479" lon="11.494168837132968"><ele>251.0</ele><time>2026-03-22T07:40:57.998Z</time></trkpt><trkpt lat="45.47573690151397" lon="11.494224543335443"><ele>251.00000000000003</ele><time>2026-03-22T07:40:58.998Z</time></trkpt><trkpt lat="45.47564437770834" lon="11.494318977781045"><ele>251.00000000000003</ele><time>2026-03-22T07:41:00.998Z</time></trkpt><trkpt lat="45.47556879340925" lon="11.494397137777364"><ele>251.0</ele><time>2026-03-22T07:41:02.997Z</time></trkpt><trkpt lat="45.475494090542824" lon="11.494489815547674"><ele>251.0</ele><time>2026-03-22T07:41:04.997Z</time></trkpt><trkpt lat="45.47542184922298" lon="11.494571695166275"><ele>251.60000000000002</ele><time>2026-03-22T07:41:06.997Z</time></trkpt><trkpt lat="45.47535471640694" lon="11.494684954594474"><ele>252.20000000000002</ele><time>2026-03-22T07:41:08.997Z</time></trkpt><trkpt lat="45.47531124870716" lon="11.494801872069303"><ele>252.79999999999998</ele><time>2026-03-22T07:41:10.997Z</time></trkpt><trkpt lat="45.47528046192676" lon="11.494931770911233"><ele>253.39999999999998</ele><time>2026-03-22T07:41:12.997Z</time></trkpt><trkpt lat="45.47527477169234" lon="11.495060002951165"><ele>254.0</ele><time>2026-03-22T07:41:14.997Z</time></trkpt><trkpt lat="45.47526891693157" lon="11.495193724944512"><ele>254.00000000000003</ele><time>2026-03-22T07:41:16.997Z</time></trkpt><trkpt lat="45.47526642793982" lon="11.495333385122628"><ele>254.0</ele><time>2026-03-22T07:41:18.997Z</time></trkpt><trkpt lat="45.47526870285666" lon="11.495473526061156"><ele>254.0</ele><time>2026-03-22T07:41:21Z</time></trkpt><trkpt lat="45.47526868555793" lon="11.495597523347223"><ele>254.0</ele><time>2026-03-22T07:41:23Z</time></trkpt><trkpt lat="45.47527238946615" lon="11.495711666869179"><ele>254.00000000000003</ele><time>2026-03-22T07:41:25Z</time></trkpt><trkpt lat="45.47527940429533" lon="11.495811806645749"><ele>254.0</ele><time>2026-03-22T07:41:27Z</time></trkpt><trkpt lat="45.475282966546146" lon="11.495915663909047"><ele>253.28571428571428</ele><time>2026-03-22T07:41:29Z</time></trkpt><trkpt lat="45.47528555405341" lon="11.496028275676192"><ele>252.57142857142856</ele><time>2026-03-22T07:41:31Z</time></trkpt><trkpt lat="45.47528963144683" lon="11.49611815347268"><ele>251.85714285714283</ele><time>2026-03-22T07:41:33Z</time></trkpt><trkpt lat="45.4753004271497" lon="11.496211981272127"><ele>251.14285714285714</ele><time>2026-03-22T07:41:35Z</time></trkpt><trkpt lat="45.47530118633548" lon="11.496317758738025"><ele>250.4285714285714</ele><time>2026-03-22T07:41:37Z</time></trkpt><trkpt lat="45.47530850948236" lon="11.496414424777786"><ele>249.7142857142857</ele><time>2026-03-22T07:41:39Z</time></trkpt><trkpt lat="45.47531520786642" lon="11.496514922798001"><ele>249.0</ele><time>2026-03-22T07:41:41Z</time></trkpt><trkpt lat="45.475320396361894" lon="11.496621895988936"><ele>249.0</ele><time>2026-03-22T07:41:43Z</time></trkpt><trkpt lat="45.47532685881709" lon="11.496727131430386"><ele>248.99999999999997</ele><time>2026-03-22T07:41:45Z</time></trkpt><trkpt lat="45.4753326703912" lon="11.496825339145751"><ele>249.0</ele><time>2026-03-22T07:41:47Z</time></trkpt><trkpt lat="45.4753444962156" lon="11.496920820920781"><ele>249.0</ele><time>2026-03-22T07:41:49Z</time></trkpt><trkpt lat="45.4753521472932" lon="11.497017301166855"><ele>248.99999999999997</ele><time>2026-03-22T07:41:51Z</time></trkpt><trkpt lat="45.475363792519126" lon="11.497119324299678"><ele>249.0</ele><time>2026-03-22T07:41:52.999Z</time></trkpt><trkpt lat="45.475373060758955" lon="11.497223811110574"><ele>249.0</ele><time>2026-03-22T07:41:54.999Z</time></trkpt><trkpt lat="45.47537416613375" lon="11.497318465511023"><ele>248.16666666666666</ele><time>2026-03-22T07:41:56.999Z</time></trkpt><trkpt lat="45.475312965337174" lon="11.497382048000405"><ele>247.33333333333331</ele><time>2026-03-22T07:41:59.999Z</time></trkpt><trkpt lat="45.475251227339335" lon="11.497350556258347"><ele>246.5</ele><time>2026-03-22T07:42:01.999Z</time></trkpt><trkpt lat="45.47517118778701" lon="11.497300195113176"><ele>245.66666666666666</ele><time>2026-03-22T07:42:04.999Z</time></trkpt><trkpt lat="45.4750962111889" lon="11.497254118701049"><ele>244.83333333333331</ele><time>2026-03-22T07:42:07.999Z</time></trkpt><trkpt lat="45.47501241466835" lon="11.49721339758072"><ele>244.0</ele><time>2026-03-22T07:42:10.999Z</time></trkpt><trkpt lat="45.47492701216129" lon="11.497153212152643"><ele>243.99999999999997</ele><time>2026-03-22T07:42:13.999Z</time></trkpt><trkpt lat="45.47486969545624" lon="11.497109109815181"><ele>244.0</ele><time>2026-03-22T07:42:15.999Z</time></trkpt><trkpt lat="45.47480431901846" lon="11.49703932280978"><ele>243.99999999999997</ele><time>2026-03-22T07:42:17.999Z</time></trkpt><trkpt lat="45.47474435769218" lon="11.496983755475148"><ele>243.99999999999997</ele><time>2026-03-22T07:42:19.999Z</time></trkpt><trkpt lat="45.47469599136972" lon="11.496910483918768"><ele>244.0</ele><time>2026-03-22T07:42:21.999Z</time></trkpt><trkpt lat="45.47465272858793" lon="11.496844138838158"><ele>243.99999999999997</ele><time>2026-03-22T07:42:23.999Z</time></trkpt><trkpt lat="45.474594893376405" lon="11.496746010051012"><ele>243.99999999999997</ele><time>2026-03-22T07:42:26.999Z</time></trkpt><trkpt lat="45.47452313621925" lon="11.496671142854447"><ele>245.71428571428567</ele><time>2026-03-22T07:42:29.998Z</time></trkpt><trkpt lat="45.47446241828721" lon="11.496580437124553"><ele>247.42857142857142</ele><time>2026-03-22T07:42:32.998Z</time></trkpt><trkpt lat="45.474395927171216" lon="11.496518711197115"><ele>249.1428571428571</ele><time>2026-03-22T07:42:35.998Z</time></trkpt><trkpt lat="45.47434485323969" lon="11.496464442734002"><ele>250.85714285714283</ele><time>2026-03-22T07:42:37.998Z</time></trkpt><trkpt lat="45.47428870256974" lon="11.496421653339093"><ele>252.57142857142856</ele><time>2026-03-22T07:42:39.998Z</time></trkpt><trkpt lat="45.47422925395917" lon="11.49638136408837"><ele>254.28571428571428</ele><time>2026-03-22T07:42:41.998Z</time></trkpt><trkpt lat="45.47417432277907" lon="11.4963336767665"><ele>256.0</ele><time>2026-03-22T07:42:43.998Z</time></trkpt><trkpt lat="45.474113479864634" lon="11.496309162988464"><ele>255.99999999999997</ele><time>2026-03-22T07:42:45.998Z</time></trkpt><trkpt lat="45.47405177023961" lon="11.496284175480307"><ele>256.0</ele><time>2026-03-22T07:42:47.998Z</time></trkpt><trkpt lat="45.473966765413586" lon="11.49623134899708"><ele>256.0</ele><time>2026-03-22T07:42:50.998Z</time></trkpt><trkpt lat="45.47390864762004" lon="11.496136049412497"><ele>256.0</ele><time>2026-03-22T07:42:53.998Z</time></trkpt><trkpt lat="45.47387240060351" lon="11.496035975595364"><ele>255.99999999999997</ele><time>2026-03-22T07:42:56.998Z</time></trkpt><trkpt lat="45.47383386635785" lon="11.495926058402093"><ele>256.0</ele><time>2026-03-22T07:42:59.998Z</time></trkpt><trkpt lat="45.473814502074696" lon="11.495832807332832"><ele>255.99999999999997</ele><time>2026-03-22T07:43:01.998Z</time></trkpt><trkpt lat="45.47380127294448" lon="11.495706125309178"><ele>256.0</ele><time>2026-03-22T07:43:04.998Z</time></trkpt><trkpt lat="45.47380814046551" lon="11.495594103555902"><ele>256.0</ele><time>2026-03-22T07:43:07.997Z</time></trkpt><trkpt lat="45.47381961373479" lon="11.49548771726084"><ele>256.0</ele><time>2026-03-22T07:43:10.997Z</time></trkpt><trkpt lat="45.47380930219367" lon="11.495387778326478"><ele>255.99999999999997</ele><time>2026-03-22T07:43:13.997Z</time></trkpt><trkpt lat="45.473780596224735" lon="11.4952783247812"><ele>256.0</ele><time>2026-03-22T07:43:16.997Z</time></trkpt><trkpt lat="45.47372141811154" lon="11.495237440598196"><ele>257.0</ele><time>2026-03-22T07:43:18.997Z</time></trkpt><trkpt lat="45.47367862805657" lon="11.495158071160517"><ele>258.0</ele><time>2026-03-22T07:43:21.997Z</time></trkpt><trkpt lat="45.4736186489836" lon="11.495088608683158"><ele>259.0</ele><time>2026-03-22T07:43:24.997Z</time></trkpt><trkpt lat="45.47356130628106" lon="11.495009307429958"><ele>260.0</ele><time>2026-03-22T07:43:28Z</time></trkpt><trkpt lat="45.47350541141298" lon="11.494935843138718"><ele>261.0</ele><time>2026-03-22T07:43:31Z</time></trkpt><trkpt lat="45.473460662736095" lon="11.494855667562836"><ele>262.0</ele><time>2026-03-22T07:43:34Z</time></trkpt><trkpt lat="45.47343351616487" lon="11.494754536341524"><ele>262.0</ele><time>2026-03-22T07:43:37Z</time></trkpt><trkpt lat="45.47342806602351" lon="11.49465822145801"><ele>262.0</ele><time>2026-03-22T07:43:40Z</time></trkpt><trkpt lat="45.47341870761351" lon="11.494567097143173"><ele>262.0</ele><time>2026-03-22T07:43:43Z</time></trkpt><trkpt lat="45.47340974804466" lon="11.4944757387979"><ele>262.0</ele><time>2026-03-22T07:43:46Z</time></trkpt><trkpt lat="45.47339259369118" lon="11.4943761094301"><ele>262.0</ele><time>2026-03-22T07:43:50Z</time></trkpt><trkpt lat="45.47335743109294" lon="11.494296957039134"><ele>262.0</ele><time>2026-03-22T07:43:53Z</time></trkpt><trkpt lat="45.473299661457894" lon="11.49423648029107"><ele>262.0</ele><time>2026-03-22T07:43:56Z</time></trkpt><trkpt lat="45.473223235379095" lon="11.494183912032085"><ele>263.0</ele><time>2026-03-22T07:43:58.999Z</time></trkpt><trkpt lat="45.473157413794766" lon="11.494158185420597"><ele>264.0</ele><time>2026-03-22T07:44:00.999Z</time></trkpt><trkpt lat="45.47306891954935" lon="11.49415262207937"><ele>265.0</ele><time>2026-03-22T07:44:03.999Z</time></trkpt><trkpt lat="45.472974745894554" lon="11.494144810266583"><ele>266.0</ele><time>2026-03-22T07:44:06.999Z</time></trkpt><trkpt lat="45.47290567898817" lon="11.494143607078584"><ele>267.0</ele><time>2026-03-22T07:44:08.999Z</time></trkpt><trkpt lat="45.47282223966813" lon="11.494161200166104"><ele>268.0</ele><time>2026-03-22T07:44:11.999Z</time></trkpt><trkpt lat="45.47274909429226" lon="11.494170189746127"><ele>268.14285714285717</ele><time>2026-03-22T07:44:14.999Z</time></trkpt><trkpt lat="45.47267167124963" lon="11.49418391218466"><ele>268.2857142857143</ele><time>2026-03-22T07:44:17.999Z</time></trkpt><trkpt lat="45.47259404946921" lon="11.49419331019211"><ele>268.42857142857144</ele><time>2026-03-22T07:44:20.999Z</time></trkpt><trkpt lat="45.4725215557667" lon="11.494201538575206"><ele>268.57142857142856</ele><time>2026-03-22T07:44:23.999Z</time></trkpt><trkpt lat="45.47244884862588" lon="11.494210168286914"><ele>268.7142857142857</ele><time>2026-03-22T07:44:26.999Z</time></trkpt><trkpt lat="45.47237330721738" lon="11.494213413356857"><ele>268.8571428571429</ele><time>2026-03-22T07:44:30.999Z</time></trkpt><trkpt lat="45.4723087347892" lon="11.494215423724606"><ele>269.0</ele><time>2026-03-22T07:44:33.999Z</time></trkpt><trkpt lat="45.472236017431385" lon="11.494227212143482"><ele>269.0</ele><time>2026-03-22T07:44:37.998Z</time></trkpt><trkpt lat="45.472158339966384" lon="11.494255044504841"><ele>269.0</ele><time>2026-03-22T07:44:42.998Z</time></trkpt><trkpt lat="45.47208319885763" lon="11.49428168877735"><ele>269.0</ele><time>2026-03-22T07:44:46.998Z</time></trkpt><trkpt lat="45.472010755661714" lon="11.494308784604502"><ele>269.0</ele><time>2026-03-22T07:44:50.998Z</time></trkpt><trkpt lat="45.471942970833034" lon="11.494332514626139"><ele>269.0</ele><time>2026-03-22T07:44:54.998Z</time></trkpt><trkpt lat="45.47186736633016" lon="11.494361790699863"><ele>269.0</ele><time>2026-03-22T07:44:58.998Z</time></trkpt><trkpt lat="45.47179263046557" lon="11.494388638135124"><ele>269.6666666666667</ele><time>2026-03-22T07:45:02.998Z</time></trkpt><trkpt lat="45.47171182941425" lon="11.49441518601826"><ele>270.33333333333337</ele><time>2026-03-22T07:45:06.998Z</time></trkpt><trkpt lat="45.47164615848138" lon="11.494449045980428"><ele>271.0</ele><time>2026-03-22T07:45:09.998Z</time></trkpt><trkpt lat="45.471567700683245" lon="11.494487295390783"><ele>271.6666666666667</ele><time>2026-03-22T07:45:13.997Z</time></trkpt><trkpt lat="45.47149762071812" lon="11.494522520814114"><ele>272.3333333333333</ele><time>2026-03-22T07:45:17.997Z</time></trkpt><trkpt lat="45.47142557309142" lon="11.494555410532376"><ele>273.0</ele><time>2026-03-22T07:45:21.997Z</time></trkpt><trkpt lat="45.471350920538434" lon="11.494608277965021"><ele>273.0</ele><time>2026-03-22T07:45:25.997Z</time></trkpt><trkpt lat="45.471288635572215" lon="11.494653153009164"><ele>273.0</ele><time>2026-03-22T07:45:29.997Z</time></trkpt><trkpt lat="45.47122811064868" lon="11.494691065770468"><ele>273.0</ele><time>2026-03-22T07:45:33Z</time></trkpt><trkpt lat="45.47116162137182" lon="11.494738675672524"><ele>273.0</ele><time>2026-03-22T07:45:36Z</time></trkpt><trkpt lat="45.47108146251971" lon="11.494784764267308"><ele>273.0</ele><time>2026-03-22T07:45:39Z</time></trkpt><trkpt lat="45.47100418988426" lon="11.494834341358253"><ele>273.0</ele><time>2026-03-22T07:45:42Z</time></trkpt><trkpt lat="45.47091655383516" lon="11.49488134040497"><ele>273.5</ele><time>2026-03-22T07:45:45Z</time></trkpt><trkpt lat="45.47085531890434" lon="11.494936978931827"><ele>274.0</ele><time>2026-03-22T07:45:48Z</time></trkpt><trkpt lat="45.47080128310538" lon="11.495008989853556"><ele>274.5</ele><time>2026-03-22T07:45:51Z</time></trkpt><trkpt lat="45.470750950031174" lon="11.495096981731017"><ele>275.0</ele><time>2026-03-22T07:45:54Z</time></trkpt><trkpt lat="45.470717977401996" lon="11.495194758104812"><ele>275.5</ele><time>2026-03-22T07:45:57Z</time></trkpt><trkpt lat="45.470699050251405" lon="11.495320660173206"><ele>276.0</ele><time>2026-03-22T07:46:00Z</time></trkpt><trkpt lat="45.4706967214987" lon="11.495428024091488"><ele>276.0</ele><time>2026-03-22T07:46:02Z</time></trkpt><trkpt lat="45.470690077432536" lon="11.495534581054864"><ele>276.0</ele><time>2026-03-22T07:46:03.999Z</time></trkpt><trkpt lat="45.47068987058399" lon="11.495646210614929"><ele>276.0</ele><time>2026-03-22T07:46:05.999Z</time></trkpt><trkpt lat="45.47067703998934" lon="11.495740644960785"><ele>276.0</ele><time>2026-03-22T07:46:07.999Z</time></trkpt><trkpt lat="45.470644504123676" lon="11.49584663055449"><ele>276.0</ele><time>2026-03-22T07:46:09.999Z</time></trkpt><trkpt lat="45.47059634937334" lon="11.495930910874261"><ele>276.0</ele><time>2026-03-22T07:46:11.999Z</time></trkpt><trkpt lat="45.470503968532284" lon="11.49594331608298"><ele>276.0</ele><time>2026-03-22T07:46:14.999Z</time></trkpt><trkpt lat="45.470431333751804" lon="11.495906117865747"><ele>276.0</ele><time>2026-03-22T07:46:17.999Z</time></trkpt><trkpt lat="45.47034537082761" lon="11.495897349858593"><ele>276.0</ele><time>2026-03-22T07:46:20.999Z</time></trkpt><trkpt lat="45.470270698970786" lon="11.495874346316597"><ele>276.0</ele><time>2026-03-22T07:46:23.999Z</time></trkpt><trkpt lat="45.470206463070205" lon="11.495794913495802"><ele>276.0</ele><time>2026-03-22T07:46:26.999Z</time></trkpt><trkpt lat="45.47014649257453" lon="11.495726617694446"><ele>276.0</ele><time>2026-03-22T07:46:29.999Z</time></trkpt><trkpt lat="45.470085011292596" lon="11.495671628191683"><ele>276.0</ele><time>2026-03-22T07:46:32.999Z</time></trkpt><trkpt lat="45.47002894736098" lon="11.495614282187551"><ele>276.0</ele><time>2026-03-22T07:46:35.999Z</time></trkpt><trkpt lat="45.469973079821116" lon="11.495552481013947"><ele>276.0</ele><time>2026-03-22T07:46:38.999Z</time></trkpt><trkpt lat="45.46990815015229" lon="11.495473129566077"><ele>276.0</ele><time>2026-03-22T07:46:42.998Z</time></trkpt><trkpt lat="45.469862576742564" lon="11.49540210364249"><ele>276.0</ele><time>2026-03-22T07:46:45.998Z</time></trkpt><trkpt lat="45.469809959857855" lon="11.495318444663992"><ele>276.0</ele><time>2026-03-22T07:46:49.998Z</time></trkpt><trkpt lat="45.46977537783296" lon="11.495218861652006"><ele>276.0</ele><time>2026-03-22T07:46:52.998Z</time></trkpt><trkpt lat="45.46975831706219" lon="11.49511581316246"><ele>278.3333333333333</ele><time>2026-03-22T07:46:55.998Z</time></trkpt><trkpt lat="45.4697697785828" lon="11.494998517319251"><ele>280.6666666666667</ele><time>2026-03-22T07:46:59.998Z</time></trkpt><trkpt lat="45.469718053312725" lon="11.494892018372344"><ele>283.0</ele><time>2026-03-22T07:47:03.998Z</time></trkpt><trkpt lat="45.469682181141444" lon="11.494796015658565"><ele>285.33333333333337</ele><time>2026-03-22T07:47:07.998Z</time></trkpt><trkpt lat="45.46963462174798" lon="11.494713630094722"><ele>287.6666666666667</ele><time>2026-03-22T07:47:11.998Z</time></trkpt><trkpt lat="45.46961276486005" lon="11.494621160134894"><ele>290.0</ele><time>2026-03-22T07:47:16.998Z</time></trkpt><trkpt lat="45.469543517722585" lon="11.494547864738717"><ele>290.0</ele><time>2026-03-22T07:47:26.997Z</time></trkpt><trkpt lat="45.469545719315484" lon="11.494444513434859"><ele>290.0</ele><time>2026-03-22T07:47:28.997Z</time></trkpt><trkpt lat="45.46956972467526" lon="11.494354661847154"><ele>290.0</ele><time>2026-03-22T07:47:31.997Z</time></trkpt><trkpt lat="45.46960830977133" lon="11.494272056972294"><ele>290.0</ele><time>2026-03-22T07:47:35.997Z</time></trkpt><trkpt lat="45.46964460903666" lon="11.49418517576571"><ele>290.0</ele><time>2026-03-22T07:47:41Z</time></trkpt><trkpt lat="45.46965955245512" lon="11.494091262102344"><ele>290.0</ele><time>2026-03-22T07:47:46Z</time></trkpt><trkpt lat="45.46968084843879" lon="11.493988956116937"><ele>290.0</ele><time>2026-03-22T07:47:51Z</time></trkpt><trkpt lat="45.46968099779466" lon="11.493893534395612"><ele>290.7142857142857</ele><time>2026-03-22T07:47:55Z</time></trkpt><trkpt lat="45.46963556300574" lon="11.493817088846951"><ele>291.42857142857144</ele><time>2026-03-22T07:47:59Z</time></trkpt><trkpt lat="45.4695957593651" lon="11.493717541517858"><ele>292.14285714285717</ele><time>2026-03-22T07:48:03Z</time></trkpt><trkpt lat="45.46954843433534" lon="11.493651051047264"><ele>292.8571428571429</ele><time>2026-03-22T07:48:07Z</time></trkpt><trkpt lat="45.46948412048731" lon="11.493588288249864"><ele>293.57142857142856</ele><time>2026-03-22T07:48:10.999Z</time></trkpt><trkpt lat="45.469428215631304" lon="11.493536223123455"><ele>294.28571428571433</ele><time>2026-03-22T07:48:13.999Z</time></trkpt><trkpt lat="45.46936030096493" lon="11.493477962856666"><ele>295.0</ele><time>2026-03-22T07:48:16.999Z</time></trkpt><trkpt lat="45.469291326642164" lon="11.493441895837318"><ele>295.8571428571429</ele><time>2026-03-22T07:48:20.999Z</time></trkpt><trkpt lat="45.469230837983275" lon="11.493407838832253"><ele>296.7142857142857</ele><time>2026-03-22T07:48:24.999Z</time></trkpt><trkpt lat="45.46914531617397" lon="11.493403501148983"><ele>297.57142857142856</ele><time>2026-03-22T07:48:28.999Z</time></trkpt><trkpt lat="45.46908132982174" lon="11.493407521924496"><ele>298.42857142857144</ele><time>2026-03-22T07:48:30.999Z</time></trkpt><trkpt lat="45.46901763606415" lon="11.493406315166594"><ele>299.2857142857143</ele><time>2026-03-22T07:48:32.999Z</time></trkpt><trkpt lat="45.46895123222203" lon="11.493406052849767"><ele>300.14285714285717</ele><time>2026-03-22T07:48:34.999Z</time></trkpt><trkpt lat="45.4688701730355" lon="11.493437045772193"><ele>301.0</ele><time>2026-03-22T07:48:37.999Z</time></trkpt><trkpt lat="45.46878095094582" lon="11.4934536248702"><ele>300.57142857142856</ele><time>2026-03-22T07:48:40.999Z</time></trkpt><trkpt lat="45.468711660918764" lon="11.493476070639478"><ele>300.1428571428571</ele><time>2026-03-22T07:48:42.999Z</time></trkpt><trkpt lat="45.46864440040429" lon="11.493491657950095"><ele>299.7142857142857</ele><time>2026-03-22T07:48:44.999Z</time></trkpt><trkpt lat="45.468583568042945" lon="11.493516979521631"><ele>299.2857142857143</ele><time>2026-03-22T07:48:47.998Z</time></trkpt><trkpt lat="45.4685062813368" lon="11.493551443650802"><ele>298.85714285714283</ele><time>2026-03-22T07:48:50.998Z</time></trkpt><trkpt lat="45.46843522223399" lon="11.493575039949397"><ele>298.42857142857144</ele><time>2026-03-22T07:48:53.998Z</time></trkpt><trkpt lat="45.468372642940935" lon="11.493614175408698"><ele>298.0</ele><time>2026-03-22T07:48:56.998Z</time></trkpt><trkpt lat="45.46829975425661" lon="11.493629502066"><ele>298.0</ele><time>2026-03-22T07:48:59.998Z</time></trkpt><trkpt lat="45.468240349569456" lon="11.49368121807125"><ele>298.0</ele><time>2026-03-22T07:49:03.998Z</time></trkpt><trkpt lat="45.468218440728705" lon="11.493783371992718"><ele>298.0</ele><time>2026-03-22T07:49:06.998Z</time></trkpt><trkpt lat="45.46817260273213" lon="11.493871464728128"><ele>298.0</ele><time>2026-03-22T07:49:09.998Z</time></trkpt><trkpt lat="45.468113776429526" lon="11.493937732137843"><ele>298.0</ele><time>2026-03-22T07:49:13.998Z</time></trkpt><trkpt lat="45.46803898298919" lon="11.49398435635551"><ele>298.0</ele><time>2026-03-22T07:49:16.998Z</time></trkpt><trkpt lat="45.46797162385407" lon="11.494015121074153"><ele>298.0</ele><time>2026-03-22T07:49:19.998Z</time></trkpt><trkpt lat="45.46790764470296" lon="11.49404416666132"><ele>299.1428571428571</ele><time>2026-03-22T07:49:22.998Z</time></trkpt><trkpt lat="45.467843194348724" lon="11.494084106481754"><ele>300.2857142857143</ele><time>2026-03-22T07:49:26.997Z</time></trkpt><trkpt lat="45.46777299119143" lon="11.49410406958904"><ele>301.42857142857144</ele><time>2026-03-22T07:49:29.997Z</time></trkpt><trkpt lat="45.46770156419238" lon="11.494127941237704"><ele>302.57142857142856</ele><time>2026-03-22T07:49:33.997Z</time></trkpt><trkpt lat="45.467634026444614" lon="11.494142514590196"><ele>303.7142857142857</ele><time>2026-03-22T07:49:36.997Z</time></trkpt><trkpt lat="45.46755941043004" lon="11.494185610341905"><ele>304.85714285714283</ele><time>2026-03-22T07:49:40.997Z</time></trkpt><trkpt lat="45.46749996302759" lon="11.494222260887192"><ele>306.0</ele><time>2026-03-22T07:49:43.997Z</time></trkpt><trkpt lat="45.4674249154105" lon="11.494251751232158"><ele>306.0</ele><time>2026-03-22T07:49:47Z</time></trkpt><trkpt lat="45.467353015942436" lon="11.494298767701958"><ele>306.0</ele><time>2026-03-22T07:49:50Z</time></trkpt><trkpt lat="45.46726937084422" lon="11.494319130677857"><ele>306.0</ele><time>2026-03-22T07:49:53Z</time></trkpt><trkpt lat="45.46720801194233" lon="11.494349073743624"><ele>306.0</ele><time>2026-03-22T07:49:56Z</time></trkpt><trkpt lat="45.467133784393006" lon="11.494403411363107"><ele>306.0</ele><time>2026-03-22T07:49:59Z</time></trkpt><trkpt lat="45.46707011316235" lon="11.494423985726655"><ele>306.0</ele><time>2026-03-22T07:50:01Z</time></trkpt><trkpt lat="45.46700159757079" lon="11.494452527965171"><ele>306.0</ele><time>2026-03-22T07:50:04Z</time></trkpt><trkpt lat="45.466939399209224" lon="11.494468161799897"><ele>305.0</ele><time>2026-03-22T07:50:07Z</time></trkpt><trkpt lat="45.46686019130673" lon="11.494489031204768"><ele>304.0</ele><time>2026-03-22T07:50:10Z</time></trkpt><trkpt lat="45.46676808898366" lon="11.49451528475657"><ele>303.0</ele><time>2026-03-22T07:50:14Z</time></trkpt><trkpt lat="45.46669018078767" lon="11.494548907038391"><ele>302.0</ele><time>2026-03-22T07:50:17Z</time></trkpt><trkpt lat="45.46662797062745" lon="11.494589624983673"><ele>301.0</ele><time>2026-03-22T07:50:19.999Z</time></trkpt><trkpt lat="45.466570924434855" lon="11.494638886100212"><ele>300.0</ele><time>2026-03-22T07:50:22.999Z</time></trkpt><trkpt lat="45.46651076813062" lon="11.49467717307776"><ele>300.0</ele><time>2026-03-22T07:50:25.999Z</time></trkpt><trkpt lat="45.466429280070344" lon="11.494716209795634"><ele>300.0</ele><time>2026-03-22T07:50:28.999Z</time></trkpt><trkpt lat="45.46634553285424" lon="11.494732274094712"><ele>300.0</ele><time>2026-03-22T07:50:31.999Z</time></trkpt><trkpt lat="45.466275741428795" lon="11.494747922655627"><ele>300.0</ele><time>2026-03-22T07:50:34.999Z</time></trkpt><trkpt lat="45.46621225078914" lon="11.494752001737208"><ele>300.0</ele><time>2026-03-22T07:50:36.999Z</time></trkpt><trkpt lat="45.46614005968908" lon="11.494787092231636"><ele>300.0</ele><time>2026-03-22T07:50:39.999Z</time></trkpt><trkpt lat="45.466046321241144" lon="11.49479329418628"><ele>301.5</ele><time>2026-03-22T07:50:42.999Z</time></trkpt><trkpt lat="45.46597426174704" lon="11.49479145533509"><ele>303.0</ele><time>2026-03-22T07:50:45.999Z</time></trkpt><trkpt lat="45.46590714668011" lon="11.494799852724425"><ele>304.5</ele><time>2026-03-22T07:50:48.999Z</time></trkpt><trkpt lat="45.46583818189434" lon="11.494815457351963"><ele>306.0</ele><time>2026-03-22T07:50:51.999Z</time></trkpt><trkpt lat="45.4657542543571" lon="11.49481625531462"><ele>307.5</ele><time>2026-03-22T07:50:55.998Z</time></trkpt><trkpt lat="45.46566026838222" lon="11.494799626954967"><ele>309.0</ele><time>2026-03-22T07:50:59.998Z</time></trkpt><trkpt lat="45.46558255991849" lon="11.494811319123443"><ele>309.00000000000006</ele><time>2026-03-22T07:51:02.998Z</time></trkpt><trkpt lat="45.465498259161286" lon="11.494800447131237"><ele>309.0</ele><time>2026-03-22T07:51:05.998Z</time></trkpt><trkpt lat="45.465412904155954" lon="11.494793105525412"><ele>309.0</ele><time>2026-03-22T07:51:09.998Z</time></trkpt><trkpt lat="45.46535285567092" lon="11.494760660820946"><ele>309.0</ele><time>2026-03-22T07:51:12.998Z</time></trkpt><trkpt lat="45.4653027671725" lon="11.494694366275086"><ele>309.0</ele><time>2026-03-22T07:51:15.998Z</time></trkpt><trkpt lat="45.4652737045686" lon="11.494586525388405"><ele>309.00000000000006</ele><time>2026-03-22T07:51:18.998Z</time></trkpt><trkpt lat="45.46525306539689" lon="11.494499870505813"><ele>309.0</ele><time>2026-03-22T07:51:21.998Z</time></trkpt><trkpt lat="45.465203187028315" lon="11.494403756043852"><ele>312.0</ele><time>2026-03-22T07:51:25.998Z</time></trkpt><trkpt lat="45.46514824537197" lon="11.494328657465095"><ele>315.0</ele><time>2026-03-22T07:51:29.998Z</time></trkpt><trkpt lat="45.46508006867549" lon="11.494277384167173"><ele>318.0</ele><time>2026-03-22T07:51:33.997Z</time></trkpt><trkpt lat="45.46501644792237" lon="11.494211538891486"><ele>321.0</ele><time>2026-03-22T07:51:37.997Z</time></trkpt><trkpt lat="45.464954155026625" lon="11.494168377015313"><ele>324.0</ele><time>2026-03-22T07:51:41.997Z</time></trkpt><trkpt lat="45.464884772765835" lon="11.494098615335636"><ele>327.0</ele><time>2026-03-22T07:51:44.997Z</time></trkpt><trkpt lat="45.46482580844603" lon="11.494049315959826"><ele>327.0</ele><time>2026-03-22T07:51:49.997Z</time></trkpt><trkpt lat="45.46474645088274" lon="11.494009539451769"><ele>327.0</ele><time>2026-03-22T07:51:55Z</time></trkpt><trkpt lat="45.46468830667355" lon="11.493973937798886"><ele>327.0</ele><time>2026-03-22T07:51:58Z</time></trkpt><trkpt lat="45.46462649310673" lon="11.493943504568158"><ele>327.0</ele><time>2026-03-22T07:52:02Z</time></trkpt><trkpt lat="45.464550205154715" lon="11.49391304179671"><ele>327.0</ele><time>2026-03-22T07:52:05Z</time></trkpt><trkpt lat="45.46447155199428" lon="11.493886509049005"><ele>327.0</ele><time>2026-03-22T07:52:09Z</time></trkpt><trkpt lat="45.46440121623285" lon="11.49386579210597"><ele>327.0</ele><time>2026-03-22T07:52:12Z</time></trkpt><trkpt lat="45.46434063584762" lon="11.49382986838103"><ele>326.85714285714283</ele><time>2026-03-22T07:52:16Z</time></trkpt><trkpt lat="45.46428166273615" lon="11.493797539621076"><ele>326.7142857142857</ele><time>2026-03-22T07:52:20Z</time></trkpt><trkpt lat="45.46421614187586" lon="11.493753722995123"><ele>326.57142857142856</ele><time>2026-03-22T07:52:22.999Z</time></trkpt><trkpt lat="45.464161904155496" lon="11.49369605144025"><ele>326.42857142857144</ele><time>2026-03-22T07:52:24.999Z</time></trkpt><trkpt lat="45.46408106308098" lon="11.4936474637652"><ele>326.2857142857143</ele><time>2026-03-22T07:52:27.999Z</time></trkpt><trkpt lat="45.46401942287299" lon="11.4935881967508"><ele>326.14285714285717</ele><time>2026-03-22T07:52:30.999Z</time></trkpt><trkpt lat="45.46395268710457" lon="11.493526642249954"><ele>326.0</ele><time>2026-03-22T07:52:33.999Z</time></trkpt><trkpt lat="45.46389236882819" lon="11.493457932226745"><ele>327.0</ele><time>2026-03-22T07:52:36.999Z</time></trkpt><trkpt lat="45.463837812100195" lon="11.4933739229544"><ele>328.0</ele><time>2026-03-22T07:52:39.999Z</time></trkpt><trkpt lat="45.46379949104404" lon="11.49326957391473"><ele>329.0</ele><time>2026-03-22T07:52:42.999Z</time></trkpt><trkpt lat="45.46378063019705" lon="11.493181879618726"><ele>330.0</ele><time>2026-03-22T07:52:44.999Z</time></trkpt><trkpt lat="45.463703469984736" lon="11.493167532882106"><ele>331.0</ele><time>2026-03-22T07:52:48.999Z</time></trkpt><trkpt lat="45.46364209054129" lon="11.493192561576103"><ele>332.0</ele><time>2026-03-22T07:52:51.999Z</time></trkpt><trkpt lat="45.46357301161688" lon="11.49328494736825"><ele>332.1428571428571</ele><time>2026-03-22T07:52:54.999Z</time></trkpt><trkpt lat="45.463507439359844" lon="11.493337030965602"><ele>332.28571428571433</ele><time>2026-03-22T07:52:56.999Z</time></trkpt><trkpt lat="45.46344220336996" lon="11.493384669445817"><ele>332.42857142857144</ele><time>2026-03-22T07:53:02.998Z</time></trkpt><trkpt lat="45.46336822430545" lon="11.493423942128082"><ele>332.57142857142856</ele><time>2026-03-22T07:53:05.998Z</time></trkpt><trkpt lat="45.46329004242037" lon="11.493448713292675"><ele>332.71428571428567</ele><time>2026-03-22T07:53:08.998Z</time></trkpt><trkpt lat="45.46323000325012" lon="11.493491764441833"><ele>332.8571428571429</ele><time>2026-03-22T07:53:11.998Z</time></trkpt><trkpt lat="45.46315910310297" lon="11.493512150392654"><ele>333.0</ele><time>2026-03-22T07:53:14.998Z</time></trkpt><trkpt lat="45.463088143749765" lon="11.493540722713073"><ele>333.0</ele><time>2026-03-22T07:53:18.998Z</time></trkpt><trkpt lat="45.46302043724596" lon="11.49354401158404"><ele>333.0</ele><time>2026-03-22T07:53:21.998Z</time></trkpt><trkpt lat="45.46292403013319" lon="11.493554329686514"><ele>333.0</ele><time>2026-03-22T07:53:25.998Z</time></trkpt><trkpt lat="45.462859455615785" lon="11.493570683179655"><ele>333.0</ele><time>2026-03-22T07:53:29.998Z</time></trkpt><trkpt lat="45.46279752722256" lon="11.49359284236623"><ele>333.0</ele><time>2026-03-22T07:53:32.998Z</time></trkpt><trkpt lat="45.46270865672856" lon="11.493579221919626"><ele>333.0</ele><time>2026-03-22T07:53:36.997Z</time></trkpt><trkpt lat="45.46262741103914" lon="11.493542576472162"><ele>333.2857142857143</ele><time>2026-03-22T07:53:40.997Z</time></trkpt><trkpt lat="45.46256411763988" lon="11.493496200515686"><ele>333.57142857142856</ele><time>2026-03-22T07:53:44.997Z</time></trkpt><trkpt lat="45.4624858506114" lon="11.493457005641046"><ele>333.85714285714283</ele><time>2026-03-22T07:53:48.997Z</time></trkpt><trkpt lat="45.46241011550279" lon="11.493439832476955"><ele>334.1428571428571</ele><time>2026-03-22T07:53:52.997Z</time></trkpt><trkpt lat="45.462347667066105" lon="11.493428304597536"><ele>334.42857142857144</ele><time>2026-03-22T07:53:55.997Z</time></trkpt><trkpt lat="45.462270002595666" lon="11.493392792410845"><ele>334.71428571428567</ele><time>2026-03-22T07:54:01Z</time></trkpt><trkpt lat="45.46219752961273" lon="11.493400202379696"><ele>335.0</ele><time>2026-03-22T07:54:04Z</time></trkpt><trkpt lat="45.46213078676597" lon="11.49340271826344"><ele>335.5</ele><time>2026-03-22T07:54:06Z</time></trkpt><trkpt lat="45.46205914130328" lon="11.493419490706698"><ele>336.0</ele><time>2026-03-22T07:54:08Z</time></trkpt><trkpt lat="45.46197912881222" lon="11.493431116863377"><ele>336.5</ele><time>2026-03-22T07:54:10Z</time></trkpt><trkpt lat="45.46189383618757" lon="11.4934459701799"><ele>337.0</ele><time>2026-03-22T07:54:12Z</time></trkpt><trkpt lat="45.46180525020235" lon="11.493467070319653"><ele>337.5</ele><time>2026-03-22T07:54:14Z</time></trkpt><trkpt lat="45.46172616184999" lon="11.49346720573621"><ele>338.0</ele><time>2026-03-22T07:54:16Z</time></trkpt><trkpt lat="45.461653680570336" lon="11.493468995561344"><ele>338.0</ele><time>2026-03-22T07:54:18Z</time></trkpt><trkpt lat="45.46157415597374" lon="11.493474055655037"><ele>338.0</ele><time>2026-03-22T07:54:20Z</time></trkpt><trkpt lat="45.461473982480754" lon="11.493466181899171"><ele>338.0</ele><time>2026-03-22T07:54:22Z</time></trkpt><trkpt lat="45.461377594282055" lon="11.493447145517798"><ele>338.0</ele><time>2026-03-22T07:54:24Z</time></trkpt><trkpt lat="45.461288101046435" lon="11.493427812466557"><ele>338.0</ele><time>2026-03-22T07:54:26Z</time></trkpt><trkpt lat="45.46119805699097" lon="11.493417440756739"><ele>337.5</ele><time>2026-03-22T07:54:27.999Z</time></trkpt><trkpt lat="45.46111790903899" lon="11.49341458883619"><ele>337.0</ele><time>2026-03-22T07:54:29.999Z</time></trkpt><trkpt lat="45.461030368458125" lon="11.493408907813086"><ele>336.5</ele><time>2026-03-22T07:54:31.999Z</time></trkpt><trkpt lat="45.46090746416398" lon="11.493412937837972"><ele>336.0</ele><time>2026-03-22T07:54:33.999Z</time></trkpt><trkpt lat="45.4608310269269" lon="11.493412294218482"><ele>335.5</ele><time>2026-03-22T07:54:34.999Z</time></trkpt><trkpt lat="45.46075434518664" lon="11.493416465507323"><ele>335.0</ele><time>2026-03-22T07:54:35.999Z</time></trkpt><trkpt lat="45.460675554851655" lon="11.49342525284294"><ele>335.0</ele><time>2026-03-22T07:54:36.999Z</time></trkpt><trkpt lat="45.46060055976493" lon="11.493431619316501"><ele>335.0</ele><time>2026-03-22T07:54:37.999Z</time></trkpt><trkpt lat="45.460517724058505" lon="11.493433272974846"><ele>335.0</ele><time>2026-03-22T07:54:38.999Z</time></trkpt><trkpt lat="45.46044008297769" lon="11.493445980685237"><ele>335.0</ele><time>2026-03-22T07:54:39.999Z</time></trkpt><trkpt lat="45.460353514572056" lon="11.493457682152972"><ele>335.0</ele><time>2026-03-22T07:54:40.999Z</time></trkpt><trkpt lat="45.4602622106248" lon="11.493465543597221"><ele>335.0</ele><time>2026-03-22T07:54:41.999Z</time></trkpt><trkpt lat="45.46016666533199" lon="11.493480122042406"><ele>333.8</ele><time>2026-03-22T07:54:42.999Z</time></trkpt><trkpt lat="45.46006292779893" lon="11.493502101712032"><ele>332.6</ele><time>2026-03-22T07:54:43.999Z</time></trkpt><trkpt lat="45.459960137554404" lon="11.49353785573664"><ele>331.4</ele><time>2026-03-22T07:54:44.999Z</time></trkpt><trkpt lat="45.45986177215468" lon="11.493571504339993"><ele>330.2</ele><time>2026-03-22T07:54:45.999Z</time></trkpt><trkpt lat="45.45976557669125" lon="11.493565764514793"><ele>329.0</ele><time>2026-03-22T07:54:46.999Z</time></trkpt><trkpt lat="45.45968562604739" lon="11.493599015408313"><ele>329.0</ele><time>2026-03-22T07:54:47.999Z</time></trkpt><trkpt lat="45.45961760187229" lon="11.493629225616358"><ele>329.0</ele><time>2026-03-22T07:54:48.999Z</time></trkpt><trkpt lat="45.45951744263572" lon="11.493674909921971"><ele>329.0</ele><time>2026-03-22T07:54:50.999Z</time></trkpt><trkpt lat="45.459450557287504" lon="11.493737218120605"><ele>329.0</ele><time>2026-03-22T07:54:52.999Z</time></trkpt><trkpt lat="45.459372412764736" lon="11.493755486647927"><ele>329.0</ele><time>2026-03-22T07:54:54.999Z</time></trkpt><trkpt lat="45.459308141531764" lon="11.49378840769773"><ele>329.0</ele><time>2026-03-22T07:54:56.999Z</time></trkpt><trkpt lat="45.45924606172197" lon="11.493770922621632"><ele>329.57142857142856</ele><time>2026-03-22T07:54:58.999Z</time></trkpt><trkpt lat="45.45915170962843" lon="11.493787788857093"><ele>330.1428571428571</ele><time>2026-03-22T07:55:01.999Z</time></trkpt><trkpt lat="45.4590863682976" lon="11.493846978507973"><ele>330.7142857142857</ele><time>2026-03-22T07:55:03.999Z</time></trkpt><trkpt lat="45.459024237932425" lon="11.493869051259962"><ele>331.2857142857143</ele><time>2026-03-22T07:55:06.998Z</time></trkpt><trkpt lat="45.45895504979436" lon="11.493889815145263"><ele>331.85714285714283</ele><time>2026-03-22T07:55:09.998Z</time></trkpt><trkpt lat="45.45889586577319" lon="11.493939587442858"><ele>332.42857142857144</ele><time>2026-03-22T07:55:12.998Z</time></trkpt><trkpt lat="45.45883498789052" lon="11.493968557107825"><ele>333.0</ele><time>2026-03-22T07:55:15.998Z</time></trkpt><trkpt lat="45.458763243776936" lon="11.493983675588781"><ele>334.14285714285717</ele><time>2026-03-22T07:55:18.998Z</time></trkpt><trkpt lat="45.458700520174894" lon="11.493997247229842"><ele>335.2857142857143</ele><time>2026-03-22T07:55:21.998Z</time></trkpt><trkpt lat="45.45862958687836" lon="11.49403668186461"><ele>336.42857142857144</ele><time>2026-03-22T07:55:25.998Z</time></trkpt><trkpt lat="45.45856531491907" lon="11.494073042879421"><ele>337.57142857142856</ele><time>2026-03-22T07:55:28.998Z</time></trkpt><trkpt lat="45.45850952973117" lon="11.494116562471241"><ele>338.7142857142857</ele><time>2026-03-22T07:55:31.998Z</time></trkpt><trkpt lat="45.45844628618164" lon="11.494140733984645"><ele>339.85714285714283</ele><time>2026-03-22T07:55:47.997Z</time></trkpt><trkpt lat="45.45839287929423" lon="11.494197133745828"><ele>341.0</ele><time>2026-03-22T07:55:56.997Z</time></trkpt><trkpt lat="45.45832218803297" lon="11.494253233701693"><ele>341.0</ele><time>2026-03-22T07:55:59.997Z</time></trkpt><trkpt lat="45.45823571633081" lon="11.494301814836682"><ele>341.0</ele><time>2026-03-22T07:56:03Z</time></trkpt><trkpt lat="45.458177244188505" lon="11.494338475798376"><ele>341.0</ele><time>2026-03-22T07:56:05Z</time></trkpt><trkpt lat="45.458094656310635" lon="11.494379198116699"><ele>341.0</ele><time>2026-03-22T07:56:08Z</time></trkpt><trkpt lat="45.45802092223174" lon="11.49441263408624"><ele>341.0</ele><time>2026-03-22T07:56:11Z</time></trkpt><trkpt lat="45.45795006796139" lon="11.494453690688365"><ele>341.0</ele><time>2026-03-22T07:56:15Z</time></trkpt><trkpt lat="45.45788134874376" lon="11.494505443200564"><ele>340.85714285714283</ele><time>2026-03-22T07:56:19Z</time></trkpt><trkpt lat="45.45781977226858" lon="11.494574757033154"><ele>340.7142857142857</ele><time>2026-03-22T07:56:23Z</time></trkpt><trkpt lat="45.45775206505427" lon="11.494635758002406"><ele>340.57142857142856</ele><time>2026-03-22T07:56:27Z</time></trkpt><trkpt lat="45.457700497022735" lon="11.494693388308038"><ele>340.42857142857144</ele><time>2026-03-22T07:56:30Z</time></trkpt><trkpt lat="45.45765310504609" lon="11.494755492376177"><ele>340.2857142857143</ele><time>2026-03-22T07:56:33Z</time></trkpt><trkpt lat="45.457597170455024" lon="11.494840311022415"><ele>340.14285714285717</ele><time>2026-03-22T07:56:36.999Z</time></trkpt><trkpt lat="45.4575479809568" lon="11.49491201023419"><ele>340.0</ele><time>2026-03-22T07:56:39.999Z</time></trkpt><trkpt lat="45.45749763870613" lon="11.494968787878902"><ele>341.7142857142857</ele><time>2026-03-22T07:56:42.999Z</time></trkpt><trkpt lat="45.45744157384691" lon="11.49503434937681"><ele>343.4285714285714</ele><time>2026-03-22T07:56:45.999Z</time></trkpt><trkpt lat="45.457391751833384" lon="11.495096429961697"><ele>345.1428571428571</ele><time>2026-03-22T07:56:48.999Z</time></trkpt><trkpt lat="45.457348611345644" lon="11.4951640260817"><ele>346.8571428571429</ele><time>2026-03-22T07:56:52.999Z</time></trkpt><trkpt lat="45.457319704799644" lon="11.495269136052393"><ele>348.57142857142856</ele><time>2026-03-22T07:56:55.999Z</time></trkpt><trkpt lat="45.457334061524584" lon="11.495400859048143"><ele>350.2857142857143</ele><time>2026-03-22T07:56:58.999Z</time></trkpt><trkpt lat="45.457345253128125" lon="11.495490540427468"><ele>352.0</ele><time>2026-03-22T07:57:00.999Z</time></trkpt><trkpt lat="45.45736594421288" lon="11.495609144217177"><ele>352.0</ele><time>2026-03-22T07:57:02.999Z</time></trkpt><trkpt lat="45.45738710494858" lon="11.495713264457148"><ele>352.0</ele><time>2026-03-22T07:57:04.999Z</time></trkpt><trkpt lat="45.45742040823203" lon="11.495809214324673"><ele>352.0</ele><time>2026-03-22T07:57:06.999Z</time></trkpt><trkpt lat="45.45743188920808" lon="11.495902594554082"><ele>352.0</ele><time>2026-03-22T07:57:08.999Z</time></trkpt><trkpt lat="45.45743224327848" lon="11.496001373539878"><ele>352.0</ele><time>2026-03-22T07:57:10.999Z</time></trkpt><trkpt lat="45.45737931120756" lon="11.496071943338656"><ele>352.0</ele><time>2026-03-22T07:57:12.999Z</time></trkpt><trkpt lat="45.45731865641661" lon="11.496127849523248"><ele>352.0</ele><time>2026-03-22T07:57:14.998Z</time></trkpt><trkpt lat="45.45726497497357" lon="11.49618809424235"><ele>351.0</ele><time>2026-03-22T07:57:16.998Z</time></trkpt><trkpt lat="45.45721905055137" lon="11.496279266576831"><ele>350.0</ele><time>2026-03-22T07:57:19.998Z</time></trkpt><trkpt lat="45.457171823422435" lon="11.496346154189283"><ele>349.0</ele><time>2026-03-22T07:57:22.998Z</time></trkpt><trkpt lat="45.45713331365675" lon="11.496419600981321"><ele>348.0</ele><time>2026-03-22T07:57:25.998Z</time></trkpt><trkpt lat="45.45711898514435" lon="11.496511696523836"><ele>347.0</ele><time>2026-03-22T07:57:29.998Z</time></trkpt><trkpt lat="45.45710968718862" lon="11.496606672847449"><ele>346.0</ele><time>2026-03-22T07:57:33.998Z</time></trkpt><trkpt lat="45.45708630017563" lon="11.496698123740137"><ele>345.0</ele><time>2026-03-22T07:57:37.998Z</time></trkpt><trkpt lat="45.4570571289058" lon="11.496808480711525"><ele>348.2857142857143</ele><time>2026-03-22T07:57:41.998Z</time></trkpt><trkpt lat="45.457048974708286" lon="11.496905660545785"><ele>351.57142857142856</ele><time>2026-03-22T07:57:45.998Z</time></trkpt><trkpt lat="45.457029173829234" lon="11.497004745206556"><ele>354.8571428571429</ele><time>2026-03-22T07:57:49.998Z</time></trkpt><trkpt lat="45.45701792931804" lon="11.497119004477014"><ele>358.1428571428571</ele><time>2026-03-22T07:57:53.997Z</time></trkpt><trkpt lat="45.457001729630754" lon="11.49721147400613"><ele>361.4285714285714</ele><time>2026-03-22T07:57:56.997Z</time></trkpt><trkpt lat="45.456982293723414" lon="11.497313478739349"><ele>364.7142857142857</ele><time>2026-03-22T07:58:00.997Z</time></trkpt><trkpt lat="45.45697962154166" lon="11.497407888893266"><ele>368.0</ele><time>2026-03-22T07:58:04.997Z</time></trkpt><trkpt lat="45.456972866972116" lon="11.497516851241596"><ele>368.0</ele><time>2026-03-22T07:58:10Z</time></trkpt><trkpt lat="45.45696221481615" lon="11.49760900251112"><ele>368.0</ele><time>2026-03-22T07:58:13Z</time></trkpt><trkpt lat="45.456949703921126" lon="11.497714140380202"><ele>368.0</ele><time>2026-03-22T07:58:17Z</time></trkpt><trkpt lat="45.45693009951492" lon="11.497817136009129"><ele>368.0</ele><time>2026-03-22T07:58:21Z</time></trkpt><trkpt lat="45.456892560996316" lon="11.497918708940924"><ele>368.0</ele><time>2026-03-22T07:58:25Z</time></trkpt><trkpt lat="45.456863456623" lon="11.498006419165442"><ele>368.0</ele><time>2026-03-22T07:58:28Z</time></trkpt><trkpt lat="45.45682993651245" lon="11.498115033774074"><ele>368.0</ele><time>2026-03-22T07:58:32Z</time></trkpt><trkpt lat="45.456816025727825" lon="11.498203216079112"><ele>368.83333333333337</ele><time>2026-03-22T07:58:35Z</time></trkpt><trkpt lat="45.45680247703011" lon="11.498314950901975"><ele>369.6666666666667</ele><time>2026-03-22T07:58:39Z</time></trkpt><trkpt lat="45.45678078458769" lon="11.498410106814095"><ele>370.5</ele><time>2026-03-22T07:58:42.999Z</time></trkpt><trkpt lat="45.456762591968086" lon="11.498527449985694"><ele>371.3333333333333</ele><time>2026-03-22T07:58:46.999Z</time></trkpt><trkpt lat="45.45673651563802" lon="11.498637877895518"><ele>372.16666666666663</ele><time>2026-03-22T07:58:50.999Z</time></trkpt><trkpt lat="45.45673519418661" lon="11.498747783264003"><ele>373.0</ele><time>2026-03-22T07:58:53.999Z</time></trkpt><trkpt lat="45.4567409386497" lon="11.49885313390164"><ele>373.5</ele><time>2026-03-22T07:58:56.999Z</time></trkpt><trkpt lat="45.45674601184106" lon="11.498960570992319"><ele>374.0</ele><time>2026-03-22T07:58:59.999Z</time></trkpt><trkpt lat="45.456747523172" lon="11.499083612161789"><ele>374.5</ele><time>2026-03-22T07:59:04.999Z</time></trkpt><trkpt lat="45.45675556225736" lon="11.499200262799043"><ele>375.0</ele><time>2026-03-22T07:59:07.999Z</time></trkpt><trkpt lat="45.4567673025493" lon="11.499314936430446"><ele>375.5</ele><time>2026-03-22T07:59:10.999Z</time></trkpt><trkpt lat="45.45677374153003" lon="11.499431451856891"><ele>376.0</ele><time>2026-03-22T07:59:14.999Z</time></trkpt><trkpt lat="45.45674926997086" lon="11.499536214015093"><ele>375.0</ele><time>2026-03-22T07:59:19.998Z</time></trkpt><trkpt lat="45.45669694136519" lon="11.499599164297726"><ele>374.0</ele><time>2026-03-22T07:59:24.998Z</time></trkpt><trkpt lat="45.45663607921056" lon="11.499629312623622"><ele>373.0</ele><time>2026-03-22T07:59:28.998Z</time></trkpt><trkpt lat="45.45655159719879" lon="11.499665655577452"><ele>372.0</ele><time>2026-03-22T07:59:31.998Z</time></trkpt><trkpt lat="45.45647329014503" lon="11.499704449627213"><ele>371.0</ele><time>2026-03-22T07:59:34.998Z</time></trkpt><trkpt lat="45.45640065087215" lon="11.4997398465413"><ele>370.0</ele><time>2026-03-22T07:59:36.998Z</time></trkpt><trkpt lat="45.45632460086695" lon="11.49980020388851"><ele>371.3333333333333</ele><time>2026-03-22T07:59:38.998Z</time></trkpt><trkpt lat="45.45624327655865" lon="11.499856498173726"><ele>372.66666666666663</ele><time>2026-03-22T07:59:40.998Z</time></trkpt><trkpt lat="45.456181937448655" lon="11.49990407505069"><ele>374.0</ele><time>2026-03-22T07:59:42.998Z</time></trkpt><trkpt lat="45.4561131679346" lon="11.500000156848621"><ele>375.3333333333333</ele><time>2026-03-22T07:59:44.998Z</time></trkpt><trkpt lat="45.45608453624337" lon="11.500081300541607"><ele>376.6666666666667</ele><time>2026-03-22T07:59:46.998Z</time></trkpt><trkpt lat="45.45607090451231" lon="11.500198870336515"><ele>378.0</ele><time>2026-03-22T07:59:48.998Z</time></trkpt><trkpt lat="45.456040535151075" lon="11.500279853143583"><ele>378.0</ele><time>2026-03-22T07:59:50.998Z</time></trkpt><trkpt lat="45.45594598656048" lon="11.500370456931863"><ele>378.0</ele><time>2026-03-22T07:59:52.998Z</time></trkpt><trkpt lat="45.45587027588343" lon="11.500495446146372"><ele>378.0</ele><time>2026-03-22T07:59:54.997Z</time></trkpt><trkpt lat="45.455824606140915" lon="11.500559456468475"><ele>378.0</ele><time>2026-03-22T07:59:55.997Z</time></trkpt><trkpt lat="45.455775041950346" lon="11.500621373443696"><ele>378.0</ele><time>2026-03-22T07:59:56.997Z</time></trkpt><trkpt lat="45.45574522940777" lon="11.500733067984678"><ele>378.0</ele><time>2026-03-22T07:59:58.997Z</time></trkpt><trkpt lat="45.45575651841366" lon="11.500827421834156"><ele>376.7142857142857</ele><time>2026-03-22T08:00:00.997Z</time></trkpt><trkpt lat="45.455760630995385" lon="11.500939321239045"><ele>375.42857142857144</ele><time>2026-03-22T08:00:02.997Z</time></trkpt><trkpt lat="45.455768160960496" lon="11.501050664684021"><ele>374.1428571428571</ele><time>2026-03-22T08:00:05.997Z</time></trkpt><trkpt lat="45.45578229624078" lon="11.50115612753948"><ele>372.8571428571429</ele><time>2026-03-22T08:00:08.997Z</time></trkpt><trkpt lat="45.455795803394004" lon="11.501259685043593"><ele>371.57142857142856</ele><time>2026-03-22T08:00:10.997Z</time></trkpt><trkpt lat="45.45580549650629" lon="11.501349224274188"><ele>370.2857142857143</ele><time>2026-03-22T08:00:12.997Z</time></trkpt><trkpt lat="45.45579862214831" lon="11.501445979549556"><ele>369.0</ele><time>2026-03-22T08:00:15Z</time></trkpt><trkpt lat="45.455810396026635" lon="11.501543872024733"><ele>368.6666666666667</ele><time>2026-03-22T08:00:17Z</time></trkpt><trkpt lat="45.45580799911625" lon="11.50166438798996"><ele>368.3333333333333</ele><time>2026-03-22T08:00:20Z</time></trkpt><trkpt lat="45.45577846082163" lon="11.501776286038503"><ele>368.0</ele><time>2026-03-22T08:00:23Z</time></trkpt><trkpt lat="45.45574098091676" lon="11.501867881663065"><ele>367.66666666666663</ele><time>2026-03-22T08:00:28Z</time></trkpt><trkpt lat="45.455778154182745" lon="11.50195016737758"><ele>367.3333333333333</ele><time>2026-03-22T08:00:30Z</time></trkpt><trkpt lat="45.45580585625779" lon="11.502052609005725"><ele>367.0</ele><time>2026-03-22T08:00:33Z</time></trkpt><trkpt lat="45.45584128690814" lon="11.502135128692315"><ele>366.57142857142856</ele><time>2026-03-22T08:00:36Z</time></trkpt><trkpt lat="45.45585907259501" lon="11.50222864267383"><ele>366.14285714285717</ele><time>2026-03-22T08:00:39Z</time></trkpt><trkpt lat="45.45587360287564" lon="11.50232166896048"><ele>365.7142857142857</ele><time>2026-03-22T08:00:42Z</time></trkpt><trkpt lat="45.45587373630285" lon="11.50242757614848"><ele>365.2857142857143</ele><time>2026-03-22T08:00:45Z</time></trkpt><trkpt lat="45.455878549443085" lon="11.502521646408093"><ele>364.8571428571429</ele><time>2026-03-22T08:00:47Z</time></trkpt><trkpt lat="45.45590226194647" lon="11.50261165854173"><ele>364.42857142857144</ele><time>2026-03-22T08:00:48.999Z</time></trkpt><trkpt lat="45.45592945801132" lon="11.502708192989095"><ele>364.0</ele><time>2026-03-22T08:00:50.999Z</time></trkpt><trkpt lat="45.45593594459666" lon="11.502814345125218"><ele>363.79999999999995</ele><time>2026-03-22T08:00:52.999Z</time></trkpt><trkpt lat="45.455932456727176" lon="11.50296970829982"><ele>363.59999999999997</ele><time>2026-03-22T08:00:54.999Z</time></trkpt><trkpt lat="45.45593284866034" lon="11.503115503061338"><ele>363.4</ele><time>2026-03-22T08:00:56.999Z</time></trkpt><trkpt lat="45.455931889741315" lon="11.50325298322754"><ele>363.2</ele><time>2026-03-22T08:00:58.999Z</time></trkpt><trkpt lat="45.45594832986433" lon="11.503370695359093"><ele>363.0</ele><time>2026-03-22T08:01:00.999Z</time></trkpt><trkpt lat="45.455959148860565" lon="11.5034794074814"><ele>363.0</ele><time>2026-03-22T08:01:03.999Z</time></trkpt><trkpt lat="45.45597487322739" lon="11.503591152768227"><ele>363.0</ele><time>2026-03-22T08:01:05.999Z</time></trkpt><trkpt lat="45.45598483589902" lon="11.503681786221858"><ele>363.0</ele><time>2026-03-22T08:01:07.999Z</time></trkpt><trkpt lat="45.45597965856143" lon="11.503776786855735"><ele>363.0</ele><time>2026-03-22T08:01:09.999Z</time></trkpt><trkpt lat="45.4559906344226" lon="11.503897963905503"><ele>363.0</ele><time>2026-03-22T08:01:12.999Z</time></trkpt><trkpt lat="45.455986335735815" lon="11.504003676810424"><ele>363.0</ele><time>2026-03-22T08:01:15.999Z</time></trkpt><trkpt lat="45.455984088248435" lon="11.504140955330383"><ele>362.6666666666667</ele><time>2026-03-22T08:01:18.999Z</time></trkpt><trkpt lat="45.45597346832755" lon="11.504234604289868"><ele>362.3333333333333</ele><time>2026-03-22T08:01:20.999Z</time></trkpt><trkpt lat="45.45594170456049" lon="11.504350267447228"><ele>362.0</ele><time>2026-03-22T08:01:22.999Z</time></trkpt><trkpt lat="45.45590715950924" lon="11.50446172719219"><ele>361.66666666666663</ele><time>2026-03-22T08:01:24.999Z</time></trkpt><trkpt lat="45.45585844886146" lon="11.504613376804146"><ele>361.3333333333333</ele><time>2026-03-22T08:01:26.998Z</time></trkpt><trkpt lat="45.45581834740403" lon="11.504689065782163"><ele>361.0</ele><time>2026-03-22T08:01:27.998Z</time></trkpt><trkpt lat="45.45577784975316" lon="11.504838383656175"><ele>360.8333333333333</ele><time>2026-03-22T08:01:29.998Z</time></trkpt><trkpt lat="45.455732917114545" lon="11.504977614505371"><ele>360.66666666666663</ele><time>2026-03-22T08:01:31.998Z</time></trkpt><trkpt lat="45.455695254579624" lon="11.50509307145524"><ele>360.5</ele><time>2026-03-22T08:01:33.998Z</time></trkpt><trkpt lat="45.45569856245005" lon="11.50518376024924"><ele>360.3333333333333</ele><time>2026-03-22T08:01:35.998Z</time></trkpt><trkpt lat="45.455666928163026" lon="11.505289729895017"><ele>360.1666666666667</ele><time>2026-03-22T08:01:39.998Z</time></trkpt><trkpt lat="45.45562970724971" lon="11.505392680815671"><ele>360.0</ele><time>2026-03-22T08:01:42.998Z</time></trkpt><trkpt lat="45.455595223347565" lon="11.505469945309658"><ele>359.8333333333333</ele><time>2026-03-22T08:01:44.998Z</time></trkpt><trkpt lat="45.45553964907386" lon="11.50553379036698"><ele>359.6666666666667</ele><time>2026-03-22T08:01:46.998Z</time></trkpt><trkpt lat="45.455475191783215" lon="11.505626948506848"><ele>359.5</ele><time>2026-03-22T08:01:49.998Z</time></trkpt><trkpt lat="45.45541031622965" lon="11.505703629723044"><ele>359.33333333333337</ele><time>2026-03-22T08:01:52.998Z</time></trkpt><trkpt lat="45.45533957184572" lon="11.505762749815506"><ele>359.1666666666667</ele><time>2026-03-22T08:01:55.998Z</time></trkpt><trkpt lat="45.45527213825767" lon="11.505814057920285"><ele>359.0</ele><time>2026-03-22T08:01:58.998Z</time></trkpt><trkpt lat="45.45521801484379" lon="11.505877247465696"><ele>360.2857142857143</ele><time>2026-03-22T08:02:01.998Z</time></trkpt><trkpt lat="45.45516212443154" lon="11.505957451637716"><ele>361.57142857142856</ele><time>2026-03-22T08:02:04.997Z</time></trkpt><trkpt lat="45.45509735479799" lon="11.506041347584066"><ele>362.8571428571429</ele><time>2026-03-22T08:02:08.997Z</time></trkpt><trkpt lat="45.455041458254364" lon="11.506102655561557"><ele>364.1428571428571</ele><time>2026-03-22T08:02:11.997Z</time></trkpt><trkpt lat="45.455006886973166" lon="11.506186715418522"><ele>365.4285714285714</ele><time>2026-03-22T08:02:14.997Z</time></trkpt><trkpt lat="45.454978663441835" lon="11.50628643686831"><ele>366.7142857142857</ele><time>2026-03-22T08:02:18.997Z</time></trkpt><trkpt lat="45.45497427011915" lon="11.506377958988153"><ele>368.0</ele><time>2026-03-22T08:02:22Z</time></trkpt><trkpt lat="45.45496398880385" lon="11.506468304419972"><ele>368.83333333333337</ele><time>2026-03-22T08:02:24Z</time></trkpt><trkpt lat="45.45497718382879" lon="11.506561709619403"><ele>369.6666666666667</ele><time>2026-03-22T08:02:26Z</time></trkpt><trkpt lat="45.45497727345818" lon="11.506670138054089"><ele>370.5</ele><time>2026-03-22T08:02:28Z</time></trkpt><trkpt lat="45.454972180863265" lon="11.506767310102251"><ele>371.3333333333333</ele><time>2026-03-22T08:02:30Z</time></trkpt><trkpt lat="45.45499141233552" lon="11.50686952134807"><ele>372.16666666666663</ele><time>2026-03-22T08:02:32Z</time></trkpt><trkpt lat="45.45500971930978" lon="11.506992159308162"><ele>373.0</ele><time>2026-03-22T08:02:35Z</time></trkpt><trkpt lat="45.455035914973344" lon="11.50710366941848"><ele>373.0</ele><time>2026-03-22T08:02:38Z</time></trkpt><trkpt lat="45.455039671630324" lon="11.507231493270275"><ele>373.0</ele><time>2026-03-22T08:02:41Z</time></trkpt><trkpt lat="45.45503602698279" lon="11.507352017603191"><ele>373.0</ele><time>2026-03-22T08:02:44Z</time></trkpt><trkpt lat="45.45504025382797" lon="11.5074845974703"><ele>373.0</ele><time>2026-03-22T08:02:46Z</time></trkpt><trkpt lat="45.45502606492455" lon="11.507653781154776"><ele>373.0</ele><time>2026-03-22T08:02:48Z</time></trkpt><trkpt lat="45.4549892973895" lon="11.507796320477953"><ele>372.16666666666663</ele><time>2026-03-22T08:02:50Z</time></trkpt><trkpt lat="45.454974102794154" lon="11.507926801135955"><ele>371.3333333333333</ele><time>2026-03-22T08:02:52Z</time></trkpt><trkpt lat="45.45495535513739" lon="11.508013266900184"><ele>370.5</ele><time>2026-03-22T08:02:52.999Z</time></trkpt><trkpt lat="45.45492280804469" lon="11.508144519336245"><ele>369.6666666666667</ele><time>2026-03-22T08:02:54.999Z</time></trkpt><trkpt lat="45.45488626822625" lon="11.508261814516784"><ele>368.83333333333337</ele><time>2026-03-22T08:02:56.999Z</time></trkpt><trkpt lat="45.45486292822852" lon="11.508364692129536"><ele>368.0</ele><time>2026-03-22T08:02:58.999Z</time></trkpt><trkpt lat="45.454814575886665" lon="11.508471355308828"><ele>368.0</ele><time>2026-03-22T08:03:00.999Z</time></trkpt><trkpt lat="45.45478106742247" lon="11.508585284195206"><ele>368.0</ele><time>2026-03-22T08:03:02.999Z</time></trkpt><trkpt lat="45.45475686864908" lon="11.5087001115175"><ele>368.0</ele><time>2026-03-22T08:03:04.999Z</time></trkpt><trkpt lat="45.45474784771063" lon="11.50882904226156"><ele>368.0</ele><time>2026-03-22T08:03:06.999Z</time></trkpt><trkpt lat="45.45475015244221" lon="11.508929116785612"><ele>368.0</ele><time>2026-03-22T08:03:08.999Z</time></trkpt><trkpt lat="45.454758033322186" lon="11.509040416104622"><ele>368.0</ele><time>2026-03-22T08:03:10.999Z</time></trkpt><trkpt lat="45.454741626409465" lon="11.50913152043409"><ele>367.6666666666667</ele><time>2026-03-22T08:03:12.999Z</time></trkpt><trkpt lat="45.45479623216696" lon="11.509227485870477"><ele>367.33333333333337</ele><time>2026-03-22T08:03:14.999Z</time></trkpt><trkpt lat="45.454752105760356" lon="11.509326130346528"><ele>367.0</ele><time>2026-03-22T08:03:18.999Z</time></trkpt><trkpt lat="45.45473744455412" lon="11.509432618991747"><ele>366.6666666666667</ele><time>2026-03-22T08:03:21.999Z</time></trkpt><trkpt lat="45.45471470393031" lon="11.509538552292932"><ele>366.3333333333333</ele><time>2026-03-22T08:03:24.999Z</time></trkpt><trkpt lat="45.45465717903568" lon="11.509600281016072"><ele>366.0</ele><time>2026-03-22T08:03:27.999Z</time></trkpt><trkpt lat="45.45457217225782" lon="11.509634581829248"><ele>367.1666666666667</ele><time>2026-03-22T08:03:30.998Z</time></trkpt><trkpt lat="45.45448746934912" lon="11.50966810655793"><ele>368.3333333333333</ele><time>2026-03-22T08:03:33.998Z</time></trkpt><trkpt lat="45.454403031995724" lon="11.509686859935215"><ele>369.5</ele><time>2026-03-22T08:03:36.998Z</time></trkpt><trkpt lat="45.454322730802325" lon="11.509728004891892"><ele>370.66666666666663</ele><time>2026-03-22T08:03:39.998Z</time></trkpt><trkpt lat="45.45425513388017" lon="11.509737379448877"><ele>371.8333333333333</ele><time>2026-03-22T08:03:42.998Z</time></trkpt><trkpt lat="45.45419138684207" lon="11.509780753557425"><ele>373.0</ele><time>2026-03-22T08:03:45.998Z</time></trkpt><trkpt lat="45.45412394149897" lon="11.509825551716464"><ele>373.0</ele><time>2026-03-22T08:03:48.998Z</time></trkpt><trkpt lat="45.454040226151626" lon="11.50989702767344"><ele>373.0</ele><time>2026-03-22T08:03:52.998Z</time></trkpt><trkpt lat="45.45397619417109" lon="11.50997169574878"><ele>373.0</ele><time>2026-03-22T08:03:56.998Z</time></trkpt><trkpt lat="45.453922138002554" lon="11.510058122265809"><ele>373.0</ele><time>2026-03-22T08:04:00.998Z</time></trkpt><trkpt lat="45.45389410367416" lon="11.510145174677115"><ele>373.0</ele><time>2026-03-22T08:04:05.998Z</time></trkpt><trkpt lat="45.453856850826405" lon="11.510233916402303"><ele>373.0</ele><time>2026-03-22T08:04:13.997Z</time></trkpt><trkpt lat="45.453823549550464" lon="11.51034058251643"><ele>372.7142857142857</ele><time>2026-03-22T08:04:19.997Z</time></trkpt><trkpt lat="45.45381834747357" lon="11.510443179423522"><ele>372.42857142857144</ele><time>2026-03-22T08:04:29Z</time></trkpt><trkpt lat="45.45379613292644" lon="11.510549287337446"><ele>372.1428571428571</ele><time>2026-03-22T08:04:32Z</time></trkpt><trkpt lat="45.45376196599416" lon="11.51062500330591"><ele>371.8571428571429</ele><time>2026-03-22T08:04:34Z</time></trkpt><trkpt lat="45.45374541792342" lon="11.5107121051274"><ele>371.57142857142856</ele><time>2026-03-22T08:04:36Z</time></trkpt><trkpt lat="45.4537191891469" lon="11.510835239844722"><ele>371.2857142857143</ele><time>2026-03-22T08:04:39Z</time></trkpt><trkpt lat="45.45368318737152" lon="11.510939022784331"><ele>371.0</ele><time>2026-03-22T08:04:42Z</time></trkpt><trkpt lat="45.453638281794014" lon="11.511053108994444"><ele>371.0</ele><time>2026-03-22T08:04:45Z</time></trkpt><trkpt lat="45.453578773271815" lon="11.511120557589656"><ele>371.0</ele><time>2026-03-22T08:04:49Z</time></trkpt><trkpt lat="45.4535206769595" lon="11.511166669761446"><ele>371.0</ele><time>2026-03-22T08:04:52Z</time></trkpt><trkpt lat="45.4534485718323" lon="11.511202959378542"><ele>371.0</ele><time>2026-03-22T08:04:55Z</time></trkpt><trkpt lat="45.45337922170432" lon="11.511250198364777"><ele>371.0</ele><time>2026-03-22T08:05:00.999Z</time></trkpt><trkpt lat="45.45329666523938" lon="11.511275527020029"><ele>371.0</ele><time>2026-03-22T08:05:04.999Z</time></trkpt><trkpt lat="45.45321764501881" lon="11.511288716487812"><ele>372.0</ele><time>2026-03-22T08:05:07.999Z</time></trkpt><trkpt lat="45.45315378965861" lon="11.511288150834242"><ele>373.0</ele><time>2026-03-22T08:05:09.999Z</time></trkpt><trkpt lat="45.453078137940665" lon="11.511305149555389"><ele>374.0</ele><time>2026-03-22T08:05:11.999Z</time></trkpt><trkpt lat="45.453008700393376" lon="11.51131819250898"><ele>375.0</ele><time>2026-03-22T08:05:14.999Z</time></trkpt><trkpt lat="45.452936470844456" lon="11.51132203052156"><ele>376.0</ele><time>2026-03-22T08:05:17.999Z</time></trkpt><trkpt lat="45.45285075304228" lon="11.511319492987152"><ele>377.0</ele><time>2026-03-22T08:05:23.999Z</time></trkpt><trkpt lat="45.45276860465938" lon="11.511314131682113"><ele>376.99999999999994</ele><time>2026-03-22T08:05:27.999Z</time></trkpt><trkpt lat="45.45269663243519" lon="11.511297287881424"><ele>377.0</ele><time>2026-03-22T08:05:30.999Z</time></trkpt><trkpt lat="45.45263497574906" lon="11.511242691354601"><ele>377.0</ele><time>2026-03-22T08:05:34.999Z</time></trkpt><trkpt lat="45.45260673535462" lon="11.511335667196414"><ele>377.0</ele><time>2026-03-22T08:05:39.998Z</time></trkpt><trkpt lat="45.452608750677804" lon="11.511446561201796"><ele>377.0</ele><time>2026-03-22T08:05:41.998Z</time></trkpt><trkpt lat="45.45257886258466" lon="11.511531018167707"><ele>376.99999999999994</ele><time>2026-03-22T08:05:43.998Z</time></trkpt><trkpt lat="45.45255608610092" lon="11.511649236811815"><ele>377.0</ele><time>2026-03-22T08:05:46.998Z</time></trkpt><trkpt lat="45.45251863325995" lon="11.511774119753408"><ele>376.99999999999994</ele><time>2026-03-22T08:05:49.998Z</time></trkpt><trkpt lat="45.452479225100404" lon="11.51187864453703"><ele>377.0</ele><time>2026-03-22T08:05:52.998Z</time></trkpt><trkpt lat="45.452442874963786" lon="11.511962396715022"><ele>377.0</ele><time>2026-03-22T08:05:55.998Z</time></trkpt><trkpt lat="45.452398706660865" lon="11.512061027037737"><ele>377.0</ele><time>2026-03-22T08:05:59.998Z</time></trkpt><trkpt lat="45.452348212999645" lon="11.51212534972457"><ele>377.0</ele><time>2026-03-22T08:06:02.998Z</time></trkpt><trkpt lat="45.4522914236664" lon="11.512181931779715"><ele>376.99999999999994</ele><time>2026-03-22T08:06:06.998Z</time></trkpt><trkpt lat="45.452223138332535" lon="11.512226920144087"><ele>377.0</ele><time>2026-03-22T08:06:48Z</time></trkpt><trkpt lat="45.45215908760094" lon="11.512242610973036"><ele>377.71428571428567</ele><time>2026-03-22T08:06:52Z</time></trkpt><trkpt lat="45.4521000749667" lon="11.512278043544544"><ele>378.42857142857144</ele><time>2026-03-22T08:07:05.999Z</time></trkpt><trkpt lat="45.452020287318156" lon="11.51232454680719"><ele>379.1428571428571</ele><time>2026-03-22T08:07:08.999Z</time></trkpt><trkpt lat="45.451952814936476" lon="11.512348312292865"><ele>379.85714285714283</ele><time>2026-03-22T08:07:10.999Z</time></trkpt><trkpt lat="45.451873855546765" lon="11.512388515556069"><ele>380.57142857142856</ele><time>2026-03-22T08:07:12.999Z</time></trkpt><trkpt lat="45.45180491630542" lon="11.512434530299771"><ele>381.2857142857143</ele><time>2026-03-22T08:07:15.999Z</time></trkpt><trkpt lat="45.45174739477885" lon="11.512477829120234"><ele>382.0</ele><time>2026-03-22T08:07:17.999Z</time></trkpt><trkpt lat="45.45167039999494" lon="11.512535330653774"><ele>382.0</ele><time>2026-03-22T08:07:21.999Z</time></trkpt><trkpt lat="45.45160426313448" lon="11.512584228981874"><ele>382.0</ele><time>2026-03-22T08:07:24.999Z</time></trkpt><trkpt lat="45.45154463876242" lon="11.512613925739652"><ele>382.0</ele><time>2026-03-22T08:07:26.999Z</time></trkpt><trkpt lat="45.45145252292821" lon="11.512675844907157"><ele>382.0</ele><time>2026-03-22T08:07:28.999Z</time></trkpt><trkpt lat="45.45135940346401" lon="11.512739158086623"><ele>382.0</ele><time>2026-03-22T08:07:30.999Z</time></trkpt><trkpt lat="45.451261576482246" lon="11.512794026580107"><ele>382.0</ele><time>2026-03-22T08:07:32.999Z</time></trkpt><trkpt lat="45.4512056343231" lon="11.51286568280827"><ele>381.5</ele><time>2026-03-22T08:07:34.999Z</time></trkpt><trkpt lat="45.45116437070186" lon="11.512968424242459"><ele>381.0</ele><time>2026-03-22T08:07:36.999Z</time></trkpt><trkpt lat="45.45109315810753" lon="11.51306492795687"><ele>380.5</ele><time>2026-03-22T08:07:38.999Z</time></trkpt><trkpt lat="45.45106136191952" lon="11.51315865414308"><ele>380.0</ele><time>2026-03-22T08:07:41.998Z</time></trkpt><trkpt lat="45.45101436817857" lon="11.513280422592759"><ele>379.5</ele><time>2026-03-22T08:07:44.998Z</time></trkpt><trkpt lat="45.450952725716874" lon="11.513352936095337"><ele>379.0</ele><time>2026-03-22T08:07:46.998Z</time></trkpt><trkpt lat="45.45087905223057" lon="11.51340048497184"><ele>379.0</ele><time>2026-03-22T08:07:48.998Z</time></trkpt><trkpt lat="45.45079347077937" lon="11.51341902798168"><ele>379.0</ele><time>2026-03-22T08:07:50.998Z</time></trkpt><trkpt lat="45.45070768177244" lon="11.513388704940237"><ele>379.0</ele><time>2026-03-22T08:07:52.998Z</time></trkpt><trkpt lat="45.45062097094153" lon="11.513369390533088"><ele>379.0</ele><time>2026-03-22T08:07:54.998Z</time></trkpt><trkpt lat="45.45055149212731" lon="11.513362467187616"><ele>379.0</ele><time>2026-03-22T08:07:56.998Z</time></trkpt><trkpt lat="45.450478833511575" lon="11.513344807740445"><ele>379.0</ele><time>2026-03-22T08:07:58.998Z</time></trkpt><trkpt lat="45.45040446955658" lon="11.513332939805471"><ele>378.5714285714286</ele><time>2026-03-22T08:08:00.998Z</time></trkpt><trkpt lat="45.45033936893993" lon="11.513317894375255"><ele>378.14285714285717</ele><time>2026-03-22T08:08:03.998Z</time></trkpt><trkpt lat="45.450285283335994" lon="11.513233402188702"><ele>377.7142857142857</ele><time>2026-03-22T08:08:06.998Z</time></trkpt><trkpt lat="45.450250938183075" lon="11.513153939846363"><ele>377.28571428571433</ele><time>2026-03-22T08:08:08.998Z</time></trkpt><trkpt lat="45.45022194224404" lon="11.51307232160489"><ele>376.85714285714283</ele><time>2026-03-22T08:08:10.998Z</time></trkpt><trkpt lat="45.450188366566216" lon="11.512974975852758"><ele>376.42857142857144</ele><time>2026-03-22T08:08:12.998Z</time></trkpt><trkpt lat="45.45016453812191" lon="11.512889336249287"><ele>376.0</ele><time>2026-03-22T08:08:14.998Z</time></trkpt><trkpt lat="45.45013254994562" lon="11.512793153183786"><ele>377.3333333333333</ele><time>2026-03-22T08:08:16.998Z</time></trkpt><trkpt lat="45.45010029161813" lon="11.512710655064717"><ele>378.66666666666663</ele><time>2026-03-22T08:08:19.997Z</time></trkpt><trkpt lat="45.450054988366205" lon="11.512632115569193"><ele>380.0</ele><time>2026-03-22T08:08:22.997Z</time></trkpt><trkpt lat="45.449997380991974" lon="11.512539994354453"><ele>381.3333333333333</ele><time>2026-03-22T08:08:26.997Z</time></trkpt><trkpt lat="45.449942087327805" lon="11.512443010496877"><ele>382.6666666666667</ele><time>2026-03-22T08:08:29.997Z</time></trkpt><trkpt lat="45.449915432352945" lon="11.512345675106753"><ele>384.0</ele><time>2026-03-22T08:08:32.997Z</time></trkpt><trkpt lat="45.44988119529314" lon="11.51226329129202"><ele>384.0</ele><time>2026-03-22T08:08:35.997Z</time></trkpt><trkpt lat="45.449835592529496" lon="11.512180813467284"><ele>384.0</ele><time>2026-03-22T08:08:39Z</time></trkpt><trkpt lat="45.449791440351774" lon="11.512103371339682"><ele>384.0</ele><time>2026-03-22T08:08:41Z</time></trkpt><trkpt lat="45.44970447426234" lon="11.51206537390151"><ele>384.0</ele><time>2026-03-22T08:08:43Z</time></trkpt><trkpt lat="45.449620591038574" lon="11.512085600302186"><ele>384.0</ele><time>2026-03-22T08:08:45Z</time></trkpt><trkpt lat="45.449571764173584" lon="11.512165798265666"><ele>384.0</ele><time>2026-03-22T08:08:47Z</time></trkpt><trkpt lat="45.449508045854536" lon="11.512199841015551"><ele>382.4</ele><time>2026-03-22T08:08:49Z</time></trkpt><trkpt lat="45.44941610679376" lon="11.51223077789688"><ele>380.79999999999995</ele><time>2026-03-22T08:08:51Z</time></trkpt><trkpt lat="45.449325001682546" lon="11.5122728615922"><ele>379.20000000000005</ele><time>2026-03-22T08:08:53Z</time></trkpt><trkpt lat="45.44924534014736" lon="11.512305192148087"><ele>377.6</ele><time>2026-03-22T08:08:55Z</time></trkpt><trkpt lat="45.449146546648336" lon="11.512361686362903"><ele>376.0</ele><time>2026-03-22T08:08:57Z</time></trkpt><trkpt lat="45.44906624377246" lon="11.512387227522368"><ele>376.0</ele><time>2026-03-22T08:08:59Z</time></trkpt><trkpt lat="45.449005960489835" lon="11.512450572978858"><ele>376.0</ele><time>2026-03-22T08:09:01Z</time></trkpt><trkpt lat="45.4489073071086" lon="11.512535210338854"><ele>376.0</ele><time>2026-03-22T08:09:03Z</time></trkpt><trkpt lat="45.44883746068634" lon="11.51255948682812"><ele>376.0</ele><time>2026-03-22T08:09:04Z</time></trkpt><trkpt lat="45.44878013224416" lon="11.512607669113454"><ele>376.0</ele><time>2026-03-22T08:09:05Z</time></trkpt><trkpt lat="45.44872965342185" lon="11.512674813201384"><ele>376.0</ele><time>2026-03-22T08:09:07Z</time></trkpt><trkpt lat="45.4487000282591" lon="11.51275663595258"><ele>374.0</ele><time>2026-03-22T08:09:13.999Z</time></trkpt><trkpt lat="45.448630107040785" lon="11.512768090144755"><ele>372.0</ele><time>2026-03-22T08:09:23.999Z</time></trkpt><trkpt lat="45.44861067368353" lon="11.5126475050293"><ele>370.0</ele><time>2026-03-22T08:09:26.999Z</time></trkpt><trkpt lat="45.44859110655656" lon="11.512532833314857"><ele>368.0</ele><time>2026-03-22T08:09:29.999Z</time></trkpt><trkpt lat="45.44855867968948" lon="11.512425430174229"><ele>366.0</ele><time>2026-03-22T08:09:32.999Z</time></trkpt><trkpt lat="45.448488514684186" lon="11.5123732066007"><ele>364.0</ele><time>2026-03-22T08:09:36.999Z</time></trkpt><trkpt lat="45.44839164664493" lon="11.512443651564668"><ele>364.0</ele><time>2026-03-22T08:09:39.999Z</time></trkpt><trkpt lat="45.448350822382885" lon="11.512513005856496"><ele>364.0</ele><time>2026-03-22T08:09:40.999Z</time></trkpt><trkpt lat="45.44830457007852" lon="11.512585827783852"><ele>364.0</ele><time>2026-03-22T08:09:41.999Z</time></trkpt><trkpt lat="45.448252453462295" lon="11.51266332793872"><ele>364.0</ele><time>2026-03-22T08:09:42.999Z</time></trkpt><trkpt lat="45.44821627662955" lon="11.512741190629026"><ele>364.0</ele><time>2026-03-22T08:09:43.999Z</time></trkpt><trkpt lat="45.44815756625558" lon="11.512834322950136"><ele>364.0</ele><time>2026-03-22T08:09:45.999Z</time></trkpt><trkpt lat="45.4480780414147" lon="11.512872800808234"><ele>364.0</ele><time>2026-03-22T08:09:49.998Z</time></trkpt><trkpt lat="45.44800376336848" lon="11.512898228201541"><ele>362.14285714285717</ele><time>2026-03-22T08:09:53.998Z</time></trkpt><trkpt lat="45.44792115528492" lon="11.512943617799271"><ele>360.2857142857143</ele><time>2026-03-22T08:09:58.998Z</time></trkpt><trkpt lat="45.44786365367015" lon="11.512986607580018"><ele>358.42857142857144</ele><time>2026-03-22T08:10:00.998Z</time></trkpt><trkpt lat="45.447792864355414" lon="11.512983852482453"><ele>356.57142857142856</ele><time>2026-03-22T08:10:02.998Z</time></trkpt><trkpt lat="45.44774994462103" lon="11.512914427078988"><ele>354.7142857142857</ele><time>2026-03-22T08:10:07.998Z</time></trkpt><trkpt lat="45.44767189188302" lon="11.512891942890674"><ele>352.8571428571429</ele><time>2026-03-22T08:13:15Z</time></trkpt><trkpt lat="45.447603788558595" lon="11.512873447594638"><ele>351.0</ele><time>2026-03-22T08:13:18Z</time></trkpt><trkpt lat="45.44751631625515" lon="11.512875132722327"><ele>351.0</ele><time>2026-03-22T08:13:21Z</time></trkpt><trkpt lat="45.4474304130153" lon="11.512890225617358"><ele>351.0</ele><time>2026-03-22T08:13:24.999Z</time></trkpt><trkpt lat="45.4473552638041" lon="11.512907583829136"><ele>351.0</ele><time>2026-03-22T08:13:27.999Z</time></trkpt><trkpt lat="45.44727579193424" lon="11.512922368954163"><ele>351.0</ele><time>2026-03-22T08:13:30.999Z</time></trkpt><trkpt lat="45.447196008475935" lon="11.51293498245898"><ele>351.0</ele><time>2026-03-22T08:13:32.999Z</time></trkpt><trkpt lat="45.44711731786481" lon="11.512932637343193"><ele>351.0</ele><time>2026-03-22T08:13:34.999Z</time></trkpt><trkpt lat="45.4470918025021" lon="11.513027088351672"><ele>350.8571428571429</ele><time>2026-03-22T08:13:38.999Z</time></trkpt><trkpt lat="45.44707076025912" lon="11.513121037947899"><ele>350.7142857142857</ele><time>2026-03-22T08:13:42.999Z</time></trkpt><trkpt lat="45.44699239910339" lon="11.513126228231052"><ele>350.57142857142856</ele><time>2026-03-22T08:13:45.999Z</time></trkpt><trkpt lat="45.44692921538087" lon="11.513121442443845"><ele>350.42857142857144</ele><time>2026-03-22T08:13:47.999Z</time></trkpt><trkpt lat="45.446858119879614" lon="11.513122024175601"><ele>350.2857142857143</ele><time>2026-03-22T08:13:51.999Z</time></trkpt><trkpt lat="45.44677140445193" lon="11.513139067774556"><ele>350.14285714285717</ele><time>2026-03-22T08:13:55.999Z</time></trkpt><trkpt lat="45.44670067276013" lon="11.51315190906177"><ele>350.0</ele><time>2026-03-22T08:13:58.998Z</time></trkpt><trkpt lat="45.44661070720715" lon="11.513160091524483"><ele>350.0</ele><time>2026-03-22T08:14:01.998Z</time></trkpt><trkpt lat="45.44650758537356" lon="11.513156394386096"><ele>350.0</ele><time>2026-03-22T08:14:04.998Z</time></trkpt><trkpt lat="45.44644029037127" lon="11.513182123883338"><ele>350.0</ele><time>2026-03-22T08:14:06.998Z</time></trkpt><trkpt lat="45.446378806162585" lon="11.51320915468449"><ele>350.0</ele><time>2026-03-22T08:14:08.998Z</time></trkpt><trkpt lat="45.44631195984901" lon="11.513240581604576"><ele>350.0</ele><time>2026-03-22T08:14:10.998Z</time></trkpt><trkpt lat="45.44625471125656" lon="11.513299128489244"><ele>350.0</ele><time>2026-03-22T08:14:12.998Z</time></trkpt><trkpt lat="45.44617395163402" lon="11.513390339299894"><ele>349.0</ele><time>2026-03-22T08:14:14.998Z</time></trkpt><trkpt lat="45.446111803804314" lon="11.513473814456265"><ele>348.0</ele><time>2026-03-22T08:14:16.998Z</time></trkpt><trkpt lat="45.44602775907746" lon="11.513609130522877"><ele>347.0</ele><time>2026-03-22T08:14:18.998Z</time></trkpt><trkpt lat="45.445990536398064" lon="11.513682851567777"><ele>346.0</ele><time>2026-03-22T08:14:19.998Z</time></trkpt><trkpt lat="45.445927069728185" lon="11.513778563510705"><ele>345.0</ele><time>2026-03-22T08:14:20.998Z</time></trkpt><trkpt lat="45.445889409807414" lon="11.513929509685228"><ele>345.0</ele><time>2026-03-22T08:14:22.998Z</time></trkpt><trkpt lat="45.44583488135155" lon="11.514014787949693"><ele>345.0</ele><time>2026-03-22T08:14:24.998Z</time></trkpt><trkpt lat="45.44579388784763" lon="11.514116158132978"><ele>345.0</ele><time>2026-03-22T08:14:26.998Z</time></trkpt><trkpt lat="45.445738519435615" lon="11.51421340003506"><ele>345.0</ele><time>2026-03-22T08:14:28.998Z</time></trkpt><trkpt lat="45.44567485545414" lon="11.514310331342788"><ele>345.0</ele><time>2026-03-22T08:14:30.998Z</time></trkpt><trkpt lat="45.44562760375406" lon="11.514423521511358"><ele>345.0</ele><time>2026-03-22T08:14:32.998Z</time></trkpt><trkpt lat="45.4456050968692" lon="11.514531021857932"><ele>342.7142857142857</ele><time>2026-03-22T08:14:34.998Z</time></trkpt><trkpt lat="45.44557512366557" lon="11.514616023229628"><ele>340.42857142857144</ele><time>2026-03-22T08:14:36.997Z</time></trkpt><trkpt lat="45.445554301389535" lon="11.51470780752409"><ele>338.1428571428571</ele><time>2026-03-22T08:14:38.997Z</time></trkpt><trkpt lat="45.44555033971993" lon="11.51480722623786"><ele>335.8571428571429</ele><time>2026-03-22T08:14:40.997Z</time></trkpt><trkpt lat="45.4455197639048" lon="11.514909480034964"><ele>333.57142857142856</ele><time>2026-03-22T08:14:42.997Z</time></trkpt><trkpt lat="45.445502078659864" lon="11.515013335980566"><ele>331.2857142857143</ele><time>2026-03-22T08:14:44.997Z</time></trkpt><trkpt lat="45.44548018869021" lon="11.515136254459991"><ele>329.0</ele><time>2026-03-22T08:14:47.997Z</time></trkpt><trkpt lat="45.4454645047763" lon="11.515255624106906"><ele>334.14285714285717</ele><time>2026-03-22T08:14:50.997Z</time></trkpt><trkpt lat="45.445446544444884" lon="11.515365312428775"><ele>339.2857142857143</ele><time>2026-03-22T08:14:52.997Z</time></trkpt><trkpt lat="45.4454277393573" lon="11.515454163798529"><ele>344.42857142857144</ele><time>2026-03-22T08:14:54.997Z</time></trkpt><trkpt lat="45.44540689893899" lon="11.515571659952954"><ele>349.57142857142856</ele><time>2026-03-22T08:14:58Z</time></trkpt><trkpt lat="45.445358554448546" lon="11.51564317588943"><ele>354.7142857142857</ele><time>2026-03-22T08:15:00Z</time></trkpt><trkpt lat="45.44532703905924" lon="11.515748070995173"><ele>359.8571428571429</ele><time>2026-03-22T08:15:03Z</time></trkpt><trkpt lat="45.44530274851999" lon="11.515835629335037"><ele>365.0</ele><time>2026-03-22T08:15:06Z</time></trkpt><trkpt lat="45.445249585002976" lon="11.515941737889554"><ele>365.0</ele><time>2026-03-22T08:15:09Z</time></trkpt><trkpt lat="45.445219998203584" lon="11.516046490281326"><ele>365.0</ele><time>2026-03-22T08:15:11Z</time></trkpt><trkpt lat="45.44517306124657" lon="11.516155447862785"><ele>365.0</ele><time>2026-03-22T08:15:13Z</time></trkpt><trkpt lat="45.44512610291239" lon="11.516276998541365"><ele>365.0</ele><time>2026-03-22T08:15:15Z</time></trkpt><trkpt lat="45.445098595449565" lon="11.516409492401039"><ele>365.0</ele><time>2026-03-22T08:15:17Z</time></trkpt><trkpt lat="45.445071999663305" lon="11.516572116242074"><ele>362.6666666666667</ele><time>2026-03-22T08:15:19Z</time></trkpt><trkpt lat="45.44504484529589" lon="11.516657749649257"><ele>360.33333333333337</ele><time>2026-03-22T08:15:20Z</time></trkpt><trkpt lat="45.445029130515465" lon="11.516826863986722"><ele>358.0</ele><time>2026-03-22T08:15:22Z</time></trkpt><trkpt lat="45.44501339438532" lon="11.516941512581552"><ele>355.6666666666667</ele><time>2026-03-22T08:15:24Z</time></trkpt><trkpt lat="45.4450139535447" lon="11.517034494183084"><ele>353.3333333333333</ele><time>2026-03-22T08:15:26Z</time></trkpt><trkpt lat="45.44506708231411" lon="11.517140462952101"><ele>351.0</ele><time>2026-03-22T08:15:28Z</time></trkpt><trkpt lat="45.44509276818301" lon="11.517273611683423"><ele>349.8333333333333</ele><time>2026-03-22T08:15:29.999Z</time></trkpt><trkpt lat="45.44509373300548" lon="11.517374597140638"><ele>348.6666666666667</ele><time>2026-03-22T08:15:31.999Z</time></trkpt><trkpt lat="45.44509495368482" lon="11.517489240454733"><ele>347.5</ele><time>2026-03-22T08:15:34.999Z</time></trkpt><trkpt lat="45.445067257179275" lon="11.517579625373411"><ele>346.33333333333337</ele><time>2026-03-22T08:15:37.999Z</time></trkpt><trkpt lat="45.44503386131831" lon="11.517691228202114"><ele>345.1666666666667</ele><time>2026-03-22T08:15:39.999Z</time></trkpt><trkpt lat="45.444994071717616" lon="11.517781890330095"><ele>344.0</ele><time>2026-03-22T08:15:41.999Z</time></trkpt><trkpt lat="45.44493719443921" lon="11.517865350411034"><ele>342.28571428571433</ele><time>2026-03-22T08:15:43.999Z</time></trkpt><trkpt lat="45.44491097581536" lon="11.517962660615432"><ele>340.57142857142856</ele><time>2026-03-22T08:15:45.999Z</time></trkpt><trkpt lat="45.44488444500898" lon="11.518048472729832"><ele>338.8571428571429</ele><time>2026-03-22T08:15:47.999Z</time></trkpt><trkpt lat="45.44485341883245" lon="11.518149882623751"><ele>337.14285714285717</ele><time>2026-03-22T08:15:49.999Z</time></trkpt><trkpt lat="45.44480873789515" lon="11.518232543460165"><ele>335.42857142857144</ele><time>2026-03-22T08:15:51.999Z</time></trkpt><trkpt lat="45.444765394186796" lon="11.518341088390917"><ele>333.7142857142857</ele><time>2026-03-22T08:15:54.999Z</time></trkpt><trkpt lat="45.444741100764155" lon="11.51842541981039"><ele>332.0</ele><time>2026-03-22T08:15:56.999Z</time></trkpt><trkpt lat="45.444688576827254" lon="11.518482113765387"><ele>337.33333333333337</ele><time>2026-03-22T08:15:58.999Z</time></trkpt><trkpt lat="45.444619209836006" lon="11.518555270134039"><ele>342.6666666666667</ele><time>2026-03-22T08:16:01.999Z</time></trkpt><trkpt lat="45.44456108516193" lon="11.518623632499164"><ele>348.0</ele><time>2026-03-22T08:16:04.999Z</time></trkpt><trkpt lat="45.444532411294865" lon="11.518734342981748"><ele>353.3333333333333</ele><time>2026-03-22T08:16:07.998Z</time></trkpt><trkpt lat="45.444455108640945" lon="11.51881940828722"><ele>358.66666666666663</ele><time>2026-03-22T08:16:10.998Z</time></trkpt><trkpt lat="45.44438951110188" lon="11.518905010214782"><ele>364.0</ele><time>2026-03-22T08:16:13.998Z</time></trkpt><trkpt lat="45.4443435314103" lon="11.519004848547311"><ele>364.0</ele><time>2026-03-22T08:16:16.998Z</time></trkpt><trkpt lat="45.44431204958229" lon="11.51908685076964"><ele>364.0</ele><time>2026-03-22T08:16:19.998Z</time></trkpt><trkpt lat="45.44429534722313" lon="11.519175297505976"><ele>364.0</ele><time>2026-03-22T08:16:22.998Z</time></trkpt><trkpt lat="45.444253791412855" lon="11.519246983675993"><ele>364.0</ele><time>2026-03-22T08:16:25.998Z</time></trkpt><trkpt lat="45.44420492966033" lon="11.519343547161814"><ele>364.0</ele><time>2026-03-22T08:16:28.998Z</time></trkpt><trkpt lat="45.444165009001544" lon="11.519420859819677"><ele>364.0</ele><time>2026-03-22T08:16:33.998Z</time></trkpt><trkpt lat="45.444133099820114" lon="11.519516607080101"><ele>364.0</ele><time>2026-03-22T08:16:38.998Z</time></trkpt><trkpt lat="45.44411702041757" lon="11.519609829561166"><ele>362.5</ele><time>2026-03-22T08:16:41.998Z</time></trkpt><trkpt lat="45.44408911699856" lon="11.51969496670644"><ele>361.0</ele><time>2026-03-22T08:16:44.998Z</time></trkpt><trkpt lat="45.444080683794034" lon="11.519809682544047"><ele>359.5</ele><time>2026-03-22T08:16:47.997Z</time></trkpt><trkpt lat="45.444049211804284" lon="11.519925284640834"><ele>358.0</ele><time>2026-03-22T08:16:50.997Z</time></trkpt><trkpt lat="45.444029470711435" lon="11.52005056334922"><ele>356.5</ele><time>2026-03-22T08:16:53.997Z</time></trkpt><trkpt lat="45.444026512390806" lon="11.520148006592349"><ele>355.0</ele><time>2026-03-22T08:16:55.997Z</time></trkpt><trkpt lat="45.444034592611786" lon="11.52026384555841"><ele>353.4</ele><time>2026-03-22T08:16:57.997Z</time></trkpt><trkpt lat="45.44403700657285" lon="11.520402439996388"><ele>351.8</ele><time>2026-03-22T08:16:59.997Z</time></trkpt><trkpt lat="45.44403101736602" lon="11.520552832351752"><ele>350.20000000000005</ele><time>2026-03-22T08:17:01.997Z</time></trkpt><trkpt lat="45.444035056261654" lon="11.520726088892102"><ele>348.6</ele><time>2026-03-22T08:17:04Z</time></trkpt><trkpt lat="45.44402570930343" lon="11.520889832221162"><ele>347.0</ele><time>2026-03-22T08:17:06Z</time></trkpt><trkpt lat="45.444019504790916" lon="11.521036734539075"><ele>347.0</ele><time>2026-03-22T08:17:08Z</time></trkpt><trkpt lat="45.44402479199255" lon="11.521183953469393"><ele>347.0</ele><time>2026-03-22T08:17:10Z</time></trkpt><trkpt lat="45.444031530666685" lon="11.521316371020017"><ele>347.0</ele><time>2026-03-22T08:17:12Z</time></trkpt><trkpt lat="45.444035296457955" lon="11.52144254461967"><ele>347.0</ele><time>2026-03-22T08:17:14Z</time></trkpt><trkpt lat="45.44403316683579" lon="11.521554509847485"><ele>347.0</ele><time>2026-03-22T08:17:16Z</time></trkpt><trkpt lat="45.44404042119412" lon="11.52166021145669"><ele>347.0</ele><time>2026-03-22T08:17:18Z</time></trkpt><trkpt lat="45.4440301183528" lon="11.52179983555395"><ele>346.1666666666667</ele><time>2026-03-22T08:17:21Z</time></trkpt><trkpt lat="45.44403933649152" lon="11.521908962963757"><ele>345.33333333333337</ele><time>2026-03-22T08:17:23Z</time></trkpt><trkpt lat="45.44403660655086" lon="11.522021992244461"><ele>344.5</ele><time>2026-03-22T08:17:27Z</time></trkpt><trkpt lat="45.44403912223396" lon="11.522148769964769"><ele>343.6666666666667</ele><time>2026-03-22T08:17:30Z</time></trkpt><trkpt lat="45.44403411474276" lon="11.522246842971517"><ele>342.8333333333333</ele><time>2026-03-22T08:17:31.999Z</time></trkpt><trkpt lat="45.44402593144071" lon="11.522338060674457"><ele>342.0</ele><time>2026-03-22T08:17:34.999Z</time></trkpt><trkpt lat="45.44400640308848" lon="11.522460317617522"><ele>342.0</ele><time>2026-03-22T08:17:38.999Z</time></trkpt><trkpt lat="45.44398810055654" lon="11.52256265704102"><ele>342.0</ele><time>2026-03-22T08:17:41.999Z</time></trkpt><trkpt lat="45.44396982470159" lon="11.522651953441734"><ele>342.0</ele><time>2026-03-22T08:17:44.999Z</time></trkpt><trkpt lat="45.443929404969424" lon="11.522745561444632"><ele>342.0</ele><time>2026-03-22T08:17:48.999Z</time></trkpt><trkpt lat="45.443886234522786" lon="11.522847622677887"><ele>342.0</ele><time>2026-03-22T08:17:52.999Z</time></trkpt><trkpt lat="45.44384596344498" lon="11.522933002565269"><ele>342.0</ele><time>2026-03-22T08:17:55.999Z</time></trkpt><trkpt lat="45.44379970502293" lon="11.52302160273171"><ele>343.0</ele><time>2026-03-22T08:17:58.999Z</time></trkpt><trkpt lat="45.44373895476745" lon="11.523099520868634"><ele>344.0</ele><time>2026-03-22T08:18:01.999Z</time></trkpt><trkpt lat="45.44368562762285" lon="11.523164135380103"><ele>345.0</ele><time>2026-03-22T08:18:03.999Z</time></trkpt><trkpt lat="45.44364232072464" lon="11.523245669923114"><ele>346.0</ele><time>2026-03-22T08:18:05.999Z</time></trkpt><trkpt lat="45.44358729056092" lon="11.523342510185604"><ele>347.0</ele><time>2026-03-22T08:18:07.999Z</time></trkpt><trkpt lat="45.44350215258883" lon="11.523426784127349"><ele>348.0</ele><time>2026-03-22T08:18:09.998Z</time></trkpt><trkpt lat="45.443411842205784" lon="11.523505675822317"><ele>348.0</ele><time>2026-03-22T08:18:11.998Z</time></trkpt><trkpt lat="45.44334055691346" lon="11.523640569884998"><ele>348.0</ele><time>2026-03-22T08:18:13.998Z</time></trkpt><trkpt lat="45.44326274246371" lon="11.523725700187647"><ele>348.0</ele><time>2026-03-22T08:18:15.998Z</time></trkpt><trkpt lat="45.44318639813926" lon="11.523739290021522"><ele>348.0</ele><time>2026-03-22T08:18:16.998Z</time></trkpt><trkpt lat="45.44314859497737" lon="11.523842743834615"><ele>348.0</ele><time>2026-03-22T08:18:18.998Z</time></trkpt><trkpt lat="45.443093048214095" lon="11.523941705995174"><ele>348.0</ele><time>2026-03-22T08:18:21.998Z</time></trkpt><trkpt lat="45.44307392137119" lon="11.524030953729715"><ele>348.0</ele><time>2026-03-22T08:18:24.998Z</time></trkpt><trkpt lat="45.44304334452933" lon="11.52413547959159"><ele>348.0</ele><time>2026-03-22T08:18:28.998Z</time></trkpt><trkpt lat="45.44307828630128" lon="11.524234745007847"><ele>348.0</ele><time>2026-03-22T08:18:33.998Z</time></trkpt><trkpt lat="45.44309391580312" lon="11.524341581257431"><ele>348.0</ele><time>2026-03-22T08:18:38.998Z</time></trkpt><trkpt lat="45.44309745190937" lon="11.524440179003097"><ele>348.0</ele><time>2026-03-22T08:18:41.998Z</time></trkpt><trkpt lat="45.44309916843641" lon="11.524571092686273"><ele>348.0</ele><time>2026-03-22T08:18:43.998Z</time></trkpt><trkpt lat="45.44311446045588" lon="11.52467647788161"><ele>348.0</ele><time>2026-03-22T08:18:45.998Z</time></trkpt><trkpt lat="45.44313392537408" lon="11.5247718294296"><ele>348.0</ele><time>2026-03-22T08:18:48.997Z</time></trkpt><trkpt lat="45.44316495414575" lon="11.524865006378535"><ele>348.0</ele><time>2026-03-22T08:18:52.997Z</time></trkpt><trkpt lat="45.44317766218058" lon="11.524971493415604"><ele>348.0</ele><time>2026-03-22T08:18:55.997Z</time></trkpt><trkpt lat="45.44320173400331" lon="11.525080291527733"><ele>348.0</ele><time>2026-03-22T08:18:58.997Z</time></trkpt><trkpt lat="45.443207263377865" lon="11.525195168569645"><ele>348.0</ele><time>2026-03-22T08:19:01.997Z</time></trkpt><trkpt lat="45.443202128252906" lon="11.52529973334281"><ele>348.0</ele><time>2026-03-22T08:19:04.997Z</time></trkpt><trkpt lat="45.443206492748324" lon="11.525423559988276"><ele>348.0</ele><time>2026-03-22T08:19:07.997Z</time></trkpt><trkpt lat="45.44321823888411" lon="11.525539841346404"><ele>348.0</ele><time>2026-03-22T08:19:11Z</time></trkpt><trkpt lat="45.443250025748355" lon="11.52563941052883"><ele>348.0</ele><time>2026-03-22T08:19:14Z</time></trkpt><trkpt lat="45.44326751970664" lon="11.525750905370357"><ele>348.0</ele><time>2026-03-22T08:19:17Z</time></trkpt><trkpt lat="45.443262210426" lon="11.525843821862606"><ele>349.25</ele><time>2026-03-22T08:19:20Z</time></trkpt><trkpt lat="45.44328085885843" lon="11.52593558492833"><ele>350.5</ele><time>2026-03-22T08:19:25Z</time></trkpt><trkpt lat="45.44339119943278" lon="11.525993350805917"><ele>351.75</ele><time>2026-03-22T08:19:55.999Z</time></trkpt><trkpt lat="45.44356703468296" lon="11.525994824809965"><ele>353.0</ele><time>2026-03-22T08:20:00.999Z</time></trkpt><trkpt lat="45.44367263338176" lon="11.525943070565884"><ele>353.0</ele><time>2026-03-22T08:20:04.999Z</time></trkpt><trkpt lat="45.44376131362111" lon="11.525916541690385"><ele>353.0</ele><time>2026-03-22T08:20:07.999Z</time></trkpt><trkpt lat="45.44384377857974" lon="11.525854553384997"><ele>353.0</ele><time>2026-03-22T08:20:10.999Z</time></trkpt><trkpt lat="45.44389450396728" lon="11.525763947810255"><ele>353.0</ele><time>2026-03-22T08:20:13.999Z</time></trkpt><trkpt lat="45.4439529912685" lon="11.52567189368582"><ele>353.0</ele><time>2026-03-22T08:20:16.998Z</time></trkpt><trkpt lat="45.44401318415994" lon="11.525598861415329"><ele>353.0</ele><time>2026-03-22T08:20:19.998Z</time></trkpt><trkpt lat="45.44407351988714" lon="11.525564917040388"><ele>349.0</ele><time>2026-03-22T08:20:21.998Z</time></trkpt><trkpt lat="45.44413592262219" lon="11.525526446971115"><ele>345.0</ele><time>2026-03-22T08:20:24.998Z</time></trkpt><trkpt lat="45.444191026383116" lon="11.525461424235102"><ele>341.0</ele><time>2026-03-22T08:20:29.998Z</time></trkpt><trkpt lat="45.444284943688125" lon="11.525505203306574"><ele>337.0</ele><time>2026-03-22T08:22:38.998Z</time></trkpt><trkpt lat="45.444302635688175" lon="11.525620826865902"><ele>333.0</ele><time>2026-03-22T08:22:42.998Z</time></trkpt><trkpt lat="45.44425440319328" lon="11.52571949019167"><ele>329.0</ele><time>2026-03-22T08:22:45.998Z</time></trkpt><trkpt lat="45.444216419723965" lon="11.525815478320844"><ele>329.0</ele><time>2026-03-22T08:22:48.998Z</time></trkpt><trkpt lat="45.44415801777012" lon="11.525910159303505"><ele>329.0</ele><time>2026-03-22T08:22:51.998Z</time></trkpt><trkpt lat="45.4441002698057" lon="11.526015347434095"><ele>329.0</ele><time>2026-03-22T08:22:54.998Z</time></trkpt><trkpt lat="45.44402603225171" lon="11.526078817585105"><ele>329.0</ele><time>2026-03-22T08:22:57.998Z</time></trkpt><trkpt lat="45.44396570107928" lon="11.526113144121565"><ele>329.0</ele><time>2026-03-22T08:22:59.998Z</time></trkpt><trkpt lat="45.44389264750368" lon="11.52618279596546"><ele>329.0</ele><time>2026-03-22T08:23:02.997Z</time></trkpt><trkpt lat="45.443841135861696" lon="11.526250106649835"><ele>330.0</ele><time>2026-03-22T08:23:05.997Z</time></trkpt><trkpt lat="45.443805060931886" lon="11.526344271136049"><ele>331.0</ele><time>2026-03-22T08:23:08.997Z</time></trkpt><trkpt lat="45.443761766387105" lon="11.526413311603784"><ele>332.0</ele><time>2026-03-22T08:23:11.997Z</time></trkpt><trkpt lat="45.443699044703" lon="11.526478622518468"><ele>333.0</ele><time>2026-03-22T08:23:14.997Z</time></trkpt><trkpt lat="45.44361746348427" lon="11.52656007699276"><ele>334.0</ele><time>2026-03-22T08:23:17.997Z</time></trkpt><trkpt lat="45.44355232580974" lon="11.5266259081854"><ele>335.0</ele><time>2026-03-22T08:23:21Z</time></trkpt><trkpt lat="45.443478469395906" lon="11.526700699896375"><ele>337.1428571428571</ele><time>2026-03-22T08:23:25Z</time></trkpt><trkpt lat="45.44341340638784" lon="11.526754280174936"><ele>339.2857142857143</ele><time>2026-03-22T08:23:28Z</time></trkpt><trkpt lat="45.443354433463064" lon="11.526820092062085"><ele>341.42857142857144</ele><time>2026-03-22T08:23:31Z</time></trkpt><trkpt lat="45.443312626533974" lon="11.526895279457426"><ele>343.57142857142856</ele><time>2026-03-22T08:23:34Z</time></trkpt><trkpt lat="45.443244558713026" lon="11.526963087014037"><ele>345.7142857142857</ele><time>2026-03-22T08:23:37Z</time></trkpt><trkpt lat="45.443189414617436" lon="11.527031428000534"><ele>347.85714285714283</ele><time>2026-03-22T08:23:40Z</time></trkpt><trkpt lat="45.443126088340776" lon="11.527086307931212"><ele>350.0</ele><time>2026-03-22T08:23:43Z</time></trkpt><trkpt lat="45.443067596069525" lon="11.5271528505655"><ele>350.33333333333337</ele><time>2026-03-22T08:23:46Z</time></trkpt><trkpt lat="45.443009088274636" lon="11.527210927342388"><ele>350.6666666666667</ele><time>2026-03-22T08:23:49Z</time></trkpt><trkpt lat="45.44294649254657" lon="11.527256557449126"><ele>351.0</ele><time>2026-03-22T08:23:52Z</time></trkpt><trkpt lat="45.442883199982035" lon="11.52730612275587"><ele>351.3333333333333</ele><time>2026-03-22T08:23:54.999Z</time></trkpt><trkpt lat="45.44281447599715" lon="11.527356741129404"><ele>351.66666666666663</ele><time>2026-03-22T08:23:57.999Z</time></trkpt><trkpt lat="45.442755800280906" lon="11.52743046895852"><ele>352.0</ele><time>2026-03-22T08:24:00.999Z</time></trkpt><trkpt lat="45.442685451339166" lon="11.527497825971563"><ele>353.0</ele><time>2026-03-22T08:24:04.999Z</time></trkpt><trkpt lat="45.44263386991417" lon="11.527555552377438"><ele>354.0</ele><time>2026-03-22T08:24:07.999Z</time></trkpt><trkpt lat="45.442579088904026" lon="11.527615788677474"><ele>355.0</ele><time>2026-03-22T08:24:10.999Z</time></trkpt><trkpt lat="45.442508005597325" lon="11.52767915417276"><ele>356.0</ele><time>2026-03-22T08:24:14.999Z</time></trkpt><trkpt lat="45.44244298452029" lon="11.527743550476334"><ele>357.0</ele><time>2026-03-22T08:24:18.999Z</time></trkpt><trkpt lat="45.44238854281019" lon="11.52779751614957"><ele>358.0</ele><time>2026-03-22T08:24:21.999Z</time></trkpt><trkpt lat="45.44233720312158" lon="11.527900012873788"><ele>358.0</ele><time>2026-03-22T08:24:25.999Z</time></trkpt><trkpt lat="45.44229939937613" lon="11.527989148128658"><ele>358.0</ele><time>2026-03-22T08:24:29.999Z</time></trkpt><trkpt lat="45.442286698428724" lon="11.52807896567018"><ele>358.0</ele><time>2026-03-22T08:24:33.998Z</time></trkpt><trkpt lat="45.44225795922016" lon="11.528169266380063"><ele>358.0</ele><time>2026-03-22T08:24:37.998Z</time></trkpt><trkpt lat="45.44226853099838" lon="11.52828440707666"><ele>358.0</ele><time>2026-03-22T08:24:42.998Z</time></trkpt><trkpt lat="45.44230797507941" lon="11.528368214509651"><ele>358.0</ele><time>2026-03-22T08:24:48.998Z</time></trkpt><trkpt lat="45.44248590088527" lon="11.528541048992738"><ele>358.00000000000006</ele><time>2026-03-22T08:25:01.998Z</time></trkpt><trkpt lat="45.44255420499672" lon="11.528601550568263"><ele>358.0</ele><time>2026-03-22T08:25:04.998Z</time></trkpt><trkpt lat="45.44262779491078" lon="11.528636222769649"><ele>358.0</ele><time>2026-03-22T08:25:08.997Z</time></trkpt><trkpt lat="45.4426890220061" lon="11.528666313700533"><ele>358.0</ele><time>2026-03-22T08:25:11.997Z</time></trkpt><trkpt lat="45.4427548174928" lon="11.528688635487049"><ele>358.0</ele><time>2026-03-22T08:25:15.997Z</time></trkpt><trkpt lat="45.44282919071701" lon="11.528717949852322"><ele>358.00000000000006</ele><time>2026-03-22T08:25:19.997Z</time></trkpt><trkpt lat="45.44290010647731" lon="11.528733989678441"><ele>358.0</ele><time>2026-03-22T08:25:23.997Z</time></trkpt><trkpt lat="45.44297631849368" lon="11.528722178659098"><ele>359.28571428571433</ele><time>2026-03-22T08:25:28Z</time></trkpt><trkpt lat="45.443036725201296" lon="11.528693404229811"><ele>360.57142857142856</ele><time>2026-03-22T08:25:31Z</time></trkpt><trkpt lat="45.44310906018236" lon="11.528668085315193"><ele>361.8571428571429</ele><time>2026-03-22T08:25:35Z</time></trkpt><trkpt lat="45.44317354792921" lon="11.528621518276662"><ele>363.14285714285717</ele><time>2026-03-22T08:25:39Z</time></trkpt><trkpt lat="45.44323987486743" lon="11.528590715428136"><ele>364.42857142857144</ele><time>2026-03-22T08:25:43Z</time></trkpt><trkpt lat="45.44330403661617" lon="11.528540664085728"><ele>365.7142857142857</ele><time>2026-03-22T08:25:47Z</time></trkpt><trkpt lat="45.44337373618743" lon="11.528513193369946"><ele>367.0</ele><time>2026-03-22T08:25:51Z</time></trkpt><trkpt lat="45.44344033867175" lon="11.52849951610406"><ele>367.0</ele><time>2026-03-22T08:25:55Z</time></trkpt><trkpt lat="45.44350632262339" lon="11.52850077068959"><ele>367.0</ele><time>2026-03-22T08:25:58Z</time></trkpt><trkpt lat="45.44357545740649" lon="11.52850989609797"><ele>367.0</ele><time>2026-03-22T08:26:00.999Z</time></trkpt><trkpt lat="45.44363944180905" lon="11.528518104538021"><ele>367.0</ele><time>2026-03-22T08:26:03.999Z</time></trkpt><trkpt lat="45.4437100869656" lon="11.52854087021336"><ele>367.0</ele><time>2026-03-22T08:26:07.999Z</time></trkpt><trkpt lat="45.44377708379515" lon="11.528544556371664"><ele>367.0</ele><time>2026-03-22T08:26:11.999Z</time></trkpt><trkpt lat="45.443854505963195" lon="11.528568717736343"><ele>367.0</ele><time>2026-03-22T08:26:15.999Z</time></trkpt><trkpt lat="45.44390382798731" lon="11.528634983219714"><ele>366.85714285714283</ele><time>2026-03-22T08:26:18.999Z</time></trkpt><trkpt lat="45.443873027158766" lon="11.528738883998356"><ele>366.7142857142857</ele><time>2026-03-22T08:26:22.999Z</time></trkpt><trkpt lat="45.443815416470066" lon="11.528776972635372"><ele>366.57142857142856</ele><time>2026-03-22T08:26:25.999Z</time></trkpt><trkpt lat="45.44374689044271" lon="11.528823408325588"><ele>366.42857142857144</ele><time>2026-03-22T08:26:28.999Z</time></trkpt><trkpt lat="45.44367201642559" lon="11.528863139146356"><ele>366.28571428571433</ele><time>2026-03-22T08:26:31.999Z</time></trkpt><trkpt lat="45.44361455463645" lon="11.528906704149843"><ele>366.14285714285717</ele><time>2026-03-22T08:26:34.999Z</time></trkpt><trkpt lat="45.44354458467851" lon="11.528964582583212"><ele>366.0</ele><time>2026-03-22T08:26:37.999Z</time></trkpt><trkpt lat="45.44349186589035" lon="11.529015801173955"><ele>367.2857142857143</ele><time>2026-03-22T08:26:41.998Z</time></trkpt><trkpt lat="45.443421423599915" lon="11.529091519330354"><ele>368.57142857142856</ele><time>2026-03-22T08:26:45.998Z</time></trkpt><trkpt lat="45.443370562722315" lon="11.529160908777552"><ele>369.8571428571429</ele><time>2026-03-22T08:26:48.998Z</time></trkpt><trkpt lat="45.44333422210436" lon="11.529237413405882"><ele>371.1428571428571</ele><time>2026-03-22T08:26:51.998Z</time></trkpt><trkpt lat="45.44329263377272" lon="11.52931916822406"><ele>372.4285714285714</ele><time>2026-03-22T08:26:54.998Z</time></trkpt><trkpt lat="45.44325630406906" lon="11.52939885735712"><ele>373.7142857142857</ele><time>2026-03-22T08:26:57.998Z</time></trkpt><trkpt lat="45.443224868808045" lon="11.529489095864099"><ele>375.0</ele><time>2026-03-22T08:27:00.998Z</time></trkpt><trkpt lat="45.443219713617125" lon="11.52958070955824"><ele>375.5</ele><time>2026-03-22T08:27:03.998Z</time></trkpt><trkpt lat="45.44320663772225" lon="11.529688281133334"><ele>376.0</ele><time>2026-03-22T08:27:07.998Z</time></trkpt><trkpt lat="45.44321424385064" lon="11.529804396779122"><ele>376.5</ele><time>2026-03-22T08:27:11.998Z</time></trkpt><trkpt lat="45.44320160900282" lon="11.529900525385674"><ele>377.0</ele><time>2026-03-22T08:27:14.998Z</time></trkpt><trkpt lat="45.4431851899772" lon="11.530016242033241"><ele>377.5</ele><time>2026-03-22T08:27:18.997Z</time></trkpt><trkpt lat="45.443184423508264" lon="11.530125902282787"><ele>378.0</ele><time>2026-03-22T08:27:22.997Z</time></trkpt><trkpt lat="45.44318683974791" lon="11.530237680522088"><ele>378.0</ele><time>2026-03-22T08:27:26.997Z</time></trkpt><trkpt lat="45.44317321304976" lon="11.530343283187612"><ele>378.0</ele><time>2026-03-22T08:27:30.997Z</time></trkpt><trkpt lat="45.443147494635596" lon="11.530438483757438"><ele>378.0</ele><time>2026-03-22T08:27:35Z</time></trkpt><trkpt lat="45.44312664981248" lon="11.530531807486042"><ele>378.0</ele><time>2026-03-22T08:27:39Z</time></trkpt><trkpt lat="45.443082157835725" lon="11.530612087262345"><ele>378.0</ele><time>2026-03-22T08:27:43Z</time></trkpt><trkpt lat="45.44302825700936" lon="11.530684503557875"><ele>378.0</ele><time>2026-03-22T08:27:47Z</time></trkpt><trkpt lat="45.4429760184137" lon="11.530736644416796"><ele>378.0</ele><time>2026-03-22T08:27:51Z</time></trkpt><trkpt lat="45.44292221513223" lon="11.53082658915605"><ele>380.5</ele><time>2026-03-22T08:27:55Z</time></trkpt><trkpt lat="45.44286622540393" lon="11.530872648615544"><ele>383.0</ele><time>2026-03-22T08:27:58Z</time></trkpt><trkpt lat="45.44280736743949" lon="11.530913783736837"><ele>385.5</ele><time>2026-03-22T08:28:01Z</time></trkpt><trkpt lat="45.4427444554641" lon="11.530980935312991"><ele>388.0</ele><time>2026-03-22T08:28:04Z</time></trkpt><trkpt lat="45.4426692124795" lon="11.531062172447518"><ele>390.5</ele><time>2026-03-22T08:28:06.999Z</time></trkpt><trkpt lat="45.44260936000796" lon="11.531130951303444"><ele>393.0</ele><time>2026-03-22T08:28:08.999Z</time></trkpt><trkpt lat="45.442541562192766" lon="11.531208268207573"><ele>391.3333333333333</ele><time>2026-03-22T08:28:10.999Z</time></trkpt><trkpt lat="45.44248529061934" lon="11.531310879755289"><ele>389.6666666666667</ele><time>2026-03-22T08:28:12.999Z</time></trkpt><trkpt lat="45.44243501616225" lon="11.531426085010846"><ele>388.0</ele><time>2026-03-22T08:28:14.999Z</time></trkpt><trkpt lat="45.44239347689766" lon="11.531558847390272"><ele>386.33333333333337</ele><time>2026-03-22T08:28:16.999Z</time></trkpt><trkpt lat="45.44237225451429" lon="11.53166684266111"><ele>384.6666666666667</ele><time>2026-03-22T08:28:18.999Z</time></trkpt><trkpt lat="45.44234793150183" lon="11.531768537971342"><ele>383.0</ele><time>2026-03-22T08:28:20.999Z</time></trkpt><trkpt lat="45.44231703572089" lon="11.53189803162295"><ele>383.0</ele><time>2026-03-22T08:28:23.999Z</time></trkpt><trkpt lat="45.44229176921632" lon="11.531998731665938"><ele>383.0</ele><time>2026-03-22T08:28:25.999Z</time></trkpt><trkpt lat="45.44226436540973" lon="11.532144110687994"><ele>383.0</ele><time>2026-03-22T08:28:27.999Z</time></trkpt><trkpt lat="45.44225676203864" lon="11.532239047566181"><ele>383.0</ele><time>2026-03-22T08:28:28.999Z</time></trkpt><trkpt lat="45.44226914830347" lon="11.532348393555932"><ele>383.0</ele><time>2026-03-22T08:28:29.999Z</time></trkpt><trkpt lat="45.44223776331697" lon="11.532478304778015"><ele>383.0</ele><time>2026-03-22T08:28:30.999Z</time></trkpt><trkpt lat="45.44227606356359" lon="11.53259038105898"><ele>381.79999999999995</ele><time>2026-03-22T08:28:31.999Z</time></trkpt><trkpt lat="45.44230889511595" lon="11.532709153347154"><ele>380.6</ele><time>2026-03-22T08:28:32.999Z</time></trkpt><trkpt lat="45.44234957429873" lon="11.532822761123672"><ele>379.4</ele><time>2026-03-22T08:28:33.999Z</time></trkpt><trkpt lat="45.44239934887325" lon="11.53291720401874"><ele>378.20000000000005</ele><time>2026-03-22T08:28:34.999Z</time></trkpt><trkpt lat="45.44244014955228" lon="11.53300688342053"><ele>377.0</ele><time>2026-03-22T08:28:35.999Z</time></trkpt><trkpt lat="45.442516660339415" lon="11.533135436704326"><ele>376.40000000000003</ele><time>2026-03-22T08:28:37.999Z</time></trkpt><trkpt lat="45.442609435030626" lon="11.533206163171554"><ele>375.8</ele><time>2026-03-22T08:28:39.999Z</time></trkpt><trkpt lat="45.44268812190808" lon="11.533248116258562"><ele>375.2</ele><time>2026-03-22T08:28:41.998Z</time></trkpt><trkpt lat="45.442782097913266" lon="11.53330218222242"><ele>374.6</ele><time>2026-03-22T08:28:43.998Z</time></trkpt><trkpt lat="45.44289932363716" lon="11.533366009595277"><ele>374.0</ele><time>2026-03-22T08:28:45.998Z</time></trkpt><trkpt lat="45.44296658835423" lon="11.533404422657435"><ele>373.57142857142856</ele><time>2026-03-22T08:28:46.998Z</time></trkpt><trkpt lat="45.44303516102874" lon="11.533445712684797"><ele>373.14285714285717</ele><time>2026-03-22T08:28:47.998Z</time></trkpt><trkpt lat="45.44310736850298" lon="11.533487526994204"><ele>372.7142857142857</ele><time>2026-03-22T08:28:48.998Z</time></trkpt><trkpt lat="45.443181930475006" lon="11.53351040360928"><ele>372.2857142857143</ele><time>2026-03-22T08:28:49.998Z</time></trkpt><trkpt lat="45.44324933659092" lon="11.533539036434897"><ele>371.8571428571429</ele><time>2026-03-22T08:28:50.998Z</time></trkpt><trkpt lat="45.443308183642536" lon="11.533606121676193"><ele>371.42857142857144</ele><time>2026-03-22T08:28:51.998Z</time></trkpt><trkpt lat="45.443373608108054" lon="11.533628242942145"><ele>371.0</ele><time>2026-03-22T08:28:52.998Z</time></trkpt><trkpt lat="45.443431657715195" lon="11.533663182738202"><ele>371.0</ele><time>2026-03-22T08:28:53.998Z</time></trkpt><trkpt lat="45.44353432177396" lon="11.53372054113997"><ele>371.0</ele><time>2026-03-22T08:28:55.998Z</time></trkpt><trkpt lat="45.44362078027891" lon="11.533767246402054"><ele>371.0</ele><time>2026-03-22T08:28:57.998Z</time></trkpt><trkpt lat="45.44369176208456" lon="11.533811263622354"><ele>371.0</ele><time>2026-03-22T08:28:59.998Z</time></trkpt><trkpt lat="45.44377837557437" lon="11.533880209757653"><ele>371.0</ele><time>2026-03-22T08:29:02.998Z</time></trkpt><trkpt lat="45.44384233952977" lon="11.533949563363942"><ele>372.83333333333337</ele><time>2026-03-22T08:29:04.998Z</time></trkpt><trkpt lat="45.443883535133736" lon="11.534058053946083"><ele>374.6666666666667</ele><time>2026-03-22T08:29:06.998Z</time></trkpt><trkpt lat="45.44389250545656" lon="11.534165296259596"><ele>376.5</ele><time>2026-03-22T08:29:08.998Z</time></trkpt><trkpt lat="45.4439108141153" lon="11.534273137651148"><ele>378.3333333333333</ele><time>2026-03-22T08:29:11.998Z</time></trkpt><trkpt lat="45.44392607146146" lon="11.53437712795924"><ele>380.16666666666663</ele><time>2026-03-22T08:29:15.998Z</time></trkpt><trkpt lat="45.44393633758976" lon="11.534468144506612"><ele>382.0</ele><time>2026-03-22T08:29:18.997Z</time></trkpt><trkpt lat="45.44394282604781" lon="11.534574349260826"><ele>382.0</ele><time>2026-03-22T08:29:21.997Z</time></trkpt><trkpt lat="45.44395371806537" lon="11.534677294499394"><ele>382.0</ele><time>2026-03-22T08:29:24.997Z</time></trkpt><trkpt lat="45.44397840674978" lon="11.534775300385007"><ele>382.0</ele><time>2026-03-22T08:29:27.997Z</time></trkpt><trkpt lat="45.443996859566276" lon="11.534887839836681"><ele>382.0</ele><time>2026-03-22T08:29:30.997Z</time></trkpt><trkpt lat="45.44401438649657" lon="11.53497543182759"><ele>382.0</ele><time>2026-03-22T08:29:32.997Z</time></trkpt><trkpt lat="45.4440334249503" lon="11.535101146355142"><ele>382.0</ele><time>2026-03-22T08:29:35.997Z</time></trkpt><trkpt lat="45.444055440300964" lon="11.535212308595016"><ele>382.0</ele><time>2026-03-22T08:29:39Z</time></trkpt><trkpt lat="45.44407269862687" lon="11.535300071327327"><ele>382.0</ele><time>2026-03-22T08:29:42Z</time></trkpt><trkpt lat="45.44409921266082" lon="11.535398383015682"><ele>382.0</ele><time>2026-03-22T08:29:46Z</time></trkpt><trkpt lat="45.444129042427484" lon="11.53548735589391"><ele>382.0</ele><time>2026-03-22T08:29:50Z</time></trkpt><trkpt lat="45.44418324571966" lon="11.535569859724918"><ele>382.0</ele><time>2026-03-22T08:29:53Z</time></trkpt><trkpt lat="45.44424502134807" lon="11.535651602299465"><ele>382.0</ele><time>2026-03-22T08:29:56Z</time></trkpt><trkpt lat="45.44432171332648" lon="11.535712978076909"><ele>380.3333333333333</ele><time>2026-03-22T08:29:59Z</time></trkpt><trkpt lat="45.44438002771539" lon="11.53575707425697"><ele>378.66666666666663</ele><time>2026-03-22T08:30:02Z</time></trkpt><trkpt lat="45.44445423304142" lon="11.535808065862595"><ele>377.0</ele><time>2026-03-22T08:30:05Z</time></trkpt><trkpt lat="45.44452516277957" lon="11.535848379749265"><ele>375.3333333333333</ele><time>2026-03-22T08:30:09Z</time></trkpt><trkpt lat="45.44459228218456" lon="11.535903371924329"><ele>373.6666666666667</ele><time>2026-03-22T08:30:12.999Z</time></trkpt><trkpt lat="45.444619835394974" lon="11.536040363826798"><ele>372.0</ele><time>2026-03-22T08:30:15.999Z</time></trkpt><trkpt lat="45.444599939554394" lon="11.536135746844112"><ele>370.40000000000003</ele><time>2026-03-22T08:30:17.999Z</time></trkpt><trkpt lat="45.44457757305398" lon="11.536256923398797"><ele>368.8</ele><time>2026-03-22T08:30:19.999Z</time></trkpt><trkpt lat="45.4445385931599" lon="11.536403011514208"><ele>367.2</ele><time>2026-03-22T08:30:21.999Z</time></trkpt><trkpt lat="45.4444543752525" lon="11.536528489698279"><ele>365.6</ele><time>2026-03-22T08:30:23.999Z</time></trkpt><trkpt lat="45.44440818365756" lon="11.536681299298055"><ele>364.0</ele><time>2026-03-22T08:30:25.999Z</time></trkpt><trkpt lat="45.44435984597017" lon="11.536822649220476"><ele>364.0</ele><time>2026-03-22T08:30:27.999Z</time></trkpt><trkpt lat="45.44431284472116" lon="11.536960091152016"><ele>364.0</ele><time>2026-03-22T08:30:29.999Z</time></trkpt><trkpt lat="45.44427501872367" lon="11.537070702638138"><ele>364.0</ele><time>2026-03-22T08:30:31.999Z</time></trkpt><trkpt lat="45.44424162113283" lon="11.537170047745702"><ele>364.0</ele><time>2026-03-22T08:30:33.999Z</time></trkpt><trkpt lat="45.444193922816964" lon="11.537273072922538"><ele>364.0</ele><time>2026-03-22T08:30:35.999Z</time></trkpt><trkpt lat="45.44410304673668" lon="11.537401946886014"><ele>363.6</ele><time>2026-03-22T08:30:37.999Z</time></trkpt><trkpt lat="45.444046903420464" lon="11.537482037067742"><ele>363.2</ele><time>2026-03-22T08:30:38.999Z</time></trkpt><trkpt lat="45.44398755543656" lon="11.537564482633957"><ele>362.8</ele><time>2026-03-22T08:30:39.999Z</time></trkpt><trkpt lat="45.44391994608999" lon="11.537656917824828"><ele>362.40000000000003</ele><time>2026-03-22T08:30:40.999Z</time></trkpt><trkpt lat="45.443845241769786" lon="11.537760049308261"><ele>362.0</ele><time>2026-03-22T08:30:41.999Z</time></trkpt><trkpt lat="45.4437672006966" lon="11.537873736274548"><ele>361.20000000000005</ele><time>2026-03-22T08:30:42.999Z</time></trkpt><trkpt lat="45.44370027748583" lon="11.537986336083335"><ele>360.4</ele><time>2026-03-22T08:30:43.999Z</time></trkpt><trkpt lat="45.44364049481941" lon="11.53810407458428"><ele>359.6</ele><time>2026-03-22T08:30:44.999Z</time></trkpt><trkpt lat="45.44358539537015" lon="11.538214783000633"><ele>358.79999999999995</ele><time>2026-03-22T08:30:45.999Z</time></trkpt><trkpt lat="45.443537542580785" lon="11.53831007217884"><ele>358.0</ele><time>2026-03-22T08:30:46.999Z</time></trkpt><trkpt lat="45.443491121197006" lon="11.538396275885397"><ele>358.0</ele><time>2026-03-22T08:30:47.998Z</time></trkpt><trkpt lat="45.44345760191405" lon="11.538489816320663"><ele>358.0</ele><time>2026-03-22T08:30:48.998Z</time></trkpt><trkpt lat="45.44339155864467" lon="11.538558616911523"><ele>358.0</ele><time>2026-03-22T08:30:50.998Z</time></trkpt><trkpt lat="45.44359737054689" lon="11.538845276163327"><ele>358.0</ele><time>2026-03-22T08:30:56.998Z</time></trkpt><trkpt lat="45.44369456644023" lon="11.538939677285596"><ele>357.59999999999997</ele><time>2026-03-22T08:30:58.998Z</time></trkpt><trkpt lat="45.44380690008311" lon="11.53902069860603"><ele>357.2</ele><time>2026-03-22T08:31:00.998Z</time></trkpt><trkpt lat="45.443911249628705" lon="11.539105054556353"><ele>356.8</ele><time>2026-03-22T08:31:02.998Z</time></trkpt><trkpt lat="45.44398970524556" lon="11.539168936214093"><ele>356.4</ele><time>2026-03-22T08:31:04.998Z</time></trkpt><trkpt lat="45.44405033879361" lon="11.539233146693846"><ele>356.0</ele><time>2026-03-22T08:31:06.998Z</time></trkpt><trkpt lat="45.44408332954033" lon="11.539321798411525"><ele>355.99999999999994</ele><time>2026-03-22T08:31:08.998Z</time></trkpt><trkpt lat="45.44412088360786" lon="11.539421729593975"><ele>356.0</ele><time>2026-03-22T08:31:11.998Z</time></trkpt><trkpt lat="45.44416666994238" lon="11.539501121318779"><ele>356.0</ele><time>2026-03-22T08:31:15.998Z</time></trkpt><trkpt lat="45.444217061076884" lon="11.53956260584903"><ele>356.0</ele><time>2026-03-22T08:31:18.998Z</time></trkpt><trkpt lat="45.44428799380879" lon="11.539564916420751"><ele>356.0</ele><time>2026-03-22T08:31:21.998Z</time></trkpt><trkpt lat="45.44435828870697" lon="11.539571127412353"><ele>355.99999999999994</ele><time>2026-03-22T08:31:24.998Z</time></trkpt><trkpt lat="45.44442275248803" lon="11.539595641063725"><ele>356.0</ele><time>2026-03-22T08:31:27.997Z</time></trkpt><trkpt lat="45.444487156255406" lon="11.53958395679023"><ele>357.33333333333337</ele><time>2026-03-22T08:31:30.997Z</time></trkpt><trkpt lat="45.444566990970806" lon="11.539560570899376"><ele>358.6666666666667</ele><time>2026-03-22T08:31:34.997Z</time></trkpt><trkpt lat="45.44463646936401" lon="11.539553892328769"><ele>360.0</ele><time>2026-03-22T08:31:37.997Z</time></trkpt><trkpt lat="45.44471450901595" lon="11.539533248013706"><ele>361.3333333333333</ele><time>2026-03-22T08:31:41.997Z</time></trkpt><trkpt lat="45.444790497639715" lon="11.5395184118158"><ele>362.66666666666663</ele><time>2026-03-22T08:31:46Z</time></trkpt><trkpt lat="45.44487004496208" lon="11.539512428003212"><ele>364.0</ele><time>2026-03-22T08:31:50Z</time></trkpt><trkpt lat="45.44497162715055" lon="11.539530580488695"><ele>364.0</ele><time>2026-03-22T08:31:55Z</time></trkpt><trkpt lat="45.44506913038103" lon="11.539533923027273"><ele>364.0</ele><time>2026-03-22T08:32:00Z</time></trkpt><trkpt lat="45.445146426498795" lon="11.539516908851857"><ele>364.0</ele><time>2026-03-22T08:32:04Z</time></trkpt><trkpt lat="45.44521023262213" lon="11.539513116815778"><ele>364.0</ele><time>2026-03-22T08:32:07Z</time></trkpt><trkpt lat="45.445279759004016" lon="11.53950847508199"><ele>364.0</ele><time>2026-03-22T08:32:10Z</time></trkpt><trkpt lat="45.44536891543255" lon="11.539486256597533"><ele>364.0</ele><time>2026-03-22T08:32:15Z</time></trkpt><trkpt lat="45.445497723845094" lon="11.539466299590963"><ele>366.6</ele><time>2026-03-22T08:32:21.999Z</time></trkpt><trkpt lat="45.445563604091745" lon="11.539456661419111"><ele>369.2</ele><time>2026-03-22T08:32:25.999Z</time></trkpt><trkpt lat="45.445723696217264" lon="11.539442658536638"><ele>371.8</ele><time>2026-03-22T08:32:33.999Z</time></trkpt><trkpt lat="45.44578035846687" lon="11.539392197467667"><ele>374.40000000000003</ele><time>2026-03-22T08:32:35.999Z</time></trkpt><trkpt lat="45.44585503472036" lon="11.539354612115126"><ele>377.0</ele><time>2026-03-22T08:32:37.999Z</time></trkpt><trkpt lat="45.44593078042081" lon="11.539334728735163"><ele>377.0</ele><time>2026-03-22T08:32:39.999Z</time></trkpt><trkpt lat="45.44600517638493" lon="11.539347208838917"><ele>377.0</ele><time>2026-03-22T08:32:41.999Z</time></trkpt><trkpt lat="45.44606804751621" lon="11.539354331877133"><ele>377.0</ele><time>2026-03-22T08:32:43.999Z</time></trkpt><trkpt lat="45.44614414094237" lon="11.539369799055386"><ele>377.0</ele><time>2026-03-22T08:32:45.999Z</time></trkpt><trkpt lat="45.44622438371212" lon="11.539374139536324"><ele>377.0</ele><time>2026-03-22T08:32:47.999Z</time></trkpt><trkpt lat="45.44628946092103" lon="11.53940917720594"><ele>377.0</ele><time>2026-03-22T08:32:49.999Z</time></trkpt><trkpt lat="45.44641536345364" lon="11.53943541622979"><ele>376.8</ele><time>2026-03-22T08:33:03.998Z</time></trkpt><trkpt lat="45.446607390078995" lon="11.53943636336786"><ele>376.6</ele><time>2026-03-22T08:33:11.998Z</time></trkpt><trkpt lat="45.44663995370383" lon="11.539517857996431"><ele>376.40000000000003</ele><time>2026-03-22T08:33:15.998Z</time></trkpt><trkpt lat="45.446555817599126" lon="11.539570505347791"><ele>376.20000000000005</ele><time>2026-03-22T08:33:18.998Z</time></trkpt><trkpt lat="45.44648789161004" lon="11.539588814945146"><ele>376.0</ele><time>2026-03-22T08:33:20.998Z</time></trkpt><trkpt lat="45.446416890712904" lon="11.539596009680684"><ele>376.0</ele><time>2026-03-22T08:33:22.998Z</time></trkpt><trkpt lat="45.44632458942709" lon="11.539620070896389"><ele>376.0</ele><time>2026-03-22T08:33:25.998Z</time></trkpt><trkpt lat="45.44626622746425" lon="11.53967259080546"><ele>376.0</ele><time>2026-03-22T08:33:27.998Z</time></trkpt><trkpt lat="45.44621554061016" lon="11.539729038831307"><ele>376.0</ele><time>2026-03-22T08:33:29.998Z</time></trkpt><trkpt lat="45.44616807035812" lon="11.539795962001904"><ele>376.0</ele><time>2026-03-22T08:33:32.997Z</time></trkpt><trkpt lat="45.44610697712245" lon="11.539872968505435"><ele>376.0</ele><time>2026-03-22T08:33:38.997Z</time></trkpt><trkpt lat="45.446055483086425" lon="11.539960777927593"><ele>377.5</ele><time>2026-03-22T08:33:42.997Z</time></trkpt><trkpt lat="45.44600718325706" lon="11.540019183883105"><ele>379.0</ele><time>2026-03-22T08:33:45.997Z</time></trkpt><trkpt lat="45.44594501183803" lon="11.540106327671625"><ele>380.5</ele><time>2026-03-22T08:33:49.997Z</time></trkpt><trkpt lat="45.445886255312" lon="11.540172543160129"><ele>382.0</ele><time>2026-03-22T08:33:53Z</time></trkpt><trkpt lat="45.445851125680605" lon="11.540253440448616"><ele>383.50000000000006</ele><time>2026-03-22T08:33:56Z</time></trkpt><trkpt lat="45.445801284939364" lon="11.540346542021128"><ele>385.0</ele><time>2026-03-22T08:33:59Z</time></trkpt><trkpt lat="45.4457575566834" lon="11.540441736412232"><ele>385.14285714285717</ele><time>2026-03-22T08:34:03Z</time></trkpt><trkpt lat="45.44570865956156" lon="11.540516225749617"><ele>385.2857142857143</ele><time>2026-03-22T08:34:06Z</time></trkpt><trkpt lat="45.445680923601515" lon="11.54060528385595"><ele>385.42857142857144</ele><time>2026-03-22T08:34:09Z</time></trkpt><trkpt lat="45.44563061507611" lon="11.540684493746689"><ele>385.57142857142856</ele><time>2026-03-22T08:34:12Z</time></trkpt><trkpt lat="45.445604906334" lon="11.540788172221841"><ele>385.7142857142857</ele><time>2026-03-22T08:34:15Z</time></trkpt><trkpt lat="45.44557799125333" lon="11.540903150350083"><ele>385.8571428571429</ele><time>2026-03-22T08:34:18Z</time></trkpt><trkpt lat="45.445571065385735" lon="11.541000925810957"><ele>386.0</ele><time>2026-03-22T08:34:21Z</time></trkpt><trkpt lat="45.44556559006429" lon="11.541120277014672"><ele>385.28571428571433</ele><time>2026-03-22T08:34:24.999Z</time></trkpt><trkpt lat="45.44557760051433" lon="11.541216652289618"><ele>384.57142857142856</ele><time>2026-03-22T08:34:28.999Z</time></trkpt><trkpt lat="45.44558987893822" lon="11.541315090252962"><ele>383.8571428571429</ele><time>2026-03-22T08:34:33.999Z</time></trkpt><trkpt lat="45.44559392715244" lon="11.54142375865305"><ele>383.14285714285717</ele><time>2026-03-22T08:34:37.999Z</time></trkpt><trkpt lat="45.445586349046934" lon="11.541521756603197"><ele>382.42857142857144</ele><time>2026-03-22T08:34:41.999Z</time></trkpt><trkpt lat="45.445579238682996" lon="11.541636156412252"><ele>381.7142857142857</ele><time>2026-03-22T08:34:45.999Z</time></trkpt><trkpt lat="45.445563112288" lon="11.541729378128355"><ele>381.0</ele><time>2026-03-22T08:34:48.999Z</time></trkpt><trkpt lat="45.44553036065641" lon="11.54182089765508"><ele>381.0</ele><time>2026-03-22T08:34:51.999Z</time></trkpt><trkpt lat="45.44551114443917" lon="11.541913300886016"><ele>381.0</ele><time>2026-03-22T08:34:54.999Z</time></trkpt><trkpt lat="45.445471687510064" lon="11.54201261181281"><ele>381.0</ele><time>2026-03-22T08:34:58.999Z</time></trkpt><trkpt lat="45.44544107485094" lon="11.542105334565697"><ele>381.0</ele><time>2026-03-22T08:35:02.998Z</time></trkpt><trkpt lat="45.44539364628559" lon="11.542184686306173"><ele>381.0</ele><time>2026-03-22T08:35:05.998Z</time></trkpt><trkpt lat="45.44536559692306" lon="11.542285535922389"><ele>381.0</ele><time>2026-03-22T08:35:08.998Z</time></trkpt><trkpt lat="45.445322076590735" lon="11.542396135655556"><ele>384.3333333333333</ele><time>2026-03-22T08:35:11.998Z</time></trkpt><trkpt lat="45.44528527889431" lon="11.542484633996827"><ele>387.66666666666663</ele><time>2026-03-22T08:35:13.998Z</time></trkpt><trkpt lat="45.44525425387098" lon="11.542609053349203"><ele>391.0</ele><time>2026-03-22T08:35:16.998Z</time></trkpt><trkpt lat="45.44523558996591" lon="11.542701966092027"><ele>394.3333333333333</ele><time>2026-03-22T08:35:18.998Z</time></trkpt><trkpt lat="45.445232434981634" lon="11.542823456548287"><ele>397.66666666666663</ele><time>2026-03-22T08:35:20.998Z</time></trkpt><trkpt lat="45.4452348050285" lon="11.542923931682429"><ele>401.0</ele><time>2026-03-22T08:35:22.998Z</time></trkpt><trkpt lat="45.44528380320452" lon="11.542989781798736"><ele>400.99999999999994</ele><time>2026-03-22T08:35:24.998Z</time></trkpt><trkpt lat="45.44533068089676" lon="11.543080579350244"><ele>401.0</ele><time>2026-03-22T08:35:28.998Z</time></trkpt><trkpt lat="45.44538381711491" lon="11.543141387079558"><ele>401.0</ele><time>2026-03-22T08:35:31.998Z</time></trkpt><trkpt lat="45.44544155660085" lon="11.543245287790183"><ele>401.0</ele><time>2026-03-22T08:35:34.998Z</time></trkpt><trkpt lat="45.44546335696861" lon="11.543336519081397"><ele>400.99999999999994</ele><time>2026-03-22T08:35:36.998Z</time></trkpt><trkpt lat="45.44548150940799" lon="11.543434087964707"><ele>401.0</ele><time>2026-03-22T08:35:39.997Z</time></trkpt><trkpt lat="45.44545476942276" lon="11.543547958695724"><ele>400.99999999999994</ele><time>2026-03-22T08:35:42.997Z</time></trkpt><trkpt lat="45.445408351898124" lon="11.54361182778394"><ele>401.0</ele><time>2026-03-22T08:35:44.997Z</time></trkpt><trkpt lat="45.44532303938489" lon="11.543662928993665"><ele>401.0</ele><time>2026-03-22T08:35:46.997Z</time></trkpt><trkpt lat="45.44524314254663" lon="11.543737295878236"><ele>401.0</ele><time>2026-03-22T08:35:48.997Z</time></trkpt><trkpt lat="45.445177463271655" lon="11.543861153583268"><ele>400.99999999999994</ele><time>2026-03-22T08:35:50.997Z</time></trkpt><trkpt lat="45.44514181245048" lon="11.543972830522321"><ele>401.0</ele><time>2026-03-22T08:35:52.997Z</time></trkpt><trkpt lat="45.44514130828269" lon="11.54407563417902"><ele>399.8</ele><time>2026-03-22T08:35:54.997Z</time></trkpt><trkpt lat="45.4451269896971" lon="11.544204572937993"><ele>398.6</ele><time>2026-03-22T08:35:59Z</time></trkpt><trkpt lat="45.44508643516692" lon="11.544305711893138"><ele>397.4</ele><time>2026-03-22T08:36:02Z</time></trkpt><trkpt lat="45.445040901003985" lon="11.544401794250513"><ele>396.2</ele><time>2026-03-22T08:36:04Z</time></trkpt><trkpt lat="45.44497787594666" lon="11.544528519014257"><ele>395.0</ele><time>2026-03-22T08:36:06Z</time></trkpt><trkpt lat="45.444939975216144" lon="11.544654781387026"><ele>394.8333333333333</ele><time>2026-03-22T08:36:08Z</time></trkpt><trkpt lat="45.44487396821294" lon="11.544787776103062"><ele>394.66666666666663</ele><time>2026-03-22T08:36:10Z</time></trkpt><trkpt lat="45.444822764589205" lon="11.5448688848247"><ele>394.5</ele><time>2026-03-22T08:36:12Z</time></trkpt><trkpt lat="45.4447706509604" lon="11.544967570612876"><ele>394.33333333333337</ele><time>2026-03-22T08:36:14Z</time></trkpt><trkpt lat="45.444720960643416" lon="11.54505703716392"><ele>394.1666666666667</ele><time>2026-03-22T08:36:16Z</time></trkpt><trkpt lat="45.444667549902206" lon="11.545146841730958"><ele>394.0</ele><time>2026-03-22T08:36:18Z</time></trkpt><trkpt lat="45.444623771154696" lon="11.54525237088708"><ele>394.00000000000006</ele><time>2026-03-22T08:36:20Z</time></trkpt><trkpt lat="45.4445836060322" lon="11.545326973183267"><ele>394.0</ele><time>2026-03-22T08:36:22Z</time></trkpt><trkpt lat="45.444527121770534" lon="11.54541725250766"><ele>394.0</ele><time>2026-03-22T08:36:25Z</time></trkpt><trkpt lat="45.444466200853135" lon="11.545504218696168"><ele>394.0</ele><time>2026-03-22T08:36:27.999Z</time></trkpt><trkpt lat="45.444439144373405" lon="11.545591601913777"><ele>394.00000000000006</ele><time>2026-03-22T08:36:31.999Z</time></trkpt><trkpt lat="45.44440330589025" lon="11.545683032715226"><ele>394.0</ele><time>2026-03-22T08:36:36.999Z</time></trkpt><trkpt lat="45.444344863428334" lon="11.545753136103443"><ele>394.00000000000006</ele><time>2026-03-22T08:39:04.999Z</time></trkpt><trkpt lat="45.444388876857886" lon="11.545867883855909"><ele>394.0</ele><time>2026-03-22T08:39:07.999Z</time></trkpt><trkpt lat="45.44442731676052" lon="11.545977584481507"><ele>394.0</ele><time>2026-03-22T08:39:10.999Z</time></trkpt><trkpt lat="45.44445054626138" lon="11.546084972253944"><ele>394.0</ele><time>2026-03-22T08:39:13.998Z</time></trkpt><trkpt lat="45.44448020104229" lon="11.54619771748483"><ele>394.00000000000006</ele><time>2026-03-22T08:39:16.998Z</time></trkpt><trkpt lat="45.444493862886546" lon="11.546306621050087"><ele>394.0</ele><time>2026-03-22T08:39:19.998Z</time></trkpt><trkpt lat="45.4444932969348" lon="11.54642243276396"><ele>394.00000000000006</ele><time>2026-03-22T08:39:22.998Z</time></trkpt><trkpt lat="45.44449475520937" lon="11.54653366592055"><ele>394.0</ele><time>2026-03-22T08:39:25.998Z</time></trkpt><trkpt lat="45.44449028811526" lon="11.54663536681874"><ele>394.0</ele><time>2026-03-22T08:39:28.998Z</time></trkpt><trkpt lat="45.44448827458485" lon="11.546738393878323"><ele>394.0</ele><time>2026-03-22T08:39:32.998Z</time></trkpt><trkpt lat="45.4445076958717" lon="11.54684794977021"><ele>394.00000000000006</ele><time>2026-03-22T08:39:36.998Z</time></trkpt><trkpt lat="45.444522075799526" lon="11.54693943124379"><ele>394.0</ele><time>2026-03-22T08:39:41.998Z</time></trkpt><trkpt lat="45.44459018537791" lon="11.547045518498301"><ele>393.8571428571429</ele><time>2026-03-22T08:39:44.998Z</time></trkpt><trkpt lat="45.44462373228594" lon="11.54713260033129"><ele>393.7142857142857</ele><time>2026-03-22T08:39:46.998Z</time></trkpt><trkpt lat="45.44463842605935" lon="11.547234018897173"><ele>393.57142857142856</ele><time>2026-03-22T08:39:49.998Z</time></trkpt><trkpt lat="45.444646743428216" lon="11.547339885822813"><ele>393.42857142857144</ele><time>2026-03-22T08:39:52.997Z</time></trkpt><trkpt lat="45.444668628852014" lon="11.547437448360537"><ele>393.2857142857143</ele><time>2026-03-22T08:39:55.997Z</time></trkpt><trkpt lat="45.44470127330779" lon="11.547544025326289"><ele>393.14285714285717</ele><time>2026-03-22T08:39:59.997Z</time></trkpt><trkpt lat="45.4447462065769" lon="11.547615395837134"><ele>393.0</ele><time>2026-03-22T08:40:02.997Z</time></trkpt><trkpt lat="45.44481968555538" lon="11.547677503727849"><ele>391.6666666666667</ele><time>2026-03-22T08:40:05.997Z</time></trkpt><trkpt lat="45.4448927778858" lon="11.547716246418908"><ele>390.33333333333337</ele><time>2026-03-22T08:40:07.997Z</time></trkpt><trkpt lat="45.4449688871496" lon="11.547668379971615"><ele>389.0</ele><time>2026-03-22T08:40:10Z</time></trkpt><trkpt lat="45.445037730282905" lon="11.54762138627581"><ele>387.6666666666667</ele><time>2026-03-22T08:40:12Z</time></trkpt><trkpt lat="45.445117035741184" lon="11.547551058915422"><ele>386.33333333333337</ele><time>2026-03-22T08:40:15Z</time></trkpt><trkpt lat="45.445191699552105" lon="11.547500233608465"><ele>385.0</ele><time>2026-03-22T08:40:17Z</time></trkpt><trkpt lat="45.44525568585937" lon="11.547438376215048"><ele>385.0</ele><time>2026-03-22T08:40:19Z</time></trkpt><trkpt lat="45.44533708228043" lon="11.547424884453733"><ele>385.0</ele><time>2026-03-22T08:40:21Z</time></trkpt><trkpt lat="45.44542609926354" lon="11.547466525182726"><ele>385.0</ele><time>2026-03-22T08:40:24Z</time></trkpt><trkpt lat="45.44556980727226" lon="11.54745209218224"><ele>385.0</ele><time>2026-03-22T08:40:32Z</time></trkpt><trkpt lat="45.44566592718212" lon="11.547450273943767"><ele>385.0</ele><time>2026-03-22T08:40:34Z</time></trkpt><trkpt lat="45.44582027780562" lon="11.547472647424431"><ele>383.4</ele><time>2026-03-22T08:40:39Z</time></trkpt><trkpt lat="45.44601201719062" lon="11.547493695318007"><ele>381.8</ele><time>2026-03-22T08:40:44.999Z</time></trkpt><trkpt lat="45.446080450766765" lon="11.547514943630828"><ele>380.20000000000005</ele><time>2026-03-22T08:40:46.999Z</time></trkpt><trkpt lat="45.44617683316227" lon="11.547556748466357"><ele>378.6</ele><time>2026-03-22T08:40:49.999Z</time></trkpt><trkpt lat="45.44625441557074" lon="11.54755339217022"><ele>377.0</ele><time>2026-03-22T08:40:53.999Z</time></trkpt><trkpt lat="45.44633016991302" lon="11.547582953357507"><ele>375.40000000000003</ele><time>2026-03-22T08:40:56.999Z</time></trkpt><trkpt lat="45.44640266099656" lon="11.547603754731476"><ele>373.8</ele><time>2026-03-22T08:40:58.999Z</time></trkpt><trkpt lat="45.446470574693514" lon="11.54762010419853"><ele>372.2</ele><time>2026-03-22T08:41:00.999Z</time></trkpt><trkpt lat="45.44656559490219" lon="11.547636375629061"><ele>370.6</ele><time>2026-03-22T08:41:02.999Z</time></trkpt><trkpt lat="45.4467022179317" lon="11.54770079176143"><ele>369.0</ele><time>2026-03-22T08:41:06.999Z</time></trkpt><trkpt lat="45.44678305732268" lon="11.54783247982481"><ele>367.1666666666667</ele><time>2026-03-22T08:41:08.999Z</time></trkpt><trkpt lat="45.44681391532896" lon="11.547915171516909"><ele>365.3333333333333</ele><time>2026-03-22T08:41:09.999Z</time></trkpt><trkpt lat="45.44686082624859" lon="11.547986354162852"><ele>363.5</ele><time>2026-03-22T08:41:10.999Z</time></trkpt><trkpt lat="45.44692190136519" lon="11.548108083196622"><ele>361.66666666666663</ele><time>2026-03-22T08:41:12.999Z</time></trkpt><trkpt lat="45.446959127165364" lon="11.54821326885149"><ele>359.8333333333333</ele><time>2026-03-22T08:41:14.999Z</time></trkpt><trkpt lat="45.44697911982531" lon="11.548312919849645"><ele>358.0</ele><time>2026-03-22T08:41:16.999Z</time></trkpt><trkpt lat="45.44701154998445" lon="11.548393581144323"><ele>358.0</ele><time>2026-03-22T08:41:18.998Z</time></trkpt><trkpt lat="45.447061824054" lon="11.548500098193708"><ele>358.0</ele><time>2026-03-22T08:41:21.998Z</time></trkpt><trkpt lat="45.44709293851831" lon="11.548587894280715"><ele>358.0</ele><time>2026-03-22T08:41:23.998Z</time></trkpt><trkpt lat="45.44711518881226" lon="11.54867941107722"><ele>358.0</ele><time>2026-03-22T08:41:26.998Z</time></trkpt><trkpt lat="45.44708056051907" lon="11.548784912039372"><ele>358.0</ele><time>2026-03-22T08:41:28.998Z</time></trkpt><trkpt lat="45.44703819468447" lon="11.548881553281076"><ele>358.0</ele><time>2026-03-22T08:41:30.998Z</time></trkpt><trkpt lat="45.44702804725134" lon="11.5490104775547"><ele>357.66666666666663</ele><time>2026-03-22T08:41:32.998Z</time></trkpt><trkpt lat="45.44700674842384" lon="11.549145466710167"><ele>357.3333333333333</ele><time>2026-03-22T08:41:34.998Z</time></trkpt><trkpt lat="45.44699150211574" lon="11.549258139201267"><ele>357.0</ele><time>2026-03-22T08:41:36.998Z</time></trkpt><trkpt lat="45.44698306907241" lon="11.549377019117554"><ele>356.6666666666667</ele><time>2026-03-22T08:41:38.998Z</time></trkpt><trkpt lat="45.44693490877987" lon="11.54949102375276"><ele>356.33333333333337</ele><time>2026-03-22T08:41:40.998Z</time></trkpt><trkpt lat="45.446898469984255" lon="11.549613169607564"><ele>356.0</ele><time>2026-03-22T08:41:43.998Z</time></trkpt><trkpt lat="45.44689050578831" lon="11.549704698887457"><ele>356.0</ele><time>2026-03-22T08:41:45.998Z</time></trkpt><trkpt lat="45.446888248991336" lon="11.549849689591197"><ele>356.0</ele><time>2026-03-22T08:41:47.998Z</time></trkpt><trkpt lat="45.446870968365644" lon="11.550006979887165"><ele>356.0</ele><time>2026-03-22T08:41:49.998Z</time></trkpt><trkpt lat="45.446852178536574" lon="11.550151193124494"><ele>356.0</ele><time>2026-03-22T08:41:51.998Z</time></trkpt><trkpt lat="45.44683172595987" lon="11.550259107547857"><ele>356.0</ele><time>2026-03-22T08:41:54.998Z</time></trkpt><trkpt lat="45.446825047454375" lon="11.550362010038503"><ele>356.1666666666667</ele><time>2026-03-22T08:41:57.997Z</time></trkpt><trkpt lat="45.44680093764414" lon="11.550471296912958"><ele>356.33333333333337</ele><time>2026-03-22T08:41:59.997Z</time></trkpt><trkpt lat="45.44676425037566" lon="11.550573257197048"><ele>356.5</ele><time>2026-03-22T08:42:01.997Z</time></trkpt><trkpt lat="45.44673225294049" lon="11.55067149470312"><ele>356.6666666666667</ele><time>2026-03-22T08:42:03.997Z</time></trkpt><trkpt lat="45.44671336306188" lon="11.550775564566758"><ele>356.8333333333333</ele><time>2026-03-22T08:42:05.997Z</time></trkpt><trkpt lat="45.4466702499168" lon="11.550864778910853"><ele>357.0</ele><time>2026-03-22T08:42:07.997Z</time></trkpt><trkpt lat="45.44663778023906" lon="11.550959916568475"><ele>357.0</ele><time>2026-03-22T08:42:09.997Z</time></trkpt><trkpt lat="45.446597946080466" lon="11.551045562647738"><ele>357.0</ele><time>2026-03-22T08:42:11.997Z</time></trkpt><trkpt lat="45.44656191089072" lon="11.551134405009343"><ele>357.0</ele><time>2026-03-22T08:42:13.997Z</time></trkpt><trkpt lat="45.44652885724159" lon="11.551225097105004"><ele>357.0</ele><time>2026-03-22T08:42:16Z</time></trkpt><trkpt lat="45.44648797569907" lon="11.551328383422502"><ele>357.0</ele><time>2026-03-22T08:42:18Z</time></trkpt><trkpt lat="45.4464486003712" lon="11.551429918172264"><ele>357.0</ele><time>2026-03-22T08:42:20Z</time></trkpt><trkpt lat="45.446413961296074" lon="11.551526987654059"><ele>357.2857142857143</ele><time>2026-03-22T08:42:22Z</time></trkpt><trkpt lat="45.44638831559295" lon="11.551614063874343"><ele>357.57142857142856</ele><time>2026-03-22T08:42:24Z</time></trkpt><trkpt lat="45.446349682422834" lon="11.55170190332296"><ele>357.8571428571429</ele><time>2026-03-22T08:42:26Z</time></trkpt><trkpt lat="45.44631762411282" lon="11.551787148738955"><ele>358.1428571428571</ele><time>2026-03-22T08:42:28Z</time></trkpt><trkpt lat="45.446256895435916" lon="11.55182294779128"><ele>358.42857142857144</ele><time>2026-03-22T08:42:35Z</time></trkpt><trkpt lat="45.44619580143526" lon="11.551848857921101"><ele>358.7142857142857</ele><time>2026-03-22T08:42:52.999Z</time></trkpt><trkpt lat="45.4461354618229" lon="11.551911524110256"><ele>359.0</ele><time>2026-03-22T08:42:56.999Z</time></trkpt><trkpt lat="45.446066379528524" lon="11.551948301399952"><ele>358.0</ele><time>2026-03-22T08:42:58.999Z</time></trkpt><trkpt lat="45.44596580759319" lon="11.552033081591956"><ele>357.0</ele><time>2026-03-22T08:43:01.999Z</time></trkpt><trkpt lat="45.445893908229195" lon="11.552106931804285"><ele>356.0</ele><time>2026-03-22T08:43:03.999Z</time></trkpt><trkpt lat="45.445858343083046" lon="11.552217926561548"><ele>355.0</ele><time>2026-03-22T08:43:05.999Z</time></trkpt><trkpt lat="45.44582587931617" lon="11.552345041519953"><ele>354.0</ele><time>2026-03-22T08:43:08.999Z</time></trkpt><trkpt lat="45.44580017850066" lon="11.55246608580811"><ele>354.0</ele><time>2026-03-22T08:43:10.999Z</time></trkpt><trkpt lat="45.445758140207104" lon="11.552569447620455"><ele>354.0</ele><time>2026-03-22T08:43:12.999Z</time></trkpt><trkpt lat="45.44571942966763" lon="11.552693911604985"><ele>354.0</ele><time>2026-03-22T08:43:14.999Z</time></trkpt><trkpt lat="45.44565961920323" lon="11.552758500949144"><ele>354.0</ele><time>2026-03-22T08:43:16.999Z</time></trkpt><trkpt lat="45.44560090876893" lon="11.5528031716813"><ele>354.0</ele><time>2026-03-22T08:43:20.999Z</time></trkpt><trkpt lat="45.44554906098328" lon="11.552875773302427"><ele>354.0</ele><time>2026-03-22T08:43:25.998Z</time></trkpt><trkpt lat="45.44554716790726" lon="11.552976586149404"><ele>354.2857142857143</ele><time>2026-03-22T08:43:30.998Z</time></trkpt><trkpt lat="45.44554412317694" lon="11.553085580020737"><ele>354.57142857142856</ele><time>2026-03-22T08:43:35.998Z</time></trkpt><trkpt lat="45.44555445663255" lon="11.553198795359727"><ele>354.85714285714283</ele><time>2026-03-22T08:43:39.998Z</time></trkpt><trkpt lat="45.4455462462977" lon="11.55329175469931"><ele>355.1428571428571</ele><time>2026-03-22T08:43:41.998Z</time></trkpt><trkpt lat="45.44556366266779" lon="11.553389804243462"><ele>355.42857142857144</ele><time>2026-03-22T08:43:44.998Z</time></trkpt><trkpt lat="45.44552407075682" lon="11.553490625901775"><ele>355.71428571428567</ele><time>2026-03-22T08:43:48.998Z</time></trkpt><trkpt lat="45.445498956531125" lon="11.553584480692638"><ele>356.0</ele><time>2026-03-22T08:43:53.998Z</time></trkpt><trkpt lat="45.44546964202645" lon="11.553675743957164"><ele>356.83333333333337</ele><time>2026-03-22T08:43:58.998Z</time></trkpt><trkpt lat="45.44544849619425" lon="11.553783112714926"><ele>357.6666666666667</ele><time>2026-03-22T08:44:03.997Z</time></trkpt><trkpt lat="45.4454503773823" lon="11.553884723192338"><ele>358.5</ele><time>2026-03-22T08:44:10.997Z</time></trkpt><trkpt lat="45.44552642950876" lon="11.55393511010993"><ele>359.3333333333333</ele><time>2026-03-22T08:44:27Z</time></trkpt><trkpt lat="45.44559555558527" lon="11.553947082240725"><ele>360.16666666666663</ele><time>2026-03-22T08:44:30Z</time></trkpt><trkpt lat="45.44568779912552" lon="11.554011938404573"><ele>361.0</ele><time>2026-03-22T08:44:33Z</time></trkpt><trkpt lat="45.44574087616405" lon="11.554133013689047"><ele>361.6</ele><time>2026-03-22T08:44:35Z</time></trkpt><trkpt lat="45.44576798663338" lon="11.554253276664387"><ele>362.20000000000005</ele><time>2026-03-22T08:44:37Z</time></trkpt><trkpt lat="45.44576869413636" lon="11.554397021967437"><ele>362.79999999999995</ele><time>2026-03-22T08:44:39Z</time></trkpt><trkpt lat="45.44584028866878" lon="11.554524711579274"><ele>363.4</ele><time>2026-03-22T08:44:41Z</time></trkpt><trkpt lat="45.445920887884725" lon="11.554605082901073"><ele>364.0</ele><time>2026-03-22T08:44:43Z</time></trkpt><trkpt lat="45.44596924776623" lon="11.55466277708876"><ele>363.0</ele><time>2026-03-22T08:44:44Z</time></trkpt><trkpt lat="45.446027375263384" lon="11.554734718130783"><ele>362.0</ele><time>2026-03-22T08:44:46Z</time></trkpt><trkpt lat="45.44605665418737" lon="11.554867647604969"><ele>361.0</ele><time>2026-03-22T08:44:48Z</time></trkpt><trkpt lat="45.446101887328034" lon="11.554967999605777"><ele>360.0</ele><time>2026-03-22T08:44:50Z</time></trkpt><trkpt lat="45.44613688672786" lon="11.555095275014263"><ele>359.0</ele><time>2026-03-22T08:44:51.999Z</time></trkpt><trkpt lat="45.44616616360726" lon="11.555215628449064"><ele>358.0</ele><time>2026-03-22T08:44:53.999Z</time></trkpt><trkpt lat="45.44616738234484" lon="11.555306196020425"><ele>356.66666666666663</ele><time>2026-03-22T08:44:56.999Z</time></trkpt><trkpt lat="45.44619232478086" lon="11.5553966055648"><ele>355.3333333333333</ele><time>2026-03-22T08:44:59.999Z</time></trkpt><trkpt lat="45.44621686257043" lon="11.55547993775582"><ele>354.0</ele><time>2026-03-22T08:45:02.999Z</time></trkpt><trkpt lat="45.446239561684884" lon="11.555588933241678"><ele>352.6666666666667</ele><time>2026-03-22T08:45:05.999Z</time></trkpt><trkpt lat="45.44626834073308" lon="11.555691950205935"><ele>351.33333333333337</ele><time>2026-03-22T08:45:09.999Z</time></trkpt><trkpt lat="45.44633551295152" lon="11.555779129243149"><ele>350.0</ele><time>2026-03-22T08:45:11.999Z</time></trkpt><trkpt lat="45.44638225240435" lon="11.555921671046287"><ele>348.5</ele><time>2026-03-22T08:45:13.999Z</time></trkpt><trkpt lat="45.44644403542266" lon="11.556026885888592"><ele>347.0</ele><time>2026-03-22T08:45:15.999Z</time></trkpt><trkpt lat="45.44654151593072" lon="11.556135040439274"><ele>345.5</ele><time>2026-03-22T08:45:17.999Z</time></trkpt><trkpt lat="45.44664976078156" lon="11.556227321277442"><ele>344.0</ele><time>2026-03-22T08:45:19.999Z</time></trkpt><trkpt lat="45.44677859364013" lon="11.556167034534944"><ele>344.0</ele><time>2026-03-22T08:45:31.998Z</time></trkpt><trkpt lat="45.44676773193595" lon="11.556049965726316"><ele>344.0</ele><time>2026-03-22T08:45:34.998Z</time></trkpt><trkpt lat="45.44689597792718" lon="11.55602652258564"><ele>344.0</ele><time>2026-03-22T08:45:36.998Z</time></trkpt><trkpt lat="45.44701667197199" lon="11.556016336215471"><ele>344.0</ele><time>2026-03-22T08:45:38.998Z</time></trkpt><trkpt lat="45.44712872962572" lon="11.556066583869322"><ele>341.4</ele><time>2026-03-22T08:45:40.998Z</time></trkpt><trkpt lat="45.44719486394673" lon="11.556198531228938"><ele>338.79999999999995</ele><time>2026-03-22T08:45:42.998Z</time></trkpt><trkpt lat="45.44725098866343" lon="11.556308437381443"><ele>336.20000000000005</ele><time>2026-03-22T08:45:44.998Z</time></trkpt><trkpt lat="45.4472929462389" lon="11.556441795918513"><ele>333.6</ele><time>2026-03-22T08:45:46.998Z</time></trkpt><trkpt lat="45.44731798003633" lon="11.556563447460398"><ele>331.0</ele><time>2026-03-22T08:45:48.998Z</time></trkpt><trkpt lat="45.447363964039965" lon="11.556655256644005"><ele>331.0</ele><time>2026-03-22T08:45:50.998Z</time></trkpt><trkpt lat="45.44742065012469" lon="11.556762763074804"><ele>331.0</ele><time>2026-03-22T08:45:52.998Z</time></trkpt><trkpt lat="45.44747153934153" lon="11.556859788428781"><ele>331.0</ele><time>2026-03-22T08:45:54.998Z</time></trkpt><trkpt lat="45.44749717844857" lon="11.556969371716647"><ele>331.0</ele><time>2026-03-22T08:45:56.998Z</time></trkpt><trkpt lat="45.447537071929595" lon="11.557068035821361"><ele>331.0</ele><time>2026-03-22T08:45:58.998Z</time></trkpt><trkpt lat="45.447572874223546" lon="11.557170889345421"><ele>331.0</ele><time>2026-03-22T08:46:00.998Z</time></trkpt><trkpt lat="45.44761251544938" lon="11.557271494668216"><ele>331.16666666666663</ele><time>2026-03-22T08:46:02.998Z</time></trkpt><trkpt lat="45.44764596887972" lon="11.557358191713687"><ele>331.3333333333333</ele><time>2026-03-22T08:46:04.998Z</time></trkpt><trkpt lat="45.44769910553905" lon="11.557428382223334"><ele>331.5</ele><time>2026-03-22T08:46:08.997Z</time></trkpt><trkpt lat="45.44769507230021" lon="11.55753449212203"><ele>331.6666666666667</ele><time>2026-03-22T08:46:13.997Z</time></trkpt><trkpt lat="45.44764288726461" lon="11.557591458024605"><ele>331.83333333333337</ele><time>2026-03-22T08:46:16.997Z</time></trkpt><trkpt lat="45.447531285825306" lon="11.557541285064683"><ele>332.0</ele><time>2026-03-22T08:46:18.997Z</time></trkpt><trkpt lat="45.44745703155371" lon="11.557529815720816"><ele>332.0</ele><time>2026-03-22T08:46:19.997Z</time></trkpt><trkpt lat="45.44738028489402" lon="11.557519365223733"><ele>332.0</ele><time>2026-03-22T08:46:20.997Z</time></trkpt><trkpt lat="45.44729444668214" lon="11.557515666059714"><ele>332.0</ele><time>2026-03-22T08:46:21.997Z</time></trkpt><trkpt lat="45.44720614601976" lon="11.55750231421832"><ele>332.0</ele><time>2026-03-22T08:46:22.997Z</time></trkpt><trkpt lat="45.44711420973789" lon="11.557489604864937"><ele>332.0</ele><time>2026-03-22T08:46:23.997Z</time></trkpt><trkpt lat="45.44702282349571" lon="11.55746405544552"><ele>332.0</ele><time>2026-03-22T08:46:24.997Z</time></trkpt><trkpt lat="45.44692674298945" lon="11.557440565781558"><ele>330.6</ele><time>2026-03-22T08:46:25.997Z</time></trkpt><trkpt lat="45.446834225336374" lon="11.55740401048197"><ele>329.20000000000005</ele><time>2026-03-22T08:46:27Z</time></trkpt><trkpt lat="45.44674130960211" lon="11.557368607030375"><ele>327.8</ele><time>2026-03-22T08:46:28Z</time></trkpt><trkpt lat="45.44665082084488" lon="11.557343152268627"><ele>326.4</ele><time>2026-03-22T08:46:29Z</time></trkpt><trkpt lat="45.446563821508434" lon="11.55731917180833"><ele>325.0</ele><time>2026-03-22T08:46:30Z</time></trkpt><trkpt lat="45.44648285031136" lon="11.557299407279267"><ele>325.0</ele><time>2026-03-22T08:46:31Z</time></trkpt><trkpt lat="45.44639194379943" lon="11.557290057485403"><ele>325.0</ele><time>2026-03-22T08:46:32Z</time></trkpt><trkpt lat="45.44629862882248" lon="11.557312966780064"><ele>325.0</ele><time>2026-03-22T08:46:33Z</time></trkpt><trkpt lat="45.44620613181126" lon="11.55737246640441"><ele>325.0</ele><time>2026-03-22T08:46:34Z</time></trkpt><trkpt lat="45.446132069852965" lon="11.557434629157106"><ele>325.0</ele><time>2026-03-22T08:46:35Z</time></trkpt><trkpt lat="45.44606729361655" lon="11.55748792185625"><ele>325.0</ele><time>2026-03-22T08:46:36Z</time></trkpt><trkpt lat="45.4459876165266" lon="11.55758230770185"><ele>323.6</ele><time>2026-03-22T08:46:38Z</time></trkpt><trkpt lat="45.4459076161346" lon="11.557650725544564"><ele>322.2</ele><time>2026-03-22T08:46:40Z</time></trkpt><trkpt lat="45.445855798232564" lon="11.557749788813512"><ele>320.8</ele><time>2026-03-22T08:46:42Z</time></trkpt><trkpt lat="45.44581761833632" lon="11.557889112935712"><ele>319.4</ele><time>2026-03-22T08:46:45Z</time></trkpt><trkpt lat="45.445784281108175" lon="11.558014497123713"><ele>318.0</ele><time>2026-03-22T08:46:47Z</time></trkpt><trkpt lat="45.44581126098678" lon="11.558176583564176"><ele>317.8</ele><time>2026-03-22T08:46:49Z</time></trkpt><trkpt lat="45.44582172152354" lon="11.558313996992522"><ele>317.6</ele><time>2026-03-22T08:46:51Z</time></trkpt><trkpt lat="45.445770558784844" lon="11.558396253538314"><ele>317.4</ele><time>2026-03-22T08:46:53Z</time></trkpt><trkpt lat="45.44569920668512" lon="11.558477281349663"><ele>317.2</ele><time>2026-03-22T08:46:55Z</time></trkpt><trkpt lat="45.445631356511925" lon="11.558568812923765"><ele>317.0</ele><time>2026-03-22T08:46:57Z</time></trkpt><trkpt lat="45.44558064004743" lon="11.558687921250382"><ele>318.2</ele><time>2026-03-22T08:46:59Z</time></trkpt><trkpt lat="45.44551236396957" lon="11.558808099315282"><ele>319.4</ele><time>2026-03-22T08:47:00.999Z</time></trkpt><trkpt lat="45.44540669554406" lon="11.558898698721455"><ele>320.59999999999997</ele><time>2026-03-22T08:47:02.999Z</time></trkpt><trkpt lat="45.445329896839525" lon="11.558944155472913"><ele>321.79999999999995</ele><time>2026-03-22T08:47:03.999Z</time></trkpt><trkpt lat="45.4452740303686" lon="11.559034238822488"><ele>323.0</ele><time>2026-03-22T08:47:04.999Z</time></trkpt><trkpt lat="45.44521441670175" lon="11.559098271455367"><ele>320.6666666666667</ele><time>2026-03-22T08:47:05.999Z</time></trkpt><trkpt lat="45.44514467573496" lon="11.559165601765292"><ele>318.33333333333337</ele><time>2026-03-22T08:47:06.999Z</time></trkpt><trkpt lat="45.44506292170993" lon="11.559210175598096"><ele>316.0</ele><time>2026-03-22T08:47:07.999Z</time></trkpt><trkpt lat="45.44498129608055" lon="11.559228661473261"><ele>313.6666666666667</ele><time>2026-03-22T08:47:08.999Z</time></trkpt><trkpt lat="45.44490579144098" lon="11.55923456790965"><ele>311.3333333333333</ele><time>2026-03-22T08:47:09.999Z</time></trkpt><trkpt lat="45.44480288831847" lon="11.559244630080247"><ele>309.0</ele><time>2026-03-22T08:47:11.999Z</time></trkpt><trkpt lat="45.44471267538297" lon="11.55926443038975"><ele>308.2</ele><time>2026-03-22T08:47:13.999Z</time></trkpt><trkpt lat="45.44460272380356" lon="11.559290700158561"><ele>307.4</ele><time>2026-03-22T08:47:15.999Z</time></trkpt><trkpt lat="45.44449731225961" lon="11.559308134473644"><ele>306.6</ele><time>2026-03-22T08:47:17.999Z</time></trkpt><trkpt lat="45.44440835066192" lon="11.559338683899508"><ele>305.8</ele><time>2026-03-22T08:47:19.999Z</time></trkpt><trkpt lat="45.44431507025843" lon="11.55935694911064"><ele>305.0</ele><time>2026-03-22T08:47:21.999Z</time></trkpt><trkpt lat="45.44422335816745" lon="11.559385190131326"><ele>305.0</ele><time>2026-03-22T08:47:23.999Z</time></trkpt><trkpt lat="45.44413877977057" lon="11.559397255967154"><ele>305.0</ele><time>2026-03-22T08:47:25.999Z</time></trkpt><trkpt lat="45.44404653612597" lon="11.55940972500814"><ele>305.0</ele><time>2026-03-22T08:47:27.999Z</time></trkpt><trkpt lat="45.44395596310241" lon="11.559418763670902"><ele>305.0</ele><time>2026-03-22T08:47:29.999Z</time></trkpt><trkpt lat="45.4438888865266" lon="11.5594391699755"><ele>305.0</ele><time>2026-03-22T08:47:31.999Z</time></trkpt><trkpt lat="45.4438177217582" lon="11.559436793314255"><ele>305.0</ele><time>2026-03-22T08:47:34.999Z</time></trkpt><trkpt lat="45.44374049008428" lon="11.559425126772956"><ele>305.0</ele><time>2026-03-22T08:47:36.999Z</time></trkpt><trkpt lat="45.44365365524631" lon="11.559413286166457"><ele>305.0</ele><time>2026-03-22T08:47:38.998Z</time></trkpt><trkpt lat="45.44356908589692" lon="11.559397180178264"><ele>305.0</ele><time>2026-03-22T08:47:40.998Z</time></trkpt><trkpt lat="45.44346782590188" lon="11.559379552409741"><ele>305.0</ele><time>2026-03-22T08:47:42.998Z</time></trkpt><trkpt lat="45.44336367295104" lon="11.55937343244886"><ele>305.0</ele><time>2026-03-22T08:47:44.998Z</time></trkpt><trkpt lat="45.443281387219294" lon="11.559373431636217"><ele>305.0</ele><time>2026-03-22T08:47:46.998Z</time></trkpt><trkpt lat="45.44319804152111" lon="11.559395148084477"><ele>305.0</ele><time>2026-03-22T08:47:48.998Z</time></trkpt><trkpt lat="45.443124458415696" lon="11.559431731011841"><ele>305.0</ele><time>2026-03-22T08:47:50.998Z</time></trkpt><trkpt lat="45.443040692137494" lon="11.559448301661458"><ele>305.0</ele><time>2026-03-22T08:47:52.998Z</time></trkpt><trkpt lat="45.44295193832792" lon="11.559454306935722"><ele>305.0</ele><time>2026-03-22T08:47:54.998Z</time></trkpt><trkpt lat="45.4428510117808" lon="11.559433497654757"><ele>305.0</ele><time>2026-03-22T08:47:56.998Z</time></trkpt><trkpt lat="45.44277400786771" lon="11.559422867486065"><ele>304.5</ele><time>2026-03-22T08:47:58.998Z</time></trkpt><trkpt lat="45.442691081462996" lon="11.55943629918943"><ele>304.0</ele><time>2026-03-22T08:48:00.998Z</time></trkpt><trkpt lat="45.44260741756655" lon="11.559439764527916"><ele>303.5</ele><time>2026-03-22T08:48:02.998Z</time></trkpt><trkpt lat="45.442544575288544" lon="11.55945223847889"><ele>303.0</ele><time>2026-03-22T08:48:04.998Z</time></trkpt><trkpt lat="45.44247043860809" lon="11.559425066338228"><ele>302.5</ele><time>2026-03-22T08:48:07.998Z</time></trkpt><trkpt lat="45.442385658828634" lon="11.559441136064386"><ele>302.0</ele><time>2026-03-22T08:48:09.998Z</time></trkpt><trkpt lat="45.44228472323877" lon="11.559447717484858"><ele>302.0</ele><time>2026-03-22T08:48:11.998Z</time></trkpt><trkpt lat="45.442156342281145" lon="11.559448195759465"><ele>302.0</ele><time>2026-03-22T08:48:13.998Z</time></trkpt><trkpt lat="45.44208997589446" lon="11.559442705098535"><ele>302.0</ele><time>2026-03-22T08:48:14.998Z</time></trkpt><trkpt lat="45.441988473653126" lon="11.55942760250082"><ele>302.0</ele><time>2026-03-22T08:48:16.997Z</time></trkpt><trkpt lat="45.44192406131611" lon="11.559424823544983"><ele>302.0</ele><time>2026-03-22T08:48:18.997Z</time></trkpt><trkpt lat="45.44185603838025" lon="11.559430227115314"><ele>302.0</ele><time>2026-03-22T08:48:20.997Z</time></trkpt><trkpt lat="45.44176069090117" lon="11.55942540211719"><ele>300.83333333333337</ele><time>2026-03-22T08:48:22.997Z</time></trkpt><trkpt lat="45.441654187051256" lon="11.559375980411405"><ele>299.6666666666667</ele><time>2026-03-22T08:48:24.997Z</time></trkpt><trkpt lat="45.44156828148732" lon="11.559326427429278"><ele>298.5</ele><time>2026-03-22T08:48:27.997Z</time></trkpt><trkpt lat="45.44150143114503" lon="11.559362894419698"><ele>297.3333333333333</ele><time>2026-03-22T08:48:31.997Z</time></trkpt><trkpt lat="45.44141088230385" lon="11.55938653777751"><ele>296.16666666666663</ele><time>2026-03-22T08:48:36Z</time></trkpt><trkpt lat="45.44133325447518" lon="11.559409726646178"><ele>295.0</ele><time>2026-03-22T08:48:38Z</time></trkpt><trkpt lat="45.44125379190109" lon="11.559417795655083"><ele>292.8</ele><time>2026-03-22T08:48:40Z</time></trkpt><trkpt lat="45.441163164822015" lon="11.559406908008109"><ele>290.6</ele><time>2026-03-22T08:48:43Z</time></trkpt><trkpt lat="45.441080445538184" lon="11.559404144141112"><ele>288.4</ele><time>2026-03-22T08:48:47Z</time></trkpt><trkpt lat="45.44101192925944" lon="11.559338585321004"><ele>286.2</ele><time>2026-03-22T08:48:51Z</time></trkpt><trkpt lat="45.44105622315392" lon="11.559190630707704"><ele>284.0</ele><time>2026-03-22T08:48:53Z</time></trkpt><trkpt lat="45.44110416067962" lon="11.559041050386114"><ele>284.0</ele><time>2026-03-22T08:48:55Z</time></trkpt><trkpt lat="45.441130644004154" lon="11.558860392991713"><ele>284.0</ele><time>2026-03-22T08:48:57Z</time></trkpt><trkpt lat="45.44113734524729" lon="11.55875474595217"><ele>284.0</ele><time>2026-03-22T08:48:58Z</time></trkpt><trkpt lat="45.441125664641646" lon="11.558639579375267"><ele>284.0</ele><time>2026-03-22T08:48:59Z</time></trkpt><trkpt lat="45.441105574136145" lon="11.558527840266422"><ele>284.0</ele><time>2026-03-22T08:49:00Z</time></trkpt><trkpt lat="45.44108505258496" lon="11.558422050403562"><ele>284.0</ele><time>2026-03-22T08:49:01Z</time></trkpt><trkpt lat="45.44107207642947" lon="11.558318945408908"><ele>283.83333333333337</ele><time>2026-03-22T08:49:02Z</time></trkpt><trkpt lat="45.44103274149385" lon="11.558169277518374"><ele>283.6666666666667</ele><time>2026-03-22T08:49:04Z</time></trkpt><trkpt lat="45.44099128586485" lon="11.558079888227931"><ele>283.5</ele><time>2026-03-22T08:49:05.999Z</time></trkpt><trkpt lat="45.44095444616848" lon="11.557991582704918"><ele>283.3333333333333</ele><time>2026-03-22T08:49:07.999Z</time></trkpt><trkpt lat="45.44090148236035" lon="11.557911575920789"><ele>283.16666666666663</ele><time>2026-03-22T08:49:10.999Z</time></trkpt><trkpt lat="45.440850735536024" lon="11.55784444195028"><ele>283.0</ele><time>2026-03-22T08:49:13.999Z</time></trkpt><trkpt lat="45.44079734300204" lon="11.55775785070492"><ele>284.8333333333333</ele><time>2026-03-22T08:49:16.999Z</time></trkpt><trkpt lat="45.440745020419335" lon="11.55767468764693"><ele>286.66666666666663</ele><time>2026-03-22T08:49:19.999Z</time></trkpt><trkpt lat="45.440688767586344" lon="11.557595193048787"><ele>288.5</ele><time>2026-03-22T08:49:22.999Z</time></trkpt><trkpt lat="45.440644177436" lon="11.557516519630886"><ele>290.3333333333333</ele><time>2026-03-22T08:49:25.999Z</time></trkpt><trkpt lat="45.44059049375577" lon="11.557444747404908"><ele>292.1666666666667</ele><time>2026-03-22T08:49:28.999Z</time></trkpt><trkpt lat="45.44052574130041" lon="11.557387376931715"><ele>294.0</ele><time>2026-03-22T08:49:31.999Z</time></trkpt><trkpt lat="45.44045300634827" lon="11.557328062474928"><ele>294.14285714285717</ele><time>2026-03-22T08:49:34.999Z</time></trkpt><trkpt lat="45.44038610537153" lon="11.557283519393197"><ele>294.2857142857143</ele><time>2026-03-22T08:49:37.999Z</time></trkpt><trkpt lat="45.440317183973754" lon="11.557233040208738"><ele>294.42857142857144</ele><time>2026-03-22T08:49:40.999Z</time></trkpt><trkpt lat="45.4402514470018" lon="11.5571902976942"><ele>294.57142857142856</ele><time>2026-03-22T08:49:43.998Z</time></trkpt><trkpt lat="45.4401822984452" lon="11.557143879038469"><ele>294.7142857142857</ele><time>2026-03-22T08:49:46.998Z</time></trkpt><trkpt lat="45.44012300527627" lon="11.557107836868411"><ele>294.8571428571429</ele><time>2026-03-22T08:49:49.998Z</time></trkpt><trkpt lat="45.440048308441995" lon="11.557086431398908"><ele>295.0</ele><time>2026-03-22T08:49:52.998Z</time></trkpt><trkpt lat="45.4399657512574" lon="11.557079818046564"><ele>295.00000000000006</ele><time>2026-03-22T08:49:55.998Z</time></trkpt><trkpt lat="45.43988284368643" lon="11.55707783494661"><ele>295.0</ele><time>2026-03-22T08:49:58.998Z</time></trkpt><trkpt lat="45.439807364430266" lon="11.557084334838079"><ele>295.0</ele><time>2026-03-22T08:50:01.998Z</time></trkpt><trkpt lat="45.43973883189918" lon="11.55708710629883"><ele>295.0</ele><time>2026-03-22T08:50:04.998Z</time></trkpt><trkpt lat="45.439675045266185" lon="11.557098810501232"><ele>295.0</ele><time>2026-03-22T08:50:07.998Z</time></trkpt><trkpt lat="45.439594798403846" lon="11.55711053335673"><ele>295.00000000000006</ele><time>2026-03-22T08:50:11.998Z</time></trkpt><trkpt lat="45.43952771196225" lon="11.557129025831976"><ele>295.0</ele><time>2026-03-22T08:50:14.998Z</time></trkpt><trkpt lat="45.43946163610068" lon="11.557139889466855"><ele>296.42857142857144</ele><time>2026-03-22T08:50:17.998Z</time></trkpt><trkpt lat="45.43939115298402" lon="11.557159291539763"><ele>297.8571428571429</ele><time>2026-03-22T08:50:20.997Z</time></trkpt><trkpt lat="45.43932004105196" lon="11.55717967117027"><ele>299.28571428571433</ele><time>2026-03-22T08:50:23.997Z</time></trkpt><trkpt lat="45.43925058354499" lon="11.557181861338949"><ele>300.7142857142857</ele><time>2026-03-22T08:50:26.997Z</time></trkpt><trkpt lat="45.43917374942002" lon="11.557194108952215"><ele>302.1428571428571</ele><time>2026-03-22T08:50:30.997Z</time></trkpt><trkpt lat="45.439105673570864" lon="11.557182825436703"><ele>303.5714285714286</ele><time>2026-03-22T08:50:34.997Z</time></trkpt><trkpt lat="45.43904220340808" lon="11.557198365074116"><ele>305.0</ele><time>2026-03-22T08:50:48Z</time></trkpt><trkpt lat="45.438959492108204" lon="11.557242352250919"><ele>305.0</ele><time>2026-03-22T08:50:51Z</time></trkpt><trkpt lat="45.43889458487296" lon="11.55730449782856"><ele>305.0</ele><time>2026-03-22T08:50:54Z</time></trkpt><trkpt lat="45.43883786537986" lon="11.557362269532428"><ele>305.0</ele><time>2026-03-22T08:50:58Z</time></trkpt><trkpt lat="45.438768554374775" lon="11.557391258866774"><ele>305.0</ele><time>2026-03-22T08:51:03Z</time></trkpt><trkpt lat="45.438690954722475" lon="11.557431964036702"><ele>305.0</ele><time>2026-03-22T08:51:06Z</time></trkpt><trkpt lat="45.438619251364344" lon="11.55748564632268"><ele>305.0</ele><time>2026-03-22T08:51:09Z</time></trkpt><trkpt lat="45.43854930180288" lon="11.557510419557158"><ele>305.33333333333337</ele><time>2026-03-22T08:51:10.999Z</time></trkpt><trkpt lat="45.43848446952944" lon="11.557540515096045"><ele>305.6666666666667</ele><time>2026-03-22T08:51:12.999Z</time></trkpt><trkpt lat="45.43838295731008" lon="11.557547168813791"><ele>306.0</ele><time>2026-03-22T08:51:15.999Z</time></trkpt><trkpt lat="45.43831412175031" lon="11.55752737125237"><ele>306.3333333333333</ele><time>2026-03-22T08:51:17.999Z</time></trkpt><trkpt lat="45.43825296269298" lon="11.55749918030556"><ele>306.66666666666663</ele><time>2026-03-22T08:51:19.999Z</time></trkpt><trkpt lat="45.43817294108537" lon="11.557472717292134"><ele>307.0</ele><time>2026-03-22T08:51:21.999Z</time></trkpt><trkpt lat="45.43809883114001" lon="11.557427019368614"><ele>307.0</ele><time>2026-03-22T08:51:23.999Z</time></trkpt><trkpt lat="45.43800678838013" lon="11.557390619000122"><ele>307.0</ele><time>2026-03-22T08:51:25.999Z</time></trkpt><trkpt lat="45.43791591668189" lon="11.55734912521754"><ele>307.0</ele><time>2026-03-22T08:51:27.999Z</time></trkpt><trkpt lat="45.43781959411874" lon="11.557303851894899"><ele>307.0</ele><time>2026-03-22T08:51:29.999Z</time></trkpt><trkpt lat="45.43772523669197" lon="11.557278100440106"><ele>307.0</ele><time>2026-03-22T08:51:31.999Z</time></trkpt><trkpt lat="45.4376169647372" lon="11.557299673357473"><ele>307.0</ele><time>2026-03-22T08:51:33.999Z</time></trkpt><trkpt lat="45.4374957845715" lon="11.557375076786471"><ele>307.0</ele><time>2026-03-22T08:51:35.999Z</time></trkpt><trkpt lat="45.437430506685615" lon="11.557427485336143"><ele>307.0</ele><time>2026-03-22T08:51:36.999Z</time></trkpt><trkpt lat="45.437367802554974" lon="11.55747413215835"><ele>307.0</ele><time>2026-03-22T08:51:37.999Z</time></trkpt><trkpt lat="45.437303206239676" lon="11.557520258346464"><ele>307.0</ele><time>2026-03-22T08:51:38.999Z</time></trkpt><trkpt lat="45.4372399237673" lon="11.557568047446075"><ele>307.0</ele><time>2026-03-22T08:51:39.999Z</time></trkpt><trkpt lat="45.43717096181095" lon="11.557623974320844"><ele>304.8</ele><time>2026-03-22T08:51:40.999Z</time></trkpt><trkpt lat="45.43709184599849" lon="11.557684848943946"><ele>302.6</ele><time>2026-03-22T08:51:41.999Z</time></trkpt><trkpt lat="45.43701173878069" lon="11.557748010681893"><ele>300.40000000000003</ele><time>2026-03-22T08:51:42.999Z</time></trkpt><trkpt lat="45.4369249118137" lon="11.557818639293044"><ele>298.2</ele><time>2026-03-22T08:51:43.999Z</time></trkpt><trkpt lat="45.436844901022674" lon="11.557893134989403"><ele>296.0</ele><time>2026-03-22T08:51:44.999Z</time></trkpt><trkpt lat="45.43678059106364" lon="11.557958816710022"><ele>296.0</ele><time>2026-03-22T08:51:45.999Z</time></trkpt><trkpt lat="45.43672528650656" lon="11.558022192146803"><ele>296.0</ele><time>2026-03-22T08:51:46.999Z</time></trkpt><trkpt lat="45.436641538537486" lon="11.558131078507337"><ele>296.0</ele><time>2026-03-22T08:51:48.998Z</time></trkpt><trkpt lat="45.43656072186481" lon="11.558217904585097"><ele>296.0</ele><time>2026-03-22T08:51:50.998Z</time></trkpt><trkpt lat="45.43650962728863" lon="11.558279605325161"><ele>296.0</ele><time>2026-03-22T08:51:52.998Z</time></trkpt><trkpt lat="45.436447469133505" lon="11.558167689668075"><ele>296.0</ele><time>2026-03-22T08:51:55.998Z</time></trkpt><trkpt lat="45.43647053849037" lon="11.558007837160924"><ele>296.0</ele><time>2026-03-22T08:51:57.998Z</time></trkpt><trkpt lat="45.43646265556242" lon="11.557915311962326"><ele>296.0</ele><time>2026-03-22T08:51:58.998Z</time></trkpt><trkpt lat="45.43643283516256" lon="11.557824572677093"><ele>296.0</ele><time>2026-03-22T08:51:59.998Z</time></trkpt><trkpt lat="45.43638822660981" lon="11.557735066619257"><ele>296.0</ele><time>2026-03-22T08:52:00.998Z</time></trkpt><trkpt lat="45.436321617794825" lon="11.55766284157135"><ele>296.0</ele><time>2026-03-22T08:52:01.998Z</time></trkpt><trkpt lat="45.436245283554605" lon="11.557584934244703"><ele>289.8</ele><time>2026-03-22T08:52:02.998Z</time></trkpt><trkpt lat="45.43616705971638" lon="11.55750530769591"><ele>283.6</ele><time>2026-03-22T08:52:03.998Z</time></trkpt><trkpt lat="45.436121753753675" lon="11.557392814302244"><ele>277.4</ele><time>2026-03-22T08:52:04.998Z</time></trkpt><trkpt lat="45.43606852631172" lon="11.557269673028058"><ele>271.2</ele><time>2026-03-22T08:52:05.998Z</time></trkpt><trkpt lat="45.43601592069966" lon="11.55715677561764"><ele>265.0</ele><time>2026-03-22T08:52:06.998Z</time></trkpt><trkpt lat="45.435961313751356" lon="11.55703818266453"><ele>267.3333333333333</ele><time>2026-03-22T08:52:07.998Z</time></trkpt><trkpt lat="45.435916551770454" lon="11.556936575342869"><ele>269.66666666666663</ele><time>2026-03-22T08:52:08.998Z</time></trkpt><trkpt lat="45.435875972411715" lon="11.556840578579498"><ele>272.0</ele><time>2026-03-22T08:52:09.998Z</time></trkpt><trkpt lat="45.43583092355187" lon="11.556740169610642"><ele>274.3333333333333</ele><time>2026-03-22T08:52:10.998Z</time></trkpt><trkpt lat="45.43577321498732" lon="11.556659321244258"><ele>276.6666666666667</ele><time>2026-03-22T08:52:11.998Z</time></trkpt><trkpt lat="45.435737441526676" lon="11.55657829672316"><ele>279.0</ele><time>2026-03-22T08:52:12.998Z</time></trkpt><trkpt lat="45.43570675842816" lon="11.556391863167828"><ele>279.0</ele><time>2026-03-22T08:52:14.998Z</time></trkpt><trkpt lat="45.43572200276916" lon="11.556291587940954"><ele>279.0</ele><time>2026-03-22T08:52:15.998Z</time></trkpt><trkpt lat="45.435690409669675" lon="11.556196474504251"><ele>279.0</ele><time>2026-03-22T08:52:16.998Z</time></trkpt><trkpt lat="45.43565724697104" lon="11.556115892331322"><ele>279.0</ele><time>2026-03-22T08:52:17.998Z</time></trkpt><trkpt lat="45.435642268737865" lon="11.556027744544634"><ele>279.0</ele><time>2026-03-22T08:52:18.998Z</time></trkpt><trkpt lat="45.435573097847346" lon="11.555916550817358"><ele>279.0</ele><time>2026-03-22T08:52:20.998Z</time></trkpt><trkpt lat="45.435504900329605" lon="11.555829816692007"><ele>281.1666666666667</ele><time>2026-03-22T08:52:22.998Z</time></trkpt><trkpt lat="45.43544063676514" lon="11.55574656198895"><ele>283.3333333333333</ele><time>2026-03-22T08:52:24.998Z</time></trkpt><trkpt lat="45.435409999659186" lon="11.555654713655741"><ele>285.5</ele><time>2026-03-22T08:52:26.997Z</time></trkpt><trkpt lat="45.435386552890655" lon="11.555536766201637"><ele>287.66666666666663</ele><time>2026-03-22T08:52:29.997Z</time></trkpt><trkpt lat="45.43534264086211" lon="11.55544631771413"><ele>289.8333333333333</ele><time>2026-03-22T08:52:32.997Z</time></trkpt><trkpt lat="45.43526421479536" lon="11.555410595807496"><ele>292.0</ele><time>2026-03-22T08:52:35.997Z</time></trkpt><trkpt lat="45.43518269816253" lon="11.555491011753022"><ele>292.0</ele><time>2026-03-22T08:52:37.997Z</time></trkpt><trkpt lat="45.43513149191052" lon="11.555613536320191"><ele>292.0</ele><time>2026-03-22T08:52:40.997Z</time></trkpt><trkpt lat="45.435084078001445" lon="11.55568709910701"><ele>292.0</ele><time>2026-03-22T08:52:42.997Z</time></trkpt><trkpt lat="45.435035883771405" lon="11.555762743570817"><ele>292.0</ele><time>2026-03-22T08:52:46Z</time></trkpt><trkpt lat="45.43498446310911" lon="11.55584101891773"><ele>292.0</ele><time>2026-03-22T08:52:48Z</time></trkpt><trkpt lat="45.434935998451586" lon="11.55593082354811"><ele>292.0</ele><time>2026-03-22T08:52:50Z</time></trkpt><trkpt lat="45.43489100807763" lon="11.556022863555151"><ele>292.0</ele><time>2026-03-22T08:52:52Z</time></trkpt><trkpt lat="45.43483673866588" lon="11.55613186707112"><ele>292.0</ele><time>2026-03-22T08:52:55Z</time></trkpt><trkpt lat="45.43479267329978" lon="11.556213886712463"><ele>292.0</ele><time>2026-03-22T08:52:57Z</time></trkpt><trkpt lat="45.434751736052725" lon="11.556297830458101"><ele>292.0</ele><time>2026-03-22T08:53:00Z</time></trkpt><trkpt lat="45.43466971099194" lon="11.556359005935217"><ele>292.0</ele><time>2026-03-22T08:53:02Z</time></trkpt><trkpt lat="45.43456938410009" lon="11.556325753177743"><ele>292.0</ele><time>2026-03-22T08:53:04Z</time></trkpt><trkpt lat="45.43445699620191" lon="11.556267643931978"><ele>292.16666666666663</ele><time>2026-03-22T08:53:06Z</time></trkpt><trkpt lat="45.43438921721762" lon="11.556246481710273"><ele>292.3333333333333</ele><time>2026-03-22T08:53:07Z</time></trkpt><trkpt lat="45.43430726730931" lon="11.556204906699023"><ele>292.5</ele><time>2026-03-22T08:53:08Z</time></trkpt><trkpt lat="45.43423371921381" lon="11.556191166261284"><ele>292.6666666666667</ele><time>2026-03-22T08:53:09Z</time></trkpt><trkpt lat="45.43414975618546" lon="11.556179020330665"><ele>292.83333333333337</ele><time>2026-03-22T08:53:10Z</time></trkpt><trkpt lat="45.434071956433485" lon="11.55616042916046"><ele>293.0</ele><time>2026-03-22T08:53:11Z</time></trkpt><trkpt lat="45.433991920002434" lon="11.556136121637401"><ele>292.99999999999994</ele><time>2026-03-22T08:53:12Z</time></trkpt><trkpt lat="45.433924389554015" lon="11.556111138953138"><ele>293.0</ele><time>2026-03-22T08:53:13Z</time></trkpt><trkpt lat="45.43385209257225" lon="11.556091897447601"><ele>293.0</ele><time>2026-03-22T08:53:14Z</time></trkpt><trkpt lat="45.43378359603426" lon="11.556086860989014"><ele>293.0</ele><time>2026-03-22T08:53:14.999Z</time></trkpt><trkpt lat="45.43371724633133" lon="11.556093463244638"><ele>293.0</ele><time>2026-03-22T08:53:15.999Z</time></trkpt><trkpt lat="45.43364777995383" lon="11.55610622877695"><ele>292.99999999999994</ele><time>2026-03-22T08:53:16.999Z</time></trkpt><trkpt lat="45.433571628880415" lon="11.556054233410629"><ele>293.0</ele><time>2026-03-22T08:53:17.999Z</time></trkpt><trkpt lat="45.433458133860604" lon="11.55607732602394"><ele>292.5</ele><time>2026-03-22T08:53:19.999Z</time></trkpt><trkpt lat="45.43339052923369" lon="11.556087088023533"><ele>292.0</ele><time>2026-03-22T08:53:21.999Z</time></trkpt><trkpt lat="45.433321367932194" lon="11.556094342603176"><ele>291.5</ele><time>2026-03-22T08:53:23.999Z</time></trkpt><trkpt lat="45.433244428384626" lon="11.556096714346394"><ele>291.0</ele><time>2026-03-22T08:53:25.999Z</time></trkpt><trkpt lat="45.43317623988035" lon="11.556110453182502"><ele>290.5</ele><time>2026-03-22T08:53:27.999Z</time></trkpt><trkpt lat="45.43307047368146" lon="11.556072064638474"><ele>290.0</ele><time>2026-03-22T08:53:29.999Z</time></trkpt><trkpt lat="45.43300614995468" lon="11.556081989823479"><ele>292.0</ele><time>2026-03-22T08:53:30.999Z</time></trkpt><trkpt lat="45.43293840725815" lon="11.556107151307211"><ele>294.0</ele><time>2026-03-22T08:53:31.999Z</time></trkpt><trkpt lat="45.43287895894406" lon="11.556137165133078"><ele>296.0</ele><time>2026-03-22T08:53:32.999Z</time></trkpt><trkpt lat="45.43281361774463" lon="11.556171773360743"><ele>298.0</ele><time>2026-03-22T08:53:33.999Z</time></trkpt><trkpt lat="45.432748167149185" lon="11.5562069104786"><ele>300.0</ele><time>2026-03-22T08:53:34.999Z</time></trkpt><trkpt lat="45.432690562937715" lon="11.55624758954338"><ele>302.0</ele><time>2026-03-22T08:53:35.999Z</time></trkpt><trkpt lat="45.43260203006058" lon="11.556338493513827"><ele>304.0</ele><time>2026-03-22T08:53:37.999Z</time></trkpt><trkpt lat="45.432531315021045" lon="11.55643707040856"><ele>298.0</ele><time>2026-03-22T08:53:39.999Z</time></trkpt><trkpt lat="45.43246450996748" lon="11.556534617610996"><ele>292.0</ele><time>2026-03-22T08:53:41.999Z</time></trkpt><trkpt lat="45.432389302691945" lon="11.556646837012728"><ele>286.0</ele><time>2026-03-22T08:53:43.999Z</time></trkpt><trkpt lat="45.432308038952876" lon="11.556768749375909"><ele>280.0</ele><time>2026-03-22T08:53:45.999Z</time></trkpt><trkpt lat="45.43222356536732" lon="11.556891088235071"><ele>274.0</ele><time>2026-03-22T08:53:47.999Z</time></trkpt><trkpt lat="45.43217613147893" lon="11.556961183518737"><ele>272.5</ele><time>2026-03-22T08:53:48.999Z</time></trkpt><trkpt lat="45.432139969552274" lon="11.557050799855451"><ele>271.0</ele><time>2026-03-22T08:53:49.999Z</time></trkpt><trkpt lat="45.43209629840004" lon="11.557125484205015"><ele>269.5</ele><time>2026-03-22T08:53:50.999Z</time></trkpt><trkpt lat="45.43205160679259" lon="11.557193700455406"><ele>268.0</ele><time>2026-03-22T08:53:51.999Z</time></trkpt><trkpt lat="45.43198243610475" lon="11.557337249062854"><ele>266.5</ele><time>2026-03-22T08:53:53.998Z</time></trkpt><trkpt lat="45.43189146980771" lon="11.557443023356063"><ele>265.0</ele><time>2026-03-22T08:53:55.998Z</time></trkpt><trkpt lat="45.431825600245546" lon="11.557540502815764"><ele>265.0</ele><time>2026-03-22T08:53:57.998Z</time></trkpt><trkpt lat="45.431720118373825" lon="11.557534383199853"><ele>265.0</ele><time>2026-03-22T08:53:59.998Z</time></trkpt><trkpt lat="45.43160376072686" lon="11.557496242655251"><ele>265.0</ele><time>2026-03-22T08:54:01.998Z</time></trkpt><trkpt lat="45.43154305646507" lon="11.557454062546697"><ele>265.0</ele><time>2026-03-22T08:54:02.998Z</time></trkpt><trkpt lat="45.43147927837092" lon="11.557411404836317"><ele>265.0</ele><time>2026-03-22T08:54:03.998Z</time></trkpt><trkpt lat="45.431414716624566" lon="11.557371063511157"><ele>265.0</ele><time>2026-03-22T08:54:04.998Z</time></trkpt><trkpt lat="45.43134594091887" lon="11.557330938630344"><ele>262.8333333333333</ele><time>2026-03-22T08:54:05.998Z</time></trkpt><trkpt lat="45.431277035692446" lon="11.55729281905379"><ele>260.66666666666663</ele><time>2026-03-22T08:54:06.998Z</time></trkpt><trkpt lat="45.431206538716374" lon="11.557258231395654"><ele>258.5</ele><time>2026-03-22T08:54:07.998Z</time></trkpt><trkpt lat="45.43113426784578" lon="11.557230147438379"><ele>256.3333333333333</ele><time>2026-03-22T08:54:08.998Z</time></trkpt><trkpt lat="45.431059777950914" lon="11.55720770153178"><ele>254.16666666666666</ele><time>2026-03-22T08:54:09.998Z</time></trkpt><trkpt lat="45.43098303641404" lon="11.557194295972073"><ele>252.0</ele><time>2026-03-22T08:54:10.998Z</time></trkpt><trkpt lat="45.43090988683149" lon="11.557189418680077"><ele>252.0</ele><time>2026-03-22T08:54:11.998Z</time></trkpt><trkpt lat="45.43084151978022" lon="11.557189859581195"><ele>252.0</ele><time>2026-03-22T08:54:12.998Z</time></trkpt><trkpt lat="45.430761432415764" lon="11.557184246273268"><ele>252.0</ele><time>2026-03-22T08:54:13.998Z</time></trkpt><trkpt lat="45.43069314972839" lon="11.557168791789083"><ele>252.0</ele><time>2026-03-22T08:54:14.998Z</time></trkpt><trkpt lat="45.4306123880632" lon="11.557148156725"><ele>252.0</ele><time>2026-03-22T08:54:15.998Z</time></trkpt><trkpt lat="45.43053827487447" lon="11.557130262863996"><ele>252.0</ele><time>2026-03-22T08:54:16.998Z</time></trkpt><trkpt lat="45.43045539706073" lon="11.557136182598239"><ele>252.16666666666666</ele><time>2026-03-22T08:54:17.998Z</time></trkpt><trkpt lat="45.430383825652406" lon="11.557100612025"><ele>252.33333333333331</ele><time>2026-03-22T08:54:18.998Z</time></trkpt><trkpt lat="45.43030869509576" lon="11.557087393738266"><ele>252.5</ele><time>2026-03-22T08:54:19.998Z</time></trkpt><trkpt lat="45.430237015922735" lon="11.55707478268093"><ele>252.66666666666666</ele><time>2026-03-22T08:54:20.998Z</time></trkpt><trkpt lat="45.43016965464065" lon="11.55706293130367"><ele>252.83333333333331</ele><time>2026-03-22T08:54:21.998Z</time></trkpt><trkpt lat="45.430047856478744" lon="11.55706698720736"><ele>253.0</ele><time>2026-03-22T08:54:23.998Z</time></trkpt><trkpt lat="45.4299388352879" lon="11.557045614598616"><ele>251.99999999999997</ele><time>2026-03-22T08:54:25.998Z</time></trkpt><trkpt lat="45.429834319315574" lon="11.556978483614856"><ele>251.0</ele><time>2026-03-22T08:54:27.998Z</time></trkpt><trkpt lat="45.429744489942955" lon="11.556920541718425"><ele>250.0</ele><time>2026-03-22T08:54:29.998Z</time></trkpt><trkpt lat="45.429679453560766" lon="11.55689169471438"><ele>249.0</ele><time>2026-03-22T08:54:31.997Z</time></trkpt><trkpt lat="45.42962722675054" lon="11.556829163482137"><ele>247.99999999999997</ele><time>2026-03-22T08:54:34.997Z</time></trkpt><trkpt lat="45.42958640445495" lon="11.556744163238841"><ele>247.0</ele><time>2026-03-22T08:54:48.997Z</time></trkpt><trkpt lat="45.429541762791786" lon="11.556665817105554"><ele>246.99999999999997</ele><time>2026-03-22T08:56:17.998Z</time></trkpt><trkpt lat="45.4294755795692" lon="11.55655877114412"><ele>247.0</ele><time>2026-03-22T08:56:21.998Z</time></trkpt><trkpt lat="45.429399404382075" lon="11.556503707422095"><ele>247.0</ele><time>2026-03-22T08:56:23.998Z</time></trkpt><trkpt lat="45.42941147810504" lon="11.556395129019283"><ele>247.0</ele><time>2026-03-22T08:56:25.998Z</time></trkpt><trkpt lat="45.42939031582566" lon="11.556288805270638"><ele>246.99999999999997</ele><time>2026-03-22T08:56:28.998Z</time></trkpt><trkpt lat="45.42935326192973" lon="11.556181061176806"><ele>247.0</ele><time>2026-03-22T08:56:32.998Z</time></trkpt><trkpt lat="45.429319680398564" lon="11.55609328291887"><ele>248.71428571428572</ele><time>2026-03-22T08:56:35.998Z</time></trkpt><trkpt lat="45.42929878546476" lon="11.556001960453163"><ele>250.42857142857142</ele><time>2026-03-22T08:56:38.997Z</time></trkpt><trkpt lat="45.42925985387255" lon="11.555925916650144"><ele>252.14285714285714</ele><time>2026-03-22T08:56:41.997Z</time></trkpt><trkpt lat="45.42921680528221" lon="11.5558514937973"><ele>253.85714285714286</ele><time>2026-03-22T08:56:44.997Z</time></trkpt><trkpt lat="45.42917206250481" lon="11.555780749887663"><ele>255.57142857142856</ele><time>2026-03-22T08:56:47.997Z</time></trkpt><trkpt lat="45.42912786181099" lon="11.555713327221616"><ele>257.2857142857143</ele><time>2026-03-22T08:56:50.997Z</time></trkpt><trkpt lat="45.42906673986628" lon="11.555667796308791"><ele>259.0</ele><time>2026-03-22T08:56:53.997Z</time></trkpt><trkpt lat="45.42902591958474" lon="11.555567798241556"><ele>259.0</ele><time>2026-03-22T08:56:58Z</time></trkpt><trkpt lat="45.4290177452093" lon="11.555466900352155"><ele>259.0</ele><time>2026-03-22T08:57:01Z</time></trkpt><trkpt lat="45.42902763839457" lon="11.55536729710902"><ele>259.0</ele><time>2026-03-22T08:57:04Z</time></trkpt><trkpt lat="45.42904481321405" lon="11.555275166151906"><ele>259.0</ele><time>2026-03-22T08:57:07Z</time></trkpt><trkpt lat="45.42906681396421" lon="11.555189068929813"><ele>259.0</ele><time>2026-03-22T08:57:10Z</time></trkpt><trkpt lat="45.42909373304127" lon="11.555101686296815"><ele>259.0</ele><time>2026-03-22T08:57:13Z</time></trkpt><trkpt lat="45.429120473109805" lon="11.555013671429805"><ele>259.0</ele><time>2026-03-22T08:57:16Z</time></trkpt><trkpt lat="45.42916305629799" lon="11.554916732613108"><ele>259.0</ele><time>2026-03-22T08:57:20Z</time></trkpt><trkpt lat="45.429216132475744" lon="11.554820700397432"><ele>259.0</ele><time>2026-03-22T08:57:24Z</time></trkpt><trkpt lat="45.42926395834837" lon="11.554723511764792"><ele>259.0</ele><time>2026-03-22T08:57:28Z</time></trkpt><trkpt lat="45.42930547528018" lon="11.554650350578852"><ele>259.0</ele><time>2026-03-22T08:57:30.999Z</time></trkpt><trkpt lat="45.42933044355556" lon="11.554554604318286"><ele>259.0</ele><time>2026-03-22T08:57:34.999Z</time></trkpt><trkpt lat="45.42934623876833" lon="11.554409127049668"><ele>259.0</ele><time>2026-03-22T08:57:36.999Z</time></trkpt><trkpt lat="45.42936836830544" lon="11.554310575897416"><ele>259.0</ele><time>2026-03-22T08:57:37.999Z</time></trkpt><trkpt lat="45.42938869410649" lon="11.554222481920679"><ele>259.0</ele><time>2026-03-22T08:57:38.999Z</time></trkpt><trkpt lat="45.42941950246124" lon="11.554071609810327"><ele>259.0</ele><time>2026-03-22T08:57:40.999Z</time></trkpt><trkpt lat="45.42945082494998" lon="11.55392875376197"><ele>259.0</ele><time>2026-03-22T08:57:42.999Z</time></trkpt><trkpt lat="45.42906130886415" lon="11.551180121040034"><ele>266.0</ele><time>2026-03-22T09:01:37.999Z</time></trkpt><trkpt lat="45.42902976446513" lon="11.551056153168584"><ele>273.0</ele><time>2026-03-22T09:01:39.999Z</time></trkpt><trkpt lat="45.428994258058324" lon="11.55091958507011"><ele>280.0</ele><time>2026-03-22T09:01:41.999Z</time></trkpt><trkpt lat="45.428946375455006" lon="11.55080140612365"><ele>287.0</ele><time>2026-03-22T09:01:43.999Z</time></trkpt><trkpt lat="45.42890414592928" lon="11.550655155275585"><ele>294.0</ele><time>2026-03-22T09:01:45.999Z</time></trkpt><trkpt lat="45.42886113581844" lon="11.550506298831825"><ele>297.59999999999997</ele><time>2026-03-22T09:01:47.999Z</time></trkpt><trkpt lat="45.42883817243678" lon="11.550352771598561"><ele>301.2</ele><time>2026-03-22T09:01:49.999Z</time></trkpt><trkpt lat="45.428807403126896" lon="11.5501979609918"><ele>304.79999999999995</ele><time>2026-03-22T09:01:51.999Z</time></trkpt><trkpt lat="45.42876863596181" lon="11.550065201488227"><ele>308.4</ele><time>2026-03-22T09:01:53.999Z</time></trkpt><trkpt lat="45.4287427395287" lon="11.549940861005561"><ele>312.0</ele><time>2026-03-22T09:01:55.999Z</time></trkpt><trkpt lat="45.42872153483318" lon="11.549802116424464"><ele>305.6</ele><time>2026-03-22T09:01:57.999Z</time></trkpt><trkpt lat="45.428701160147796" lon="11.549674765319732"><ele>299.2</ele><time>2026-03-22T09:01:59.999Z</time></trkpt><trkpt lat="45.42867912886439" lon="11.54954435370683"><ele>292.8</ele><time>2026-03-22T09:02:01.999Z</time></trkpt><trkpt lat="45.42866219739717" lon="11.549417812399259"><ele>286.4</ele><time>2026-03-22T09:02:03.999Z</time></trkpt><trkpt lat="45.428644989009435" lon="11.549280914125111"><ele>280.0</ele><time>2026-03-22T09:02:05.999Z</time></trkpt><trkpt lat="45.42863039522031" lon="11.549159261692669"><ele>280.0</ele><time>2026-03-22T09:02:07.999Z</time></trkpt><trkpt lat="45.428614946016644" lon="11.549031431986787"><ele>280.0</ele><time>2026-03-22T09:02:09.999Z</time></trkpt><trkpt lat="45.42861018035556" lon="11.548904441340667"><ele>280.0</ele><time>2026-03-22T09:02:11.998Z</time></trkpt><trkpt lat="45.42856942113042" lon="11.548788643094003"><ele>280.0</ele><time>2026-03-22T09:02:14.998Z</time></trkpt><trkpt lat="45.42850858258292" lon="11.548679900474"><ele>280.0</ele><time>2026-03-22T09:02:17.998Z</time></trkpt><trkpt lat="45.42845304385018" lon="11.548584915860886"><ele>284.14285714285717</ele><time>2026-03-22T09:02:20.998Z</time></trkpt><trkpt lat="45.42839576698183" lon="11.548509492308101"><ele>288.2857142857143</ele><time>2026-03-22T09:02:23.998Z</time></trkpt><trkpt lat="45.428337913076966" lon="11.548459624568913"><ele>292.42857142857144</ele><time>2026-03-22T09:02:27.998Z</time></trkpt><trkpt lat="45.42827905678144" lon="11.548423200710694"><ele>296.57142857142856</ele><time>2026-03-22T09:02:29.998Z</time></trkpt><trkpt lat="45.428217366910665" lon="11.548404387357781"><ele>300.7142857142857</ele><time>2026-03-22T09:02:32.998Z</time></trkpt><trkpt lat="45.42815248388515" lon="11.548388201752228"><ele>304.8571428571429</ele><time>2026-03-22T09:02:35.998Z</time></trkpt><trkpt lat="45.428088149067776" lon="11.548341297933183"><ele>309.0</ele><time>2026-03-22T09:02:38.998Z</time></trkpt><trkpt lat="45.42801728670728" lon="11.548308286090315"><ele>307.28571428571433</ele><time>2026-03-22T09:02:41.998Z</time></trkpt><trkpt lat="45.427946062329966" lon="11.5482929159804"><ele>305.57142857142856</ele><time>2026-03-22T09:02:44.998Z</time></trkpt><trkpt lat="45.42787479865161" lon="11.548255532000635"><ele>303.8571428571429</ele><time>2026-03-22T09:02:47.998Z</time></trkpt><trkpt lat="45.42780402547152" lon="11.54823391518572"><ele>302.14285714285717</ele><time>2026-03-22T09:02:50.997Z</time></trkpt><trkpt lat="45.42773355920252" lon="11.548193314786408"><ele>300.42857142857144</ele><time>2026-03-22T09:02:53.997Z</time></trkpt><trkpt lat="45.42765254001195" lon="11.548154169587567"><ele>298.7142857142857</ele><time>2026-03-22T09:02:56.997Z</time></trkpt><trkpt lat="45.427592544534" lon="11.54812192075145"><ele>297.0</ele><time>2026-03-22T09:02:58.997Z</time></trkpt><trkpt lat="45.42752492313447" lon="11.548076392054732"><ele>297.0</ele><time>2026-03-22T09:03:00.997Z</time></trkpt><trkpt lat="45.42744452405196" lon="11.548015334709238"><ele>297.0</ele><time>2026-03-22T09:03:03.997Z</time></trkpt><trkpt lat="45.42738505085378" lon="11.5479734960713"><ele>297.0</ele><time>2026-03-22T09:03:05.997Z</time></trkpt><trkpt lat="45.42730704660264" lon="11.547923903305481"><ele>297.0</ele><time>2026-03-22T09:03:08.997Z</time></trkpt><trkpt lat="45.427229000762146" lon="11.547853946709356"><ele>297.0</ele><time>2026-03-22T09:03:12Z</time></trkpt><trkpt lat="45.42716347638957" lon="11.547758075133393"><ele>297.0</ele><time>2026-03-22T09:03:15Z</time></trkpt><trkpt lat="45.42709556491477" lon="11.54769793201945"><ele>301.3333333333333</ele><time>2026-03-22T09:03:18Z</time></trkpt><trkpt lat="45.42702985327072" lon="11.547624701182157"><ele>305.6666666666667</ele><time>2026-03-22T09:03:21Z</time></trkpt><trkpt lat="45.42695056535704" lon="11.547570197096706"><ele>310.0</ele><time>2026-03-22T09:03:24Z</time></trkpt><trkpt lat="45.426892356022165" lon="11.547526516305206"><ele>314.33333333333337</ele><time>2026-03-22T09:03:26Z</time></trkpt><trkpt lat="45.426813747001525" lon="11.547495429671635"><ele>318.6666666666667</ele><time>2026-03-22T09:03:29Z</time></trkpt><trkpt lat="45.42675319925673" lon="11.547456430357816"><ele>323.0</ele><time>2026-03-22T09:03:31Z</time></trkpt><trkpt lat="45.42666636387269" lon="11.547432997899724"><ele>323.00000000000006</ele><time>2026-03-22T09:03:33.999Z</time></trkpt><trkpt lat="45.426597286851084" lon="11.547421948944507"><ele>323.0</ele><time>2026-03-22T09:03:36.999Z</time></trkpt><trkpt lat="45.426519427808024" lon="11.547410858244204"><ele>323.0</ele><time>2026-03-22T09:03:40.999Z</time></trkpt><trkpt lat="45.426456515965796" lon="11.547400794303321"><ele>323.0</ele><time>2026-03-22T09:03:44.999Z</time></trkpt><trkpt lat="45.42652409909046" lon="11.547327576606293"><ele>323.0</ele><time>2026-03-22T09:03:48.999Z</time></trkpt><trkpt lat="45.42659493186074" lon="11.547283701068105"><ele>323.00000000000006</ele><time>2026-03-22T09:03:52.999Z</time></trkpt><trkpt lat="45.426667095682056" lon="11.547262042882874"><ele>323.0</ele><time>2026-03-22T09:03:56.999Z</time></trkpt><trkpt lat="45.426733740400685" lon="11.547220678937803"><ele>323.0</ele><time>2026-03-22T09:03:59.999Z</time></trkpt><trkpt lat="45.426803578114736" lon="11.547202320409081"><ele>323.0</ele><time>2026-03-22T09:04:03.999Z</time></trkpt><trkpt lat="45.426880872505954" lon="11.547211902727133"><ele>323.0</ele><time>2026-03-22T09:04:08.999Z</time></trkpt><trkpt lat="45.426945736573444" lon="11.547226436798072"><ele>323.0</ele><time>2026-03-22T09:04:10.999Z</time></trkpt><trkpt lat="45.427041613361745" lon="11.547239284874625"><ele>323.0</ele><time>2026-03-22T09:04:13.999Z</time></trkpt><trkpt lat="45.427109233680646" lon="11.54725926168783"><ele>323.0</ele><time>2026-03-22T09:04:15.998Z</time></trkpt><trkpt lat="45.42718425803717" lon="11.547277114653525"><ele>324.5714285714286</ele><time>2026-03-22T09:04:18.998Z</time></trkpt><trkpt lat="45.427254357458" lon="11.547331426561815"><ele>326.14285714285717</ele><time>2026-03-22T09:04:21.998Z</time></trkpt><trkpt lat="45.42732414549489" lon="11.547368692053125"><ele>327.7142857142857</ele><time>2026-03-22T09:04:26.998Z</time></trkpt><trkpt lat="45.427388779745385" lon="11.547410912774021"><ele>329.28571428571433</ele><time>2026-03-22T09:04:30.998Z</time></trkpt><trkpt lat="45.42745788673941" lon="11.547423673897212"><ele>330.8571428571429</ele><time>2026-03-22T09:04:34.998Z</time></trkpt><trkpt lat="45.42753014377007" lon="11.54743051673092"><ele>332.42857142857144</ele><time>2026-03-22T09:04:38.998Z</time></trkpt><trkpt lat="45.42759339580961" lon="11.54744308594604"><ele>334.0</ele><time>2026-03-22T09:04:42.998Z</time></trkpt><trkpt lat="45.42766734959694" lon="11.547432688369005"><ele>334.0</ele><time>2026-03-22T09:04:46.998Z</time></trkpt><trkpt lat="45.42773692188431" lon="11.547419175112402"><ele>334.0</ele><time>2026-03-22T09:04:50.998Z</time></trkpt><trkpt lat="45.427806753283086" lon="11.547420138976591"><ele>334.0</ele><time>2026-03-22T09:04:54.997Z</time></trkpt><trkpt lat="45.427882231762894" lon="11.54740051706252"><ele>334.0</ele><time>2026-03-22T09:04:58.997Z</time></trkpt><trkpt lat="45.42794825916676" lon="11.547372788156268"><ele>334.0</ele><time>2026-03-22T09:05:02.997Z</time></trkpt><trkpt lat="45.428009677256306" lon="11.547342487428528"><ele>334.0</ele><time>2026-03-22T09:05:06.997Z</time></trkpt><trkpt lat="45.42807781828808" lon="11.547302226010334"><ele>334.0</ele><time>2026-03-22T09:05:10.997Z</time></trkpt><trkpt lat="45.42814881287294" lon="11.547241243498451"><ele>335.8333333333333</ele><time>2026-03-22T09:05:15Z</time></trkpt><trkpt lat="45.428227940726124" lon="11.547199538495864"><ele>337.66666666666663</ele><time>2026-03-22T09:05:19Z</time></trkpt><trkpt lat="45.4283032062478" lon="11.547167253493503"><ele>339.5</ele><time>2026-03-22T09:05:22Z</time></trkpt><trkpt lat="45.42839902708305" lon="11.547196172236202"><ele>341.3333333333333</ele><time>2026-03-22T09:05:25Z</time></trkpt><trkpt lat="45.42847008470983" lon="11.547213290326901"><ele>343.1666666666667</ele><time>2026-03-22T09:05:27Z</time></trkpt><trkpt lat="45.428542066868815" lon="11.547246389688413"><ele>345.0</ele><time>2026-03-22T09:05:30Z</time></trkpt><trkpt lat="45.42860389457771" lon="11.547295816453515"><ele>345.0</ele><time>2026-03-22T09:05:33Z</time></trkpt><trkpt lat="45.428674374490306" lon="11.547339344224053"><ele>345.0</ele><time>2026-03-22T09:05:36Z</time></trkpt><trkpt lat="45.428739005337604" lon="11.547379668251507"><ele>345.0</ele><time>2026-03-22T09:05:39Z</time></trkpt><trkpt lat="45.428804088406636" lon="11.547432162064279"><ele>345.0</ele><time>2026-03-22T09:05:43Z</time></trkpt><trkpt lat="45.42888037228066" lon="11.547477223094845"><ele>345.0</ele><time>2026-03-22T09:05:46.999Z</time></trkpt><trkpt lat="45.42895114390641" lon="11.54749805076134"><ele>345.0</ele><time>2026-03-22T09:05:49.999Z</time></trkpt><trkpt lat="45.42889839512894" lon="11.547422214626614"><ele>345.0</ele><time>2026-03-22T09:07:17.997Z</time></trkpt><trkpt lat="45.42883495629459" lon="11.547360187191284"><ele>345.0</ele><time>2026-03-22T09:07:21Z</time></trkpt><trkpt lat="45.42876898190746" lon="11.547312603469255"><ele>345.0</ele><time>2026-03-22T09:07:23Z</time></trkpt><trkpt lat="45.42871868439503" lon="11.54722503076256"><ele>345.0</ele><time>2026-03-22T09:07:26Z</time></trkpt><trkpt lat="45.428659686445286" lon="11.547163081587"><ele>345.0</ele><time>2026-03-22T09:07:28Z</time></trkpt><trkpt lat="45.42860722729627" lon="11.547050344833867"><ele>345.0</ele><time>2026-03-22T09:07:31Z</time></trkpt><trkpt lat="45.42856918599641" lon="11.546938085639583"><ele>348.6666666666667</ele><time>2026-03-22T09:07:34Z</time></trkpt><trkpt lat="45.42850344184852" lon="11.546857604063701"><ele>352.3333333333333</ele><time>2026-03-22T09:07:37Z</time></trkpt><trkpt lat="45.42844378792995" lon="11.546779222688192"><ele>356.0</ele><time>2026-03-22T09:07:40Z</time></trkpt><trkpt lat="45.42839323756025" lon="11.54668168355845"><ele>359.66666666666663</ele><time>2026-03-22T09:07:43Z</time></trkpt><trkpt lat="45.42834507471135" lon="11.546599131627206"><ele>363.3333333333333</ele><time>2026-03-22T09:07:46Z</time></trkpt><trkpt lat="45.42833081735575" lon="11.546510253507227"><ele>367.0</ele><time>2026-03-22T09:07:48Z</time></trkpt><trkpt lat="45.42832831981087" lon="11.546413088112423"><ele>367.0</ele><time>2026-03-22T09:07:51Z</time></trkpt><trkpt lat="45.42832314799274" lon="11.546307110421099"><ele>367.0</ele><time>2026-03-22T09:07:55Z</time></trkpt><trkpt lat="45.42832125424151" lon="11.546204984997015"><ele>367.0</ele><time>2026-03-22T09:07:57.999Z</time></trkpt><trkpt lat="45.42832636390171" lon="11.546101369034469"><ele>367.0</ele><time>2026-03-22T09:08:00.999Z</time></trkpt><trkpt lat="45.42834374824217" lon="11.54599652778021"><ele>367.0</ele><time>2026-03-22T09:08:03.999Z</time></trkpt><trkpt lat="45.428347005550364" lon="11.545887268823359"><ele>367.0</ele><time>2026-03-22T09:08:07.999Z</time></trkpt><trkpt lat="45.42836221808892" lon="11.545773121901343"><ele>368.1428571428571</ele><time>2026-03-22T09:08:10.999Z</time></trkpt><trkpt lat="45.428380184358225" lon="11.545681452797714"><ele>369.28571428571433</ele><time>2026-03-22T09:08:12.999Z</time></trkpt><trkpt lat="45.428421551068396" lon="11.545570341869915"><ele>370.42857142857144</ele><time>2026-03-22T09:08:16.999Z</time></trkpt><trkpt lat="45.4284167422758" lon="11.545468767326833"><ele>371.57142857142856</ele><time>2026-03-22T09:08:20.999Z</time></trkpt><trkpt lat="45.42843269344954" lon="11.545380177663468"><ele>372.71428571428567</ele><time>2026-03-22T09:08:24.999Z</time></trkpt><trkpt lat="45.42840628344964" lon="11.545283622154559"><ele>373.8571428571429</ele><time>2026-03-22T09:08:28.999Z</time></trkpt><trkpt lat="45.428350021028756" lon="11.545225706401784"><ele>375.0</ele><time>2026-03-22T09:08:33.999Z</time></trkpt><trkpt lat="45.428321061688166" lon="11.545116562115135"><ele>375.0</ele><time>2026-03-22T09:08:38.998Z</time></trkpt><trkpt lat="45.42830576469399" lon="11.545007561321723"><ele>375.0</ele><time>2026-03-22T09:08:42.998Z</time></trkpt><trkpt lat="45.42828624760933" lon="11.54492198443337"><ele>375.0</ele><time>2026-03-22T09:08:45.998Z</time></trkpt><trkpt lat="45.42825554108099" lon="11.54483424234604"><ele>375.0</ele><time>2026-03-22T09:08:47.998Z</time></trkpt><trkpt lat="45.42826476525895" lon="11.544738061324605"><ele>375.0</ele><time>2026-03-22T09:08:49.998Z</time></trkpt><trkpt lat="45.4282521325612" lon="11.544634172361715"><ele>375.0</ele><time>2026-03-22T09:08:53.998Z</time></trkpt><trkpt lat="45.428233868398316" lon="11.544530964038742"><ele>375.0</ele><time>2026-03-22T09:08:57.998Z</time></trkpt><trkpt lat="45.428242496889325" lon="11.544424399011625"><ele>374.3333333333333</ele><time>2026-03-22T09:09:02.998Z</time></trkpt><trkpt lat="45.4281865849719" lon="11.544372678604162"><ele>373.6666666666667</ele><time>2026-03-22T09:09:05.998Z</time></trkpt><trkpt lat="45.428113370930156" lon="11.544353128648703"><ele>373.0</ele><time>2026-03-22T09:09:10.998Z</time></trkpt><trkpt lat="45.428037451880265" lon="11.544300055243045"><ele>372.33333333333337</ele><time>2026-03-22T09:09:15.997Z</time></trkpt><trkpt lat="45.42799746877624" lon="11.544217025898403"><ele>371.6666666666667</ele><time>2026-03-22T09:09:18.997Z</time></trkpt><trkpt lat="45.42791815339492" lon="11.544179171606338"><ele>371.0</ele><time>2026-03-22T09:09:21.997Z</time></trkpt><trkpt lat="45.42786094884281" lon="11.544241078043102"><ele>372.57142857142856</ele><time>2026-03-22T09:09:25.997Z</time></trkpt><trkpt lat="45.42780390376428" lon="11.544298421238407"><ele>374.1428571428571</ele><time>2026-03-22T09:09:29Z</time></trkpt><trkpt lat="45.4277441865636" lon="11.544349417606902"><ele>375.7142857142857</ele><time>2026-03-22T09:09:34Z</time></trkpt><trkpt lat="45.427677303677385" lon="11.544413820629945"><ele>377.2857142857143</ele><time>2026-03-22T09:09:38Z</time></trkpt><trkpt lat="45.42761931065113" lon="11.544464475027384"><ele>378.85714285714283</ele><time>2026-03-22T09:09:42Z</time></trkpt><trkpt lat="45.42758369505661" lon="11.54453873272265"><ele>380.42857142857144</ele><time>2026-03-22T09:09:46Z</time></trkpt><trkpt lat="45.42754504595048" lon="11.54463934579589"><ele>382.0</ele><time>2026-03-22T09:09:51Z</time></trkpt><trkpt lat="45.42748979326898" lon="11.544726046742715"><ele>382.0</ele><time>2026-03-22T09:09:55Z</time></trkpt><trkpt lat="45.42743577109811" lon="11.54480671946666"><ele>382.0</ele><time>2026-03-22T09:09:59Z</time></trkpt><trkpt lat="45.42738476330271" lon="11.544876105078737"><ele>382.0</ele><time>2026-03-22T09:10:03Z</time></trkpt><trkpt lat="45.427326374413454" lon="11.544924048236664"><ele>382.0</ele><time>2026-03-22T09:10:05.999Z</time></trkpt><trkpt lat="45.42724066197418" lon="11.544935951229672"><ele>382.0</ele><time>2026-03-22T09:10:08.999Z</time></trkpt><trkpt lat="45.427178735689075" lon="11.544888001307191"><ele>382.0</ele><time>2026-03-22T09:10:11.999Z</time></trkpt><trkpt lat="45.42712670536985" lon="11.544824022766598"><ele>382.0</ele><time>2026-03-22T09:10:14.999Z</time></trkpt><trkpt lat="45.427057507919216" lon="11.544771738059822"><ele>382.5</ele><time>2026-03-22T09:10:17.999Z</time></trkpt><trkpt lat="45.42699037607805" lon="11.544701995671831"><ele>383.0</ele><time>2026-03-22T09:10:21.999Z</time></trkpt><trkpt lat="45.42692700605614" lon="11.544649022695959"><ele>383.5</ele><time>2026-03-22T09:10:24.999Z</time></trkpt><trkpt lat="45.42684311812465" lon="11.544566268130136"><ele>384.0</ele><time>2026-03-22T09:10:27.999Z</time></trkpt><trkpt lat="45.426776072652096" lon="11.544468816557444"><ele>384.50000000000006</ele><time>2026-03-22T09:10:29.999Z</time></trkpt><trkpt lat="45.42671980672673" lon="11.544404251009217"><ele>385.0</ele><time>2026-03-22T09:10:32.999Z</time></trkpt><trkpt lat="45.42666207889758" lon="11.54433935076992"><ele>385.00000000000006</ele><time>2026-03-22T09:10:34.999Z</time></trkpt><trkpt lat="45.42662663676505" lon="11.544226493561723"><ele>385.0</ele><time>2026-03-22T09:10:37.999Z</time></trkpt><trkpt lat="45.42661237967821" lon="11.544137884180687"><ele>385.0</ele><time>2026-03-22T09:10:39.999Z</time></trkpt><trkpt lat="45.426509050351505" lon="11.544104512569078"><ele>385.0</ele><time>2026-03-22T09:10:41.999Z</time></trkpt><trkpt lat="45.42645482436763" lon="11.5440467632334"><ele>385.00000000000006</ele><time>2026-03-22T09:10:43.998Z</time></trkpt><trkpt lat="45.42641603404646" lon="11.54394850452127"><ele>385.0</ele><time>2026-03-22T09:10:48.998Z</time></trkpt><trkpt lat="45.42634251927738" lon="11.54392907373629"><ele>384.33333333333337</ele><time>2026-03-22T09:10:55.998Z</time></trkpt><trkpt lat="45.42626592045647" lon="11.543864996192394"><ele>383.6666666666667</ele><time>2026-03-22T09:10:58.998Z</time></trkpt><trkpt lat="45.426210713060904" lon="11.543816442106932"><ele>383.0</ele><time>2026-03-22T09:11:00.998Z</time></trkpt><trkpt lat="45.42614493484715" lon="11.54375554360685"><ele>382.33333333333337</ele><time>2026-03-22T09:11:03.998Z</time></trkpt><trkpt lat="45.426061042184244" lon="11.543709479190122"><ele>381.6666666666667</ele><time>2026-03-22T09:11:06.998Z</time></trkpt><trkpt lat="45.42604533585747" lon="11.543576843989387"><ele>381.0</ele><time>2026-03-22T09:11:09.998Z</time></trkpt><trkpt lat="45.42606399469324" lon="11.543488328737459"><ele>381.0</ele><time>2026-03-22T09:11:11.998Z</time></trkpt><trkpt lat="45.426061586329524" lon="11.543373709392041"><ele>381.0</ele><time>2026-03-22T09:11:14.998Z</time></trkpt><trkpt lat="45.42606970370395" lon="11.543266901535661"><ele>381.0</ele><time>2026-03-22T09:11:18.998Z</time></trkpt><trkpt lat="45.426082598245536" lon="11.543166778469216"><ele>381.0</ele><time>2026-03-22T09:11:20.998Z</time></trkpt><trkpt lat="45.426092067278624" lon="11.543058530925379"><ele>381.0</ele><time>2026-03-22T09:11:23.997Z</time></trkpt><trkpt lat="45.42605057142213" lon="11.542936130372821"><ele>381.0</ele><time>2026-03-22T09:11:26.997Z</time></trkpt><trkpt lat="45.42600497768429" lon="11.542869473868963"><ele>382.6666666666667</ele><time>2026-03-22T09:11:28.997Z</time></trkpt><trkpt lat="45.42592903908276" lon="11.542815692826128"><ele>384.33333333333337</ele><time>2026-03-22T09:11:31.997Z</time></trkpt><trkpt lat="45.42584383067267" lon="11.542776307245028"><ele>386.0</ele><time>2026-03-22T09:11:35Z</time></trkpt><trkpt lat="45.42577355778313" lon="11.542776704792026"><ele>387.6666666666667</ele><time>2026-03-22T09:11:37Z</time></trkpt><trkpt lat="45.42570603199465" lon="11.542712254844806"><ele>389.33333333333337</ele><time>2026-03-22T09:11:39Z</time></trkpt><trkpt lat="45.42566610604708" lon="11.542624242993258"><ele>391.0</ele><time>2026-03-22T09:11:42Z</time></trkpt><trkpt lat="45.42561427213598" lon="11.542562847761065"><ele>391.00000000000006</ele><time>2026-03-22T09:11:44Z</time></trkpt><trkpt lat="45.42555601090611" lon="11.54249759574184"><ele>391.0</ele><time>2026-03-22T09:11:46Z</time></trkpt><trkpt lat="45.425484925921374" lon="11.54245134051501"><ele>391.0</ele><time>2026-03-22T09:11:49Z</time></trkpt><trkpt lat="45.42541003267694" lon="11.542412295718474"><ele>391.0</ele><time>2026-03-22T09:11:53Z</time></trkpt><trkpt lat="45.425320337574064" lon="11.542357951932626"><ele>391.00000000000006</ele><time>2026-03-22T09:11:56Z</time></trkpt><trkpt lat="45.42526746023558" lon="11.542262947370954"><ele>391.0</ele><time>2026-03-22T09:11:59Z</time></trkpt><trkpt lat="45.42519226981878" lon="11.542158412766893"><ele>390.99999999999994</ele><time>2026-03-22T09:12:02Z</time></trkpt><trkpt lat="45.42514977783367" lon="11.542089345218569"><ele>391.0</ele><time>2026-03-22T09:12:04Z</time></trkpt><trkpt lat="45.42511314580364" lon="11.542003660724108"><ele>391.0</ele><time>2026-03-22T09:12:06.999Z</time></trkpt><trkpt lat="45.42507191490981" lon="11.541928965837647"><ele>391.0</ele><time>2026-03-22T09:12:09.999Z</time></trkpt><trkpt lat="45.42500335093859" lon="11.541875600742278"><ele>391.0</ele><time>2026-03-22T09:12:12.999Z</time></trkpt><trkpt lat="45.42494853764017" lon="11.541798595195669"><ele>390.99999999999994</ele><time>2026-03-22T09:12:14.999Z</time></trkpt><trkpt lat="45.424921489118454" lon="11.541696891040633"><ele>391.0</ele><time>2026-03-22T09:12:18.999Z</time></trkpt><trkpt lat="45.42489445994881" lon="11.541607720775803"><ele>391.00000000000006</ele><time>2026-03-22T09:12:21.999Z</time></trkpt><trkpt lat="45.424861125496115" lon="11.54151327495723"><ele>391.0</ele><time>2026-03-22T09:12:24.999Z</time></trkpt><trkpt lat="45.42484684582754" lon="11.541409671084619"><ele>391.0</ele><time>2026-03-22T09:12:27.999Z</time></trkpt><trkpt lat="45.42483576379074" lon="11.541321175856206"><ele>391.0</ele><time>2026-03-22T09:12:30.999Z</time></trkpt><trkpt lat="45.42487398871862" lon="11.541206876135092"><ele>391.00000000000006</ele><time>2026-03-22T09:12:33.999Z</time></trkpt><trkpt lat="45.4249181430315" lon="11.541111962622134"><ele>391.0</ele><time>2026-03-22T09:12:36.999Z</time></trkpt><trkpt lat="45.424951048354416" lon="11.540997139839956"><ele>390.4285714285714</ele><time>2026-03-22T09:12:39.999Z</time></trkpt><trkpt lat="45.42500682294967" lon="11.540943226669084"><ele>389.85714285714283</ele><time>2026-03-22T09:12:42.999Z</time></trkpt><trkpt lat="45.425074012346705" lon="11.540866966818879"><ele>389.2857142857143</ele><time>2026-03-22T09:12:45.998Z</time></trkpt><trkpt lat="45.425138074018456" lon="11.54079613600549"><ele>388.71428571428567</ele><time>2026-03-22T09:12:48.998Z</time></trkpt><trkpt lat="45.42519846143521" lon="11.540823246103594"><ele>388.14285714285717</ele><time>2026-03-22T09:12:50.998Z</time></trkpt><trkpt lat="45.42525874466626" lon="11.54087393430971"><ele>387.57142857142856</ele><time>2026-03-22T09:12:53.998Z</time></trkpt><trkpt lat="45.42533293992845" lon="11.540916386922015"><ele>387.0</ele><time>2026-03-22T09:12:57.998Z</time></trkpt><trkpt lat="45.425401117693056" lon="11.540940778858307"><ele>387.0</ele><time>2026-03-22T09:13:01.998Z</time></trkpt><trkpt lat="45.42546479087472" lon="11.54096658710925"><ele>387.0</ele><time>2026-03-22T09:13:05.998Z</time></trkpt><trkpt lat="45.42553498201219" lon="11.54098606599513"><ele>387.0</ele><time>2026-03-22T09:13:08.998Z</time></trkpt><trkpt lat="45.42561362728528" lon="11.54100641074758"><ele>387.0</ele><time>2026-03-22T09:13:12.998Z</time></trkpt><trkpt lat="45.425696118506174" lon="11.541025456540812"><ele>387.0</ele><time>2026-03-22T09:13:16.998Z</time></trkpt><trkpt lat="45.42577568199451" lon="11.541005764028922"><ele>387.0</ele><time>2026-03-22T09:13:20.998Z</time></trkpt><trkpt lat="45.42584095056944" lon="11.540987627387691"><ele>387.0</ele><time>2026-03-22T09:13:23.997Z</time></trkpt><trkpt lat="45.42590889072542" lon="11.540962214212305"><ele>389.0</ele><time>2026-03-22T09:13:26.997Z</time></trkpt><trkpt lat="45.42597810202186" lon="11.540921200123432"><ele>391.0</ele><time>2026-03-22T09:13:30.997Z</time></trkpt><trkpt lat="45.426039041797445" lon="11.54087830748414"><ele>393.0</ele><time>2026-03-22T09:13:33.997Z</time></trkpt><trkpt lat="45.426102681869494" lon="11.540824150999278"><ele>395.0</ele><time>2026-03-22T09:13:36.997Z</time></trkpt><trkpt lat="45.42617252949511" lon="11.54074714997537"><ele>397.0</ele><time>2026-03-22T09:13:40Z</time></trkpt><trkpt lat="45.42623022006501" lon="11.540691712801477"><ele>399.0</ele><time>2026-03-22T09:13:42Z</time></trkpt><trkpt lat="45.42628277235439" lon="11.54062075904371"><ele>401.0</ele><time>2026-03-22T09:13:44Z</time></trkpt><trkpt lat="45.4263323410782" lon="11.540561840509474"><ele>400.99999999999994</ele><time>2026-03-22T09:13:46Z</time></trkpt><trkpt lat="45.426394430960315" lon="11.540486769493128"><ele>401.0</ele><time>2026-03-22T09:13:48Z</time></trkpt><trkpt lat="45.42648845104397" lon="11.540429831955747"><ele>401.0</ele><time>2026-03-22T09:13:50Z</time></trkpt><trkpt lat="45.42658707609746" lon="11.540369273765341"><ele>401.0</ele><time>2026-03-22T09:13:52Z</time></trkpt><trkpt lat="45.42666863683452" lon="11.540341540633271"><ele>400.99999999999994</ele><time>2026-03-22T09:13:55Z</time></trkpt><trkpt lat="45.42673430338576" lon="11.540335231659737"><ele>401.0</ele><time>2026-03-22T09:13:58Z</time></trkpt><trkpt lat="45.42680919296667" lon="11.540253016430341"><ele>401.0</ele><time>2026-03-22T09:14:01Z</time></trkpt><trkpt lat="45.42689353491549" lon="11.540209804539641"><ele>401.0</ele><time>2026-03-22T09:14:03Z</time></trkpt><trkpt lat="45.42701479186231" lon="11.540187236270569"><ele>401.0</ele><time>2026-03-22T09:14:05Z</time></trkpt><trkpt lat="45.42711394690533" lon="11.54012710301942"><ele>401.0</ele><time>2026-03-22T09:14:07Z</time></trkpt><trkpt lat="45.427198148252536" lon="11.540036526779929"><ele>401.0</ele><time>2026-03-22T09:14:09Z</time></trkpt><trkpt lat="45.4273055552312" lon="11.540030548596926"><ele>401.16666666666663</ele><time>2026-03-22T09:14:10.999Z</time></trkpt><trkpt lat="45.42739803137976" lon="11.540073476000519"><ele>401.3333333333333</ele><time>2026-03-22T09:14:12.999Z</time></trkpt><trkpt lat="45.42748234110926" lon="11.540132941153427"><ele>401.5</ele><time>2026-03-22T09:14:14.999Z</time></trkpt><trkpt lat="45.427552567634244" lon="11.540184794893294"><ele>401.66666666666663</ele><time>2026-03-22T09:14:17.999Z</time></trkpt><trkpt lat="45.427625278723056" lon="11.540173835312538"><ele>401.8333333333333</ele><time>2026-03-22T09:14:19.999Z</time></trkpt><trkpt lat="45.42769782881616" lon="11.540174105168832"><ele>402.0</ele><time>2026-03-22T09:14:21.999Z</time></trkpt><trkpt lat="45.427774863462815" lon="11.540139522447172"><ele>402.0</ele><time>2026-03-22T09:14:24.999Z</time></trkpt><trkpt lat="45.42786107449625" lon="11.540115917637074"><ele>402.0</ele><time>2026-03-22T09:14:27.999Z</time></trkpt><trkpt lat="45.427926557074166" lon="11.540082976516215"><ele>402.0</ele><time>2026-03-22T09:14:30.999Z</time></trkpt><trkpt lat="45.42799032883608" lon="11.54003324265905"><ele>402.0</ele><time>2026-03-22T09:14:33.999Z</time></trkpt><trkpt lat="45.42805776691286" lon="11.539967238827868"><ele>402.0</ele><time>2026-03-22T09:14:37.999Z</time></trkpt><trkpt lat="45.42814192009154" lon="11.53991154963096"><ele>402.0</ele><time>2026-03-22T09:14:41.999Z</time></trkpt><trkpt lat="45.42821149289654" lon="11.539886596955059"><ele>401.20000000000005</ele><time>2026-03-22T09:14:43.999Z</time></trkpt><trkpt lat="45.42832893634811" lon="11.53989522631839"><ele>400.4</ele><time>2026-03-22T09:14:45.999Z</time></trkpt><trkpt lat="45.42842292753415" lon="11.539884213844253"><ele>399.6</ele><time>2026-03-22T09:14:47.999Z</time></trkpt><trkpt lat="45.428528023550385" lon="11.53990476511691"><ele>398.79999999999995</ele><time>2026-03-22T09:14:49.998Z</time></trkpt><trkpt lat="45.42860985453897" lon="11.53993545134971"><ele>398.0</ele><time>2026-03-22T09:14:51.998Z</time></trkpt><trkpt lat="45.42866472509108" lon="11.539998647687296"><ele>397.99999999999994</ele><time>2026-03-22T09:14:56.998Z</time></trkpt><trkpt lat="45.42873112752506" lon="11.540031068518953"><ele>398.0</ele><time>2026-03-22T09:15:00.998Z</time></trkpt><trkpt lat="45.42884705861618" lon="11.540054053215437"><ele>398.0</ele><time>2026-03-22T09:15:05.998Z</time></trkpt><trkpt lat="45.42892583748502" lon="11.540030606019391"><ele>398.0</ele><time>2026-03-22T09:15:09.998Z</time></trkpt><trkpt lat="45.42900169695542" lon="11.539984597829658"><ele>397.99999999999994</ele><time>2026-03-22T09:15:12.998Z</time></trkpt><trkpt lat="45.429080584723145" lon="11.539966705480074"><ele>398.0</ele><time>2026-03-22T09:15:15.998Z</time></trkpt><trkpt lat="45.42916744444967" lon="11.539942815416529"><ele>397.99999999999994</ele><time>2026-03-22T09:15:19.998Z</time></trkpt><trkpt lat="45.42923122109564" lon="11.539901606217805"><ele>398.0</ele><time>2026-03-22T09:15:22.998Z</time></trkpt><trkpt lat="45.4292982323447" lon="11.539857240073744"><ele>398.0</ele><time>2026-03-22T09:15:26.998Z</time></trkpt><trkpt lat="45.42936396120437" lon="11.539817183642205"><ele>398.0</ele><time>2026-03-22T09:15:29.997Z</time></trkpt><trkpt lat="45.4294467053413" lon="11.539765291363944"><ele>397.99999999999994</ele><time>2026-03-22T09:15:32.997Z</time></trkpt><trkpt lat="45.42953468801877" lon="11.539693236482389"><ele>398.0</ele><time>2026-03-22T09:15:34.997Z</time></trkpt><trkpt lat="45.42960712446526" lon="11.539678800265861"><ele>398.2</ele><time>2026-03-22T09:15:35.997Z</time></trkpt><trkpt lat="45.42969016487792" lon="11.539708402466506"><ele>398.4</ele><time>2026-03-22T09:15:36.997Z</time></trkpt><trkpt lat="45.42976438548468" lon="11.539758146926918"><ele>398.59999999999997</ele><time>2026-03-22T09:15:38.997Z</time></trkpt><trkpt lat="45.42984161212535" lon="11.53976186650405"><ele>398.79999999999995</ele><time>2026-03-22T09:15:40.997Z</time></trkpt><trkpt lat="45.429902088437125" lon="11.539736459085486"><ele>399.0</ele><time>2026-03-22T09:15:42.997Z</time></trkpt><trkpt lat="45.4301399235115" lon="11.539724689606372"><ele>399.0</ele><time>2026-03-22T09:15:49Z</time></trkpt><trkpt lat="45.4302381402107" lon="11.539731522239155"><ele>399.0</ele><time>2026-03-22T09:15:53Z</time></trkpt><trkpt lat="45.43031115157965" lon="11.539757507172151"><ele>399.0</ele><time>2026-03-22T09:15:54Z</time></trkpt><trkpt lat="45.4304027158316" lon="11.53977435763248"><ele>399.0</ele><time>2026-03-22T09:15:56Z</time></trkpt><trkpt lat="45.43048523991782" lon="11.53976009951654"><ele>399.0</ele><time>2026-03-22T09:15:58Z</time></trkpt><trkpt lat="45.43058061637926" lon="11.539779124060887"><ele>399.0</ele><time>2026-03-22T09:16:00Z</time></trkpt><trkpt lat="45.43064987221045" lon="11.539768213717181"><ele>399.42857142857144</ele><time>2026-03-22T09:16:02Z</time></trkpt><trkpt lat="45.43072297095304" lon="11.539743679350163"><ele>399.8571428571429</ele><time>2026-03-22T09:16:04Z</time></trkpt><trkpt lat="45.43079244647721" lon="11.5397563303407"><ele>400.2857142857143</ele><time>2026-03-22T09:16:07Z</time></trkpt><trkpt lat="45.43086586674143" lon="11.539765706260784"><ele>400.7142857142857</ele><time>2026-03-22T09:16:10Z</time></trkpt><trkpt lat="45.43093860037987" lon="11.539768161133876"><ele>401.14285714285717</ele><time>2026-03-22T09:16:13Z</time></trkpt><trkpt lat="45.4310027772339" lon="11.53977886838264"><ele>401.57142857142856</ele><time>2026-03-22T09:16:16Z</time></trkpt><trkpt lat="45.43106935059449" lon="11.539819180608452"><ele>402.0</ele><time>2026-03-22T09:16:18.999Z</time></trkpt><trkpt lat="45.43116118449925" lon="11.539860002120358"><ele>402.0</ele><time>2026-03-22T09:18:20Z</time></trkpt><trkpt lat="45.43119826342497" lon="11.539940207568298"><ele>402.0</ele><time>2026-03-22T09:18:25.999Z</time></trkpt><trkpt lat="45.43116494817136" lon="11.539730376642511"><ele>402.0</ele><time>2026-03-22T09:18:34.999Z</time></trkpt><trkpt lat="45.431137379937034" lon="11.539582368393358"><ele>402.0</ele><time>2026-03-22T09:18:37.999Z</time></trkpt><trkpt lat="45.43111926256465" lon="11.539486131465855"><ele>402.0</ele><time>2026-03-22T09:18:38.999Z</time></trkpt><trkpt lat="45.431108552741236" lon="11.539389049104072"><ele>400.5</ele><time>2026-03-22T09:18:39.999Z</time></trkpt><trkpt lat="45.43105671790009" lon="11.539303291440945"><ele>399.0</ele><time>2026-03-22T09:18:41.999Z</time></trkpt><trkpt lat="45.43101002492369" lon="11.53922826237708"><ele>397.5</ele><time>2026-03-22T09:18:44.999Z</time></trkpt><trkpt lat="45.43095007989909" lon="11.539194051170533"><ele>396.0</ele><time>2026-03-22T09:18:46.999Z</time></trkpt><trkpt lat="45.43087981336547" lon="11.539157959913673"><ele>394.5</ele><time>2026-03-22T09:18:48.999Z</time></trkpt><trkpt lat="45.43080847282315" lon="11.539058451234459"><ele>393.0</ele><time>2026-03-22T09:18:51.999Z</time></trkpt><trkpt lat="45.43081079102794" lon="11.538951897711522"><ele>393.0</ele><time>2026-03-22T09:18:54.999Z</time></trkpt><trkpt lat="45.43087328002259" lon="11.538920203631609"><ele>393.0</ele><time>2026-03-22T09:18:56.999Z</time></trkpt><trkpt lat="45.43094844352213" lon="11.538867357842241"><ele>393.0</ele><time>2026-03-22T09:18:58.999Z</time></trkpt><trkpt lat="45.43098506215662" lon="11.538772547379448"><ele>393.0</ele><time>2026-03-22T09:19:00.999Z</time></trkpt><trkpt lat="45.43106218331756" lon="11.538668852451774"><ele>393.0</ele><time>2026-03-22T09:19:02.998Z</time></trkpt><trkpt lat="45.431121270736895" lon="11.53863547254817"><ele>393.0</ele><time>2026-03-22T09:19:03.998Z</time></trkpt><trkpt lat="45.43121510136728" lon="11.53853792415222"><ele>392.5</ele><time>2026-03-22T09:19:05.998Z</time></trkpt><trkpt lat="45.43131294393417" lon="11.538467423466981"><ele>392.0</ele><time>2026-03-22T09:19:07.998Z</time></trkpt><trkpt lat="45.431353447548304" lon="11.538379006797946"><ele>391.5</ele><time>2026-03-22T09:19:09.998Z</time></trkpt><trkpt lat="45.43140106173269" lon="11.538267029343778"><ele>391.0</ele><time>2026-03-22T09:19:11.998Z</time></trkpt><trkpt lat="45.43144600808896" lon="11.538146024045336"><ele>390.5</ele><time>2026-03-22T09:19:13.998Z</time></trkpt><trkpt lat="45.43146065822676" lon="11.53805405394671"><ele>390.0</ele><time>2026-03-22T09:19:14.998Z</time></trkpt><trkpt lat="45.43149763177498" lon="11.537979027193783"><ele>390.0</ele><time>2026-03-22T09:19:15.998Z</time></trkpt><trkpt lat="45.4315289361297" lon="11.537894970825505"><ele>390.0</ele><time>2026-03-22T09:19:16.998Z</time></trkpt><trkpt lat="45.43160044865092" lon="11.53778219659445"><ele>390.0</ele><time>2026-03-22T09:19:18.998Z</time></trkpt><trkpt lat="45.431681952053104" lon="11.537691602911938"><ele>390.0</ele><time>2026-03-22T09:19:20.998Z</time></trkpt><trkpt lat="45.43176029547856" lon="11.537576950917806"><ele>390.0</ele><time>2026-03-22T09:19:22.998Z</time></trkpt><trkpt lat="45.431856755359426" lon="11.53748278919868"><ele>387.4</ele><time>2026-03-22T09:19:24.998Z</time></trkpt><trkpt lat="45.43195101878675" lon="11.53737421357232"><ele>384.8</ele><time>2026-03-22T09:19:26.998Z</time></trkpt><trkpt lat="45.43197703615473" lon="11.537292494326218"><ele>382.20000000000005</ele><time>2026-03-22T09:19:27.998Z</time></trkpt><trkpt lat="45.431970893031725" lon="11.537135077401878"><ele>379.6</ele><time>2026-03-22T09:19:29.998Z</time></trkpt><trkpt lat="45.43200656124554" lon="11.53698641571346"><ele>377.0</ele><time>2026-03-22T09:19:31.998Z</time></trkpt><trkpt lat="45.43205109881569" lon="11.53688613214881"><ele>375.6666666666667</ele><time>2026-03-22T09:19:33.998Z</time></trkpt><trkpt lat="45.432091997913886" lon="11.536763011921389"><ele>374.33333333333337</ele><time>2026-03-22T09:19:36.998Z</time></trkpt><trkpt lat="45.43215429701703" lon="11.536715818447831"><ele>373.0</ele><time>2026-03-22T09:19:38.998Z</time></trkpt><trkpt lat="45.43217213126714" lon="11.536590897860918"><ele>371.6666666666667</ele><time>2026-03-22T09:19:40.997Z</time></trkpt><trkpt lat="45.43222405373582" lon="11.53648949067033"><ele>370.3333333333333</ele><time>2026-03-22T09:19:43.997Z</time></trkpt><trkpt lat="45.43227900533535" lon="11.536399912684924"><ele>369.0</ele><time>2026-03-22T09:19:47.997Z</time></trkpt><trkpt lat="45.43233422114317" lon="11.53635218207727"><ele>370.75</ele><time>2026-03-22T09:19:49.997Z</time></trkpt><trkpt lat="45.432474423271394" lon="11.536280989803775"><ele>372.5</ele><time>2026-03-22T09:19:53.997Z</time></trkpt><trkpt lat="45.43255142327179" lon="11.536243539367105"><ele>374.25</ele><time>2026-03-22T09:19:57Z</time></trkpt><trkpt lat="45.43260941953415" lon="11.53618960976463"><ele>376.0</ele><time>2026-03-22T09:19:59Z</time></trkpt><trkpt lat="45.432802875875346" lon="11.536179579491764"><ele>376.0</ele><time>2026-03-22T09:20:06Z</time></trkpt><trkpt lat="45.432879537258614" lon="11.53611419738841"><ele>376.0</ele><time>2026-03-22T09:20:09Z</time></trkpt><trkpt lat="45.43300353938164" lon="11.536111842236025"><ele>376.0</ele><time>2026-03-22T09:20:12Z</time></trkpt><trkpt lat="45.43308895797126" lon="11.536081478830729"><ele>376.0</ele><time>2026-03-22T09:20:14Z</time></trkpt><trkpt lat="45.43315901430395" lon="11.53603673752013"><ele>376.0</ele><time>2026-03-22T09:20:16Z</time></trkpt><trkpt lat="45.43327069722588" lon="11.536022439188232"><ele>377.3333333333333</ele><time>2026-03-22T09:20:18Z</time></trkpt><trkpt lat="45.43339809798857" lon="11.53599642421988"><ele>378.66666666666663</ele><time>2026-03-22T09:20:21Z</time></trkpt><trkpt lat="45.43345055203369" lon="11.535934176985403"><ele>380.0</ele><time>2026-03-22T09:20:23Z</time></trkpt><trkpt lat="45.43352346142837" lon="11.5359042648024"><ele>381.3333333333333</ele><time>2026-03-22T09:20:25Z</time></trkpt><trkpt lat="45.433609765488576" lon="11.535908923215253"><ele>382.6666666666667</ele><time>2026-03-22T09:20:27Z</time></trkpt><trkpt lat="45.43369294260979" lon="11.535949827603615"><ele>384.0</ele><time>2026-03-22T09:20:29Z</time></trkpt><trkpt lat="45.433853572174655" lon="11.535961709138281"><ele>384.1666666666667</ele><time>2026-03-22T09:20:31.999Z</time></trkpt><trkpt lat="45.43388546786059" lon="11.535883988801917"><ele>384.33333333333337</ele><time>2026-03-22T09:20:32.999Z</time></trkpt><trkpt lat="45.4339533939" lon="11.535816881622127"><ele>384.5</ele><time>2026-03-22T09:20:34.999Z</time></trkpt><trkpt lat="45.43400687778179" lon="11.535743276445558"><ele>384.6666666666667</ele><time>2026-03-22T09:20:36.999Z</time></trkpt><trkpt lat="45.434074914544645" lon="11.535662110767703"><ele>384.83333333333337</ele><time>2026-03-22T09:20:38.999Z</time></trkpt><trkpt lat="45.43413751343197" lon="11.535527708770614"><ele>385.0</ele><time>2026-03-22T09:20:40.999Z</time></trkpt><trkpt lat="45.4341890483017" lon="11.535437040011848"><ele>385.00000000000006</ele><time>2026-03-22T09:20:42.999Z</time></trkpt><trkpt lat="45.43416722071632" lon="11.53531985757255"><ele>385.0</ele><time>2026-03-22T09:20:44.999Z</time></trkpt><trkpt lat="45.43414626037989" lon="11.53521497522541"><ele>385.0</ele><time>2026-03-22T09:20:47.999Z</time></trkpt><trkpt lat="45.43415367209839" lon="11.535114318963036"><ele>385.0</ele><time>2026-03-22T09:20:49.999Z</time></trkpt><trkpt lat="45.43415389688487" lon="11.534996596725069"><ele>385.00000000000006</ele><time>2026-03-22T09:20:52.999Z</time></trkpt><trkpt lat="45.43415057711223" lon="11.534898094641012"><ele>385.0</ele><time>2026-03-22T09:20:55.999Z</time></trkpt><trkpt lat="45.43415515203887" lon="11.534793625483738"><ele>385.00000000000006</ele><time>2026-03-22T09:21:00.999Z</time></trkpt><trkpt lat="45.434162410588314" lon="11.534690158623093"><ele>385.0</ele><time>2026-03-22T09:21:03.999Z</time></trkpt><trkpt lat="45.4341526828538" lon="11.534589123124007"><ele>385.0</ele><time>2026-03-22T09:21:06.999Z</time></trkpt><trkpt lat="45.43412351313005" lon="11.534467761175016"><ele>385.0</ele><time>2026-03-22T09:21:09.998Z</time></trkpt><trkpt lat="45.43405749792663" lon="11.53442758785903"><ele>385.00000000000006</ele><time>2026-03-22T09:21:11.998Z</time></trkpt><trkpt lat="45.433969814972606" lon="11.534416084920505"><ele>385.0</ele><time>2026-03-22T09:21:16.998Z</time></trkpt><trkpt lat="45.43389740889453" lon="11.534393713247272"><ele>384.57142857142856</ele><time>2026-03-22T09:21:20.998Z</time></trkpt><trkpt lat="45.43383587037285" lon="11.534359445108235"><ele>384.1428571428571</ele><time>2026-03-22T09:21:22.998Z</time></trkpt><trkpt lat="45.433784735682586" lon="11.53429392373577"><ele>383.7142857142857</ele><time>2026-03-22T09:21:25.998Z</time></trkpt><trkpt lat="45.43377078260833" lon="11.53416815857726"><ele>383.2857142857143</ele><time>2026-03-22T09:21:28.998Z</time></trkpt><trkpt lat="45.43380476685364" lon="11.53408040887803"><ele>382.85714285714283</ele><time>2026-03-22T09:21:32.998Z</time></trkpt><trkpt lat="45.433831973049976" lon="11.533987901535173"><ele>382.42857142857144</ele><time>2026-03-22T09:21:37.998Z</time></trkpt><trkpt lat="45.43386207401842" lon="11.533908382200348"><ele>382.0</ele><time>2026-03-22T09:21:52.997Z</time></trkpt><trkpt lat="45.43379545988909" lon="11.533782980582009"><ele>384.0</ele><time>2026-03-22T09:22:35Z</time></trkpt><trkpt lat="45.43373397400934" lon="11.533709994638764"><ele>386.0</ele><time>2026-03-22T09:22:44.999Z</time></trkpt><trkpt lat="45.43366825151867" lon="11.533661582446872"><ele>388.0</ele><time>2026-03-22T09:22:46.999Z</time></trkpt><trkpt lat="45.43359309354691" lon="11.53361384927726"><ele>390.0</ele><time>2026-03-22T09:22:48.999Z</time></trkpt><trkpt lat="45.43349643003536" lon="11.533560259836662"><ele>392.0</ele><time>2026-03-22T09:22:50.999Z</time></trkpt><trkpt lat="45.43341460488317" lon="11.533435416811516"><ele>391.99999999999994</ele><time>2026-03-22T09:22:52.999Z</time></trkpt><trkpt lat="45.43330983836695" lon="11.53333799406718"><ele>392.0</ele><time>2026-03-22T09:22:54.999Z</time></trkpt><trkpt lat="45.43326300367335" lon="11.533277071037304"><ele>392.0</ele><time>2026-03-22T09:22:55.999Z</time></trkpt><trkpt lat="45.43321545471088" lon="11.53319661226499"><ele>392.0</ele><time>2026-03-22T09:22:56.999Z</time></trkpt><trkpt lat="45.43317424956768" lon="11.53310940298406"><ele>391.99999999999994</ele><time>2026-03-22T09:22:57.999Z</time></trkpt><trkpt lat="45.43313716431065" lon="11.533017687315585"><ele>392.0</ele><time>2026-03-22T09:22:58.999Z</time></trkpt><trkpt lat="45.43310391026168" lon="11.532929119881777"><ele>392.49999999999994</ele><time>2026-03-22T09:22:59.999Z</time></trkpt><trkpt lat="45.433071725899936" lon="11.532840726060723"><ele>393.0</ele><time>2026-03-22T09:23:00.999Z</time></trkpt><trkpt lat="45.43304076218237" lon="11.532753101085168"><ele>393.5</ele><time>2026-03-22T09:23:01.999Z</time></trkpt><trkpt lat="45.43301129346662" lon="11.532669706866274"><ele>394.0</ele><time>2026-03-22T09:23:02.999Z</time></trkpt><trkpt lat="45.432962818990475" lon="11.532523754757511"><ele>394.49999999999994</ele><time>2026-03-22T09:23:04.999Z</time></trkpt><trkpt lat="45.432912915239356" lon="11.532400510945397"><ele>395.0</ele><time>2026-03-22T09:23:06.999Z</time></trkpt><trkpt lat="45.43288701343492" lon="11.532297552044302"><ele>393.16666666666663</ele><time>2026-03-22T09:23:08.999Z</time></trkpt><trkpt lat="45.432873470448115" lon="11.53217302291233"><ele>391.3333333333333</ele><time>2026-03-22T09:23:10.999Z</time></trkpt><trkpt lat="45.43286217449988" lon="11.53206157336585"><ele>389.5</ele><time>2026-03-22T09:23:12.999Z</time></trkpt><trkpt lat="45.43285796251219" lon="11.531954510186935"><ele>387.66666666666663</ele><time>2026-03-22T09:23:14.998Z</time></trkpt><trkpt lat="45.43287320318298" lon="11.531834209151532"><ele>385.8333333333333</ele><time>2026-03-22T09:23:16.998Z</time></trkpt><trkpt lat="45.43289433374371" lon="11.531699816703222"><ele>384.0</ele><time>2026-03-22T09:23:18.998Z</time></trkpt><trkpt lat="45.43291846078465" lon="11.531571287541903"><ele>384.0</ele><time>2026-03-22T09:23:20.998Z</time></trkpt><trkpt lat="45.4329499105234" lon="11.531458909118872"><ele>384.0</ele><time>2026-03-22T09:23:22.998Z</time></trkpt><trkpt lat="45.43298054115504" lon="11.531354871695932"><ele>384.0</ele><time>2026-03-22T09:23:25.998Z</time></trkpt><trkpt lat="45.4330436877733" lon="11.53121893804372"><ele>384.0</ele><time>2026-03-22T09:23:27.998Z</time></trkpt><trkpt lat="45.43309415507849" lon="11.531148605909419"><ele>384.0</ele><time>2026-03-22T09:23:29.998Z</time></trkpt><trkpt lat="45.43316006050082" lon="11.531065600664643"><ele>384.0</ele><time>2026-03-22T09:23:32.998Z</time></trkpt><trkpt lat="45.433208984736936" lon="11.531002368727254"><ele>386.0</ele><time>2026-03-22T09:23:34.998Z</time></trkpt><trkpt lat="45.43325586134888" lon="11.530900494133508"><ele>388.0</ele><time>2026-03-22T09:23:37.998Z</time></trkpt><trkpt lat="45.4333108178599" lon="11.53083716863901"><ele>390.0</ele><time>2026-03-22T09:23:39.998Z</time></trkpt><trkpt lat="45.43335169297295" lon="11.530758265568412"><ele>392.0</ele><time>2026-03-22T09:23:41.998Z</time></trkpt><trkpt lat="45.43340023226927" lon="11.530650559175363"><ele>394.0</ele><time>2026-03-22T09:23:44.998Z</time></trkpt><trkpt lat="45.433424910607336" lon="11.530565560239044"><ele>396.0</ele><time>2026-03-22T09:23:46.998Z</time></trkpt><trkpt lat="45.43345650211753" lon="11.53045544149444"><ele>395.6666666666667</ele><time>2026-03-22T09:23:50.998Z</time></trkpt><trkpt lat="45.43347373510442" lon="11.530349740336298"><ele>395.33333333333337</ele><time>2026-03-22T09:23:53.997Z</time></trkpt><trkpt lat="45.433484395655796" lon="11.53022866354133"><ele>395.0</ele><time>2026-03-22T09:23:56.997Z</time></trkpt><trkpt lat="45.433451058813766" lon="11.530152402980963"><ele>394.6666666666667</ele><time>2026-03-22T09:23:58.997Z</time></trkpt><trkpt lat="45.43344420552242" lon="11.530038084914867"><ele>394.33333333333337</ele><time>2026-03-22T09:24:01.997Z</time></trkpt><trkpt lat="45.433441485485716" lon="11.529908709311142"><ele>394.0</ele><time>2026-03-22T09:24:04.997Z</time></trkpt><trkpt lat="45.433421492150586" lon="11.529803759827075"><ele>394.0</ele><time>2026-03-22T09:24:07.997Z</time></trkpt><trkpt lat="45.43341886783278" lon="11.529713868064803"><ele>394.0</ele><time>2026-03-22T09:24:10Z</time></trkpt><trkpt lat="45.433416947609366" lon="11.52962332043091"><ele>394.0</ele><time>2026-03-22T09:24:12Z</time></trkpt><trkpt lat="45.433419875202375" lon="11.529474995608991"><ele>394.0</ele><time>2026-03-22T09:24:15Z</time></trkpt><trkpt lat="45.43342620559757" lon="11.529376301663458"><ele>394.0</ele><time>2026-03-22T09:24:17Z</time></trkpt><trkpt lat="45.43343328417662" lon="11.52928217217753"><ele>394.0</ele><time>2026-03-22T09:24:19Z</time></trkpt><trkpt lat="45.43349081409525" lon="11.529211350078642"><ele>394.0</ele><time>2026-03-22T09:24:21Z</time></trkpt><trkpt lat="45.43356713163819" lon="11.529157996611362"><ele>394.6666666666667</ele><time>2026-03-22T09:24:24Z</time></trkpt><trkpt lat="45.433646183251625" lon="11.529123691478857"><ele>395.33333333333337</ele><time>2026-03-22T09:24:27Z</time></trkpt><trkpt lat="45.433734512105424" lon="11.529114116647316"><ele>396.0</ele><time>2026-03-22T09:24:29Z</time></trkpt><trkpt lat="45.433804021522015" lon="11.529082167168484"><ele>396.66666666666663</ele><time>2026-03-22T09:24:34Z</time></trkpt><trkpt lat="45.43385228207981" lon="11.529003012262777"><ele>397.3333333333333</ele><time>2026-03-22T09:24:38Z</time></trkpt><trkpt lat="45.433943575284765" lon="11.528937814670035"><ele>398.0</ele><time>2026-03-22T09:24:40Z</time></trkpt><trkpt lat="45.434038742343304" lon="11.528861833011856"><ele>398.0</ele><time>2026-03-22T09:24:41.999Z</time></trkpt><trkpt lat="45.43409810883536" lon="11.528710226422387"><ele>398.0</ele><time>2026-03-22T09:24:43.999Z</time></trkpt><trkpt lat="45.434132692948204" lon="11.528539296363299"><ele>398.0</ele><time>2026-03-22T09:24:45.999Z</time></trkpt><trkpt lat="45.434180195510926" lon="11.52838405744558"><ele>398.0</ele><time>2026-03-22T09:24:47.999Z</time></trkpt><trkpt lat="45.434212450851426" lon="11.528269777221247"><ele>397.99999999999994</ele><time>2026-03-22T09:24:49.999Z</time></trkpt><trkpt lat="45.434237827749975" lon="11.528147545371985"><ele>398.0</ele><time>2026-03-22T09:24:52.999Z</time></trkpt><trkpt lat="45.43429163620321" lon="11.528012154330932"><ele>398.0</ele><time>2026-03-22T09:24:54.999Z</time></trkpt><trkpt lat="45.43433839890439" lon="11.527934115511712"><ele>398.0</ele><time>2026-03-22T09:24:55.999Z</time></trkpt><trkpt lat="45.43439858578377" lon="11.52785069454187"><ele>397.99999999999994</ele><time>2026-03-22T09:24:56.999Z</time></trkpt><trkpt lat="45.434467790246686" lon="11.52779620071996"><ele>398.0</ele><time>2026-03-22T09:24:57.999Z</time></trkpt><trkpt lat="45.43458700480972" lon="11.527767788564168"><ele>397.59999999999997</ele><time>2026-03-22T09:24:59.999Z</time></trkpt><trkpt lat="45.43465129928898" lon="11.527743527645585"><ele>397.2</ele><time>2026-03-22T09:25:01.999Z</time></trkpt><trkpt lat="45.43474519961139" lon="11.52771118420291"><ele>396.8</ele><time>2026-03-22T09:25:03.999Z</time></trkpt><trkpt lat="45.43486349496763" lon="11.527646810214558"><ele>396.4</ele><time>2026-03-22T09:25:05.999Z</time></trkpt><trkpt lat="45.43492731441925" lon="11.527648468619152"><ele>396.0</ele><time>2026-03-22T09:25:06.999Z</time></trkpt><trkpt lat="45.43503498067777" lon="11.5275993709874"><ele>396.0</ele><time>2026-03-22T09:25:08.999Z</time></trkpt><trkpt lat="45.43510817055563" lon="11.527524483901871"><ele>396.0</ele><time>2026-03-22T09:25:10.999Z</time></trkpt><trkpt lat="45.43518129399341" lon="11.527484223711054"><ele>396.0</ele><time>2026-03-22T09:25:12.999Z</time></trkpt><trkpt lat="45.43524378960674" lon="11.527425640219532"><ele>396.0</ele><time>2026-03-22T09:25:14.999Z</time></trkpt><trkpt lat="45.435324735374756" lon="11.527327577657653"><ele>396.0</ele><time>2026-03-22T09:25:16.999Z</time></trkpt><trkpt lat="45.4353859735572" lon="11.5272491538534"><ele>396.0</ele><time>2026-03-22T09:25:18.999Z</time></trkpt><trkpt lat="45.43543877438014" lon="11.52716414468823"><ele>397.0</ele><time>2026-03-22T09:25:20.998Z</time></trkpt><trkpt lat="45.43546312029602" lon="11.527044154295922"><ele>398.0</ele><time>2026-03-22T09:25:22.998Z</time></trkpt><trkpt lat="45.43553051757589" lon="11.526948811861727"><ele>399.0</ele><time>2026-03-22T09:25:24.998Z</time></trkpt><trkpt lat="45.43557385373117" lon="11.526845253107727"><ele>400.0</ele><time>2026-03-22T09:25:26.998Z</time></trkpt><trkpt lat="45.43562940993925" lon="11.52675235835356"><ele>401.0</ele><time>2026-03-22T09:25:28.998Z</time></trkpt><trkpt lat="45.43568597741052" lon="11.526658459296977"><ele>402.0</ele><time>2026-03-22T09:25:30.998Z</time></trkpt><trkpt lat="45.435742664667124" lon="11.526589809585618"><ele>402.0</ele><time>2026-03-22T09:25:32.998Z</time></trkpt><trkpt lat="45.43579720138243" lon="11.526537873543704"><ele>402.0</ele><time>2026-03-22T09:25:34.998Z</time></trkpt><trkpt lat="45.43585370867709" lon="11.526467435375885"><ele>402.0</ele><time>2026-03-22T09:25:36.998Z</time></trkpt><trkpt lat="45.435903179586575" lon="11.526409882631548"><ele>402.0</ele><time>2026-03-22T09:25:38.998Z</time></trkpt><trkpt lat="45.43596721030576" lon="11.526372834831275"><ele>402.0</ele><time>2026-03-22T09:25:40.998Z</time></trkpt><trkpt lat="45.43605293801612" lon="11.526324414836626"><ele>402.0</ele><time>2026-03-22T09:25:43.998Z</time></trkpt><trkpt lat="45.43612476068175" lon="11.5263211527958"><ele>402.0</ele><time>2026-03-22T09:25:45.998Z</time></trkpt><trkpt lat="45.43619223957962" lon="11.526304268848946"><ele>402.0</ele><time>2026-03-22T09:25:47.998Z</time></trkpt><trkpt lat="45.43628305665191" lon="11.526316429089672"><ele>402.0</ele><time>2026-03-22T09:25:49.998Z</time></trkpt><trkpt lat="45.43635929267842" lon="11.526338243715479"><ele>402.0</ele><time>2026-03-22T09:25:51.998Z</time></trkpt><trkpt lat="45.43642717969482" lon="11.526346104500366"><ele>402.0</ele><time>2026-03-22T09:25:53.998Z</time></trkpt><trkpt lat="45.43650419358513" lon="11.526361112005658"><ele>402.0</ele><time>2026-03-22T09:25:55.998Z</time></trkpt><trkpt lat="45.43658332140968" lon="11.526362314984208"><ele>402.0</ele><time>2026-03-22T09:25:57.998Z</time></trkpt><trkpt lat="45.43664667452793" lon="11.526354342272159"><ele>401.3333333333333</ele><time>2026-03-22T09:25:59.997Z</time></trkpt><trkpt lat="45.43672102442655" lon="11.526343055923503"><ele>400.66666666666663</ele><time>2026-03-22T09:26:01.997Z</time></trkpt><trkpt lat="45.43677057737017" lon="11.526281557090718"><ele>400.0</ele><time>2026-03-22T09:26:03.997Z</time></trkpt><trkpt lat="45.436826268913464" lon="11.526219894117805"><ele>399.3333333333333</ele><time>2026-03-22T09:26:05.997Z</time></trkpt><trkpt lat="45.436903648954406" lon="11.526138871179374"><ele>398.66666666666663</ele><time>2026-03-22T09:26:07.997Z</time></trkpt><trkpt lat="45.436962728092226" lon="11.526041566894783"><ele>398.0</ele><time>2026-03-22T09:26:09.997Z</time></trkpt><trkpt lat="45.437017224757696" lon="11.525965401763575"><ele>397.99999999999994</ele><time>2026-03-22T09:26:11.997Z</time></trkpt><trkpt lat="45.43708331463943" lon="11.525869265143"><ele>398.0</ele><time>2026-03-22T09:26:15Z</time></trkpt><trkpt lat="45.43715136091886" lon="11.52579977355199"><ele>398.0</ele><time>2026-03-22T09:26:17Z</time></trkpt><trkpt lat="45.43719599006859" lon="11.525724955282794"><ele>398.0</ele><time>2026-03-22T09:26:19Z</time></trkpt><trkpt lat="45.4372810599511" lon="11.525687355346543"><ele>397.99999999999994</ele><time>2026-03-22T09:26:21Z</time></trkpt><trkpt lat="45.43734831376118" lon="11.52569390258958"><ele>398.0</ele><time>2026-03-22T09:26:23Z</time></trkpt><trkpt lat="45.43742193906349" lon="11.52572457109154"><ele>399.16666666666663</ele><time>2026-03-22T09:26:25Z</time></trkpt><trkpt lat="45.43748896646095" lon="11.525717539330204"><ele>400.3333333333333</ele><time>2026-03-22T09:26:27Z</time></trkpt><trkpt lat="45.43756213368686" lon="11.525711719193794"><ele>401.5</ele><time>2026-03-22T09:26:29Z</time></trkpt><trkpt lat="45.437646200001005" lon="11.525705840866872"><ele>402.66666666666663</ele><time>2026-03-22T09:26:31Z</time></trkpt><trkpt lat="45.43771997515271" lon="11.525675965140165"><ele>403.8333333333333</ele><time>2026-03-22T09:26:33Z</time></trkpt><trkpt lat="45.43780493440773" lon="11.525638650394855"><ele>405.0</ele><time>2026-03-22T09:26:35Z</time></trkpt><trkpt lat="45.43788436078663" lon="11.525606499284407"><ele>405.0</ele><time>2026-03-22T09:26:37Z</time></trkpt><trkpt lat="45.43796014702468" lon="11.52555738581969"><ele>405.0</ele><time>2026-03-22T09:26:39Z</time></trkpt><trkpt lat="45.438028106488055" lon="11.525517829807507"><ele>405.0</ele><time>2026-03-22T09:26:41Z</time></trkpt><trkpt lat="45.438094985353615" lon="11.52548048532706"><ele>405.0</ele><time>2026-03-22T09:26:43Z</time></trkpt><trkpt lat="45.438174563988625" lon="11.525413329973205"><ele>405.0</ele><time>2026-03-22T09:26:46Z</time></trkpt><trkpt lat="45.43821572276364" lon="11.525299280729325"><ele>405.0</ele><time>2026-03-22T09:26:47.999Z</time></trkpt><trkpt lat="45.43824078457549" lon="11.525206400402077"><ele>405.1666666666667</ele><time>2026-03-22T09:26:49.999Z</time></trkpt><trkpt lat="45.43825910356145" lon="11.525096729873816"><ele>405.33333333333337</ele><time>2026-03-22T09:26:52.999Z</time></trkpt><trkpt lat="45.438240185357806" lon="11.525001105352565"><ele>405.5</ele><time>2026-03-22T09:26:54.999Z</time></trkpt><trkpt lat="45.438232532043536" lon="11.524870128942924"><ele>405.6666666666667</ele><time>2026-03-22T09:26:56.999Z</time></trkpt><trkpt lat="45.438210615741255" lon="11.524751524907513"><ele>405.83333333333337</ele><time>2026-03-22T09:26:58.999Z</time></trkpt><trkpt lat="45.438198872619246" lon="11.524646823132834"><ele>406.0</ele><time>2026-03-22T09:27:00.999Z</time></trkpt><trkpt lat="45.43820421435958" lon="11.524527869237076"><ele>406.00000000000006</ele><time>2026-03-22T09:27:02.999Z</time></trkpt><trkpt lat="45.438206979905765" lon="11.524401968846169"><ele>406.0</ele><time>2026-03-22T09:27:04.999Z</time></trkpt><trkpt lat="45.43819952182899" lon="11.524292843464767"><ele>406.0</ele><time>2026-03-22T09:27:06.999Z</time></trkpt><trkpt lat="45.43819957174685" lon="11.52419511451219"><ele>406.0</ele><time>2026-03-22T09:27:09.999Z</time></trkpt><trkpt lat="45.438204674440364" lon="11.524082488041374"><ele>406.00000000000006</ele><time>2026-03-22T09:27:12.999Z</time></trkpt><trkpt lat="45.4382025163868" lon="11.523965106932241"><ele>406.0</ele><time>2026-03-22T09:27:15.999Z</time></trkpt><trkpt lat="45.43816930797583" lon="11.523830153793845"><ele>406.20000000000005</ele><time>2026-03-22T09:27:18.999Z</time></trkpt><trkpt lat="45.43817383783526" lon="11.523647567468753"><ele>406.40000000000003</ele><time>2026-03-22T09:27:20.999Z</time></trkpt><trkpt lat="45.438176375862064" lon="11.523537090087826"><ele>406.6</ele><time>2026-03-22T09:27:21.999Z</time></trkpt><trkpt lat="45.43819064137308" lon="11.523368703742875"><ele>406.8</ele><time>2026-03-22T09:27:23.999Z</time></trkpt><trkpt lat="45.438209207675364" lon="11.523251558957316"><ele>407.0</ele><time>2026-03-22T09:27:25.998Z</time></trkpt><trkpt lat="45.438216005518626" lon="11.52312209341284"><ele>407.0</ele><time>2026-03-22T09:27:27.998Z</time></trkpt><trkpt lat="45.43820980645361" lon="11.522991176395648"><ele>407.0</ele><time>2026-03-22T09:27:29.998Z</time></trkpt><trkpt lat="45.438216926736324" lon="11.522848186647042"><ele>407.0</ele><time>2026-03-22T09:27:31.998Z</time></trkpt><trkpt lat="45.438209314520506" lon="11.522695418233916"><ele>407.0</ele><time>2026-03-22T09:27:33.998Z</time></trkpt><trkpt lat="45.43818364591337" lon="11.522551437510481"><ele>407.0</ele><time>2026-03-22T09:27:35.998Z</time></trkpt><trkpt lat="45.43816397553267" lon="11.522420487653786"><ele>407.8</ele><time>2026-03-22T09:27:37.998Z</time></trkpt><trkpt lat="45.438124947739574" lon="11.52231015298436"><ele>408.6</ele><time>2026-03-22T09:27:39.998Z</time></trkpt><trkpt lat="45.43807021535665" lon="11.522212602500472"><ele>409.40000000000003</ele><time>2026-03-22T09:27:41.998Z</time></trkpt><trkpt lat="45.43798317747044" lon="11.522133526020147"><ele>410.20000000000005</ele><time>2026-03-22T09:27:43.998Z</time></trkpt><trkpt lat="45.43788985229878" lon="11.522070970383565"><ele>411.0</ele><time>2026-03-22T09:27:45.998Z</time></trkpt><trkpt lat="45.43780201794414" lon="11.522007874913234"><ele>409.4</ele><time>2026-03-22T09:27:47.998Z</time></trkpt><trkpt lat="45.43774222450065" lon="11.52188191656012"><ele>407.8</ele><time>2026-03-22T09:27:49.998Z</time></trkpt><trkpt lat="45.437689624344905" lon="11.521756143943248"><ele>406.2</ele><time>2026-03-22T09:27:51.998Z</time></trkpt><trkpt lat="45.437630237481926" lon="11.5216496429915"><ele>404.59999999999997</ele><time>2026-03-22T09:27:53.998Z</time></trkpt><trkpt lat="45.43755153610358" lon="11.521564907773191"><ele>403.0</ele><time>2026-03-22T09:27:55.998Z</time></trkpt><trkpt lat="45.43746418573441" lon="11.521543163593968"><ele>403.0</ele><time>2026-03-22T09:27:57.998Z</time></trkpt><trkpt lat="45.43738743852333" lon="11.521552291216672"><ele>403.0</ele><time>2026-03-22T09:27:59.998Z</time></trkpt><trkpt lat="45.43730348553511" lon="11.52157675369277"><ele>403.0</ele><time>2026-03-22T09:28:02.998Z</time></trkpt><trkpt lat="45.43720791800057" lon="11.52160475486481"><ele>403.0</ele><time>2026-03-22T09:28:05.997Z</time></trkpt><trkpt lat="45.437221407520234" lon="11.521454301368477"><ele>403.0</ele><time>2026-03-22T09:28:07.997Z</time></trkpt><trkpt lat="45.43731972829831" lon="11.521355176901068"><ele>403.0</ele><time>2026-03-22T09:28:09.997Z</time></trkpt><trkpt lat="45.437404118994884" lon="11.521282511190762"><ele>403.0</ele><time>2026-03-22T09:28:11.997Z</time></trkpt><trkpt lat="45.437506050326036" lon="11.521226264473613"><ele>403.0</ele><time>2026-03-22T09:28:13.997Z</time></trkpt><trkpt lat="45.43757933321392" lon="11.52119575152418"><ele>403.0</ele><time>2026-03-22T09:28:14.997Z</time></trkpt><trkpt lat="45.437660636619704" lon="11.521182481607884"><ele>403.0</ele><time>2026-03-22T09:28:15.997Z</time></trkpt><trkpt lat="45.437757385409974" lon="11.521185736561181"><ele>401.1666666666667</ele><time>2026-03-22T09:28:16.997Z</time></trkpt><trkpt lat="45.43785280374798" lon="11.52119763425145"><ele>399.33333333333337</ele><time>2026-03-22T09:28:17.997Z</time></trkpt><trkpt lat="45.437938228985516" lon="11.521202664520152"><ele>397.5</ele><time>2026-03-22T09:28:18.997Z</time></trkpt><trkpt lat="45.43801210113091" lon="11.521198056031873"><ele>395.66666666666663</ele><time>2026-03-22T09:28:19.997Z</time></trkpt><trkpt lat="45.43808358562126" lon="11.521187442993897"><ele>393.8333333333333</ele><time>2026-03-22T09:28:21Z</time></trkpt><trkpt lat="45.43818087212151" lon="11.52113706744499"><ele>392.0</ele><time>2026-03-22T09:28:23Z</time></trkpt><trkpt lat="45.43827966964292" lon="11.521107015562547"><ele>392.0</ele><time>2026-03-22T09:28:25Z</time></trkpt><trkpt lat="45.43838317979169" lon="11.521097046796973"><ele>392.0</ele><time>2026-03-22T09:28:27Z</time></trkpt><trkpt lat="45.43862338685805" lon="11.521070112698114"><ele>392.0</ele><time>2026-03-22T09:28:36Z</time></trkpt><trkpt lat="45.43864668563756" lon="11.520977171018606"><ele>392.0</ele><time>2026-03-22T09:28:53.999Z</time></trkpt><trkpt lat="45.43854531922182" lon="11.521007280795622"><ele>391.99999999999994</ele><time>2026-03-22T09:28:59.999Z</time></trkpt><trkpt lat="45.43847840072035" lon="11.520973367826254"><ele>392.0</ele><time>2026-03-22T09:29:02.999Z</time></trkpt><trkpt lat="45.438423340326885" lon="11.520928337324971"><ele>392.0</ele><time>2026-03-22T09:29:04.999Z</time></trkpt><trkpt lat="45.43836491455848" lon="11.520892557805"><ele>392.0</ele><time>2026-03-22T09:29:06.999Z</time></trkpt><trkpt lat="45.43828325347369" lon="11.520830555960885"><ele>391.99999999999994</ele><time>2026-03-22T09:29:08.999Z</time></trkpt><trkpt lat="45.43819415070911" lon="11.520730578277188"><ele>392.0</ele><time>2026-03-22T09:29:10.999Z</time></trkpt><trkpt lat="45.43817055937903" lon="11.520592173133043"><ele>392.0</ele><time>2026-03-22T09:29:12.999Z</time></trkpt><trkpt lat="45.43812185766556" lon="11.520510123526115"><ele>392.0</ele><time>2026-03-22T09:29:15.999Z</time></trkpt><trkpt lat="45.4380700902201" lon="11.520436668201501"><ele>392.0</ele><time>2026-03-22T09:29:18.999Z</time></trkpt><trkpt lat="45.4382180688032" lon="11.520305956706432"><ele>392.0</ele><time>2026-03-22T09:29:27.999Z</time></trkpt><trkpt lat="45.43828498171397" lon="11.520266551970344"><ele>392.0</ele><time>2026-03-22T09:29:29.999Z</time></trkpt><trkpt lat="45.438358148157896" lon="11.5201831705152"><ele>388.49999999999994</ele><time>2026-03-22T09:29:32.998Z</time></trkpt><trkpt lat="45.43841264219445" lon="11.520135639488979"><ele>385.0</ele><time>2026-03-22T09:29:34.998Z</time></trkpt><trkpt lat="45.43848686583782" lon="11.520040665744064"><ele>381.5</ele><time>2026-03-22T09:29:36.998Z</time></trkpt><trkpt lat="45.43854891721115" lon="11.519973119447323"><ele>378.0</ele><time>2026-03-22T09:29:37.998Z</time></trkpt><trkpt lat="45.43860478684886" lon="11.519920727444832"><ele>374.5</ele><time>2026-03-22T09:29:38.998Z</time></trkpt><trkpt lat="45.43866121687281" lon="11.519872311241961"><ele>371.0</ele><time>2026-03-22T09:29:39.998Z</time></trkpt><trkpt lat="45.438746500746326" lon="11.519773778696587"><ele>371.0</ele><time>2026-03-22T09:29:41.998Z</time></trkpt><trkpt lat="45.438797641776404" lon="11.519704898152826"><ele>371.0</ele><time>2026-03-22T09:29:43.998Z</time></trkpt><trkpt lat="45.43883535748032" lon="11.519612281152353"><ele>371.0</ele><time>2026-03-22T09:29:45.998Z</time></trkpt><trkpt lat="45.43886855917508" lon="11.519493446277979"><ele>371.0</ele><time>2026-03-22T09:29:47.998Z</time></trkpt><trkpt lat="45.438909303669284" lon="11.519392053692904"><ele>371.0</ele><time>2026-03-22T09:29:49.998Z</time></trkpt><trkpt lat="45.43896649811769" lon="11.519274180676454"><ele>371.0</ele><time>2026-03-22T09:29:51.998Z</time></trkpt><trkpt lat="45.43901010998129" lon="11.519166761584737"><ele>370.33333333333337</ele><time>2026-03-22T09:29:53.998Z</time></trkpt><trkpt lat="45.439046753792134" lon="11.519060744697295"><ele>369.6666666666667</ele><time>2026-03-22T09:29:55.998Z</time></trkpt><trkpt lat="45.43910173766891" lon="11.51893563797032"><ele>369.0</ele><time>2026-03-22T09:29:57.998Z</time></trkpt><trkpt lat="45.439146220054106" lon="11.518846622667319"><ele>368.3333333333333</ele><time>2026-03-22T09:30:00.998Z</time></trkpt><trkpt lat="45.43919902727557" lon="11.518744130453092"><ele>367.66666666666663</ele><time>2026-03-22T09:30:02.998Z</time></trkpt><trkpt lat="45.43926266583853" lon="11.51868327125779"><ele>367.0</ele><time>2026-03-22T09:30:04.998Z</time></trkpt><trkpt lat="45.43932521929776" lon="11.518601461468437"><ele>367.0</ele><time>2026-03-22T09:30:06.998Z</time></trkpt><trkpt lat="45.43936680314463" lon="11.518462632352778"><ele>367.0</ele><time>2026-03-22T09:30:08.998Z</time></trkpt><trkpt lat="45.43939131274271" lon="11.51837880685149"><ele>367.0</ele><time>2026-03-22T09:30:09.997Z</time></trkpt><trkpt lat="45.439420864241285" lon="11.5182875295468"><ele>367.0</ele><time>2026-03-22T09:30:10.997Z</time></trkpt><trkpt lat="45.43945863021514" lon="11.518191512281383"><ele>367.0</ele><time>2026-03-22T09:30:12.997Z</time></trkpt><trkpt lat="45.43948902645413" lon="11.518104751717866"><ele>367.0</ele><time>2026-03-22T09:30:16.997Z</time></trkpt><trkpt lat="45.4395145000394" lon="11.518007123930722"><ele>365.8</ele><time>2026-03-22T09:30:28Z</time></trkpt><trkpt lat="45.43953941974579" lon="11.51789366898204"><ele>364.6</ele><time>2026-03-22T09:30:30Z</time></trkpt><trkpt lat="45.43956882866366" lon="11.517764022693129"><ele>363.40000000000003</ele><time>2026-03-22T09:30:33Z</time></trkpt><trkpt lat="45.439591673019336" lon="11.517663104315973"><ele>362.20000000000005</ele><time>2026-03-22T09:30:35Z</time></trkpt><trkpt lat="45.43961517811773" lon="11.517531065895726"><ele>361.0</ele><time>2026-03-22T09:30:37Z</time></trkpt><trkpt lat="45.43963054151452" lon="11.51737192916957"><ele>362.5</ele><time>2026-03-22T09:30:39Z</time></trkpt><trkpt lat="45.43965327988826" lon="11.517236319244667"><ele>364.0</ele><time>2026-03-22T09:30:41Z</time></trkpt><trkpt lat="45.43967341699335" lon="11.51710234409564"><ele>365.5</ele><time>2026-03-22T09:30:43Z</time></trkpt><trkpt lat="45.4397025969468" lon="11.516985717043875"><ele>367.0</ele><time>2026-03-22T09:30:45Z</time></trkpt><trkpt lat="45.4397587644997" lon="11.516910737644913"><ele>368.5</ele><time>2026-03-22T09:30:47Z</time></trkpt><trkpt lat="45.43983319147132" lon="11.516840688677666"><ele>370.0</ele><time>2026-03-22T09:30:49Z</time></trkpt><trkpt lat="45.44000321412271" lon="11.516889543408517"><ele>370.0</ele><time>2026-03-22T09:30:53Z</time></trkpt><trkpt lat="45.440086991207565" lon="11.516932700282226"><ele>370.0</ele><time>2026-03-22T09:30:55Z</time></trkpt><trkpt lat="45.44018437237728" lon="11.516996318027537"><ele>370.0</ele><time>2026-03-22T09:30:57Z</time></trkpt><trkpt lat="45.440274703544844" lon="11.517072581604493"><ele>370.0</ele><time>2026-03-22T09:30:58.999Z</time></trkpt><trkpt lat="45.44036675995529" lon="11.517123265108864"><ele>370.0</ele><time>2026-03-22T09:31:00.999Z</time></trkpt><trkpt lat="45.44045611202504" lon="11.51711951119945"><ele>370.4</ele><time>2026-03-22T09:31:02.999Z</time></trkpt><trkpt lat="45.44056883624349" lon="11.517094972965658"><ele>370.8</ele><time>2026-03-22T09:31:04.999Z</time></trkpt><trkpt lat="45.44068147811585" lon="11.517093950086863"><ele>371.20000000000005</ele><time>2026-03-22T09:31:06.999Z</time></trkpt><trkpt lat="45.44076273767389" lon="11.51707364370021"><ele>371.6</ele><time>2026-03-22T09:31:08.999Z</time></trkpt><trkpt lat="45.44084503720248" lon="11.516987994572608"><ele>372.0</ele><time>2026-03-22T09:31:10.999Z</time></trkpt><trkpt lat="45.44089468251637" lon="11.51692848322362"><ele>372.0</ele><time>2026-03-22T09:31:11.999Z</time></trkpt><trkpt lat="45.4409609326329" lon="11.516794030870438"><ele>372.0</ele><time>2026-03-22T09:31:13.999Z</time></trkpt><trkpt lat="45.44096122336752" lon="11.516699028321044"><ele>372.0</ele><time>2026-03-22T09:31:17.999Z</time></trkpt><trkpt lat="45.44097192082537" lon="11.516576853937796"><ele>372.0</ele><time>2026-03-22T09:31:21.999Z</time></trkpt><trkpt lat="45.44096114730996" lon="11.51647183352355"><ele>372.0</ele><time>2026-03-22T09:31:23.999Z</time></trkpt><trkpt lat="45.44095045087424" lon="11.516338664404435"><ele>372.0</ele><time>2026-03-22T09:31:25.999Z</time></trkpt><trkpt lat="45.44094001833443" lon="11.516214841435522"><ele>372.1666666666667</ele><time>2026-03-22T09:31:27.999Z</time></trkpt><trkpt lat="45.44092003736799" lon="11.516096380604347"><ele>372.3333333333333</ele><time>2026-03-22T09:31:29.999Z</time></trkpt><trkpt lat="45.440887459338526" lon="11.515979511760206"><ele>372.5</ele><time>2026-03-22T09:31:31.999Z</time></trkpt><trkpt lat="45.4408754161582" lon="11.515843512519783"><ele>372.66666666666663</ele><time>2026-03-22T09:31:33.999Z</time></trkpt><trkpt lat="45.440862399166214" lon="11.51575090419872"><ele>372.8333333333333</ele><time>2026-03-22T09:31:35.999Z</time></trkpt><trkpt lat="45.44086936797875" lon="11.515621166773904"><ele>373.0</ele><time>2026-03-22T09:31:37.998Z</time></trkpt><trkpt lat="45.44090638871739" lon="11.51551847939458"><ele>373.0</ele><time>2026-03-22T09:31:41.998Z</time></trkpt><trkpt lat="45.44095134801576" lon="11.515431685496893"><ele>373.0</ele><time>2026-03-22T09:31:44.998Z</time></trkpt><trkpt lat="45.44098454737343" lon="11.515338114113325"><ele>373.0</ele><time>2026-03-22T09:31:47.998Z</time></trkpt><trkpt lat="45.440997665784266" lon="11.515248840262943"><ele>373.0</ele><time>2026-03-22T09:31:50.998Z</time></trkpt><trkpt lat="45.44104167390394" lon="11.515168523242671"><ele>373.0</ele><time>2026-03-22T09:31:53.998Z</time></trkpt><trkpt lat="45.441100379866256" lon="11.51512560853959"><ele>373.0</ele><time>2026-03-22T09:31:56.998Z</time></trkpt><trkpt lat="45.44115304467222" lon="11.515074453547799"><ele>373.0</ele><time>2026-03-22T09:31:59.998Z</time></trkpt><trkpt lat="45.44121007683764" lon="11.51503509501205"><ele>373.3333333333333</ele><time>2026-03-22T09:32:02.998Z</time></trkpt><trkpt lat="45.441278446786995" lon="11.514998435964218"><ele>373.66666666666663</ele><time>2026-03-22T09:32:05.998Z</time></trkpt><trkpt lat="45.441355493167514" lon="11.514989763764703"><ele>374.0</ele><time>2026-03-22T09:32:08.998Z</time></trkpt><trkpt lat="45.441419229482136" lon="11.514998732012112"><ele>374.3333333333333</ele><time>2026-03-22T09:32:11.998Z</time></trkpt><trkpt lat="45.441494413218955" lon="11.515058784481926"><ele>374.6666666666667</ele><time>2026-03-22T09:32:15.997Z</time></trkpt><trkpt lat="45.44152685636227" lon="11.515163658354703"><ele>375.0</ele><time>2026-03-22T09:32:19.997Z</time></trkpt><trkpt lat="45.44156197587545" lon="11.515259028176304"><ele>375.6666666666667</ele><time>2026-03-22T09:32:23.997Z</time></trkpt><trkpt lat="45.44160778027123" lon="11.5153618938317"><ele>376.3333333333333</ele><time>2026-03-22T09:32:27.997Z</time></trkpt><trkpt lat="45.44165025784999" lon="11.515472135503131"><ele>377.0</ele><time>2026-03-22T09:32:31.997Z</time></trkpt><trkpt lat="45.44168688285436" lon="11.51557730370977"><ele>377.66666666666663</ele><time>2026-03-22T09:32:35Z</time></trkpt><trkpt lat="45.44174104572756" lon="11.51567194844042"><ele>378.3333333333333</ele><time>2026-03-22T09:32:38Z</time></trkpt><trkpt lat="45.44180014459973" lon="11.515716811529616"><ele>379.0</ele><time>2026-03-22T09:32:42Z</time></trkpt><trkpt lat="45.44188667489991" lon="11.515693065251895"><ele>380.5</ele><time>2026-03-22T09:32:46Z</time></trkpt><trkpt lat="45.44196247140099" lon="11.515670067614817"><ele>382.0</ele><time>2026-03-22T09:32:49Z</time></trkpt><trkpt lat="45.44203361028421" lon="11.515657006346313"><ele>383.5</ele><time>2026-03-22T09:32:52Z</time></trkpt><trkpt lat="45.44210007279576" lon="11.515666802705717"><ele>385.0</ele><time>2026-03-22T09:32:54Z</time></trkpt><trkpt lat="45.442180501733574" lon="11.515643157635225"><ele>386.50000000000006</ele><time>2026-03-22T09:32:57Z</time></trkpt><trkpt lat="45.442268256649726" lon="11.515595871407255"><ele>388.0</ele><time>2026-03-22T09:33:00Z</time></trkpt><trkpt lat="45.44234291378049" lon="11.51555498449164"><ele>388.00000000000006</ele><time>2026-03-22T09:33:02Z</time></trkpt><trkpt lat="45.44242218028744" lon="11.515516801014172"><ele>388.0</ele><time>2026-03-22T09:33:04Z</time></trkpt><trkpt lat="45.44249300940851" lon="11.515476057003564"><ele>388.0</ele><time>2026-03-22T09:33:06.999Z</time></trkpt><trkpt lat="45.442585649064455" lon="11.515447057161241"><ele>388.0</ele><time>2026-03-22T09:33:10.999Z</time></trkpt><trkpt lat="45.44264552480204" lon="11.515400791586503"><ele>388.00000000000006</ele><time>2026-03-22T09:33:12.999Z</time></trkpt><trkpt lat="45.44272948630644" lon="11.515364027633852"><ele>388.0</ele><time>2026-03-22T09:33:14.999Z</time></trkpt><trkpt lat="45.44279719528989" lon="11.515379271500082"><ele>390.0</ele><time>2026-03-22T09:33:17.999Z</time></trkpt><trkpt lat="45.44297363476628" lon="11.515368551085427"><ele>392.0</ele><time>2026-03-22T09:33:37.999Z</time></trkpt><trkpt lat="45.44306704111041" lon="11.515321191411063"><ele>394.0</ele><time>2026-03-22T09:33:40.999Z</time></trkpt><trkpt lat="45.44327419489162" lon="11.515319507416532"><ele>394.00000000000006</ele><time>2026-03-22T09:33:46.998Z</time></trkpt><trkpt lat="45.44339690051821" lon="11.515318908678772"><ele>394.0</ele><time>2026-03-22T09:33:50.998Z</time></trkpt><trkpt lat="45.443491443101024" lon="11.515280173407843"><ele>394.0</ele><time>2026-03-22T09:33:54.998Z</time></trkpt><trkpt lat="45.44355991369977" lon="11.515245821361146"><ele>394.0</ele><time>2026-03-22T09:33:56.998Z</time></trkpt><trkpt lat="45.44362559070419" lon="11.515187107853183"><ele>394.00000000000006</ele><time>2026-03-22T09:33:59.998Z</time></trkpt><trkpt lat="45.44367163859934" lon="11.515122284471436"><ele>394.0</ele><time>2026-03-22T09:34:02.998Z</time></trkpt><trkpt lat="45.44378338421417" lon="11.515044386163993"><ele>392.6</ele><time>2026-03-22T09:34:04.998Z</time></trkpt><trkpt lat="45.44388935689366" lon="11.51501628724899"><ele>391.2</ele><time>2026-03-22T09:34:06.998Z</time></trkpt><trkpt lat="45.443983201209676" lon="11.514999736203768"><ele>389.8</ele><time>2026-03-22T09:34:08.998Z</time></trkpt><trkpt lat="45.44407046764827" lon="11.514959916749351"><ele>388.40000000000003</ele><time>2026-03-22T09:34:10.998Z</time></trkpt><trkpt lat="45.444182301630434" lon="11.514927477193398"><ele>387.0</ele><time>2026-03-22T09:34:12.998Z</time></trkpt><trkpt lat="45.444285131768595" lon="11.51490422768576"><ele>387.0</ele><time>2026-03-22T09:34:14.998Z</time></trkpt><trkpt lat="45.444354992931835" lon="11.514884801811284"><ele>387.0</ele><time>2026-03-22T09:34:16.998Z</time></trkpt><trkpt lat="45.44444200756189" lon="11.514822340015925"><ele>387.0</ele><time>2026-03-22T09:34:26.997Z</time></trkpt><trkpt lat="45.44445660481298" lon="11.51469648208165"><ele>387.0</ele><time>2026-03-22T09:34:28.997Z</time></trkpt><trkpt lat="45.444454363828584" lon="11.514584503585825"><ele>387.0</ele><time>2026-03-22T09:34:30.997Z</time></trkpt><trkpt lat="45.444458480029745" lon="11.514445913729354"><ele>387.0</ele><time>2026-03-22T09:34:33.997Z</time></trkpt><trkpt lat="45.44445612257561" lon="11.514318338797093"><ele>387.6666666666667</ele><time>2026-03-22T09:34:35.997Z</time></trkpt><trkpt lat="45.444458800502524" lon="11.514226416373813"><ele>388.33333333333337</ele><time>2026-03-22T09:34:37.997Z</time></trkpt><trkpt lat="45.44446917212296" lon="11.514098288127519"><ele>389.0</ele><time>2026-03-22T09:34:41Z</time></trkpt><trkpt lat="45.44446744353143" lon="11.514004914385742"><ele>389.6666666666667</ele><time>2026-03-22T09:34:43Z</time></trkpt><trkpt lat="45.44447581424851" lon="11.513880845868483"><ele>390.33333333333337</ele><time>2026-03-22T09:34:45Z</time></trkpt><trkpt lat="45.444475102343866" lon="11.51377432127257"><ele>391.0</ele><time>2026-03-22T09:34:47Z</time></trkpt><trkpt lat="45.444474198429525" lon="11.513641602312312"><ele>391.00000000000006</ele><time>2026-03-22T09:34:49Z</time></trkpt><trkpt lat="45.44448560942141" lon="11.51350511768853"><ele>391.0</ele><time>2026-03-22T09:34:51Z</time></trkpt><trkpt lat="45.444512395376" lon="11.51339151666301"><ele>391.0</ele><time>2026-03-22T09:34:53Z</time></trkpt><trkpt lat="45.44453791251085" lon="11.513285628650802"><ele>391.0</ele><time>2026-03-22T09:34:55Z</time></trkpt><trkpt lat="45.44458294391174" lon="11.513193183411383"><ele>391.00000000000006</ele><time>2026-03-22T09:34:57Z</time></trkpt><trkpt lat="45.44462705695134" lon="11.513119853422381"><ele>391.0</ele><time>2026-03-22T09:34:59Z</time></trkpt><trkpt lat="45.44465927149373" lon="11.513041454773063"><ele>389.1666666666667</ele><time>2026-03-22T09:35:02Z</time></trkpt><trkpt lat="45.44469223734144" lon="11.512945377646325"><ele>387.33333333333337</ele><time>2026-03-22T09:35:05Z</time></trkpt><trkpt lat="45.44477390873266" lon="11.512874153105118"><ele>385.5</ele><time>2026-03-22T09:35:08Z</time></trkpt><trkpt lat="45.44484460589513" lon="11.512811239418163"><ele>383.6666666666667</ele><time>2026-03-22T09:35:10Z</time></trkpt><trkpt lat="45.444930398175394" lon="11.512735697351001"><ele>381.83333333333337</ele><time>2026-03-22T09:35:11.999Z</time></trkpt><trkpt lat="45.444990998131196" lon="11.512636049599339"><ele>380.0</ele><time>2026-03-22T09:35:13.999Z</time></trkpt><trkpt lat="45.445065145154146" lon="11.512541965146285"><ele>379.4</ele><time>2026-03-22T09:35:15.999Z</time></trkpt><trkpt lat="45.44515580904439" lon="11.51243179790608"><ele>378.8</ele><time>2026-03-22T09:35:17.999Z</time></trkpt><trkpt lat="45.44520748599052" lon="11.51228385225336"><ele>378.20000000000005</ele><time>2026-03-22T09:35:19.999Z</time></trkpt><trkpt lat="45.44525556656297" lon="11.512201537985812"><ele>377.6</ele><time>2026-03-22T09:35:20.999Z</time></trkpt><trkpt lat="45.44528071893794" lon="11.512101391961872"><ele>377.0</ele><time>2026-03-22T09:35:21.999Z</time></trkpt><trkpt lat="45.445328150213875" lon="11.512014923681827"><ele>375.6</ele><time>2026-03-22T09:35:22.999Z</time></trkpt><trkpt lat="45.44537068213576" lon="11.5119128726852"><ele>374.20000000000005</ele><time>2026-03-22T09:35:23.999Z</time></trkpt><trkpt lat="45.44544369543661" lon="11.511825144412285"><ele>372.8</ele><time>2026-03-22T09:35:24.999Z</time></trkpt><trkpt lat="45.44552086801441" lon="11.511734417385618"><ele>371.4</ele><time>2026-03-22T09:35:25.999Z</time></trkpt><trkpt lat="45.44561030476069" lon="11.511633337622092"><ele>370.0</ele><time>2026-03-22T09:35:26.999Z</time></trkpt><trkpt lat="45.4456931543165" lon="11.51151522752149"><ele>369.2</ele><time>2026-03-22T09:35:27.999Z</time></trkpt><trkpt lat="45.44579151460948" lon="11.511422194533552"><ele>368.4</ele><time>2026-03-22T09:35:28.999Z</time></trkpt><trkpt lat="45.445875768189815" lon="11.511325678435012"><ele>367.6</ele><time>2026-03-22T09:35:29.999Z</time></trkpt><trkpt lat="45.44596708694829" lon="11.511236049525948"><ele>366.8</ele><time>2026-03-22T09:35:30.999Z</time></trkpt><trkpt lat="45.44603903225667" lon="11.511155113892654"><ele>366.0</ele><time>2026-03-22T09:35:31.999Z</time></trkpt><trkpt lat="45.446095600053205" lon="11.511066333934702"><ele>365.8333333333333</ele><time>2026-03-22T09:35:32.999Z</time></trkpt><trkpt lat="45.44613928136432" lon="11.510973598834848"><ele>365.6666666666667</ele><time>2026-03-22T09:35:33.999Z</time></trkpt><trkpt lat="45.446168290746826" lon="11.510883516355587"><ele>365.5</ele><time>2026-03-22T09:35:34.999Z</time></trkpt><trkpt lat="45.44617815549445" lon="11.510764075807861"><ele>365.33333333333337</ele><time>2026-03-22T09:35:36.999Z</time></trkpt><trkpt lat="45.44623601677411" lon="11.510945610878238"><ele>365.1666666666667</ele><time>2026-03-22T09:35:40.999Z</time></trkpt><trkpt lat="45.44629091976685" lon="11.511005593781778"><ele>365.0</ele><time>2026-03-22T09:35:42.999Z</time></trkpt><trkpt lat="45.446465929750325" lon="11.510858458151601"><ele>367.1666666666667</ele><time>2026-03-22T09:35:45.999Z</time></trkpt><trkpt lat="45.44655726264552" lon="11.510841172169176"><ele>369.33333333333337</ele><time>2026-03-22T09:35:49.998Z</time></trkpt><trkpt lat="45.44663988065781" lon="11.51081266430755"><ele>371.5</ele><time>2026-03-22T09:35:52.998Z</time></trkpt><trkpt lat="45.446708433349926" lon="11.510779550009003"><ele>373.6666666666667</ele><time>2026-03-22T09:35:55.998Z</time></trkpt><trkpt lat="45.44675347329317" lon="11.510704876477817"><ele>375.8333333333333</ele><time>2026-03-22T09:35:59.998Z</time></trkpt><trkpt lat="45.446707372719644" lon="11.510636362200927"><ele>378.0</ele><time>2026-03-22T09:36:04.998Z</time></trkpt><trkpt lat="45.44663644582997" lon="11.510642019497405"><ele>378.0</ele><time>2026-03-22T09:36:07.998Z</time></trkpt><trkpt lat="45.446550661856485" lon="11.510564767204055"><ele>378.0</ele><time>2026-03-22T09:36:10.998Z</time></trkpt><trkpt lat="45.44649366125363" lon="11.510463363908068"><ele>378.0</ele><time>2026-03-22T09:36:12.998Z</time></trkpt><trkpt lat="45.44646758072718" lon="11.510343291983926"><ele>378.0</ele><time>2026-03-22T09:36:15.998Z</time></trkpt><trkpt lat="45.4464509073339" lon="11.510222172232021"><ele>378.0</ele><time>2026-03-22T09:36:18.998Z</time></trkpt><trkpt lat="45.44644682552708" lon="11.510104877529411"><ele>378.8333333333333</ele><time>2026-03-22T09:36:21.998Z</time></trkpt><trkpt lat="45.44645268657518" lon="11.510007203212691"><ele>379.6666666666667</ele><time>2026-03-22T09:36:25.998Z</time></trkpt><trkpt lat="45.446522730167395" lon="11.50993806125987"><ele>380.5</ele><time>2026-03-22T09:36:29.997Z</time></trkpt><trkpt lat="45.44658953233893" lon="11.509888710570836"><ele>381.33333333333337</ele><time>2026-03-22T09:36:33.997Z</time></trkpt><trkpt lat="45.44665570631504" lon="11.509863859784081"><ele>382.1666666666667</ele><time>2026-03-22T09:36:37.997Z</time></trkpt><trkpt lat="45.446726119495004" lon="11.509821710392936"><ele>383.0</ele><time>2026-03-22T09:36:41.997Z</time></trkpt><trkpt lat="45.446806038272086" lon="11.509804917831113"><ele>383.0</ele><time>2026-03-22T09:36:46Z</time></trkpt><trkpt lat="45.44685958579763" lon="11.509753355198692"><ele>383.0</ele><time>2026-03-22T09:36:49Z</time></trkpt><trkpt lat="45.446934086282496" lon="11.509699784004109"><ele>383.0</ele><time>2026-03-22T09:36:53Z</time></trkpt><trkpt lat="45.446988244776385" lon="11.509624962631987"><ele>383.0</ele><time>2026-03-22T09:36:57Z</time></trkpt><trkpt lat="45.44705340581017" lon="11.509562970791826"><ele>383.0</ele><time>2026-03-22T09:37:01Z</time></trkpt><trkpt lat="45.447095199144535" lon="11.509484643910508"><ele>383.0</ele><time>2026-03-22T09:37:05Z</time></trkpt><trkpt lat="45.44709544155588" lon="11.509387548942753"><ele>383.0</ele><time>2026-03-22T09:37:08Z</time></trkpt><trkpt lat="45.44715464237928" lon="11.509354878133177"><ele>383.83333333333337</ele><time>2026-03-22T09:37:10Z</time></trkpt><trkpt lat="45.44719446214531" lon="11.509234436170585"><ele>384.6666666666667</ele><time>2026-03-22T09:37:13Z</time></trkpt><trkpt lat="45.44724313681017" lon="11.509129563723864"><ele>385.5</ele><time>2026-03-22T09:37:15Z</time></trkpt><trkpt lat="45.44731444669484" lon="11.509054909761755"><ele>386.33333333333337</ele><time>2026-03-22T09:37:17Z</time></trkpt><trkpt lat="45.447382491186936" lon="11.509032164536826"><ele>387.1666666666667</ele><time>2026-03-22T09:37:18.999Z</time></trkpt><trkpt lat="45.447459623203954" lon="11.508993882333321"><ele>388.0</ele><time>2026-03-22T09:37:21.999Z</time></trkpt><trkpt lat="45.44752772179868" lon="11.508978436338449"><ele>388.0</ele><time>2026-03-22T09:37:23.999Z</time></trkpt><trkpt lat="45.4476141831099" lon="11.508949055178695"><ele>388.0</ele><time>2026-03-22T09:37:25.999Z</time></trkpt><trkpt lat="45.44770560195899" lon="11.508907344063886"><ele>388.0</ele><time>2026-03-22T09:37:27.999Z</time></trkpt><trkpt lat="45.447807518421726" lon="11.508882397014979"><ele>388.0</ele><time>2026-03-22T09:37:29.999Z</time></trkpt><trkpt lat="45.4478992034078" lon="11.508848521109146"><ele>388.0</ele><time>2026-03-22T09:37:31.999Z</time></trkpt><trkpt lat="45.447999861250544" lon="11.508822172231534"><ele>388.6666666666667</ele><time>2026-03-22T09:37:33.999Z</time></trkpt><trkpt lat="45.44810533694472" lon="11.50879833285102"><ele>389.33333333333337</ele><time>2026-03-22T09:37:35.999Z</time></trkpt><trkpt lat="45.44822053762793" lon="11.508780691547562"><ele>390.0</ele><time>2026-03-22T09:37:37.999Z</time></trkpt><trkpt lat="45.44850285532613" lon="11.508785339788156"><ele>390.0</ele><time>2026-03-22T09:37:45.999Z</time></trkpt><trkpt lat="45.448569138588056" lon="11.508805025146811"><ele>390.0</ele><time>2026-03-22T09:37:49.999Z</time></trkpt><trkpt lat="45.44863579208589" lon="11.50893135505455"><ele>390.0</ele><time>2026-03-22T09:37:52.999Z</time></trkpt><trkpt lat="45.44866471902852" lon="11.509059284898271"><ele>390.0</ele><time>2026-03-22T09:37:55.999Z</time></trkpt><trkpt lat="45.44871047916498" lon="11.509124192181243"><ele>390.0</ele><time>2026-03-22T09:37:57.998Z</time></trkpt><trkpt lat="45.448741434612934" lon="11.509231035747382"><ele>390.0</ele><time>2026-03-22T09:38:01.998Z</time></trkpt><trkpt lat="45.448783171649254" lon="11.509327776346309"><ele>388.6666666666667</ele><time>2026-03-22T09:38:05.998Z</time></trkpt><trkpt lat="45.448810706116106" lon="11.509421130028128"><ele>387.3333333333333</ele><time>2026-03-22T09:38:07.998Z</time></trkpt><trkpt lat="45.44884351870693" lon="11.509510212776764"><ele>386.0</ele><time>2026-03-22T09:38:12.998Z</time></trkpt><trkpt lat="45.44891793846575" lon="11.509558994110659"><ele>384.66666666666663</ele><time>2026-03-22T09:38:16.998Z</time></trkpt><trkpt lat="45.4490136270458" lon="11.509569002600076"><ele>383.3333333333333</ele><time>2026-03-22T09:38:18.998Z</time></trkpt><trkpt lat="45.4491196907224" lon="11.509594538203137"><ele>382.0</ele><time>2026-03-22T09:38:20.998Z</time></trkpt><trkpt lat="45.449231317474265" lon="11.509633664220226"><ele>381.75</ele><time>2026-03-22T09:38:22.998Z</time></trkpt><trkpt lat="45.449439724521625" lon="11.509663051060624"><ele>381.5</ele><time>2026-03-22T09:38:27.998Z</time></trkpt><trkpt lat="45.4495672361608" lon="11.509660530636292"><ele>381.25</ele><time>2026-03-22T09:38:31.998Z</time></trkpt><trkpt lat="45.449654362211916" lon="11.509657149891542"><ele>381.0</ele><time>2026-03-22T09:38:34.998Z</time></trkpt><trkpt lat="45.44971959707409" lon="11.509591776365479"><ele>382.8</ele><time>2026-03-22T09:38:37.997Z</time></trkpt><trkpt lat="45.44979360750595" lon="11.509576248414481"><ele>384.6</ele><time>2026-03-22T09:38:40.997Z</time></trkpt><trkpt lat="45.45000351769315" lon="11.509593247963217"><ele>386.4</ele><time>2026-03-22T09:38:49.997Z</time></trkpt><trkpt lat="45.45005577075227" lon="11.509643468012388"><ele>388.2</ele><time>2026-03-22T09:38:52Z</time></trkpt><trkpt lat="45.45010671532747" lon="11.509727528925971"><ele>390.0</ele><time>2026-03-22T09:38:55Z</time></trkpt><trkpt lat="45.45015926417511" lon="11.509797692212972"><ele>390.0</ele><time>2026-03-22T09:38:59Z</time></trkpt><trkpt lat="45.45018868719303" lon="11.509717417573249"><ele>390.0</ele><time>2026-03-22T09:39:04Z</time></trkpt><trkpt lat="45.45019567625191" lon="11.50960216995569"><ele>390.0</ele><time>2026-03-22T09:39:07Z</time></trkpt><trkpt lat="45.4501988763638" lon="11.50949284303138"><ele>390.0</ele><time>2026-03-22T09:39:09Z</time></trkpt><trkpt lat="45.45019327944297" lon="11.509378443681088"><ele>390.0</ele><time>2026-03-22T09:39:11Z</time></trkpt><trkpt lat="45.45020020289381" lon="11.50923681109319"><ele>390.0</ele><time>2026-03-22T09:39:13Z</time></trkpt><trkpt lat="45.450213438667944" lon="11.509114637114036"><ele>389.0</ele><time>2026-03-22T09:39:15Z</time></trkpt><trkpt lat="45.45024333747436" lon="11.508989324765594"><ele>388.0</ele><time>2026-03-22T09:39:17Z</time></trkpt><trkpt lat="45.45028704877448" lon="11.508877294443995"><ele>387.0</ele><time>2026-03-22T09:39:19Z</time></trkpt><trkpt lat="45.450313122439105" lon="11.508785655470502"><ele>386.0</ele><time>2026-03-22T09:39:21Z</time></trkpt><trkpt lat="45.45035682115703" lon="11.508660545440131"><ele>385.0</ele><time>2026-03-22T09:39:23.999Z</time></trkpt><trkpt lat="45.450399593703146" lon="11.50857533194367"><ele>384.0</ele><time>2026-03-22T09:39:25.999Z</time></trkpt><trkpt lat="45.45045499112013" lon="11.508472614395398"><ele>383.1666666666667</ele><time>2026-03-22T09:39:28.999Z</time></trkpt><trkpt lat="45.450477349445364" lon="11.508375898267108"><ele>382.3333333333333</ele><time>2026-03-22T09:39:30.999Z</time></trkpt><trkpt lat="45.4505444990189" lon="11.508325868805738"><ele>381.5</ele><time>2026-03-22T09:39:32.999Z</time></trkpt><trkpt lat="45.45060727074484" lon="11.508309380499435"><ele>380.66666666666663</ele><time>2026-03-22T09:39:34.999Z</time></trkpt><trkpt lat="45.45068362366743" lon="11.508310145067568"><ele>379.8333333333333</ele><time>2026-03-22T09:39:36.999Z</time></trkpt><trkpt lat="45.45077709063177" lon="11.508297290601478"><ele>379.0</ele><time>2026-03-22T09:39:39.999Z</time></trkpt><trkpt lat="45.45086482249166" lon="11.50833851999604"><ele>379.0</ele><time>2026-03-22T09:39:41.999Z</time></trkpt><trkpt lat="45.4509543486355" lon="11.508403148738385"><ele>379.0</ele><time>2026-03-22T09:39:43.999Z</time></trkpt><trkpt lat="45.45103443793659" lon="11.508445128006771"><ele>379.0</ele><time>2026-03-22T09:39:45.999Z</time></trkpt><trkpt lat="45.45113813931311" lon="11.508484363043067"><ele>379.0</ele><time>2026-03-22T09:39:47.999Z</time></trkpt><trkpt lat="45.4512440393975" lon="11.508441648243823"><ele>379.0</ele><time>2026-03-22T09:39:49.999Z</time></trkpt><trkpt lat="45.451343380193805" lon="11.508366430385795"><ele>377.2</ele><time>2026-03-22T09:39:51.999Z</time></trkpt><trkpt lat="45.451454376379544" lon="11.508352307819559"><ele>375.4</ele><time>2026-03-22T09:39:53.999Z</time></trkpt><trkpt lat="45.45155978409208" lon="11.508317236255001"><ele>373.6</ele><time>2026-03-22T09:39:55.999Z</time></trkpt><trkpt lat="45.45164137258858" lon="11.508253754414465"><ele>371.8</ele><time>2026-03-22T09:39:57.999Z</time></trkpt><trkpt lat="45.45167733896891" lon="11.508125085790216"><ele>370.0</ele><time>2026-03-22T09:39:59.999Z</time></trkpt><trkpt lat="45.45170096993566" lon="11.508015379474456"><ele>370.0</ele><time>2026-03-22T09:40:01.998Z</time></trkpt><trkpt lat="45.45172203861695" lon="11.507905709578322"><ele>370.0</ele><time>2026-03-22T09:40:03.998Z</time></trkpt><trkpt lat="45.45175250819776" lon="11.507784959801787"><ele>370.0</ele><time>2026-03-22T09:40:05.998Z</time></trkpt><trkpt lat="45.451783225218264" lon="11.50765200663173"><ele>370.0</ele><time>2026-03-22T09:40:07.998Z</time></trkpt><trkpt lat="45.451807005423355" lon="11.507537557866701"><ele>370.0</ele><time>2026-03-22T09:40:09.998Z</time></trkpt><trkpt lat="45.451773902849354" lon="11.507445889181373"><ele>370.0</ele><time>2026-03-22T09:40:12.998Z</time></trkpt><trkpt lat="45.451778327104165" lon="11.507331853810433"><ele>370.0</ele><time>2026-03-22T09:40:58Z</time></trkpt><trkpt lat="45.45175662224309" lon="11.507221977900834"><ele>370.0</ele><time>2026-03-22T09:41:00Z</time></trkpt><trkpt lat="45.45173052674388" lon="11.50709154030537"><ele>370.0</ele><time>2026-03-22T09:41:02Z</time></trkpt><trkpt lat="45.45171627781797" lon="11.506966261641855"><ele>370.0</ele><time>2026-03-22T09:41:04Z</time></trkpt><trkpt lat="45.45171423827936" lon="11.506860606722237"><ele>370.0</ele><time>2026-03-22T09:41:06Z</time></trkpt><trkpt lat="45.451717992449375" lon="11.50676095641339"><ele>370.0</ele><time>2026-03-22T09:41:08Z</time></trkpt><trkpt lat="45.45173779386885" lon="11.506649999735995"><ele>368.4</ele><time>2026-03-22T09:41:10Z</time></trkpt><trkpt lat="45.45177339102971" lon="11.506526143710392"><ele>366.8</ele><time>2026-03-22T09:41:12Z</time></trkpt><trkpt lat="45.451763234929125" lon="11.50640033335709"><ele>365.20000000000005</ele><time>2026-03-22T09:41:14Z</time></trkpt><trkpt lat="45.45168422267764" lon="11.506365776196372"><ele>363.6</ele><time>2026-03-22T09:41:16Z</time></trkpt><trkpt lat="45.45157844903949" lon="11.506357673261087"><ele>362.0</ele><time>2026-03-22T09:41:18Z</time></trkpt><trkpt lat="45.451499582526495" lon="11.506264934529474"><ele>361.20000000000005</ele><time>2026-03-22T09:41:20Z</time></trkpt><trkpt lat="45.45140542562965" lon="11.506210910001254"><ele>360.4</ele><time>2026-03-22T09:41:22Z</time></trkpt><trkpt lat="45.45136513308775" lon="11.506115112662522"><ele>359.6</ele><time>2026-03-22T09:41:23Z</time></trkpt><trkpt lat="45.45133944833736" lon="11.505978605349366"><ele>358.79999999999995</ele><time>2026-03-22T09:41:24Z</time></trkpt><trkpt lat="45.4513214904712" lon="11.505828840979987"><ele>358.0</ele><time>2026-03-22T09:41:25Z</time></trkpt><trkpt lat="45.45131055993236" lon="11.50569440916879"><ele>358.0</ele><time>2026-03-22T09:41:26Z</time></trkpt><trkpt lat="45.45130801532482" lon="11.505575376973798"><ele>358.0</ele><time>2026-03-22T09:41:27Z</time></trkpt><trkpt lat="45.451317236997696" lon="11.505459048165267"><ele>358.0</ele><time>2026-03-22T09:41:28Z</time></trkpt><trkpt lat="45.4513320810381" lon="11.505351978405209"><ele>358.0</ele><time>2026-03-22T09:41:29Z</time></trkpt><trkpt lat="45.451353810305285" lon="11.505256647413123"><ele>358.0</ele><time>2026-03-22T09:41:30Z</time></trkpt><trkpt lat="45.451365112186906" lon="11.505110548444817"><ele>358.0</ele><time>2026-03-22T09:41:31.999Z</time></trkpt><trkpt lat="45.45132560369877" lon="11.50496117710631"><ele>358.0</ele><time>2026-03-22T09:41:35.999Z</time></trkpt><trkpt lat="45.45122432666128" lon="11.504897034473181"><ele>358.0</ele><time>2026-03-22T09:41:37.999Z</time></trkpt><trkpt lat="45.451120497021776" lon="11.5047966753527"><ele>358.0</ele><time>2026-03-22T09:41:39.999Z</time></trkpt><trkpt lat="45.45104065144414" lon="11.504692484633365"><ele>358.0</ele><time>2026-03-22T09:41:41.999Z</time></trkpt><trkpt lat="45.45099475639999" lon="11.504568065173286"><ele>358.0</ele><time>2026-03-22T09:41:43.999Z</time></trkpt><trkpt lat="45.45098770538312" lon="11.504477472895097"><ele>358.0</ele><time>2026-03-22T09:41:44.999Z</time></trkpt><trkpt lat="45.450941084694534" lon="11.504349908013856"><ele>358.0</ele><time>2026-03-22T09:41:46.999Z</time></trkpt><trkpt lat="45.450887807444985" lon="11.504258248937054"><ele>358.0</ele><time>2026-03-22T09:41:48.999Z</time></trkpt><trkpt lat="45.45082540804961" lon="11.50418268485788"><ele>358.0</ele><time>2026-03-22T09:41:50.999Z</time></trkpt><trkpt lat="45.45076317605078" lon="11.50412501607993"><ele>358.0</ele><time>2026-03-22T09:41:52.999Z</time></trkpt><trkpt lat="45.450706659454205" lon="11.504083786335947"><ele>358.0</ele><time>2026-03-22T09:41:54.999Z</time></trkpt><trkpt lat="45.45062913845749" lon="11.504031888028749"><ele>358.00000000000006</ele><time>2026-03-22T09:41:58.999Z</time></trkpt><trkpt lat="45.45056154194313" lon="11.504006834502075"><ele>358.0</ele><time>2026-03-22T09:42:00.999Z</time></trkpt><trkpt lat="45.45051421528494" lon="11.503916281780153"><ele>358.0</ele><time>2026-03-22T09:42:03.999Z</time></trkpt><trkpt lat="45.45054162087776" lon="11.503825378771356"><ele>358.0</ele><time>2026-03-22T09:42:04.999Z</time></trkpt><trkpt lat="45.45055458412619" lon="11.503733600777855"><ele>358.0</ele><time>2026-03-22T09:42:06.999Z</time></trkpt><trkpt lat="45.45057064129567" lon="11.50362715164046"><ele>358.00000000000006</ele><time>2026-03-22T09:42:09.998Z</time></trkpt><trkpt lat="45.45058794807494" lon="11.503530508036874"><ele>358.0</ele><time>2026-03-22T09:42:12.998Z</time></trkpt><trkpt lat="45.45061926714615" lon="11.503447895762013"><ele>358.3333333333333</ele><time>2026-03-22T09:42:14.998Z</time></trkpt><trkpt lat="45.45066749567048" lon="11.503341553291957"><ele>358.66666666666663</ele><time>2026-03-22T09:42:17.998Z</time></trkpt><trkpt lat="45.45071410807818" lon="11.503245461788817"><ele>359.0</ele><time>2026-03-22T09:42:19.998Z</time></trkpt><trkpt lat="45.450751633919225" lon="11.50316968974938"><ele>359.3333333333333</ele><time>2026-03-22T09:42:21.998Z</time></trkpt><trkpt lat="45.45079986821893" lon="11.50309109882719"><ele>359.6666666666667</ele><time>2026-03-22T09:42:23.998Z</time></trkpt><trkpt lat="45.4508556801136" lon="11.503023904218233"><ele>360.0</ele><time>2026-03-22T09:42:25.998Z</time></trkpt><trkpt lat="45.450906037884785" lon="11.502939158219542"><ele>359.6666666666667</ele><time>2026-03-22T09:42:27.998Z</time></trkpt><trkpt lat="45.450969001913585" lon="11.502859592184787"><ele>359.3333333333333</ele><time>2026-03-22T09:42:29.998Z</time></trkpt><trkpt lat="45.45102197468769" lon="11.502776669472029"><ele>359.0</ele><time>2026-03-22T09:42:31.998Z</time></trkpt><trkpt lat="45.451075821866624" lon="11.502689905530204"><ele>358.66666666666663</ele><time>2026-03-22T09:42:33.998Z</time></trkpt><trkpt lat="45.451152481027854" lon="11.50260449178144"><ele>358.3333333333333</ele><time>2026-03-22T09:42:35.998Z</time></trkpt><trkpt lat="45.451236308253755" lon="11.50251025958979"><ele>358.0</ele><time>2026-03-22T09:42:37.998Z</time></trkpt><trkpt lat="45.45133857615284" lon="11.502483135003613"><ele>358.0</ele><time>2026-03-22T09:42:39.998Z</time></trkpt><trkpt lat="45.45138986159169" lon="11.502364359318436"><ele>358.0</ele><time>2026-03-22T09:42:41.998Z</time></trkpt><trkpt lat="45.451467385315674" lon="11.502297837210373"><ele>358.0</ele><time>2026-03-22T09:42:43.998Z</time></trkpt><trkpt lat="45.451515206362515" lon="11.502235808887761"><ele>358.0</ele><time>2026-03-22T09:42:45.998Z</time></trkpt><trkpt lat="45.45159177331854" lon="11.502168822698856"><ele>358.0</ele><time>2026-03-22T09:42:47.997Z</time></trkpt><trkpt lat="45.45165912614948" lon="11.502093731942134"><ele>358.0</ele><time>2026-03-22T09:42:49.997Z</time></trkpt><trkpt lat="45.45171765656036" lon="11.502009092339295"><ele>357.16666666666663</ele><time>2026-03-22T09:42:51.997Z</time></trkpt><trkpt lat="45.45178110241684" lon="11.501930624831807"><ele>356.3333333333333</ele><time>2026-03-22T09:42:53.997Z</time></trkpt><trkpt lat="45.45183483788465" lon="11.501854191327645"><ele>355.5</ele><time>2026-03-22T09:42:55.997Z</time></trkpt><trkpt lat="45.45188957898685" lon="11.501775533112866"><ele>354.6666666666667</ele><time>2026-03-22T09:42:57.997Z</time></trkpt><trkpt lat="45.45191912388024" lon="11.501685484376155"><ele>353.83333333333337</ele><time>2026-03-22T09:42:59.997Z</time></trkpt><trkpt lat="45.45193874997848" lon="11.501576019705876"><ele>353.0</ele><time>2026-03-22T09:43:01.997Z</time></trkpt><trkpt lat="45.45192844902796" lon="11.501474331422799"><ele>353.0</ele><time>2026-03-22T09:43:04Z</time></trkpt><trkpt lat="45.4519148333552" lon="11.50136833036798"><ele>353.0</ele><time>2026-03-22T09:43:06Z</time></trkpt><trkpt lat="45.45190212180959" lon="11.50126140471562"><ele>353.0</ele><time>2026-03-22T09:43:09Z</time></trkpt><trkpt lat="45.4518948610416" lon="11.501148481066858"><ele>353.0</ele><time>2026-03-22T09:43:12Z</time></trkpt><trkpt lat="45.451853223190284" lon="11.501033394259228"><ele>353.0</ele><time>2026-03-22T09:43:14Z</time></trkpt><trkpt lat="45.45176195632311" lon="11.500959792795214"><ele>353.0</ele><time>2026-03-22T09:43:16Z</time></trkpt><trkpt lat="45.451655932156626" lon="11.500976668120664"><ele>352.33333333333337</ele><time>2026-03-22T09:43:18Z</time></trkpt><trkpt lat="45.451556183700795" lon="11.500950316813727"><ele>351.6666666666667</ele><time>2026-03-22T09:43:21Z</time></trkpt><trkpt lat="45.45147290620893" lon="11.50089481269001"><ele>351.0</ele><time>2026-03-22T09:43:23Z</time></trkpt><trkpt lat="45.451406512383215" lon="11.500829410051876"><ele>350.3333333333333</ele><time>2026-03-22T09:43:27Z</time></trkpt><trkpt lat="45.45133603474258" lon="11.500805608096783"><ele>349.66666666666663</ele><time>2026-03-22T09:43:30Z</time></trkpt><trkpt lat="45.45127029776085" lon="11.500721669403475"><ele>349.0</ele><time>2026-03-22T09:43:32.999Z</time></trkpt><trkpt lat="45.451197591003485" lon="11.500676234914511"><ele>349.0</ele><time>2026-03-22T09:43:34.999Z</time></trkpt><trkpt lat="45.45112078900162" lon="11.500596282987235"><ele>349.0</ele><time>2026-03-22T09:43:36.999Z</time></trkpt><trkpt lat="45.45104781359644" lon="11.500532886245798"><ele>349.0</ele><time>2026-03-22T09:43:38.999Z</time></trkpt><trkpt lat="45.450979659881654" lon="11.500472199137295"><ele>349.0</ele><time>2026-03-22T09:43:40.999Z</time></trkpt><trkpt lat="45.450921866851196" lon="11.500429536092886"><ele>349.0</ele><time>2026-03-22T09:43:42.999Z</time></trkpt><trkpt lat="45.450854261158995" lon="11.500423573066186"><ele>349.0</ele><time>2026-03-22T09:43:45.999Z</time></trkpt><trkpt lat="45.45076685809747" lon="11.50039190389934"><ele>347.6</ele><time>2026-03-22T09:43:48.999Z</time></trkpt><trkpt lat="45.45068262431805" lon="11.500375673264644"><ele>346.2</ele><time>2026-03-22T09:43:50.999Z</time></trkpt><trkpt lat="45.45059995348603" lon="11.50035571644957"><ele>344.8</ele><time>2026-03-22T09:43:52.999Z</time></trkpt><trkpt lat="45.450511580379825" lon="11.500347651350696"><ele>343.40000000000003</ele><time>2026-03-22T09:43:54.999Z</time></trkpt><trkpt lat="45.45041939457032" lon="11.500261057985133"><ele>342.0</ele><time>2026-03-22T09:43:56.999Z</time></trkpt><trkpt lat="45.450374140240385" lon="11.500117111662163"><ele>342.0</ele><time>2026-03-22T09:43:58.999Z</time></trkpt><trkpt lat="45.4503742594504" lon="11.499951891862953"><ele>342.0</ele><time>2026-03-22T09:44:00.999Z</time></trkpt><trkpt lat="45.450340744679494" lon="11.49986835419576"><ele>342.0</ele><time>2026-03-22T09:44:01.999Z</time></trkpt><trkpt lat="45.450353126716436" lon="11.499690477986286"><ele>342.0</ele><time>2026-03-22T09:44:03.999Z</time></trkpt><trkpt lat="45.45037603775777" lon="11.499523554739365"><ele>342.0</ele><time>2026-03-22T09:44:05.999Z</time></trkpt><trkpt lat="45.450399816327234" lon="11.49937012615521"><ele>341.6666666666667</ele><time>2026-03-22T09:44:07.999Z</time></trkpt><trkpt lat="45.450420607892895" lon="11.49919754907941"><ele>341.3333333333333</ele><time>2026-03-22T09:44:09.998Z</time></trkpt><trkpt lat="45.45043401750062" lon="11.49909861101185"><ele>341.0</ele><time>2026-03-22T09:44:10.998Z</time></trkpt><trkpt lat="45.45045250606051" lon="11.498997931185125"><ele>340.66666666666663</ele><time>2026-03-22T09:44:11.998Z</time></trkpt><trkpt lat="45.450475171859836" lon="11.498893558727842"><ele>340.3333333333333</ele><time>2026-03-22T09:44:12.998Z</time></trkpt><trkpt lat="45.45049959404076" lon="11.498796825082469"><ele>340.0</ele><time>2026-03-22T09:44:13.998Z</time></trkpt><trkpt lat="45.45052423703361" lon="11.498704501642344"><ele>341.4</ele><time>2026-03-22T09:44:14.998Z</time></trkpt><trkpt lat="45.45054421945373" lon="11.498617925326087"><ele>342.8</ele><time>2026-03-22T09:44:15.998Z</time></trkpt><trkpt lat="45.450579107789416" lon="11.498471102386505"><ele>344.20000000000005</ele><time>2026-03-22T09:44:17.998Z</time></trkpt><trkpt lat="45.45065103429419" lon="11.498355129341103"><ele>345.6</ele><time>2026-03-22T09:44:19.998Z</time></trkpt><trkpt lat="45.45074396159537" lon="11.498242572371815"><ele>347.0</ele><time>2026-03-22T09:44:21.998Z</time></trkpt><trkpt lat="45.45082906813445" lon="11.498151822650149"><ele>347.0</ele><time>2026-03-22T09:44:23.998Z</time></trkpt><trkpt lat="45.450920486057605" lon="11.498057640172428"><ele>347.0</ele><time>2026-03-22T09:44:25.998Z</time></trkpt><trkpt lat="45.45101360268711" lon="11.49795200917254"><ele>347.0</ele><time>2026-03-22T09:44:27.998Z</time></trkpt><trkpt lat="45.45109877887261" lon="11.497842338815005"><ele>347.0</ele><time>2026-03-22T09:44:29.998Z</time></trkpt><trkpt lat="45.451165681433935" lon="11.497727214811345"><ele>347.33333333333337</ele><time>2026-03-22T09:44:31.998Z</time></trkpt><trkpt lat="45.45121641244685" lon="11.497613804182587"><ele>347.6666666666667</ele><time>2026-03-22T09:44:33.998Z</time></trkpt><trkpt lat="45.451266263258304" lon="11.497492736030916"><ele>348.0</ele><time>2026-03-22T09:44:35.998Z</time></trkpt><trkpt lat="45.45133120179559" lon="11.497388961190532"><ele>348.3333333333333</ele><time>2026-03-22T09:44:37.998Z</time></trkpt><trkpt lat="45.45139758285675" lon="11.497337018053553"><ele>348.66666666666663</ele><time>2026-03-22T09:44:39.998Z</time></trkpt><trkpt lat="45.45144963290999" lon="11.497285821472751"><ele>349.0</ele><time>2026-03-22T09:44:41.998Z</time></trkpt><trkpt lat="45.45148038632377" lon="11.497192185543303"><ele>349.3333333333333</ele><time>2026-03-22T09:44:44.998Z</time></trkpt><trkpt lat="45.451497368349926" lon="11.497102175471644"><ele>349.66666666666663</ele><time>2026-03-22T09:44:48.997Z</time></trkpt><trkpt lat="45.451538621363625" lon="11.49701112965554"><ele>350.0</ele><time>2026-03-22T09:44:51.997Z</time></trkpt><trkpt lat="45.451565330297626" lon="11.496887948356225"><ele>350.3333333333333</ele><time>2026-03-22T09:44:54.997Z</time></trkpt><trkpt lat="45.45161623510663" lon="11.496754206761427"><ele>350.6666666666667</ele><time>2026-03-22T09:44:56.997Z</time></trkpt><trkpt lat="45.45167667097717" lon="11.496635274193519"><ele>351.0</ele><time>2026-03-22T09:44:58.997Z</time></trkpt><trkpt lat="45.45172663241383" lon="11.496570904790774"><ele>352.1666666666667</ele><time>2026-03-22T09:44:59.997Z</time></trkpt><trkpt lat="45.45177774952192" lon="11.496472470104525"><ele>353.3333333333333</ele><time>2026-03-22T09:45:01.997Z</time></trkpt><trkpt lat="45.45183005374755" lon="11.496382804043556"><ele>354.5</ele><time>2026-03-22T09:45:03.997Z</time></trkpt><trkpt lat="45.45190384626301" lon="11.496303926417346"><ele>355.66666666666663</ele><time>2026-03-22T09:45:05.997Z</time></trkpt><trkpt lat="45.451994777058786" lon="11.496272392029471"><ele>356.8333333333333</ele><time>2026-03-22T09:45:07.997Z</time></trkpt><trkpt lat="45.45206645009481" lon="11.496301348055253"><ele>358.0</ele><time>2026-03-22T09:45:10Z</time></trkpt><trkpt lat="45.452131887456126" lon="11.49629868578728"><ele>357.66666666666663</ele><time>2026-03-22T09:45:12Z</time></trkpt><trkpt lat="45.45219570269677" lon="11.496247842945717"><ele>357.3333333333333</ele><time>2026-03-22T09:45:14Z</time></trkpt><trkpt lat="45.452273209652915" lon="11.496181201641567"><ele>357.0</ele><time>2026-03-22T09:45:16Z</time></trkpt><trkpt lat="45.45235290203343" lon="11.496120031391966"><ele>356.6666666666667</ele><time>2026-03-22T09:45:18Z</time></trkpt><trkpt lat="45.45241539805021" lon="11.496058861924354"><ele>356.33333333333337</ele><time>2026-03-22T09:45:20Z</time></trkpt><trkpt lat="45.45246850854113" lon="11.496008342983208"><ele>356.0</ele><time>2026-03-22T09:45:22Z</time></trkpt><trkpt lat="45.45252836500372" lon="11.495954162559547"><ele>355.99999999999994</ele><time>2026-03-22T09:45:24Z</time></trkpt><trkpt lat="45.45258410729064" lon="11.495893635001538"><ele>356.0</ele><time>2026-03-22T09:45:26Z</time></trkpt><trkpt lat="45.45263630657767" lon="11.495824942006081"><ele>356.0</ele><time>2026-03-22T09:45:28Z</time></trkpt><trkpt lat="45.452688995646525" lon="11.495764489783076"><ele>356.0</ele><time>2026-03-22T09:45:30Z</time></trkpt><trkpt lat="45.452729910301855" lon="11.495694173365756"><ele>356.0</ele><time>2026-03-22T09:45:32Z</time></trkpt><trkpt lat="45.4527865205788" lon="11.495624242387327"><ele>355.99999999999994</ele><time>2026-03-22T09:45:34Z</time></trkpt><trkpt lat="45.452829376293295" lon="11.495540031623237"><ele>356.0</ele><time>2026-03-22T09:45:36Z</time></trkpt><trkpt lat="45.452860265168816" lon="11.495446612050076"><ele>356.5</ele><time>2026-03-22T09:45:38.999Z</time></trkpt><trkpt lat="45.45290416497126" lon="11.495348049688364"><ele>357.0</ele><time>2026-03-22T09:45:41.999Z</time></trkpt><trkpt lat="45.4529263799638" lon="11.495246198772842"><ele>357.5</ele><time>2026-03-22T09:45:45.999Z</time></trkpt><trkpt lat="45.45297543591084" lon="11.49517674907625"><ele>358.0</ele><time>2026-03-22T09:45:48.999Z</time></trkpt><trkpt lat="45.45303435423199" lon="11.49510331161318"><ele>358.5</ele><time>2026-03-22T09:45:51.999Z</time></trkpt><trkpt lat="45.45311742068517" lon="11.495083344574558"><ele>359.0</ele><time>2026-03-22T09:45:54.999Z</time></trkpt><trkpt lat="45.453194731615724" lon="11.49508143969081"><ele>359.8571428571429</ele><time>2026-03-22T09:45:57.999Z</time></trkpt><trkpt lat="45.45326451669843" lon="11.495040175571337"><ele>360.7142857142857</ele><time>2026-03-22T09:46:00.999Z</time></trkpt><trkpt lat="45.453329830690215" lon="11.49500052211368"><ele>361.57142857142856</ele><time>2026-03-22T09:46:03.999Z</time></trkpt><trkpt lat="45.453409117784524" lon="11.494987447599552"><ele>362.42857142857144</ele><time>2026-03-22T09:46:06.999Z</time></trkpt><trkpt lat="45.453471205503796" lon="11.494935806118207"><ele>363.2857142857143</ele><time>2026-03-22T09:46:09.999Z</time></trkpt><trkpt lat="45.453545756108475" lon="11.494914208458443"><ele>364.14285714285717</ele><time>2026-03-22T09:46:12.999Z</time></trkpt><trkpt lat="45.45362054132755" lon="11.494904317278083"><ele>365.0</ele><time>2026-03-22T09:46:15.999Z</time></trkpt><trkpt lat="45.45368972060993" lon="11.494873399006533"><ele>365.0</ele><time>2026-03-22T09:46:18.998Z</time></trkpt><trkpt lat="45.45376066327147" lon="11.494839387348557"><ele>365.0</ele><time>2026-03-22T09:46:21.998Z</time></trkpt><trkpt lat="45.4538243221023" lon="11.49480626847921"><ele>365.0</ele><time>2026-03-22T09:46:24.998Z</time></trkpt><trkpt lat="45.453897914158716" lon="11.49474422071283"><ele>365.0</ele><time>2026-03-22T09:46:28.998Z</time></trkpt><trkpt lat="45.45396890841868" lon="11.494686600451306"><ele>365.0</ele><time>2026-03-22T09:46:31.998Z</time></trkpt><trkpt lat="45.454039323300194" lon="11.494652489720552"><ele>365.0</ele><time>2026-03-22T09:46:35.998Z</time></trkpt><trkpt lat="45.4541148144652" lon="11.494649340092462"><ele>365.83333333333337</ele><time>2026-03-22T09:47:16Z</time></trkpt><trkpt lat="45.45418079321494" lon="11.494620020547663"><ele>366.6666666666667</ele><time>2026-03-22T09:54:13.999Z</time></trkpt><trkpt lat="45.45423139843562" lon="11.494513815450086"><ele>367.5</ele><time>2026-03-22T09:54:16.999Z</time></trkpt><trkpt lat="45.45426861648717" lon="11.494424312373658"><ele>368.3333333333333</ele><time>2026-03-22T09:54:18.999Z</time></trkpt><trkpt lat="45.45431551456235" lon="11.494304895058054"><ele>369.16666666666663</ele><time>2026-03-22T09:54:20.999Z</time></trkpt><trkpt lat="45.45434476864348" lon="11.494217725169754"><ele>370.0</ele><time>2026-03-22T09:54:22.999Z</time></trkpt><trkpt lat="45.45439647902404" lon="11.494145702903593"><ele>370.0</ele><time>2026-03-22T09:54:25.999Z</time></trkpt><trkpt lat="45.454351604517434" lon="11.49404164586405"><ele>370.0</ele><time>2026-03-22T09:54:28.999Z</time></trkpt><trkpt lat="45.45438565800561" lon="11.493915313929422"><ele>370.0</ele><time>2026-03-22T09:54:30.999Z</time></trkpt><trkpt lat="45.45439925787902" lon="11.493782862078712"><ele>370.0</ele><time>2026-03-22T09:54:32.999Z</time></trkpt><trkpt lat="45.454405575933414" lon="11.493655648518788"><ele>370.0</ele><time>2026-03-22T09:54:34.999Z</time></trkpt><trkpt lat="45.45440984676857" lon="11.493527343332111"><ele>368.2</ele><time>2026-03-22T09:54:36.999Z</time></trkpt><trkpt lat="45.45441655345653" lon="11.493399155692561"><ele>366.4</ele><time>2026-03-22T09:54:38.999Z</time></trkpt><trkpt lat="45.454455183126335" lon="11.493267432018893"><ele>364.6</ele><time>2026-03-22T09:54:40.999Z</time></trkpt><trkpt lat="45.454532913073805" lon="11.493123175992762"><ele>362.8</ele><time>2026-03-22T09:54:42.999Z</time></trkpt><trkpt lat="45.45457718417002" lon="11.493049883036244"><ele>361.0</ele><time>2026-03-22T09:54:43.998Z</time></trkpt><trkpt lat="45.45462980058853" lon="11.492990527723466"><ele>360.8571428571429</ele><time>2026-03-22T09:54:44.998Z</time></trkpt><trkpt lat="45.454685820811555" lon="11.492940884412434"><ele>360.71428571428567</ele><time>2026-03-22T09:54:45.998Z</time></trkpt><trkpt lat="45.454745559484465" lon="11.492893394733539"><ele>360.57142857142856</ele><time>2026-03-22T09:54:46.998Z</time></trkpt><trkpt lat="45.45480381064507" lon="11.492843614246995"><ele>360.42857142857144</ele><time>2026-03-22T09:54:47.998Z</time></trkpt><trkpt lat="45.45485876295682" lon="11.492783676921148"><ele>360.28571428571433</ele><time>2026-03-22T09:54:48.998Z</time></trkpt><trkpt lat="45.45491929351783" lon="11.492713237961503"><ele>360.1428571428571</ele><time>2026-03-22T09:54:49.998Z</time></trkpt><trkpt lat="45.454982507981235" lon="11.492645053560777"><ele>360.0</ele><time>2026-03-22T09:54:50.998Z</time></trkpt><trkpt lat="45.45503279123115" lon="11.492579302596404"><ele>360.3333333333333</ele><time>2026-03-22T09:54:51.998Z</time></trkpt><trkpt lat="45.45507823675698" lon="11.492488460026657"><ele>360.6666666666667</ele><time>2026-03-22T09:54:52.998Z</time></trkpt><trkpt lat="45.455130474012726" lon="11.492402301104356"><ele>361.0</ele><time>2026-03-22T09:54:53.998Z</time></trkpt><trkpt lat="45.45518868984972" lon="11.49231761131788"><ele>361.33333333333337</ele><time>2026-03-22T09:54:54.998Z</time></trkpt><trkpt lat="45.45524518373256" lon="11.492219701588729"><ele>361.6666666666667</ele><time>2026-03-22T09:54:55.998Z</time></trkpt><trkpt lat="45.45530484060191" lon="11.49214064164007"><ele>362.0</ele><time>2026-03-22T09:54:56.998Z</time></trkpt><trkpt lat="45.45537004222935" lon="11.492063055264374"><ele>360.8</ele><time>2026-03-22T09:54:57.998Z</time></trkpt><trkpt lat="45.45543981881911" lon="11.492003909759502"><ele>359.6</ele><time>2026-03-22T09:54:58.998Z</time></trkpt><trkpt lat="45.45556037727972" lon="11.491990989549226"><ele>358.40000000000003</ele><time>2026-03-22T09:55:00.998Z</time></trkpt><trkpt lat="45.45568740589891" lon="11.491965154376436"><ele>357.20000000000005</ele><time>2026-03-22T09:55:02.998Z</time></trkpt><trkpt lat="45.455751830003145" lon="11.49194292016474"><ele>356.0</ele><time>2026-03-22T09:55:03.998Z</time></trkpt><trkpt lat="45.45582828393138" lon="11.491985609741166"><ele>353.75</ele><time>2026-03-22T09:55:05.998Z</time></trkpt><trkpt lat="45.45597180470165" lon="11.491748127055871"><ele>351.5</ele><time>2026-03-22T09:55:10.998Z</time></trkpt><trkpt lat="45.4560163680763" lon="11.491676206957559"><ele>349.25</ele><time>2026-03-22T09:55:11.998Z</time></trkpt><trkpt lat="45.4560959426209" lon="11.491536230925322"><ele>347.0</ele><time>2026-03-22T09:55:13.998Z</time></trkpt><trkpt lat="45.456133578781774" lon="11.491454765548896"><ele>347.0</ele><time>2026-03-22T09:55:14.998Z</time></trkpt><trkpt lat="45.45616677365688" lon="11.491355478765167"><ele>347.0</ele><time>2026-03-22T09:55:15.998Z</time></trkpt><trkpt lat="45.45620518664281" lon="11.491206176369205"><ele>347.0</ele><time>2026-03-22T09:55:17.998Z</time></trkpt><trkpt lat="45.45622042364021" lon="11.491085010056942"><ele>347.0</ele><time>2026-03-22T09:55:19.998Z</time></trkpt><trkpt lat="45.456332590412856" lon="11.491068810007976"><ele>347.0</ele><time>2026-03-22T09:55:20.998Z</time></trkpt><trkpt lat="45.4564046876054" lon="11.491063070619349"><ele>346.6666666666667</ele><time>2026-03-22T09:55:21.998Z</time></trkpt><trkpt lat="45.456462308984925" lon="11.490965801386059"><ele>346.33333333333337</ele><time>2026-03-22T09:55:22.997Z</time></trkpt><trkpt lat="45.456511252227195" lon="11.490885692818791"><ele>346.0</ele><time>2026-03-22T09:55:24.997Z</time></trkpt><trkpt lat="45.45658281292403" lon="11.490773674295019"><ele>345.6666666666667</ele><time>2026-03-22T09:55:26.997Z</time></trkpt><trkpt lat="45.45662317329269" lon="11.490692121717306"><ele>345.3333333333333</ele><time>2026-03-22T09:55:27.997Z</time></trkpt><trkpt lat="45.45670686049832" lon="11.490602759382027"><ele>345.0</ele><time>2026-03-22T09:55:29.997Z</time></trkpt><trkpt lat="45.45678781192373" lon="11.490543761422751"><ele>345.0</ele><time>2026-03-22T09:55:31.997Z</time></trkpt><trkpt lat="45.45685498553744" lon="11.490475935027094"><ele>345.0</ele><time>2026-03-22T09:55:33.997Z</time></trkpt><trkpt lat="45.456908118855864" lon="11.49042652491542"><ele>345.0</ele><time>2026-03-22T09:55:35.997Z</time></trkpt><trkpt lat="45.456975440092954" lon="11.490350052982956"><ele>345.0</ele><time>2026-03-22T09:55:39Z</time></trkpt><trkpt lat="45.457022188110074" lon="11.490271351958992"><ele>345.0</ele><time>2026-03-22T09:55:41Z</time></trkpt><trkpt lat="45.457095184488246" lon="11.490230487112704"><ele>345.0</ele><time>2026-03-22T09:55:43Z</time></trkpt><trkpt lat="45.45716461610269" lon="11.490179080220898"><ele>346.8571428571429</ele><time>2026-03-22T09:55:45Z</time></trkpt><trkpt lat="45.45721647057448" lon="11.490111423183775"><ele>348.7142857142857</ele><time>2026-03-22T09:55:47Z</time></trkpt><trkpt lat="45.457268260578296" lon="11.490041374144203"><ele>350.57142857142856</ele><time>2026-03-22T09:55:49Z</time></trkpt><trkpt lat="45.457336697502356" lon="11.490000945346235"><ele>352.42857142857144</ele><time>2026-03-22T09:55:52Z</time></trkpt><trkpt lat="45.45738501975018" lon="11.489913030780265"><ele>354.2857142857143</ele><time>2026-03-22T09:55:56Z</time></trkpt><trkpt lat="45.45742445996513" lon="11.48983025379186"><ele>356.14285714285717</ele><time>2026-03-22T09:55:59Z</time></trkpt><trkpt lat="45.45748482603893" lon="11.489760770048685"><ele>358.0</ele><time>2026-03-22T09:56:02Z</time></trkpt><trkpt lat="45.45751969047977" lon="11.489665275726093"><ele>356.5</ele><time>2026-03-22T09:56:04Z</time></trkpt><trkpt lat="45.457567772956665" lon="11.489572021360548"><ele>355.0</ele><time>2026-03-22T09:56:07Z</time></trkpt><trkpt lat="45.45761713491526" lon="11.489489733586023"><ele>353.5</ele><time>2026-03-22T09:56:09Z</time></trkpt><trkpt lat="45.45767656733495" lon="11.489384306268379"><ele>352.0</ele><time>2026-03-22T09:56:11.999Z</time></trkpt><trkpt lat="45.45773240331267" lon="11.489290240329199"><ele>350.5</ele><time>2026-03-22T09:56:14.999Z</time></trkpt><trkpt lat="45.45778845095862" lon="11.48920102907938"><ele>349.0</ele><time>2026-03-22T09:56:17.999Z</time></trkpt><trkpt lat="45.45785014083959" lon="11.489150437795123"><ele>349.0</ele><time>2026-03-22T09:56:20.999Z</time></trkpt><trkpt lat="45.45791295300738" lon="11.489080621451823"><ele>349.0</ele><time>2026-03-22T09:56:23.999Z</time></trkpt><trkpt lat="45.457981138477074" lon="11.48902621233949"><ele>349.0</ele><time>2026-03-22T09:56:27.999Z</time></trkpt><trkpt lat="45.45804281807295" lon="11.488980038836903"><ele>349.0</ele><time>2026-03-22T09:56:31.999Z</time></trkpt><trkpt lat="45.45812008655071" lon="11.489004831630384"><ele>349.0</ele><time>2026-03-22T09:56:35.999Z</time></trkpt><trkpt lat="45.458154630402596" lon="11.489091933684103"><ele>349.0</ele><time>2026-03-22T09:56:38.999Z</time></trkpt><trkpt lat="45.45817115695945" lon="11.48921137953689"><ele>350.8333333333333</ele><time>2026-03-22T09:56:42.999Z</time></trkpt><trkpt lat="45.45817197436769" lon="11.489312323666597"><ele>352.66666666666663</ele><time>2026-03-22T09:56:46.999Z</time></trkpt><trkpt lat="45.45819260498048" lon="11.489422286381945"><ele>354.5</ele><time>2026-03-22T09:56:50.998Z</time></trkpt><trkpt lat="45.45818648975481" lon="11.489524888618506"><ele>356.3333333333333</ele><time>2026-03-22T09:56:54.998Z</time></trkpt><trkpt lat="45.45811542779346" lon="11.489590654536991"><ele>358.1666666666667</ele><time>2026-03-22T09:56:57.998Z</time></trkpt><trkpt lat="45.45807595911343" lon="11.489681326455267"><ele>360.0</ele><time>2026-03-22T09:57:00.998Z</time></trkpt><trkpt lat="45.458035169779315" lon="11.489774505820009"><ele>359.7142857142857</ele><time>2026-03-22T09:57:03.998Z</time></trkpt><trkpt lat="45.45799562345406" lon="11.489850592948459"><ele>359.42857142857144</ele><time>2026-03-22T09:57:05.998Z</time></trkpt><trkpt lat="45.45798975759655" lon="11.489963379672144"><ele>359.14285714285717</ele><time>2026-03-22T09:57:08.998Z</time></trkpt><trkpt lat="45.457955144418676" lon="11.490051971122263"><ele>358.8571428571429</ele><time>2026-03-22T09:57:10.998Z</time></trkpt><trkpt lat="45.45792544840865" lon="11.490139793245298"><ele>358.57142857142856</ele><time>2026-03-22T09:57:13.998Z</time></trkpt><trkpt lat="45.45786735014347" lon="11.490176300223224"><ele>358.28571428571433</ele><time>2026-03-22T09:57:15.998Z</time></trkpt><trkpt lat="45.45783198775588" lon="11.490287689643697"><ele>358.0</ele><time>2026-03-22T09:57:18.998Z</time></trkpt><trkpt lat="45.45778970826171" lon="11.490377747419195"><ele>359.59999999999997</ele><time>2026-03-22T09:57:21.998Z</time></trkpt><trkpt lat="45.457675832081435" lon="11.49051011584379"><ele>361.2</ele><time>2026-03-22T09:57:23.998Z</time></trkpt><trkpt lat="45.45758914155548" lon="11.4906131100825"><ele>362.8</ele><time>2026-03-22T09:57:25.998Z</time></trkpt><trkpt lat="45.45753985913376" lon="11.490717434486207"><ele>364.4</ele><time>2026-03-22T09:57:27.998Z</time></trkpt><trkpt lat="45.45750649917317" lon="11.490799807057817"><ele>366.0</ele><time>2026-03-22T09:57:29.998Z</time></trkpt><trkpt lat="45.45745376982856" lon="11.490859179520742"><ele>366.0</ele><time>2026-03-22T09:57:31.997Z</time></trkpt><trkpt lat="45.45737686201858" lon="11.49087238696938"><ele>366.0</ele><time>2026-03-22T09:57:33.997Z</time></trkpt><trkpt lat="45.45731782157176" lon="11.49092387716538"><ele>366.0</ele><time>2026-03-22T09:57:36.997Z</time></trkpt><trkpt lat="45.45737043847591" lon="11.491018137348082"><ele>366.0</ele><time>2026-03-22T09:57:41.997Z</time></trkpt><trkpt lat="45.457408960025454" lon="11.491137038909669"><ele>366.0</ele><time>2026-03-22T09:57:45Z</time></trkpt><trkpt lat="45.457463996194015" lon="11.49122936333001"><ele>366.0</ele><time>2026-03-22T09:57:47Z</time></trkpt><trkpt lat="45.457570001795574" lon="11.49128255026695"><ele>365.7142857142857</ele><time>2026-03-22T09:57:51Z</time></trkpt><trkpt lat="45.45762467293965" lon="11.491334350907637"><ele>365.42857142857144</ele><time>2026-03-22T09:57:53Z</time></trkpt><trkpt lat="45.457683747887884" lon="11.49139093315078"><ele>365.1428571428571</ele><time>2026-03-22T09:57:55Z</time></trkpt><trkpt lat="45.45777503785363" lon="11.491473886579112"><ele>364.8571428571429</ele><time>2026-03-22T09:57:57Z</time></trkpt><trkpt lat="45.45783200529315" lon="11.491519867697063"><ele>364.57142857142856</ele><time>2026-03-22T09:57:59Z</time></trkpt><trkpt lat="45.457884866538485" lon="11.491568759305284"><ele>364.2857142857143</ele><time>2026-03-22T09:58:02Z</time></trkpt><trkpt lat="45.45794825532878" lon="11.491544718745587"><ele>364.0</ele><time>2026-03-22T09:58:05Z</time></trkpt><trkpt lat="45.45798531254915" lon="11.491465368214724"><ele>364.0</ele><time>2026-03-22T09:58:09Z</time></trkpt><trkpt lat="45.45801434298765" lon="11.491373458484347"><ele>364.0</ele><time>2026-03-22T09:58:12Z</time></trkpt><trkpt lat="45.458076247840786" lon="11.491297903268466"><ele>364.0</ele><time>2026-03-22T09:58:15Z</time></trkpt><trkpt lat="45.45814368178913" lon="11.491204844974558"><ele>364.0</ele><time>2026-03-22T09:58:17.999Z</time></trkpt><trkpt lat="45.45820136862628" lon="11.491163279869493"><ele>364.0</ele><time>2026-03-22T09:58:20.999Z</time></trkpt><trkpt lat="45.45824944260485" lon="11.491096229691518"><ele>364.0</ele><time>2026-03-22T09:58:23.999Z</time></trkpt><trkpt lat="45.458305470519115" lon="11.491051957845238"><ele>364.0</ele><time>2026-03-22T09:58:26.999Z</time></trkpt><trkpt lat="45.45838604659924" lon="11.49102155521292"><ele>365.7142857142857</ele><time>2026-03-22T09:58:30.999Z</time></trkpt><trkpt lat="45.4584261416034" lon="11.49094814925233"><ele>367.42857142857144</ele><time>2026-03-22T09:58:33.999Z</time></trkpt><trkpt lat="45.45850292052057" lon="11.490870772760656"><ele>369.1428571428571</ele><time>2026-03-22T09:58:37.999Z</time></trkpt><trkpt lat="45.45854849217555" lon="11.490800857496467"><ele>370.8571428571429</ele><time>2026-03-22T09:58:41.999Z</time></trkpt><trkpt lat="45.45859507941514" lon="11.490730533216146"><ele>372.57142857142856</ele><time>2026-03-22T09:58:44.999Z</time></trkpt><trkpt lat="45.458650908671856" lon="11.4906766529854"><ele>374.2857142857143</ele><time>2026-03-22T09:58:47.999Z</time></trkpt><trkpt lat="45.458700789709994" lon="11.490616900486625"><ele>376.0</ele><time>2026-03-22T09:58:50.999Z</time></trkpt><trkpt lat="45.45876446206507" lon="11.49056560180823"><ele>376.3333333333333</ele><time>2026-03-22T09:58:53.999Z</time></trkpt><trkpt lat="45.45883125682834" lon="11.490521523601029"><ele>376.66666666666663</ele><time>2026-03-22T09:58:56.998Z</time></trkpt><trkpt lat="45.458918073355825" lon="11.490512932887928"><ele>377.0</ele><time>2026-03-22T09:58:59.998Z</time></trkpt><trkpt lat="45.45900529031694" lon="11.490528481132177"><ele>377.3333333333333</ele><time>2026-03-22T09:59:02.998Z</time></trkpt><trkpt lat="45.45906889096425" lon="11.490553770854847"><ele>377.6666666666667</ele><time>2026-03-22T09:59:04.998Z</time></trkpt><trkpt lat="45.45916963865467" lon="11.490557333881299"><ele>378.0</ele><time>2026-03-22T09:59:06.998Z</time></trkpt><trkpt lat="45.45924336401679" lon="11.490518145081182"><ele>378.0</ele><time>2026-03-22T09:59:10.998Z</time></trkpt><trkpt lat="45.45933168371033" lon="11.490552978913474"><ele>378.0</ele><time>2026-03-22T09:59:12.998Z</time></trkpt><trkpt lat="45.45939701121522" lon="11.490543537917445"><ele>378.0</ele><time>2026-03-22T09:59:14.998Z</time></trkpt><trkpt lat="45.45946009123777" lon="11.490522857212296"><ele>378.0</ele><time>2026-03-22T09:59:16.998Z</time></trkpt><trkpt lat="45.45953387752517" lon="11.490490868965558"><ele>378.0</ele><time>2026-03-22T09:59:18.998Z</time></trkpt><trkpt lat="45.45959766509297" lon="11.490414260018262"><ele>378.0</ele><time>2026-03-22T09:59:20.998Z</time></trkpt><trkpt lat="45.45962862337903" lon="11.490326649476232"><ele>378.6666666666667</ele><time>2026-03-22T09:59:23.998Z</time></trkpt><trkpt lat="45.459672863834754" lon="11.490226322292292"><ele>379.3333333333333</ele><time>2026-03-22T09:59:27.998Z</time></trkpt><trkpt lat="45.4597151253901" lon="11.490133743648954"><ele>380.0</ele><time>2026-03-22T09:59:30.998Z</time></trkpt><trkpt lat="45.45974335968985" lon="11.490045624499885"><ele>380.66666666666663</ele><time>2026-03-22T09:59:32.998Z</time></trkpt><trkpt lat="45.45977576366687" lon="11.489911038677215"><ele>381.3333333333333</ele><time>2026-03-22T09:59:35.997Z</time></trkpt><trkpt lat="45.45980116492473" lon="11.48980609039674"><ele>382.0</ele><time>2026-03-22T09:59:38.997Z</time></trkpt><trkpt lat="45.45981897669107" lon="11.489709568907749"><ele>380.5</ele><time>2026-03-22T09:59:41.997Z</time></trkpt><trkpt lat="45.45983996458912" lon="11.489589114445414"><ele>379.0</ele><time>2026-03-22T09:59:44.997Z</time></trkpt><trkpt lat="45.45986151494468" lon="11.489498038994615"><ele>377.5</ele><time>2026-03-22T09:59:47.997Z</time></trkpt><trkpt lat="45.459873850598235" lon="11.489392479116335"><ele>376.0</ele><time>2026-03-22T09:59:51Z</time></trkpt><trkpt lat="45.45991656333438" lon="11.489292712149789"><ele>374.5</ele><time>2026-03-22T09:59:54Z</time></trkpt><trkpt lat="45.45998366916642" lon="11.48925038464766"><ele>373.0</ele><time>2026-03-22T09:59:56Z</time></trkpt><trkpt lat="45.460110195272" lon="11.489225628414358"><ele>373.0</ele><time>2026-03-22T10:00:00Z</time></trkpt><trkpt lat="45.460186499709884" lon="11.48920637163489"><ele>373.0</ele><time>2026-03-22T10:00:02Z</time></trkpt><trkpt lat="45.460266558409394" lon="11.489198994639393"><ele>373.0</ele><time>2026-03-22T10:00:04Z</time></trkpt><trkpt lat="45.460412965944705" lon="11.489188287703819"><ele>373.0</ele><time>2026-03-22T10:00:08Z</time></trkpt><trkpt lat="45.46048833029532" lon="11.489180675376879"><ele>373.0</ele><time>2026-03-22T10:00:10Z</time></trkpt><trkpt lat="45.46055941630378" lon="11.489194473089329"><ele>372.59999999999997</ele><time>2026-03-22T10:00:12Z</time></trkpt><trkpt lat="45.460642778664365" lon="11.489215124466266"><ele>372.2</ele><time>2026-03-22T10:00:14Z</time></trkpt><trkpt lat="45.460790856932796" lon="11.489240389341653"><ele>371.8</ele><time>2026-03-22T10:00:17Z</time></trkpt><trkpt lat="45.46088985002493" lon="11.489276670930725"><ele>371.4</ele><time>2026-03-22T10:00:19Z</time></trkpt><trkpt lat="45.46099543569482" lon="11.48931823013871"><ele>371.0</ele><time>2026-03-22T10:00:21Z</time></trkpt><trkpt lat="45.461124483750574" lon="11.489375415271317"><ele>371.0</ele><time>2026-03-22T10:00:22.999Z</time></trkpt><trkpt lat="45.46121866245507" lon="11.489442478708753"><ele>371.0</ele><time>2026-03-22T10:00:24.999Z</time></trkpt><trkpt lat="45.46131614478229" lon="11.489502528923998"><ele>371.0</ele><time>2026-03-22T10:00:26.999Z</time></trkpt><trkpt lat="45.46140712135679" lon="11.489578983862902"><ele>371.0</ele><time>2026-03-22T10:00:28.999Z</time></trkpt><trkpt lat="45.46150063010678" lon="11.489664705280047"><ele>371.0</ele><time>2026-03-22T10:00:30.999Z</time></trkpt><trkpt lat="45.46157865432638" lon="11.489747513447846"><ele>370.0</ele><time>2026-03-22T10:00:32.999Z</time></trkpt><trkpt lat="45.46164382393205" lon="11.48983856943689"><ele>369.0</ele><time>2026-03-22T10:00:34.999Z</time></trkpt><trkpt lat="45.46169949590327" lon="11.489911453323563"><ele>368.0</ele><time>2026-03-22T10:00:36.999Z</time></trkpt><trkpt lat="45.46178909735902" lon="11.489934272985733"><ele>367.0</ele><time>2026-03-22T10:00:38.999Z</time></trkpt><trkpt lat="45.461952036381504" lon="11.489874988039402"><ele>366.0</ele><time>2026-03-22T10:00:43.999Z</time></trkpt><trkpt lat="45.462035274256515" lon="11.489916838267309"><ele>364.0</ele><time>2026-03-22T10:00:45.999Z</time></trkpt><trkpt lat="45.46211624356807" lon="11.489995942573389"><ele>362.0</ele><time>2026-03-22T10:00:47.999Z</time></trkpt><trkpt lat="45.46217840727428" lon="11.490088291035438"><ele>360.0</ele><time>2026-03-22T10:00:49.999Z</time></trkpt><trkpt lat="45.46222347043063" lon="11.490158677561045"><ele>358.0</ele><time>2026-03-22T10:00:51.999Z</time></trkpt><trkpt lat="45.46228296739452" lon="11.49025264787352"><ele>356.0</ele><time>2026-03-22T10:00:53.999Z</time></trkpt><trkpt lat="45.4623196312994" lon="11.490359828712037"><ele>354.0</ele><time>2026-03-22T10:00:55.999Z</time></trkpt><trkpt lat="45.46238450686141" lon="11.490485404874693"><ele>354.0</ele><time>2026-03-22T10:00:57.999Z</time></trkpt><trkpt lat="45.462447779941755" lon="11.490615767635274"><ele>354.0</ele><time>2026-03-22T10:00:59.999Z</time></trkpt><trkpt lat="45.46248889406723" lon="11.49070100766733"><ele>354.0</ele><time>2026-03-22T10:01:01.998Z</time></trkpt><trkpt lat="45.46252203077969" lon="11.490813230402333"><ele>354.0</ele><time>2026-03-22T10:01:03.998Z</time></trkpt><trkpt lat="45.46253637114052" lon="11.490905763437384"><ele>354.0</ele><time>2026-03-22T10:01:05.998Z</time></trkpt><trkpt lat="45.46248978146472" lon="11.490982245380595"><ele>354.0</ele><time>2026-03-22T10:01:08.998Z</time></trkpt><trkpt lat="45.462486819368074" lon="11.491108225133164"><ele>354.0</ele><time>2026-03-22T10:01:10.998Z</time></trkpt><trkpt lat="45.46247116697178" lon="11.49122097940516"><ele>354.0</ele><time>2026-03-22T10:01:12.998Z</time></trkpt><trkpt lat="45.46245599571597" lon="11.491360202475617"><ele>354.0</ele><time>2026-03-22T10:01:14.998Z</time></trkpt><trkpt lat="45.46244553781167" lon="11.49151822381209"><ele>354.0</ele><time>2026-03-22T10:01:16.998Z</time></trkpt><trkpt lat="45.46236545113101" lon="11.491629556217395"><ele>354.0</ele><time>2026-03-22T10:01:18.998Z</time></trkpt><trkpt lat="45.46229230266696" lon="11.491717770070077"><ele>353.2</ele><time>2026-03-22T10:01:20.998Z</time></trkpt><trkpt lat="45.46226189696649" lon="11.491823069275664"><ele>352.4</ele><time>2026-03-22T10:01:22.998Z</time></trkpt><trkpt lat="45.4622689121649" lon="11.491934633994006"><ele>351.6</ele><time>2026-03-22T10:01:24.998Z</time></trkpt><trkpt lat="45.46225450690001" lon="11.492090973200035"><ele>350.8</ele><time>2026-03-22T10:01:26.998Z</time></trkpt><trkpt lat="45.46224611532557" lon="11.492215585311746"><ele>350.0</ele><time>2026-03-22T10:01:28.998Z</time></trkpt><trkpt lat="45.462194395676946" lon="11.49236184648635"><ele>348.33333333333337</ele><time>2026-03-22T10:01:30.998Z</time></trkpt><trkpt lat="45.46220983632693" lon="11.492471623314"><ele>346.6666666666667</ele><time>2026-03-22T10:01:31.998Z</time></trkpt><trkpt lat="45.46218122766784" lon="11.492618196554064"><ele>345.0</ele><time>2026-03-22T10:01:33.998Z</time></trkpt><trkpt lat="45.46216780682654" lon="11.492709614075743"><ele>343.3333333333333</ele><time>2026-03-22T10:01:34.998Z</time></trkpt><trkpt lat="45.46216683591799" lon="11.49281177771456"><ele>341.66666666666663</ele><time>2026-03-22T10:01:35.998Z</time></trkpt><trkpt lat="45.46217810418717" lon="11.492932986353601"><ele>340.0</ele><time>2026-03-22T10:01:36.998Z</time></trkpt><trkpt lat="45.46218316946617" lon="11.493032533596466"><ele>339.16666666666663</ele><time>2026-03-22T10:01:37.998Z</time></trkpt><trkpt lat="45.46219751700212" lon="11.493180854446836"><ele>338.3333333333333</ele><time>2026-03-22T10:01:39.998Z</time></trkpt><trkpt lat="45.462216920520696" lon="11.493283872113201"><ele>337.5</ele><time>2026-03-22T10:01:42.997Z</time></trkpt><trkpt lat="45.4622625060705" lon="11.493379111293816"><ele>336.6666666666667</ele><time>2026-03-22T10:02:39.999Z</time></trkpt><trkpt lat="45.462335599235594" lon="11.493409388153013"><ele>335.83333333333337</ele><time>2026-03-22T10:02:43.999Z</time></trkpt><trkpt lat="45.46242767609715" lon="11.49342063204164"><ele>335.0</ele><time>2026-03-22T10:02:46.999Z</time></trkpt><trkpt lat="45.4625229098635" lon="11.493429884981767"><ele>335.0</ele><time>2026-03-22T10:02:49.999Z</time></trkpt><trkpt lat="45.462603489655216" lon="11.493456707339334"><ele>335.0</ele><time>2026-03-22T10:02:51.999Z</time></trkpt><trkpt lat="45.462671613397475" lon="11.493522869046028"><ele>335.0</ele><time>2026-03-22T10:02:53.999Z</time></trkpt><trkpt lat="45.46274305955102" lon="11.493560274836893"><ele>335.0</ele><time>2026-03-22T10:02:55.999Z</time></trkpt><trkpt lat="45.46280438739367" lon="11.493583480861236"><ele>335.0</ele><time>2026-03-22T10:02:57.999Z</time></trkpt><trkpt lat="45.46293453939504" lon="11.49353182912275"><ele>335.0</ele><time>2026-03-22T10:03:00.999Z</time></trkpt><trkpt lat="45.46303499824738" lon="11.493520040390562"><ele>334.6</ele><time>2026-03-22T10:03:02.999Z</time></trkpt><trkpt lat="45.463153435597775" lon="11.493482831533443"><ele>334.2</ele><time>2026-03-22T10:03:04.999Z</time></trkpt><trkpt lat="45.46325682753099" lon="11.493469970913562"><ele>333.79999999999995</ele><time>2026-03-22T10:03:06.999Z</time></trkpt><trkpt lat="45.46333131984702" lon="11.4934274840145"><ele>333.4</ele><time>2026-03-22T10:03:08.998Z</time></trkpt><trkpt lat="45.463420578717574" lon="11.493387004843969"><ele>333.0</ele><time>2026-03-22T10:03:10.998Z</time></trkpt><trkpt lat="45.46351802462119" lon="11.493306044224942"><ele>333.0</ele><time>2026-03-22T10:03:12.998Z</time></trkpt><trkpt lat="45.4635960261068" lon="11.493201588451088"><ele>333.0</ele><time>2026-03-22T10:03:14.998Z</time></trkpt><trkpt lat="45.463661640232615" lon="11.49313406610872"><ele>333.0</ele><time>2026-03-22T10:03:16.998Z</time></trkpt><trkpt lat="45.46375377028669" lon="11.493142280628906"><ele>333.0</ele><time>2026-03-22T10:03:18.998Z</time></trkpt><trkpt lat="45.46382718091458" lon="11.493246018976574"><ele>333.0</ele><time>2026-03-22T10:03:20.998Z</time></trkpt><trkpt lat="45.46384508875812" lon="11.493335269890066"><ele>333.0</ele><time>2026-03-22T10:03:21.998Z</time></trkpt><trkpt lat="45.46392703887711" lon="11.493438282156442"><ele>332.8333333333333</ele><time>2026-03-22T10:03:23.998Z</time></trkpt><trkpt lat="45.46398429602889" lon="11.49352732445135"><ele>332.6666666666667</ele><time>2026-03-22T10:03:25.998Z</time></trkpt><trkpt lat="45.46405673488989" lon="11.493594557520813"><ele>332.5</ele><time>2026-03-22T10:03:27.998Z</time></trkpt><trkpt lat="45.46413691525792" lon="11.493643702833456"><ele>332.33333333333337</ele><time>2026-03-22T10:03:28.998Z</time></trkpt><trkpt lat="45.46419659141068" lon="11.49367335829477"><ele>332.1666666666667</ele><time>2026-03-22T10:03:29.998Z</time></trkpt><trkpt lat="45.46427573762385" lon="11.49375960707999"><ele>332.0</ele><time>2026-03-22T10:03:31.998Z</time></trkpt><trkpt lat="45.4644532161728" lon="11.493813311732913"><ele>331.0</ele><time>2026-03-22T10:03:35.998Z</time></trkpt><trkpt lat="45.46457818092394" lon="11.493877313337029"><ele>330.0</ele><time>2026-03-22T10:03:37.998Z</time></trkpt><trkpt lat="45.46464950844144" lon="11.493924166314333"><ele>329.0</ele><time>2026-03-22T10:03:38.998Z</time></trkpt><trkpt lat="45.4647219818722" lon="11.493942654033924"><ele>328.0</ele><time>2026-03-22T10:03:39.998Z</time></trkpt><trkpt lat="45.46483481251964" lon="11.493973094655898"><ele>327.0</ele><time>2026-03-22T10:03:41.998Z</time></trkpt><trkpt lat="45.46491467841085" lon="11.49403428753849"><ele>327.0</ele><time>2026-03-22T10:03:43.998Z</time></trkpt><trkpt lat="45.46500065165391" lon="11.494097201133535"><ele>327.0</ele><time>2026-03-22T10:03:45.998Z</time></trkpt><trkpt lat="45.46506399007533" lon="11.494153730456151"><ele>327.0</ele><time>2026-03-22T10:03:46.997Z</time></trkpt><trkpt lat="45.46512471202429" lon="11.49421754614065"><ele>327.0</ele><time>2026-03-22T10:03:47.997Z</time></trkpt><trkpt lat="45.46521871287365" lon="11.494276042684396"><ele>327.0</ele><time>2026-03-22T10:03:49.997Z</time></trkpt><trkpt lat="45.465260688055835" lon="11.494386648805213"><ele>327.0</ele><time>2026-03-22T10:03:50.997Z</time></trkpt><trkpt lat="45.46529893627494" lon="11.494469496516817"><ele>327.0</ele><time>2026-03-22T10:03:51.997Z</time></trkpt><trkpt lat="45.46532415035446" lon="11.494582536806295"><ele>327.0</ele><time>2026-03-22T10:03:52.997Z</time></trkpt><trkpt lat="45.46539411218534" lon="11.494705716741354"><ele>327.0</ele><time>2026-03-22T10:03:54.997Z</time></trkpt><trkpt lat="45.46547538395572" lon="11.494766843046209"><ele>327.0</ele><time>2026-03-22T10:03:57.997Z</time></trkpt><trkpt lat="45.465606694593696" lon="11.494768923229136"><ele>327.0</ele><time>2026-03-22T10:03:59.997Z</time></trkpt><trkpt lat="45.46567137781858" lon="11.494776447588588"><ele>324.0</ele><time>2026-03-22T10:04:00.997Z</time></trkpt><trkpt lat="45.465788047149694" lon="11.494785849744627"><ele>321.0</ele><time>2026-03-22T10:04:03Z</time></trkpt><trkpt lat="45.46585022725276" lon="11.494771301029452"><ele>318.0</ele><time>2026-03-22T10:04:04Z</time></trkpt><trkpt lat="45.465917028962686" lon="11.494808546520762"><ele>315.0</ele><time>2026-03-22T10:04:05Z</time></trkpt><trkpt lat="45.46598770228973" lon="11.494744358664805"><ele>312.0</ele><time>2026-03-22T10:04:06Z</time></trkpt><trkpt lat="45.46605318902581" lon="11.49473722137521"><ele>309.0</ele><time>2026-03-22T10:04:07Z</time></trkpt><trkpt lat="45.4661676179414" lon="11.49472956259378"><ele>310.59999999999997</ele><time>2026-03-22T10:04:09Z</time></trkpt><trkpt lat="45.46628224617212" lon="11.494703504436075"><ele>312.2</ele><time>2026-03-22T10:04:11Z</time></trkpt><trkpt lat="45.46638255326761" lon="11.494705578170825"><ele>313.79999999999995</ele><time>2026-03-22T10:04:13Z</time></trkpt><trkpt lat="45.46644570304542" lon="11.494666690757985"><ele>315.4</ele><time>2026-03-22T10:04:14Z</time></trkpt><trkpt lat="45.46655260378746" lon="11.494597876464669"><ele>317.0</ele><time>2026-03-22T10:04:16Z</time></trkpt><trkpt lat="45.46665487577261" lon="11.494540523347657"><ele>317.0</ele><time>2026-03-22T10:04:18Z</time></trkpt><trkpt lat="45.46676529114881" lon="11.49448462157186"><ele>317.0</ele><time>2026-03-22T10:04:20Z</time></trkpt><trkpt lat="45.46686530299343" lon="11.494443526538383"><ele>317.0</ele><time>2026-03-22T10:04:22Z</time></trkpt><trkpt lat="45.466981849910965" lon="11.494413162887646"><ele>317.0</ele><time>2026-03-22T10:04:24Z</time></trkpt><trkpt lat="45.467141342032576" lon="11.494377150406658"><ele>314.8</ele><time>2026-03-22T10:04:27Z</time></trkpt><trkpt lat="45.46719657974201" lon="11.494323853989076"><ele>312.6</ele><time>2026-03-22T10:04:28Z</time></trkpt><trkpt lat="45.46729930006256" lon="11.494261792011182"><ele>310.40000000000003</ele><time>2026-03-22T10:04:30Z</time></trkpt><trkpt lat="45.46737518887482" lon="11.494171660261921"><ele>308.2</ele><time>2026-03-22T10:04:32Z</time></trkpt><trkpt lat="45.46749493741981" lon="11.494130402727219"><ele>306.0</ele><time>2026-03-22T10:04:33.999Z</time></trkpt><trkpt lat="45.467607568092504" lon="11.494075601804319"><ele>306.0</ele><time>2026-03-22T10:04:35.999Z</time></trkpt><trkpt lat="45.467611378906305" lon="11.493955710632674"><ele>306.0</ele><time>2026-03-22T10:04:36.999Z</time></trkpt><trkpt lat="45.467716639846834" lon="11.493862967520846"><ele>306.0</ele><time>2026-03-22T10:04:38.999Z</time></trkpt><trkpt lat="45.467703804541564" lon="11.493754862805647"><ele>306.0</ele><time>2026-03-22T10:04:40.999Z</time></trkpt><trkpt lat="45.46801794032512" lon="11.493957308855338"><ele>304.6666666666667</ele><time>2026-03-22T10:04:41.999Z</time></trkpt><trkpt lat="45.468102795887724" lon="11.493940786149915"><ele>303.3333333333333</ele><time>2026-03-22T10:04:42.999Z</time></trkpt><trkpt lat="45.468157276559175" lon="11.493893364291068"><ele>302.0</ele><time>2026-03-22T10:04:43.999Z</time></trkpt><trkpt lat="45.468203955166466" lon="11.493832654505804"><ele>300.66666666666663</ele><time>2026-03-22T10:04:44.999Z</time></trkpt><trkpt lat="45.46825223577488" lon="11.493697949370448"><ele>299.3333333333333</ele><time>2026-03-22T10:04:46.999Z</time></trkpt><trkpt lat="45.46830512278354" lon="11.493621861267867"><ele>298.0</ele><time>2026-03-22T10:04:48.999Z</time></trkpt><trkpt lat="45.46839375918958" lon="11.493604392804029"><ele>298.0</ele><time>2026-03-22T10:04:50.999Z</time></trkpt><trkpt lat="45.46853246914201" lon="11.49357039495791"><ele>298.0</ele><time>2026-03-22T10:04:52.999Z</time></trkpt><trkpt lat="45.46859506736149" lon="11.493558405964118"><ele>298.0</ele><time>2026-03-22T10:04:53.999Z</time></trkpt><trkpt lat="45.46869931834451" lon="11.49349603475409"><ele>298.0</ele><time>2026-03-22T10:04:55.999Z</time></trkpt><trkpt lat="45.468818914923524" lon="11.493475562798086"><ele>298.0</ele><time>2026-03-22T10:04:57.999Z</time></trkpt><trkpt lat="45.46892456470029" lon="11.493447435084292"><ele>298.5</ele><time>2026-03-22T10:04:59.999Z</time></trkpt><trkpt lat="45.469011128262196" lon="11.493417084709028"><ele>299.0</ele><time>2026-03-22T10:05:01.999Z</time></trkpt><trkpt lat="45.46908004967926" lon="11.493403951065838"><ele>299.5</ele><time>2026-03-22T10:05:03.999Z</time></trkpt><trkpt lat="45.46915808102907" lon="11.493390894640067"><ele>300.0</ele><time>2026-03-22T10:05:05.999Z</time></trkpt><trkpt lat="45.46921939991462" lon="11.493277485505434"><ele>300.5</ele><time>2026-03-22T10:05:09.999Z</time></trkpt><trkpt lat="45.469263825658835" lon="11.493171635192304"><ele>301.0</ele><time>2026-03-22T10:05:11.998Z</time></trkpt><trkpt lat="45.469298310874024" lon="11.493053031525262"><ele>301.0</ele><time>2026-03-22T10:05:14.998Z</time></trkpt><trkpt lat="45.46933302208139" lon="11.49297188514558"><ele>301.0</ele><time>2026-03-22T10:05:16.998Z</time></trkpt><trkpt lat="45.46935405258206" lon="11.492864046703037"><ele>301.0</ele><time>2026-03-22T10:05:19.998Z</time></trkpt><trkpt lat="45.4693966903376" lon="11.492766648114635"><ele>301.0</ele><time>2026-03-22T10:05:22.998Z</time></trkpt><trkpt lat="45.469447833256694" lon="11.492687880020288"><ele>301.0</ele><time>2026-03-22T10:05:26.998Z</time></trkpt><trkpt lat="45.46949378434739" lon="11.492615162033808"><ele>301.0</ele><time>2026-03-22T10:05:29.998Z</time></trkpt><trkpt lat="45.4695450393082" lon="11.492544129834954"><ele>301.0</ele><time>2026-03-22T10:05:32.998Z</time></trkpt><trkpt lat="45.469639667241374" lon="11.492513540399868"><ele>300.2</ele><time>2026-03-22T10:05:34.998Z</time></trkpt><trkpt lat="45.46972375639723" lon="11.492487959523668"><ele>299.40000000000003</ele><time>2026-03-22T10:05:36.998Z</time></trkpt><trkpt lat="45.46980431070296" lon="11.492483697759768"><ele>298.6</ele><time>2026-03-22T10:05:37.998Z</time></trkpt><trkpt lat="45.469898212176275" lon="11.492468139332553"><ele>297.8</ele><time>2026-03-22T10:05:39.998Z</time></trkpt><trkpt lat="45.469997996915936" lon="11.492493496650448"><ele>297.0</ele><time>2026-03-22T10:05:41.998Z</time></trkpt><trkpt lat="45.47008608384475" lon="11.492492874992342"><ele>297.0</ele><time>2026-03-22T10:05:43.998Z</time></trkpt><trkpt lat="45.470148402809706" lon="11.492450998591774"><ele>297.0</ele><time>2026-03-22T10:05:45.998Z</time></trkpt><trkpt lat="45.47022188393416" lon="11.492455561224025"><ele>297.0</ele><time>2026-03-22T10:05:47.998Z</time></trkpt><trkpt lat="45.47043687679305" lon="11.492443356199033"><ele>297.0</ele><time>2026-03-22T10:05:52.997Z</time></trkpt><trkpt lat="45.47050809505268" lon="11.492378608326003"><ele>297.0</ele><time>2026-03-22T10:05:54.997Z</time></trkpt><trkpt lat="45.4706716325125" lon="11.492295448327479"><ele>296.0</ele><time>2026-03-22T10:05:58.997Z</time></trkpt><trkpt lat="45.47078727132288" lon="11.492230619634798"><ele>295.0</ele><time>2026-03-22T10:06:00.997Z</time></trkpt><trkpt lat="45.47090028548215" lon="11.492164512055533"><ele>294.0</ele><time>2026-03-22T10:06:02.997Z</time></trkpt><trkpt lat="45.471005080724474" lon="11.49208602334658"><ele>293.0</ele><time>2026-03-22T10:06:04.997Z</time></trkpt><trkpt lat="45.47110211676108" lon="11.492027553579941"><ele>292.4</ele><time>2026-03-22T10:06:06.997Z</time></trkpt><trkpt lat="45.471223650403466" lon="11.492012140714591"><ele>291.8</ele><time>2026-03-22T10:06:09Z</time></trkpt><trkpt lat="45.471337287021704" lon="11.49198312625298"><ele>291.2</ele><time>2026-03-22T10:06:11Z</time></trkpt><trkpt lat="45.47142245507454" lon="11.492009163994938"><ele>290.6</ele><time>2026-03-22T10:06:13Z</time></trkpt><trkpt lat="45.471474475920026" lon="11.492078885349997"><ele>290.0</ele><time>2026-03-22T10:06:17Z</time></trkpt><trkpt lat="45.47154799310991" lon="11.492133835365866"><ele>290.0</ele><time>2026-03-22T10:06:20Z</time></trkpt><trkpt lat="45.47162865850476" lon="11.492212264618924"><ele>290.0</ele><time>2026-03-22T10:06:23Z</time></trkpt><trkpt lat="45.47170840583375" lon="11.492235007021758"><ele>290.0</ele><time>2026-03-22T10:06:25Z</time></trkpt><trkpt lat="45.471787872359" lon="11.49219525694312"><ele>290.0</ele><time>2026-03-22T10:06:27Z</time></trkpt><trkpt lat="45.47186415034637" lon="11.492158995803466"><ele>290.0</ele><time>2026-03-22T10:06:29Z</time></trkpt><trkpt lat="45.47193167801449" lon="11.492127315550041"><ele>290.0</ele><time>2026-03-22T10:06:31Z</time></trkpt><trkpt lat="45.472016929943706" lon="11.49207732547193"><ele>289.4</ele><time>2026-03-22T10:06:33Z</time></trkpt><trkpt lat="45.472121874656594" lon="11.492016773475548"><ele>288.8</ele><time>2026-03-22T10:06:35Z</time></trkpt><trkpt lat="45.47217178345986" lon="11.491947944625268"><ele>288.2</ele><time>2026-03-22T10:06:37Z</time></trkpt><trkpt lat="45.4722805461156" lon="11.49191277637288"><ele>287.6</ele><time>2026-03-22T10:06:39Z</time></trkpt><trkpt lat="45.472357960848946" lon="11.491884646120303"><ele>287.0</ele><time>2026-03-22T10:06:40Z</time></trkpt><trkpt lat="45.47245876988947" lon="11.491838717359133"><ele>287.0</ele><time>2026-03-22T10:06:41.999Z</time></trkpt><trkpt lat="45.47256979879968" lon="11.491773522370773"><ele>287.0</ele><time>2026-03-22T10:06:43.999Z</time></trkpt><trkpt lat="45.47263391254412" lon="11.491747311333507"><ele>287.0</ele><time>2026-03-22T10:06:44.999Z</time></trkpt><trkpt lat="45.47269596756292" lon="11.491718395313113"><ele>287.0</ele><time>2026-03-22T10:06:45.999Z</time></trkpt><trkpt lat="45.47280820884963" lon="11.491657975542477"><ele>287.0</ele><time>2026-03-22T10:06:47.999Z</time></trkpt><trkpt lat="45.472910424154776" lon="11.491611753895727"><ele>287.0</ele><time>2026-03-22T10:06:49.999Z</time></trkpt><trkpt lat="45.4730214630495" lon="11.491542540990128"><ele>287.0</ele><time>2026-03-22T10:06:51.999Z</time></trkpt><trkpt lat="45.47310934410311" lon="11.491459181516666"><ele>287.0</ele><time>2026-03-22T10:06:53.999Z</time></trkpt><trkpt lat="45.47320533818603" lon="11.491365851894685"><ele>287.0</ele><time>2026-03-22T10:06:55.999Z</time></trkpt><trkpt lat="45.47327630092891" lon="11.491269065921754"><ele>287.0</ele><time>2026-03-22T10:06:57.999Z</time></trkpt><trkpt lat="45.47335832403421" lon="11.491170792295112"><ele>287.0</ele><time>2026-03-22T10:06:59.999Z</time></trkpt><trkpt lat="45.4734297773601" lon="11.491108812533465"><ele>287.0</ele><time>2026-03-22T10:07:01.999Z</time></trkpt><trkpt lat="45.473509967562904" lon="11.49105527809887"><ele>287.0</ele><time>2026-03-22T10:07:03.999Z</time></trkpt><trkpt lat="45.47357771380708" lon="11.490994187264441"><ele>287.0</ele><time>2026-03-22T10:07:05.999Z</time></trkpt><trkpt lat="45.47366922371739" lon="11.490921961102446"><ele>287.0</ele><time>2026-03-22T10:07:07.999Z</time></trkpt><trkpt lat="45.473754171661604" lon="11.490871368592408"><ele>287.0</ele><time>2026-03-22T10:07:09.999Z</time></trkpt><trkpt lat="45.47384340643603" lon="11.490806519579317"><ele>285.25</ele><time>2026-03-22T10:07:11.999Z</time></trkpt><trkpt lat="45.4739404999588" lon="11.490747417213248"><ele>283.5</ele><time>2026-03-22T10:07:13.999Z</time></trkpt><trkpt lat="45.47404268122368" lon="11.490693290097663"><ele>281.75</ele><time>2026-03-22T10:07:15.999Z</time></trkpt><trkpt lat="45.47412739632934" lon="11.49065561416108"><ele>280.0</ele><time>2026-03-22T10:07:17.999Z</time></trkpt><trkpt lat="45.47425544044775" lon="11.490766768433506"><ele>280.0</ele><time>2026-03-22T10:07:20.998Z</time></trkpt><trkpt lat="45.47431326376971" lon="11.49092330516725"><ele>280.0</ele><time>2026-03-22T10:07:22.998Z</time></trkpt><trkpt lat="45.47433679096694" lon="11.491018297989969"><ele>280.0</ele><time>2026-03-22T10:07:23.998Z</time></trkpt><trkpt lat="45.47439378562978" lon="11.491153442532973"><ele>280.0</ele><time>2026-03-22T10:07:25.998Z</time></trkpt><trkpt lat="45.47447674308787" lon="11.491211943828228"><ele>280.0</ele><time>2026-03-22T10:07:27.998Z</time></trkpt><trkpt lat="45.47458008295248" lon="11.491164245505015"><ele>280.16666666666663</ele><time>2026-03-22T10:07:29.998Z</time></trkpt><trkpt lat="45.474668817754946" lon="11.49110827460262"><ele>280.3333333333333</ele><time>2026-03-22T10:07:31.998Z</time></trkpt><trkpt lat="45.474766071629446" lon="11.491076712867777"><ele>280.5</ele><time>2026-03-22T10:07:33.998Z</time></trkpt><trkpt lat="45.47482259297253" lon="11.491029592106347"><ele>280.6666666666667</ele><time>2026-03-22T10:07:35.998Z</time></trkpt><trkpt lat="45.47490105482588" lon="11.490998363545534"><ele>280.83333333333337</ele><time>2026-03-22T10:07:37.998Z</time></trkpt><trkpt lat="45.47497474507329" lon="11.490966795554767"><ele>281.0</ele><time>2026-03-22T10:07:39.998Z</time></trkpt><trkpt lat="45.47504741616381" lon="11.490941117726686"><ele>281.0</ele><time>2026-03-22T10:07:41.998Z</time></trkpt><trkpt lat="45.475133768803424" lon="11.49092237044207"><ele>281.0</ele><time>2026-03-22T10:07:43.998Z</time></trkpt><trkpt lat="45.475212856165484" lon="11.490889239148489"><ele>281.0</ele><time>2026-03-22T10:07:45.998Z</time></trkpt><trkpt lat="45.47527632406605" lon="11.490818622766145"><ele>281.0</ele><time>2026-03-22T10:07:47.998Z</time></trkpt><trkpt lat="45.47535615923282" lon="11.490750204491393"><ele>281.0</ele><time>2026-03-22T10:07:49.998Z</time></trkpt><trkpt lat="45.47542377165527" lon="11.490675336345493"><ele>281.0</ele><time>2026-03-22T10:07:51.998Z</time></trkpt><trkpt lat="45.475509711323255" lon="11.490604315867056"><ele>281.0</ele><time>2026-03-22T10:07:53.998Z</time></trkpt><trkpt lat="45.47558282413325" lon="11.490516978584857"><ele>281.0</ele><time>2026-03-22T10:07:55.998Z</time></trkpt><trkpt lat="45.475662397087014" lon="11.490393776445385"><ele>281.0</ele><time>2026-03-22T10:07:57.997Z</time></trkpt><trkpt lat="45.47572273010567" lon="11.490250350590093"><ele>281.0</ele><time>2026-03-22T10:07:59.997Z</time></trkpt><trkpt lat="45.47581041766137" lon="11.490140218797471"><ele>281.0</ele><time>2026-03-22T10:08:01.997Z</time></trkpt><trkpt lat="45.47592730705622" lon="11.490071429777977"><ele>280.5</ele><time>2026-03-22T10:08:03.997Z</time></trkpt><trkpt lat="45.4759868458748" lon="11.490034037699997"><ele>280.0</ele><time>2026-03-22T10:08:04.997Z</time></trkpt><trkpt lat="45.47605444505259" lon="11.489997201460284"><ele>279.5</ele><time>2026-03-22T10:08:05.997Z</time></trkpt><trkpt lat="45.47613319261792" lon="11.489971705564782"><ele>279.0</ele><time>2026-03-22T10:08:06.997Z</time></trkpt><trkpt lat="45.476210704926466" lon="11.489948159369048"><ele>278.5</ele><time>2026-03-22T10:08:07.997Z</time></trkpt><trkpt lat="45.47629116723111" lon="11.489905998209895"><ele>278.0</ele><time>2026-03-22T10:08:08.997Z</time></trkpt><trkpt lat="45.476368840258516" lon="11.489833289051925"><ele>277.6</ele><time>2026-03-22T10:08:09.997Z</time></trkpt><trkpt lat="45.47644733629497" lon="11.489766559369109"><ele>277.20000000000005</ele><time>2026-03-22T10:08:10.997Z</time></trkpt><trkpt lat="45.476524873468584" lon="11.489703183376077"><ele>276.8</ele><time>2026-03-22T10:08:11.997Z</time></trkpt><trkpt lat="45.47659894923464" lon="11.48963831666057"><ele>276.40000000000003</ele><time>2026-03-22T10:08:12.997Z</time></trkpt><trkpt lat="45.476676782917096" lon="11.489572861709316"><ele>276.0</ele><time>2026-03-22T10:08:13.997Z</time></trkpt><trkpt lat="45.476753215055396" lon="11.489496377068477"><ele>273.8333333333333</ele><time>2026-03-22T10:08:15Z</time></trkpt><trkpt lat="45.47683062446095" lon="11.489427067165488"><ele>271.6666666666667</ele><time>2026-03-22T10:08:16Z</time></trkpt><trkpt lat="45.476907804295465" lon="11.489360899070412"><ele>269.5</ele><time>2026-03-22T10:08:17Z</time></trkpt><trkpt lat="45.47698500965623" lon="11.489292057070365"><ele>267.33333333333337</ele><time>2026-03-22T10:08:18Z</time></trkpt><trkpt lat="45.4770624773673" lon="11.489226384854616"><ele>265.1666666666667</ele><time>2026-03-22T10:08:19Z</time></trkpt><trkpt lat="45.477133581000025" lon="11.489175615452666"><ele>263.0</ele><time>2026-03-22T10:08:20Z</time></trkpt><trkpt lat="45.47719233918375" lon="11.48912285606986"><ele>262.1428571428571</ele><time>2026-03-22T10:08:21Z</time></trkpt><trkpt lat="45.477252556604356" lon="11.489069289007697"><ele>261.2857142857143</ele><time>2026-03-22T10:08:22Z</time></trkpt><trkpt lat="45.47730949100322" lon="11.489013187383568"><ele>260.42857142857144</ele><time>2026-03-22T10:08:23Z</time></trkpt><trkpt lat="45.477359348870834" lon="11.48895611558336"><ele>259.57142857142856</ele><time>2026-03-22T10:08:24Z</time></trkpt><trkpt lat="45.477412513211114" lon="11.488904451297337"><ele>258.7142857142857</ele><time>2026-03-22T10:08:25Z</time></trkpt><trkpt lat="45.477470485711216" lon="11.48885845975668"><ele>257.85714285714283</ele><time>2026-03-22T10:08:26Z</time></trkpt><trkpt lat="45.47752638594588" lon="11.488811877995243"><ele>257.0</ele><time>2026-03-22T10:08:27Z</time></trkpt><trkpt lat="45.477626289658936" lon="11.48871805295087"><ele>256.33333333333337</ele><time>2026-03-22T10:08:29Z</time></trkpt><trkpt lat="45.47767877031549" lon="11.48866316151912"><ele>255.66666666666669</ele><time>2026-03-22T10:08:30Z</time></trkpt><trkpt lat="45.477756347601094" lon="11.488548523257629"><ele>255.0</ele><time>2026-03-22T10:08:32Z</time></trkpt><trkpt lat="45.47779681118811" lon="11.488399978398935"><ele>254.33333333333331</ele><time>2026-03-22T10:08:34Z</time></trkpt><trkpt lat="45.4778188701199" lon="11.488299917880747"><ele>253.66666666666666</ele><time>2026-03-22T10:08:35Z</time></trkpt><trkpt lat="45.47784089547035" lon="11.488193330837413"><ele>253.0</ele><time>2026-03-22T10:08:36Z</time></trkpt><trkpt lat="45.47786183998073" lon="11.48809156094693"><ele>252.99999999999997</ele><time>2026-03-22T10:08:37Z</time></trkpt><trkpt lat="45.4778911676029" lon="11.487975827026672"><ele>253.0</ele><time>2026-03-22T10:08:39Z</time></trkpt><trkpt lat="45.4779357361221" lon="11.48790580408643"><ele>253.0</ele><time>2026-03-22T10:09:38.998Z</time></trkpt><trkpt lat="45.4780380832988" lon="11.48789966050922"><ele>253.0</ele><time>2026-03-22T10:10:12.997Z</time></trkpt><trkpt lat="45.47807774839744" lon="11.487822114272477"><ele>252.99999999999997</ele><time>2026-03-22T10:10:46Z</time></trkpt><trkpt lat="45.47811699466894" lon="11.487735072680586"><ele>253.0</ele><time>2026-03-22T10:10:49Z</time></trkpt><trkpt lat="45.47812358707747" lon="11.487635670890368"><ele>252.99999999999997</ele><time>2026-03-22T10:10:51Z</time></trkpt><trkpt lat="45.47811586924891" lon="11.48751773125792"><ele>253.0</ele><time>2026-03-22T10:10:53.999Z</time></trkpt><trkpt lat="45.47815968287106" lon="11.487442975868115"><ele>253.0</ele><time>2026-03-22T10:10:55.999Z</time></trkpt><trkpt lat="45.47822270237448" lon="11.487380228886112"><ele>253.0</ele><time>2026-03-22T10:10:58.999Z</time></trkpt><trkpt lat="45.47827273606321" lon="11.487297357015128"><ele>252.99999999999997</ele><time>2026-03-22T10:11:01.999Z</time></trkpt><trkpt lat="45.47835723019668" lon="11.487226200326978"><ele>253.0</ele><time>2026-03-22T10:11:04.999Z</time></trkpt><trkpt lat="45.478379863489955" lon="11.487103718864685"><ele>252.83333333333331</ele><time>2026-03-22T10:11:07.999Z</time></trkpt><trkpt lat="45.4784265624139" lon="11.487013671952937"><ele>252.66666666666666</ele><time>2026-03-22T10:11:10.999Z</time></trkpt><trkpt lat="45.47846207156541" lon="11.486905890919118"><ele>252.5</ele><time>2026-03-22T10:11:13.999Z</time></trkpt><trkpt lat="45.47848070655745" lon="11.486780863797678"><ele>252.33333333333331</ele><time>2026-03-22T10:11:16.999Z</time></trkpt><trkpt lat="45.47849418499172" lon="11.486691217977686"><ele>252.16666666666666</ele><time>2026-03-22T10:11:18.999Z</time></trkpt><trkpt lat="45.478501340742575" lon="11.486579142956932"><ele>252.0</ele><time>2026-03-22T10:11:20.999Z</time></trkpt><trkpt lat="45.47851341491793" lon="11.486435802103339"><ele>252.0</ele><time>2026-03-22T10:11:23.999Z</time></trkpt><trkpt lat="45.47856361901501" lon="11.486333891340445"><ele>252.0</ele><time>2026-03-22T10:11:25.999Z</time></trkpt><trkpt lat="45.478636254297136" lon="11.486249662750183"><ele>252.0</ele><time>2026-03-22T10:11:28.999Z</time></trkpt><trkpt lat="45.478678746931465" lon="11.486151703123703"><ele>252.0</ele><time>2026-03-22T10:11:30.999Z</time></trkpt><trkpt lat="45.478732620570675" lon="11.486089726106412"><ele>252.0</ele><time>2026-03-22T10:11:32.998Z</time></trkpt><trkpt lat="45.47882260967629" lon="11.48603047581739"><ele>252.0</ele><time>2026-03-22T10:11:35.998Z</time></trkpt><trkpt lat="45.478902158917" lon="11.485989763951633"><ele>252.16666666666666</ele><time>2026-03-22T10:11:37.998Z</time></trkpt><trkpt lat="45.478977184275784" lon="11.485975767858124"><ele>252.33333333333331</ele><time>2026-03-22T10:11:39.998Z</time></trkpt><trkpt lat="45.47904113397527" lon="11.485975871964987"><ele>252.5</ele><time>2026-03-22T10:11:41.998Z</time></trkpt><trkpt lat="45.479103352057486" lon="11.485905983361414"><ele>252.66666666666666</ele><time>2026-03-22T10:11:43.998Z</time></trkpt><trkpt lat="45.47912573390556" lon="11.485810059870019"><ele>252.83333333333331</ele><time>2026-03-22T10:11:45.998Z</time></trkpt><trkpt lat="45.47911307900133" lon="11.485649365331646"><ele>253.0</ele><time>2026-03-22T10:11:48.998Z</time></trkpt><trkpt lat="45.4791313743171" lon="11.485503264606107"><ele>251.60000000000002</ele><time>2026-03-22T10:11:50.998Z</time></trkpt><trkpt lat="45.479123926212" lon="11.48535724592692"><ele>250.20000000000002</ele><time>2026-03-22T10:11:52.998Z</time></trkpt><trkpt lat="45.479157642349975" lon="11.485203197213256"><ele>248.8</ele><time>2026-03-22T10:11:54.998Z</time></trkpt><trkpt lat="45.47919178857964" lon="11.485052783823926"><ele>247.4</ele><time>2026-03-22T10:11:56.998Z</time></trkpt><trkpt lat="45.47921263541715" lon="11.484930993095169"><ele>246.0</ele><time>2026-03-22T10:11:58.998Z</time></trkpt><trkpt lat="45.479267204113334" lon="11.484815715559458"><ele>246.00000000000003</ele><time>2026-03-22T10:12:01.998Z</time></trkpt><trkpt lat="45.4792659336288" lon="11.48472145546319"><ele>246.0</ele><time>2026-03-22T10:12:03.998Z</time></trkpt><trkpt lat="45.47929399065534" lon="11.484630517688341"><ele>246.00000000000003</ele><time>2026-03-22T10:12:05.998Z</time></trkpt><trkpt lat="45.47936204600996" lon="11.4845478331669"><ele>246.00000000000003</ele><time>2026-03-22T10:12:07.998Z</time></trkpt><trkpt lat="45.47940503007569" lon="11.484481788368315"><ele>246.0</ele><time>2026-03-22T10:12:09.997Z</time></trkpt><trkpt lat="45.47944788593153" lon="11.484403234600935"><ele>246.00000000000003</ele><time>2026-03-22T10:12:14.997Z</time></trkpt><trkpt lat="45.47949644036898" lon="11.48429342087166"><ele>246.00000000000003</ele><time>2026-03-22T10:12:17.997Z</time></trkpt><trkpt lat="45.47957968744467" lon="11.484166952161068"><ele>242.25</ele><time>2026-03-22T10:12:19.997Z</time></trkpt><trkpt lat="45.47968956823888" lon="11.48413601305991"><ele>238.5</ele><time>2026-03-22T10:12:21.997Z</time></trkpt><trkpt lat="45.47976829407095" lon="11.484136441194348"><ele>234.75</ele><time>2026-03-22T10:12:22.997Z</time></trkpt><trkpt lat="45.4798621888311" lon="11.484122085817692"><ele>231.0</ele><time>2026-03-22T10:12:24.997Z</time></trkpt><trkpt lat="45.480043708061736" lon="11.484113076863524"><ele>231.0</ele><time>2026-03-22T10:12:28Z</time></trkpt><trkpt lat="45.48012425182068" lon="11.484104403623432"><ele>231.00000000000003</ele><time>2026-03-22T10:12:30Z</time></trkpt><trkpt lat="45.480216376744046" lon="11.484206609818889"><ele>231.00000000000003</ele><time>2026-03-22T10:12:32Z</time></trkpt><trkpt lat="45.48029316621335" lon="11.484291915343983"><ele>231.0</ele><time>2026-03-22T10:12:33Z</time></trkpt><trkpt lat="45.480373975411474" lon="11.484371486025754"><ele>231.0</ele><time>2026-03-22T10:12:34Z</time></trkpt><trkpt lat="45.48046365205351" lon="11.484455417398836"><ele>231.0</ele><time>2026-03-22T10:12:35Z</time></trkpt><trkpt lat="45.48054032655367" lon="11.48454173931739"><ele>231.00000000000003</ele><time>2026-03-22T10:12:36Z</time></trkpt><trkpt lat="45.48060792258908" lon="11.484622852817397"><ele>231.00000000000003</ele><time>2026-03-22T10:12:37Z</time></trkpt><trkpt lat="45.48067884844533" lon="11.4846894407543"><ele>231.0</ele><time>2026-03-22T10:12:38Z</time></trkpt><trkpt lat="45.480745113522566" lon="11.484758032056549"><ele>231.0</ele><time>2026-03-22T10:12:39Z</time></trkpt><trkpt lat="45.48084975515626" lon="11.484831355096647"><ele>231.0</ele><time>2026-03-22T10:12:41Z</time></trkpt><trkpt lat="45.48110339855877" lon="11.484862108234418"><ele>231.0</ele><time>2026-03-22T10:12:46Z</time></trkpt><trkpt lat="45.48114536493828" lon="11.484938433871678"><ele>231.0</ele><time>2026-03-22T10:12:47Z</time></trkpt><trkpt lat="45.481183309502946" lon="11.485039379357316"><ele>231.0</ele><time>2026-03-22T10:12:48Z</time></trkpt><trkpt lat="45.481225219357555" lon="11.485115019939919"><ele>228.25</ele><time>2026-03-22T10:12:49Z</time></trkpt><trkpt lat="45.481274972253104" lon="11.48518178388676"><ele>225.5</ele><time>2026-03-22T10:12:50Z</time></trkpt><trkpt lat="45.481344423473516" lon="11.485228642815756"><ele>222.75</ele><time>2026-03-22T10:12:51Z</time></trkpt><trkpt lat="45.481474011473665" lon="11.48526818708488"><ele>220.0</ele><time>2026-03-22T10:12:53Z</time></trkpt><trkpt lat="45.481710235899016" lon="11.485272640801426"><ele>220.0</ele><time>2026-03-22T10:12:56Z</time></trkpt><trkpt lat="45.48180258844727" lon="11.485276989561202"><ele>220.0</ele><time>2026-03-22T10:12:57Z</time></trkpt><trkpt lat="45.48190951400905" lon="11.485271871465734"><ele>220.0</ele><time>2026-03-22T10:12:58Z</time></trkpt><trkpt lat="45.481998731122204" lon="11.485274894032802"><ele>220.0</ele><time>2026-03-22T10:12:59Z</time></trkpt><trkpt lat="45.48208970486315" lon="11.485285473629459"><ele>220.0</ele><time>2026-03-22T10:12:59.999Z</time></trkpt><trkpt lat="45.48218475076693" lon="11.485287482027863"><ele>217.99999999999997</ele><time>2026-03-22T10:13:00.999Z</time></trkpt><trkpt lat="45.48226148463234" lon="11.485284557342839"><ele>216.0</ele><time>2026-03-22T10:13:01.999Z</time></trkpt><trkpt lat="45.48234225494305" lon="11.485292540545768"><ele>214.0</ele><time>2026-03-22T10:13:02.999Z</time></trkpt><trkpt lat="45.48242236754566" lon="11.485297413019662"><ele>212.0</ele><time>2026-03-22T10:13:03.999Z</time></trkpt><trkpt lat="45.48249544721394" lon="11.485311817460502"><ele>209.99999999999997</ele><time>2026-03-22T10:13:04.999Z</time></trkpt><trkpt lat="45.4825679045606" lon="11.485336568796331"><ele>208.0</ele><time>2026-03-22T10:13:05.999Z</time></trkpt><trkpt lat="45.4826436402687" lon="11.485361315604123"><ele>207.99999999999997</ele><time>2026-03-22T10:13:06.999Z</time></trkpt><trkpt lat="45.482714557089814" lon="11.485395327415517"><ele>208.0</ele><time>2026-03-22T10:13:07.999Z</time></trkpt><trkpt lat="45.48278872565959" lon="11.485402929386511"><ele>208.0</ele><time>2026-03-22T10:13:08.999Z</time></trkpt><trkpt lat="45.482857848383965" lon="11.485404810569666"><ele>208.0</ele><time>2026-03-22T10:13:09.999Z</time></trkpt><trkpt lat="45.48294381854816" lon="11.485387930208809"><ele>207.99999999999997</ele><time>2026-03-22T10:13:11.999Z</time></trkpt><trkpt lat="45.48301855320523" lon="11.485351090720131"><ele>208.0</ele><time>2026-03-22T10:13:13.999Z</time></trkpt><trkpt lat="45.48306182215542" lon="11.485272430890916"><ele>201.8</ele><time>2026-03-22T10:13:15.999Z</time></trkpt><trkpt lat="45.48309307426148" lon="11.485168700453256"><ele>195.60000000000002</ele><time>2026-03-22T10:13:17.999Z</time></trkpt><trkpt lat="45.48311875703076" lon="11.4850187071175"><ele>189.39999999999998</ele><time>2026-03-22T10:13:19.999Z</time></trkpt><trkpt lat="45.48314286638831" lon="11.484922429242319"><ele>183.2</ele><time>2026-03-22T10:13:20.999Z</time></trkpt><trkpt lat="45.48319308230675" lon="11.484818234251067"><ele>177.0</ele><time>2026-03-22T10:13:21.999Z</time></trkpt><trkpt lat="45.483239892209276" lon="11.48467847200653"><ele>177.6</ele><time>2026-03-22T10:13:23.999Z</time></trkpt><trkpt lat="45.4832939067298" lon="11.484575974416286"><ele>178.2</ele><time>2026-03-22T10:13:25.999Z</time></trkpt><trkpt lat="45.48336700700127" lon="11.484456662678038"><ele>178.8</ele><time>2026-03-22T10:13:27.999Z</time></trkpt><trkpt lat="45.48341648149606" lon="11.48428641866679"><ele>179.4</ele><time>2026-03-22T10:13:29.999Z</time></trkpt><trkpt lat="45.48339846427364" lon="11.484172875989765"><ele>180.0</ele><time>2026-03-22T10:13:30.999Z</time></trkpt><trkpt lat="45.483402285781395" lon="11.484045629995496"><ele>180.0</ele><time>2026-03-22T10:13:31.999Z</time></trkpt><trkpt lat="45.48341108615391" lon="11.4838924511742"><ele>180.0</ele><time>2026-03-22T10:13:32.999Z</time></trkpt><trkpt lat="45.48340738826511" lon="11.483749470445533"><ele>180.0</ele><time>2026-03-22T10:13:33.999Z</time></trkpt><trkpt lat="45.483413249090866" lon="11.483614883538086"><ele>180.0</ele><time>2026-03-22T10:13:34.999Z</time></trkpt><trkpt lat="45.483437058506496" lon="11.483483864687857"><ele>180.0</ele><time>2026-03-22T10:13:35.999Z</time></trkpt><trkpt lat="45.48347753987316" lon="11.483367632606143"><ele>179.83333333333334</ele><time>2026-03-22T10:13:36.999Z</time></trkpt><trkpt lat="45.48350563607287" lon="11.483252937400865"><ele>179.66666666666666</ele><time>2026-03-22T10:13:37.998Z</time></trkpt><trkpt lat="45.483541325771235" lon="11.483148942327821"><ele>179.5</ele><time>2026-03-22T10:13:38.998Z</time></trkpt><trkpt lat="45.48357160836504" lon="11.483057088880882"><ele>179.33333333333331</ele><time>2026-03-22T10:13:39.998Z</time></trkpt><trkpt lat="45.483610208831664" lon="11.482978097173872"><ele>179.16666666666666</ele><time>2026-03-22T10:13:40.998Z</time></trkpt><trkpt lat="45.4836622140594" lon="11.482834682803619"><ele>179.0</ele><time>2026-03-22T10:13:42.998Z</time></trkpt><trkpt lat="45.4837064643716" lon="11.482763776968843"><ele>179.2857142857143</ele><time>2026-03-22T10:13:43.998Z</time></trkpt><trkpt lat="45.48374076027064" lon="11.482679635595758"><ele>179.57142857142858</ele><time>2026-03-22T10:13:44.998Z</time></trkpt><trkpt lat="45.483778620522564" lon="11.482603458660325"><ele>179.85714285714286</ele><time>2026-03-22T10:13:45.998Z</time></trkpt><trkpt lat="45.48382004419181" lon="11.482525313190864"><ele>180.14285714285717</ele><time>2026-03-22T10:13:46.998Z</time></trkpt><trkpt lat="45.483855179216455" lon="11.482447559929332"><ele>180.42857142857142</ele><time>2026-03-22T10:13:47.998Z</time></trkpt><trkpt lat="45.48389487535317" lon="11.482375595935274"><ele>180.71428571428572</ele><time>2026-03-22T10:13:48.998Z</time></trkpt><trkpt lat="45.483934352387536" lon="11.482304467008834"><ele>181.0</ele><time>2026-03-22T10:13:49.998Z</time></trkpt><trkpt lat="45.48400584567677" lon="11.482173671192651"><ele>178.0</ele><time>2026-03-22T10:13:51.998Z</time></trkpt><trkpt lat="45.484069239629214" lon="11.482050458300405"><ele>175.0</ele><time>2026-03-22T10:13:53.998Z</time></trkpt><trkpt lat="45.48411932566458" lon="11.481953515871773"><ele>172.0</ele><time>2026-03-22T10:13:55.998Z</time></trkpt><trkpt lat="45.48416501819197" lon="11.481880480481893"><ele>169.0</ele><time>2026-03-22T10:13:57.998Z</time></trkpt><trkpt lat="45.484238013197356" lon="11.481776941144542"><ele>166.0</ele><time>2026-03-22T10:13:59.998Z</time></trkpt><trkpt lat="45.48434358586737" lon="11.481669672171558"><ele>166.0</ele><time>2026-03-22T10:14:01.998Z</time></trkpt><trkpt lat="45.484395374296135" lon="11.481607672292238"><ele>166.0</ele><time>2026-03-22T10:14:02.998Z</time></trkpt><trkpt lat="45.48445150433853" lon="11.481544254224353"><ele>166.0</ele><time>2026-03-22T10:14:03.998Z</time></trkpt><trkpt lat="45.48451456008355" lon="11.481497195250418"><ele>166.0</ele><time>2026-03-22T10:14:04.998Z</time></trkpt><trkpt lat="45.48457337818754" lon="11.48145976524882"><ele>166.0</ele><time>2026-03-22T10:14:05.998Z</time></trkpt><trkpt lat="45.48463516392218" lon="11.481434824004959"><ele>166.0</ele><time>2026-03-22T10:14:06.998Z</time></trkpt><trkpt lat="45.48475966688894" lon="11.481369603020436"><ele>166.5</ele><time>2026-03-22T10:14:08.998Z</time></trkpt><trkpt lat="45.48483196387794" lon="11.481344502728295"><ele>167.0</ele><time>2026-03-22T10:14:09.998Z</time></trkpt><trkpt lat="45.48489806574856" lon="11.481314180979282"><ele>167.5</ele><time>2026-03-22T10:14:10.998Z</time></trkpt><trkpt lat="45.484965725720414" lon="11.48128213863617"><ele>168.0</ele><time>2026-03-22T10:14:11.998Z</time></trkpt><trkpt lat="45.48507045103851" lon="11.481232052607721"><ele>168.5</ele><time>2026-03-22T10:14:13.998Z</time></trkpt><trkpt lat="45.48517114262106" lon="11.481191464410047"><ele>169.0</ele><time>2026-03-22T10:14:15.998Z</time></trkpt><trkpt lat="45.48526344771502" lon="11.48115122287087"><ele>169.0</ele><time>2026-03-22T10:14:17.997Z</time></trkpt><trkpt lat="45.48535056419792" lon="11.481112428920493"><ele>169.0</ele><time>2026-03-22T10:14:19.997Z</time></trkpt><trkpt lat="45.485426347539004" lon="11.481129491643701"><ele>169.0</ele><time>2026-03-22T10:14:22.997Z</time></trkpt><trkpt lat="45.48548015126025" lon="11.481221413594296"><ele>169.0</ele><time>2026-03-22T10:14:24.997Z</time></trkpt><trkpt lat="45.4855469011685" lon="11.48130972708654"><ele>169.0</ele><time>2026-03-22T10:14:26.997Z</time></trkpt><trkpt lat="45.4856371410173" lon="11.48134608928359"><ele>169.0</ele><time>2026-03-22T10:14:28.997Z</time></trkpt><trkpt lat="45.4857570825177" lon="11.481391347857071"><ele>165.16666666666669</ele><time>2026-03-22T10:14:30.997Z</time></trkpt><trkpt lat="45.48581536693129" lon="11.481458276669347"><ele>161.33333333333334</ele><time>2026-03-22T10:14:31.997Z</time></trkpt><trkpt lat="45.4858783674741" lon="11.481498221433784"><ele>157.5</ele><time>2026-03-22T10:14:33Z</time></trkpt><trkpt lat="45.485942792293535" lon="11.481547698559696"><ele>153.66666666666666</ele><time>2026-03-22T10:14:34Z</time></trkpt><trkpt lat="45.48601503877605" lon="11.481616708671945"><ele>149.83333333333331</ele><time>2026-03-22T10:14:35Z</time></trkpt><trkpt lat="45.48609586451321" lon="11.481685017807537"><ele>146.0</ele><time>2026-03-22T10:14:36Z</time></trkpt><trkpt lat="45.48617636296097" lon="11.481738534309683"><ele>146.0</ele><time>2026-03-22T10:14:37Z</time></trkpt><trkpt lat="45.48625962783867" lon="11.481782894424171"><ele>146.0</ele><time>2026-03-22T10:14:38Z</time></trkpt><trkpt lat="45.486342186565444" lon="11.481808963957963"><ele>146.0</ele><time>2026-03-22T10:14:39Z</time></trkpt><trkpt lat="45.48641854548328" lon="11.481846391064654"><ele>146.0</ele><time>2026-03-22T10:14:40Z</time></trkpt><trkpt lat="45.4864808358029" lon="11.481895618921277"><ele>146.0</ele><time>2026-03-22T10:14:41Z</time></trkpt><trkpt lat="45.486538272168026" lon="11.48195980778526"><ele>146.0</ele><time>2026-03-22T10:14:42Z</time></trkpt><trkpt lat="45.48658011893259" lon="11.48203987917307"><ele>145.5</ele><time>2026-03-22T10:14:43Z</time></trkpt><trkpt lat="45.48661608368663" lon="11.48211449692921"><ele>145.0</ele><time>2026-03-22T10:14:44Z</time></trkpt><trkpt lat="45.486648924122555" lon="11.482194328191278"><ele>144.5</ele><time>2026-03-22T10:14:45Z</time></trkpt><trkpt lat="45.486682166938586" lon="11.48227554708698"><ele>144.0</ele><time>2026-03-22T10:14:46Z</time></trkpt><trkpt lat="45.486777559268674" lon="11.48230473361904"><ele>143.5</ele><time>2026-03-22T10:14:47Z</time></trkpt><trkpt lat="45.4868456952314" lon="11.482463564589649"><ele>143.0</ele><time>2026-03-22T10:14:49Z</time></trkpt><trkpt lat="45.486938476812945" lon="11.482579892054687"><ele>143.0</ele><time>2026-03-22T10:14:51Z</time></trkpt><trkpt lat="45.48701515796158" lon="11.48266593289783"><ele>143.0</ele><time>2026-03-22T10:14:53Z</time></trkpt><trkpt lat="45.48708680446778" lon="11.482709694482894"><ele>143.0</ele><time>2026-03-22T10:14:55Z</time></trkpt><trkpt lat="45.48725376871195" lon="11.482631496992953"><ele>143.0</ele><time>2026-03-22T10:14:59Z</time></trkpt><trkpt lat="45.487374451163866" lon="11.482544486421734"><ele>144.0</ele><time>2026-03-22T10:15:01Z</time></trkpt><trkpt lat="45.487449882418716" lon="11.482525684418787"><ele>145.0</ele><time>2026-03-22T10:15:02Z</time></trkpt><trkpt lat="45.48753533403522" lon="11.48252552320121"><ele>146.0</ele><time>2026-03-22T10:15:03Z</time></trkpt><trkpt lat="45.48761565780337" lon="11.482511401747901"><ele>147.0</ele><time>2026-03-22T10:15:04Z</time></trkpt><trkpt lat="45.48768570898913" lon="11.482466258121221"><ele>148.0</ele><time>2026-03-22T10:15:05Z</time></trkpt><trkpt lat="45.48775442379309" lon="11.482443460745731"><ele>149.0</ele><time>2026-03-22T10:15:05.999Z</time></trkpt><trkpt lat="45.48786365098857" lon="11.482445430048902"><ele>149.0</ele><time>2026-03-22T10:15:07.999Z</time></trkpt><trkpt lat="45.487940540849586" lon="11.482478195386697"><ele>149.0</ele><time>2026-03-22T10:15:09.999Z</time></trkpt><trkpt lat="45.487964221329236" lon="11.482664857070183"><ele>149.0</ele><time>2026-03-22T10:15:11.999Z</time></trkpt><trkpt lat="45.487944021516014" lon="11.482784088206436"><ele>149.0</ele><time>2026-03-22T10:15:12.999Z</time></trkpt><trkpt lat="45.48792380545542" lon="11.482875821355181"><ele>149.0</ele><time>2026-03-22T10:15:13.999Z</time></trkpt><trkpt lat="45.48784771281893" lon="11.482956818909626"><ele>145.8</ele><time>2026-03-22T10:15:14.999Z</time></trkpt><trkpt lat="45.487897383765976" lon="11.48309414225955"><ele>142.60000000000002</ele><time>2026-03-22T10:15:15.999Z</time></trkpt><trkpt lat="45.48787109562872" lon="11.483209866473203"><ele>139.4</ele><time>2026-03-22T10:15:16.999Z</time></trkpt><trkpt lat="45.487765239946214" lon="11.48330738417567"><ele>136.20000000000002</ele><time>2026-03-22T10:15:17.999Z</time></trkpt><trkpt lat="45.487756868914644" lon="11.483451291506078"><ele>133.0</ele><time>2026-03-22T10:15:18.999Z</time></trkpt><trkpt lat="45.48775143293857" lon="11.483586904773581"><ele>133.0</ele><time>2026-03-22T10:15:19.999Z</time></trkpt><trkpt lat="45.48774814051163" lon="11.483726207975147"><ele>133.0</ele><time>2026-03-22T10:15:20.999Z</time></trkpt><trkpt lat="45.48782568442013" lon="11.483854414186991"><ele>133.0</ele><time>2026-03-22T10:15:21.999Z</time></trkpt><trkpt lat="45.48784338659946" lon="11.483961409104477"><ele>133.0</ele><time>2026-03-22T10:15:22.999Z</time></trkpt><trkpt lat="45.4878939612439" lon="11.48409198583615"><ele>133.0</ele><time>2026-03-22T10:15:23.999Z</time></trkpt><trkpt lat="45.4879228322992" lon="11.484194474160676"><ele>131.33333333333334</ele><time>2026-03-22T10:15:24.999Z</time></trkpt><trkpt lat="45.4879418573121" lon="11.484302499049083"><ele>129.66666666666669</ele><time>2026-03-22T10:15:25.999Z</time></trkpt><trkpt lat="45.48798099629125" lon="11.484395360143099"><ele>128.0</ele><time>2026-03-22T10:15:26.999Z</time></trkpt><trkpt lat="45.488028125581" lon="11.484515101965714"><ele>126.33333333333334</ele><time>2026-03-22T10:15:27.999Z</time></trkpt><trkpt lat="45.488075993646056" lon="11.484606837126579"><ele>124.66666666666667</ele><time>2026-03-22T10:15:28.999Z</time></trkpt><trkpt lat="45.48813154552921" lon="11.484701308962002"><ele>123.0</ele><time>2026-03-22T10:15:29.999Z</time></trkpt><trkpt lat="45.48819218175393" lon="11.48478794588305"><ele>123.0</ele><time>2026-03-22T10:15:30.999Z</time></trkpt><trkpt lat="45.488255318691536" lon="11.484853359710714"><ele>123.0</ele><time>2026-03-22T10:15:31.999Z</time></trkpt><trkpt lat="45.48830833478279" lon="11.48492283742102"><ele>123.0</ele><time>2026-03-22T10:15:32.999Z</time></trkpt><trkpt lat="45.488365669306994" lon="11.485002025616955"><ele>123.0</ele><time>2026-03-22T10:15:33.999Z</time></trkpt><trkpt lat="45.4884283999274" lon="11.485070124535374"><ele>123.0</ele><time>2026-03-22T10:15:34.999Z</time></trkpt><trkpt lat="45.488485300157315" lon="11.485135027118448"><ele>123.0</ele><time>2026-03-22T10:15:35.999Z</time></trkpt><trkpt lat="45.488546094539494" lon="11.485191829974369"><ele>123.0</ele><time>2026-03-22T10:15:36.999Z</time></trkpt><trkpt lat="45.488607864999636" lon="11.48524139579275"><ele>123.0</ele><time>2026-03-22T10:15:37.999Z</time></trkpt><trkpt lat="45.488680264658775" lon="11.485285921359651"><ele>123.0</ele><time>2026-03-22T10:15:38.999Z</time></trkpt><trkpt lat="45.488760232235784" lon="11.48532744894855"><ele>123.0</ele><time>2026-03-22T10:15:39.999Z</time></trkpt><trkpt lat="45.4888350722454" lon="11.485405458605085"><ele>123.0</ele><time>2026-03-22T10:15:40.999Z</time></trkpt><trkpt lat="45.48891830976514" lon="11.485466557262114"><ele>123.0</ele><time>2026-03-22T10:15:41.999Z</time></trkpt><trkpt lat="45.48899147726833" lon="11.485563297726465"><ele>119.4</ele><time>2026-03-22T10:15:42.999Z</time></trkpt><trkpt lat="45.48909304994712" lon="11.485619905111687"><ele>115.80000000000001</ele><time>2026-03-22T10:15:43.998Z</time></trkpt><trkpt lat="45.489200043754266" lon="11.485681158395225"><ele>112.2</ele><time>2026-03-22T10:15:44.998Z</time></trkpt><trkpt lat="45.48929760240947" lon="11.485737010011029"><ele>108.6</ele><time>2026-03-22T10:15:45.998Z</time></trkpt><trkpt lat="45.489384113334886" lon="11.485786694512473"><ele>105.0</ele><time>2026-03-22T10:15:46.998Z</time></trkpt><trkpt lat="45.489478457140414" lon="11.485837037132628"><ele>105.0</ele><time>2026-03-22T10:15:47.998Z</time></trkpt><trkpt lat="45.489591832902924" lon="11.485876860819824"><ele>105.0</ele><time>2026-03-22T10:15:48.998Z</time></trkpt><trkpt lat="45.489698965629714" lon="11.48592875515607"><ele>105.0</ele><time>2026-03-22T10:15:49.998Z</time></trkpt><trkpt lat="45.489794653986664" lon="11.486002822391956"><ele>105.0</ele><time>2026-03-22T10:15:50.998Z</time></trkpt><trkpt lat="45.48988877716932" lon="11.486052013483341"><ele>105.0</ele><time>2026-03-22T10:15:51.998Z</time></trkpt><trkpt lat="45.489991056611174" lon="11.486106459302876"><ele>103.2</ele><time>2026-03-22T10:15:52.998Z</time></trkpt><trkpt lat="45.490096566579645" lon="11.486133099383624"><ele>101.4</ele><time>2026-03-22T10:15:53.998Z</time></trkpt><trkpt lat="45.49019749227737" lon="11.486174257313587"><ele>99.6</ele><time>2026-03-22T10:15:54.998Z</time></trkpt><trkpt lat="45.490292587184946" lon="11.486216330140818"><ele>97.8</ele><time>2026-03-22T10:15:55.998Z</time></trkpt><trkpt lat="45.49036307764146" lon="11.486285620272577"><ele>96.0</ele><time>2026-03-22T10:15:56.998Z</time></trkpt><trkpt lat="45.49044064067179" lon="11.486338767678571"><ele>96.0</ele><time>2026-03-22T10:15:57.998Z</time></trkpt><trkpt lat="45.49052578155397" lon="11.486376162565588"><ele>96.0</ele><time>2026-03-22T10:15:58.998Z</time></trkpt><trkpt lat="45.49059751384988" lon="11.486453908523115"><ele>96.0</ele><time>2026-03-22T10:15:59.998Z</time></trkpt><trkpt lat="45.49065165073434" lon="11.486573959015889"><ele>96.0</ele><time>2026-03-22T10:16:00.998Z</time></trkpt><trkpt lat="45.490736502289955" lon="11.486648654028262"><ele>96.0</ele><time>2026-03-22T10:16:01.998Z</time></trkpt><trkpt lat="45.49081749201318" lon="11.486716329214795"><ele>96.0</ele><time>2026-03-22T10:16:02.998Z</time></trkpt><trkpt lat="45.49090512446979" lon="11.486785036134759"><ele>96.0</ele><time>2026-03-22T10:16:03.998Z</time></trkpt><trkpt lat="45.490996359198" lon="11.486845533057503"><ele>96.0</ele><time>2026-03-22T10:16:04.998Z</time></trkpt><trkpt lat="45.49110290033261" lon="11.48684349642227"><ele>96.0</ele><time>2026-03-22T10:16:05.998Z</time></trkpt><trkpt lat="45.491190406364524" lon="11.486897946015716"><ele>96.0</ele><time>2026-03-22T10:16:06.998Z</time></trkpt><trkpt lat="45.491288329434965" lon="11.486948645547077"><ele>93.19999999999999</ele><time>2026-03-22T10:16:07.998Z</time></trkpt><trkpt lat="45.49138862738756" lon="11.486998288564545"><ele>90.39999999999999</ele><time>2026-03-22T10:16:08.998Z</time></trkpt><trkpt lat="45.491490385122816" lon="11.487065194075964"><ele>87.6</ele><time>2026-03-22T10:16:09.998Z</time></trkpt><trkpt lat="45.491587080298125" lon="11.487128338604359"><ele>84.8</ele><time>2026-03-22T10:16:10.998Z</time></trkpt><trkpt lat="45.491688026491374" lon="11.487192783086074"><ele>82.0</ele><time>2026-03-22T10:16:11.998Z</time></trkpt><trkpt lat="45.4917358538028" lon="11.487372336990676"><ele>82.0</ele><time>2026-03-22T10:16:12.998Z</time></trkpt><trkpt lat="45.4918169872125" lon="11.487456413925264"><ele>82.0</ele><time>2026-03-22T10:16:13.998Z</time></trkpt><trkpt lat="45.49189220272792" lon="11.487547774490881"><ele>82.0</ele><time>2026-03-22T10:16:14.998Z</time></trkpt><trkpt lat="45.49196111391455" lon="11.487639881549926"><ele>82.0</ele><time>2026-03-22T10:16:15.998Z</time></trkpt><trkpt lat="45.492043438034614" lon="11.487727291585559"><ele>82.0</ele><time>2026-03-22T10:16:16.998Z</time></trkpt><trkpt lat="45.49210727886034" lon="11.487847176241443"><ele>81.0</ele><time>2026-03-22T10:16:17.998Z</time></trkpt><trkpt lat="45.49218643675107" lon="11.48796091855663"><ele>80.0</ele><time>2026-03-22T10:16:18.998Z</time></trkpt><trkpt lat="45.492269384126544" lon="11.488082047349552"><ele>79.0</ele><time>2026-03-22T10:16:19.998Z</time></trkpt><trkpt lat="45.492356074571866" lon="11.488188766276542"><ele>78.0</ele><time>2026-03-22T10:16:20.998Z</time></trkpt><trkpt lat="45.49242748362685" lon="11.488279248849409"><ele>77.0</ele><time>2026-03-22T10:16:21.998Z</time></trkpt><trkpt lat="45.492485777026154" lon="11.488383867875381"><ele>77.0</ele><time>2026-03-22T10:16:22.997Z</time></trkpt><trkpt lat="45.492541627803355" lon="11.488510493567146"><ele>77.0</ele><time>2026-03-22T10:16:23.997Z</time></trkpt><trkpt lat="45.492596279455036" lon="11.488637664609723"><ele>77.0</ele><time>2026-03-22T10:16:24.997Z</time></trkpt><trkpt lat="45.49264263045773" lon="11.48874578680076"><ele>77.0</ele><time>2026-03-22T10:16:25.997Z</time></trkpt><trkpt lat="45.49268801167767" lon="11.488851974263024"><ele>77.0</ele><time>2026-03-22T10:16:26.997Z</time></trkpt><trkpt lat="45.492735154874616" lon="11.488962284602787"><ele>78.6</ele><time>2026-03-22T10:16:27.997Z</time></trkpt><trkpt lat="45.492782475276556" lon="11.489073009568367"><ele>80.2</ele><time>2026-03-22T10:16:28.997Z</time></trkpt><trkpt lat="45.49284221978532" lon="11.48918927204324"><ele>81.8</ele><time>2026-03-22T10:16:29.997Z</time></trkpt><trkpt lat="45.492901181073755" lon="11.48929839870003"><ele>83.4</ele><time>2026-03-22T10:16:30.997Z</time></trkpt><trkpt lat="45.492943161527634" lon="11.489421420737282"><ele>85.0</ele><time>2026-03-22T10:16:31.997Z</time></trkpt><trkpt lat="45.49299784271503" lon="11.489533192068548"><ele>81.16666666666666</ele><time>2026-03-22T10:16:32.997Z</time></trkpt><trkpt lat="45.49305709709365" lon="11.489647435323729"><ele>77.33333333333333</ele><time>2026-03-22T10:16:33.997Z</time></trkpt><trkpt lat="45.49309993209426" lon="11.489758890131196"><ele>73.5</ele><time>2026-03-22T10:16:34.997Z</time></trkpt><trkpt lat="45.49312963154422" lon="11.489887792290318"><ele>69.66666666666667</ele><time>2026-03-22T10:16:35.997Z</time></trkpt><trkpt lat="45.493136097092325" lon="11.490009977483512"><ele>65.83333333333334</ele><time>2026-03-22T10:16:36.997Z</time></trkpt><trkpt lat="45.49315048534876" lon="11.490106446800157"><ele>62.0</ele><time>2026-03-22T10:16:37.997Z</time></trkpt><trkpt lat="45.49316625948739" lon="11.490214705835811"><ele>62.0</ele><time>2026-03-22T10:16:39Z</time></trkpt><trkpt lat="45.49318343408875" lon="11.490338853754002"><ele>62.0</ele><time>2026-03-22T10:16:40Z</time></trkpt><trkpt lat="45.49320396101112" lon="11.490460223810988"><ele>62.0</ele><time>2026-03-22T10:16:41Z</time></trkpt><trkpt lat="45.493237392840875" lon="11.490586796307062"><ele>62.0</ele><time>2026-03-22T10:16:42Z</time></trkpt><trkpt lat="45.493282772727305" lon="11.490720114896202"><ele>62.0</ele><time>2026-03-22T10:16:43Z</time></trkpt><trkpt lat="45.493332275158664" lon="11.490848028302471"><ele>58.8</ele><time>2026-03-22T10:16:44Z</time></trkpt><trkpt lat="45.493385997852734" lon="11.490973103158455"><ele>55.6</ele><time>2026-03-22T10:16:45Z</time></trkpt><trkpt lat="45.493441257861775" lon="11.491091459720767"><ele>52.4</ele><time>2026-03-22T10:16:46Z</time></trkpt><trkpt lat="45.49350838028429" lon="11.491213242964779"><ele>49.199999999999996</ele><time>2026-03-22T10:16:47Z</time></trkpt><trkpt lat="45.493576835237576" lon="11.4913236386218"><ele>46.0</ele><time>2026-03-22T10:16:48Z</time></trkpt><trkpt lat="45.49364374920504" lon="11.49143019939424"><ele>47.599999999999994</ele><time>2026-03-22T10:16:49Z</time></trkpt><trkpt lat="45.49371063734675" lon="11.491527336851329"><ele>49.2</ele><time>2026-03-22T10:16:50Z</time></trkpt><trkpt lat="45.493782461216675" lon="11.491620689934088"><ele>50.800000000000004</ele><time>2026-03-22T10:16:51Z</time></trkpt><trkpt lat="45.49385584840691" lon="11.491708820229613"><ele>52.400000000000006</ele><time>2026-03-22T10:16:52Z</time></trkpt><trkpt lat="45.493940024674046" lon="11.49179397193134"><ele>54.0</ele><time>2026-03-22T10:16:53Z</time></trkpt><trkpt lat="45.49401937586173" lon="11.491847882634406"><ele>54.0</ele><time>2026-03-22T10:16:54Z</time></trkpt><trkpt lat="45.494073226280506" lon="11.49192021408058"><ele>54.0</ele><time>2026-03-22T10:16:55Z</time></trkpt><trkpt lat="45.49416162561587" lon="11.492007854939944"><ele>54.0</ele><time>2026-03-22T10:16:56Z</time></trkpt><trkpt lat="45.49423583720687" lon="11.492047300249014"><ele>54.0</ele><time>2026-03-22T10:16:57Z</time></trkpt><trkpt lat="45.49431002633966" lon="11.492085147361525"><ele>54.0</ele><time>2026-03-22T10:16:58Z</time></trkpt><trkpt lat="45.49437857908265" lon="11.492119777883996"><ele>54.0</ele><time>2026-03-22T10:16:59Z</time></trkpt><trkpt lat="45.49444174655163" lon="11.49215251712772"><ele>52.714285714285715</ele><time>2026-03-22T10:17:00Z</time></trkpt><trkpt lat="45.49450655300065" lon="11.492186105836181"><ele>51.42857142857143</ele><time>2026-03-22T10:17:01Z</time></trkpt><trkpt lat="45.4945715170869" lon="11.492221787745793"><ele>50.14285714285714</ele><time>2026-03-22T10:17:02Z</time></trkpt><trkpt lat="45.49463953898216" lon="11.492237202759584"><ele>48.85714285714286</ele><time>2026-03-22T10:17:03Z</time></trkpt><trkpt lat="45.49469865602467" lon="11.492275498428489"><ele>47.57142857142858</ele><time>2026-03-22T10:17:04Z</time></trkpt><trkpt lat="45.49474206815961" lon="11.492340884083916"><ele>46.285714285714285</ele><time>2026-03-22T10:17:05Z</time></trkpt><trkpt lat="45.494823974635565" lon="11.492431562830953"><ele>45.0</ele><time>2026-03-22T10:17:07Z</time></trkpt><trkpt lat="45.494896709954986" lon="11.492530943787845"><ele>45.0</ele><time>2026-03-22T10:17:09Z</time></trkpt><trkpt lat="45.494973945162236" lon="11.49263912091681"><ele>45.0</ele><time>2026-03-22T10:17:11Z</time></trkpt><trkpt lat="45.49503795345011" lon="11.492727140154274"><ele>45.0</ele><time>2026-03-22T10:17:12.999Z</time></trkpt><trkpt lat="45.49511017808539" lon="11.492792861278716"><ele>45.0</ele><time>2026-03-22T10:17:14.999Z</time></trkpt><trkpt lat="45.495177206405735" lon="11.492834790468136"><ele>45.0</ele><time>2026-03-22T10:17:16.999Z</time></trkpt><trkpt lat="45.49524403712575" lon="11.492867181725973"><ele>45.0</ele><time>2026-03-22T10:17:18.999Z</time></trkpt><trkpt lat="45.495288412534734" lon="11.492946746177966"><ele>45.75</ele><time>2026-03-22T10:17:20.999Z</time></trkpt><trkpt lat="45.49534612741954" lon="11.493006598273402"><ele>46.5</ele><time>2026-03-22T10:17:23.999Z</time></trkpt><trkpt lat="45.495514643138634" lon="11.493167023831344"><ele>47.25</ele><time>2026-03-22T10:17:34.999Z</time></trkpt><trkpt lat="45.4956081135294" lon="11.49324669596188"><ele>48.0</ele><time>2026-03-22T10:17:36.999Z</time></trkpt><trkpt lat="45.49570782263669" lon="11.493330910353153"><ele>48.0</ele><time>2026-03-22T10:17:38.999Z</time></trkpt><trkpt lat="45.495760939802594" lon="11.493386494480708"><ele>48.0</ele><time>2026-03-22T10:17:39.999Z</time></trkpt><trkpt lat="45.49586457880709" lon="11.49347438464738"><ele>48.0</ele><time>2026-03-22T10:17:41.999Z</time></trkpt><trkpt lat="45.49596339810931" lon="11.493556226886623"><ele>48.0</ele><time>2026-03-22T10:17:43.999Z</time></trkpt><trkpt lat="45.4959879621117" lon="11.493641722627672"><ele>48.0</ele><time>2026-03-22T10:17:44.999Z</time></trkpt><trkpt lat="45.49606880595851" lon="11.493728733034313"><ele>46.599999999999994</ele><time>2026-03-22T10:17:46.999Z</time></trkpt><trkpt lat="45.496161218982145" lon="11.49378350672974"><ele>45.199999999999996</ele><time>2026-03-22T10:17:48.998Z</time></trkpt><trkpt lat="45.49624202530826" lon="11.493885909881609"><ele>43.8</ele><time>2026-03-22T10:17:50.998Z</time></trkpt><trkpt lat="45.49632822150803" lon="11.493997979805522"><ele>42.4</ele><time>2026-03-22T10:17:52.998Z</time></trkpt><trkpt lat="45.49642328786893" lon="11.494073248311171"><ele>41.0</ele><time>2026-03-22T10:17:54.998Z</time></trkpt><trkpt lat="45.496522673419655" lon="11.494105895570938"><ele>41.0</ele><time>2026-03-22T10:17:56.998Z</time></trkpt><trkpt lat="45.496606624930365" lon="11.494144979736976"><ele>41.0</ele><time>2026-03-22T10:17:58.998Z</time></trkpt><trkpt lat="45.49667668397143" lon="11.494195092122398"><ele>41.0</ele><time>2026-03-22T10:18:00.998Z</time></trkpt><trkpt lat="45.49676362283451" lon="11.494213018154579"><ele>41.0</ele><time>2026-03-22T10:18:02.998Z</time></trkpt><trkpt lat="45.496844338430094" lon="11.494222714828462"><ele>41.0</ele><time>2026-03-22T10:18:04.998Z</time></trkpt><trkpt lat="45.49691185816205" lon="11.494197942025254"><ele>41.0</ele><time>2026-03-22T10:18:06.998Z</time></trkpt><trkpt lat="45.497008651150296" lon="11.49419257568907"><ele>41.599999999999994</ele><time>2026-03-22T10:18:09.998Z</time></trkpt><trkpt lat="45.497158644067234" lon="11.494216353795462"><ele>42.2</ele><time>2026-03-22T10:18:12.998Z</time></trkpt><trkpt lat="45.49726540663594" lon="11.494253170934975"><ele>42.8</ele><time>2026-03-22T10:18:14.998Z</time></trkpt><trkpt lat="45.49734947346044" lon="11.494318639871317"><ele>43.400000000000006</ele><time>2026-03-22T10:18:16.998Z</time></trkpt><trkpt lat="45.497419642813576" lon="11.494357457801108"><ele>44.0</ele><time>2026-03-22T10:18:18.998Z</time></trkpt><trkpt lat="45.497486583953005" lon="11.4943982665709"><ele>44.0</ele><time>2026-03-22T10:18:20.998Z</time></trkpt><trkpt lat="45.49754356518304" lon="11.494457806828779"><ele>44.0</ele><time>2026-03-22T10:18:22.998Z</time></trkpt><trkpt lat="45.49761323182333" lon="11.494517032417686"><ele>44.0</ele><time>2026-03-22T10:18:24.998Z</time></trkpt><trkpt lat="45.497700898069" lon="11.494564554045205"><ele>44.0</ele><time>2026-03-22T10:18:27.997Z</time></trkpt><trkpt lat="45.49776242469949" lon="11.49461007463885"><ele>44.0</ele><time>2026-03-22T10:18:29.997Z</time></trkpt><trkpt lat="45.497820824717586" lon="11.494647667000178"><ele>44.0</ele><time>2026-03-22T10:18:31.997Z</time></trkpt><trkpt lat="45.497878858935685" lon="11.494695787560362"><ele>44.0</ele><time>2026-03-22T10:18:33.997Z</time></trkpt><trkpt lat="45.497943995047926" lon="11.494714988176588"><ele>42.83333333333333</ele><time>2026-03-22T10:18:35.997Z</time></trkpt><trkpt lat="45.498008483154436" lon="11.49477983877969"><ele>41.666666666666664</ele><time>2026-03-22T10:18:37.997Z</time></trkpt><trkpt lat="45.49809230303429" lon="11.494834623371556"><ele>40.5</ele><time>2026-03-22T10:18:40.997Z</time></trkpt><trkpt lat="45.49817281991971" lon="11.494867749524879"><ele>39.333333333333336</ele><time>2026-03-22T10:18:42.997Z</time></trkpt><trkpt lat="45.498240483074156" lon="11.494902019720957"><ele>38.16666666666667</ele><time>2026-03-22T10:18:45Z</time></trkpt><trkpt lat="45.498303694034135" lon="11.494950495642236"><ele>37.0</ele><time>2026-03-22T10:18:47Z</time></trkpt><trkpt lat="45.498368461246656" lon="11.494998744391495"><ele>37.0</ele><time>2026-03-22T10:18:49Z</time></trkpt><trkpt lat="45.49843070684215" lon="11.49504785663131"><ele>37.0</ele><time>2026-03-22T10:18:51Z</time></trkpt><trkpt lat="45.498492576165575" lon="11.495118045750834"><ele>37.0</ele><time>2026-03-22T10:18:53Z</time></trkpt><trkpt lat="45.498549378974246" lon="11.495186207199668"><ele>37.0</ele><time>2026-03-22T10:18:55Z</time></trkpt><trkpt lat="45.49860424641939" lon="11.495259230041347"><ele>37.0</ele><time>2026-03-22T10:18:57Z</time></trkpt><trkpt lat="45.49866298325391" lon="11.495336898840392"><ele>37.0</ele><time>2026-03-22T10:18:59Z</time></trkpt><trkpt lat="45.498707853216594" lon="11.49541271583245"><ele>37.0</ele><time>2026-03-22T10:19:01Z</time></trkpt><trkpt lat="45.49874532293689" lon="11.495489097178089"><ele>37.0</ele><time>2026-03-22T10:19:03Z</time></trkpt><trkpt lat="45.49878769772314" lon="11.495580880268628"><ele>37.0</ele><time>2026-03-22T10:19:05Z</time></trkpt><trkpt lat="45.49882619706158" lon="11.495660714699039"><ele>37.0</ele><time>2026-03-22T10:19:07Z</time></trkpt><trkpt lat="45.498857968349384" lon="11.49575856634341"><ele>37.0</ele><time>2026-03-22T10:19:09Z</time></trkpt><trkpt lat="45.498891022279494" lon="11.495861335805888"><ele>37.0</ele><time>2026-03-22T10:19:11Z</time></trkpt><trkpt lat="45.49891303401291" lon="11.495953125395742"><ele>37.0</ele><time>2026-03-22T10:19:13Z</time></trkpt><trkpt lat="45.498934794562345" lon="11.496045412990306"><ele>37.0</ele><time>2026-03-22T10:19:15Z</time></trkpt><trkpt lat="45.498969623813956" lon="11.496161153106833"><ele>37.0</ele><time>2026-03-22T10:19:17.999Z</time></trkpt><trkpt lat="45.49899112612802" lon="11.496292523461012"><ele>37.0</ele><time>2026-03-22T10:19:20.999Z</time></trkpt><trkpt lat="45.499008857869626" lon="11.496395135323276"><ele>37.0</ele><time>2026-03-22T10:19:22.999Z</time></trkpt><trkpt lat="45.4990410943597" lon="11.496503333689084"><ele>37.0</ele><time>2026-03-22T10:19:25.999Z</time></trkpt><trkpt lat="45.49907362612105" lon="11.496628470083506"><ele>37.0</ele><time>2026-03-22T10:19:28.999Z</time></trkpt><trkpt lat="45.499102239631334" lon="11.496724762273479"><ele>37.0</ele><time>2026-03-22T10:19:30.999Z</time></trkpt><trkpt lat="45.499128862392595" lon="11.49682619958153"><ele>37.0</ele><time>2026-03-22T10:19:32.999Z</time></trkpt><trkpt lat="45.499159289157596" lon="11.496951032088878"><ele>37.0</ele><time>2026-03-22T10:19:35.999Z</time></trkpt><trkpt lat="45.49919565155553" lon="11.497028517425248"><ele>37.0</ele><time>2026-03-22T10:19:37.999Z</time></trkpt><trkpt lat="45.49924087345468" lon="11.497136880120156"><ele>37.0</ele><time>2026-03-22T10:19:40.999Z</time></trkpt><trkpt lat="45.49928439285308" lon="11.497213599776483"><ele>37.0</ele><time>2026-03-22T10:19:42.999Z</time></trkpt><trkpt lat="45.499334633395364" lon="11.49732506710793"><ele>37.0</ele><time>2026-03-22T10:19:45.999Z</time></trkpt><trkpt lat="45.49937035573919" lon="11.497406145097488"><ele>37.16666666666667</ele><time>2026-03-22T10:19:47.999Z</time></trkpt><trkpt lat="45.499411888560694" lon="11.497483230598151"><ele>37.333333333333336</ele><time>2026-03-22T10:19:49.999Z</time></trkpt><trkpt lat="45.49945550296898" lon="11.497561216678351"><ele>37.5</ele><time>2026-03-22T10:19:51.999Z</time></trkpt><trkpt lat="45.499488058235265" lon="11.497638372129416"><ele>37.666666666666664</ele><time>2026-03-22T10:19:53.999Z</time></trkpt><trkpt lat="45.4995352975256" lon="11.49771544487805"><ele>37.83333333333333</ele><time>2026-03-22T10:19:55.998Z</time></trkpt><trkpt lat="45.49960959778142" lon="11.497830392884426"><ele>38.0</ele><time>2026-03-22T10:19:58.998Z</time></trkpt><trkpt lat="45.499655077267555" lon="11.497913513416504"><ele>38.33333333333333</ele><time>2026-03-22T10:20:00.998Z</time></trkpt><trkpt lat="45.49970533163135" lon="11.497997546789506"><ele>38.666666666666664</ele><time>2026-03-22T10:20:02.998Z</time></trkpt><trkpt lat="45.49975505866391" lon="11.498061286438233"><ele>39.0</ele><time>2026-03-22T10:20:04.998Z</time></trkpt><trkpt lat="45.499803245073" lon="11.498129272327482"><ele>39.333333333333336</ele><time>2026-03-22T10:20:06.998Z</time></trkpt><trkpt lat="45.49986291988878" lon="11.498201255104206"><ele>39.66666666666667</ele><time>2026-03-22T10:20:08.998Z</time></trkpt><trkpt lat="45.49993482589903" lon="11.498269563164422"><ele>40.0</ele><time>2026-03-22T10:20:10.998Z</time></trkpt><trkpt lat="45.50001186656532" lon="11.498335823076516"><ele>40.0</ele><time>2026-03-22T10:20:12.998Z</time></trkpt><trkpt lat="45.5000779722534" lon="11.498414581370739"><ele>40.0</ele><time>2026-03-22T10:20:14.998Z</time></trkpt><trkpt lat="45.50015358832344" lon="11.49850392724829"><ele>40.0</ele><time>2026-03-22T10:20:16.998Z</time></trkpt><trkpt lat="45.500236799081165" lon="11.498576088394064"><ele>40.0</ele><time>2026-03-22T10:20:18.998Z</time></trkpt><trkpt lat="45.50030757123997" lon="11.498688060494146"><ele>40.0</ele><time>2026-03-22T10:20:20.998Z</time></trkpt><trkpt lat="45.5003707615391" lon="11.498797710599082"><ele>42.0</ele><time>2026-03-22T10:20:22.998Z</time></trkpt><trkpt lat="45.50043202117958" lon="11.498917475688215"><ele>44.0</ele><time>2026-03-22T10:20:24.998Z</time></trkpt><trkpt lat="45.50049675492949" lon="11.499028280314317"><ele>46.0</ele><time>2026-03-22T10:20:26.998Z</time></trkpt><trkpt lat="45.50056450346776" lon="11.499126718236901"><ele>48.0</ele><time>2026-03-22T10:20:28.998Z</time></trkpt><trkpt lat="45.500634907190985" lon="11.499223197047288"><ele>50.0</ele><time>2026-03-22T10:20:30.998Z</time></trkpt><trkpt lat="45.500703839397005" lon="11.499305112560142"><ele>50.00000000000001</ele><time>2026-03-22T10:20:32.997Z</time></trkpt><trkpt lat="45.500778060525064" lon="11.499345110801675"><ele>50.0</ele><time>2026-03-22T10:20:34.997Z</time></trkpt><trkpt lat="45.50084307793084" lon="11.499391299298798"><ele>50.0</ele><time>2026-03-22T10:20:36.997Z</time></trkpt><trkpt lat="45.50092068076289" lon="11.499461871868355"><ele>50.0</ele><time>2026-03-22T10:20:38.997Z</time></trkpt><trkpt lat="45.500992946633815" lon="11.499518073032299"><ele>50.00000000000001</ele><time>2026-03-22T10:20:40.997Z</time></trkpt><trkpt lat="45.50105255699666" lon="11.499560818988149"><ele>50.0</ele><time>2026-03-22T10:20:42.997Z</time></trkpt><trkpt lat="45.50112049556044" lon="11.499605785854238"><ele>50.66666666666667</ele><time>2026-03-22T10:20:44.997Z</time></trkpt><trkpt lat="45.50118782144821" lon="11.499654671616376"><ele>51.333333333333336</ele><time>2026-03-22T10:20:46.997Z</time></trkpt><trkpt lat="45.5012492355371" lon="11.499697047309802"><ele>52.0</ele><time>2026-03-22T10:20:48.997Z</time></trkpt><trkpt lat="45.50130886721857" lon="11.499763465807634"><ele>52.66666666666667</ele><time>2026-03-22T10:20:51Z</time></trkpt><trkpt lat="45.501367190425015" lon="11.499829355573597"><ele>53.333333333333336</ele><time>2026-03-22T10:20:53Z</time></trkpt><trkpt lat="45.501416286146025" lon="11.499889797234598"><ele>54.0</ele><time>2026-03-22T10:20:55Z</time></trkpt><trkpt lat="45.501480473375" lon="11.499989064646496"><ele>54.0</ele><time>2026-03-22T10:20:58Z</time></trkpt><trkpt lat="45.50151753759013" lon="11.500066217962877"><ele>54.0</ele><time>2026-03-22T10:21:00Z</time></trkpt><trkpt lat="45.50154850369606" lon="11.5001638604818"><ele>54.0</ele><time>2026-03-22T10:21:02Z</time></trkpt><trkpt lat="45.501572366849985" lon="11.500284916722205"><ele>54.0</ele><time>2026-03-22T10:21:05Z</time></trkpt><trkpt lat="45.501597173781974" lon="11.500393435779964"><ele>54.0</ele><time>2026-03-22T10:21:07Z</time></trkpt><trkpt lat="45.501598571449094" lon="11.500513123755477"><ele>54.0</ele><time>2026-03-22T10:21:09Z</time></trkpt><trkpt lat="45.501588832318745" lon="11.500640408391646"><ele>53.5</ele><time>2026-03-22T10:21:11Z</time></trkpt><trkpt lat="45.50157170204292" lon="11.500787760085187"><ele>53.0</ele><time>2026-03-22T10:21:13Z</time></trkpt><trkpt lat="45.501544183665786" lon="11.500913383257089"><ele>52.5</ele><time>2026-03-22T10:21:15Z</time></trkpt><trkpt lat="45.50153585133485" lon="11.5010363894953"><ele>52.0</ele><time>2026-03-22T10:21:17Z</time></trkpt><trkpt lat="45.50151325745911" lon="11.501152857654361"><ele>51.5</ele><time>2026-03-22T10:21:19Z</time></trkpt><trkpt lat="45.501499039612725" lon="11.50124958962043"><ele>51.0</ele><time>2026-03-22T10:21:21Z</time></trkpt><trkpt lat="45.501489138818705" lon="11.501341353448474"><ele>50.714285714285715</ele><time>2026-03-22T10:21:22.999Z</time></trkpt><trkpt lat="45.50148558778144" lon="11.501463518312415"><ele>50.42857142857143</ele><time>2026-03-22T10:21:24.999Z</time></trkpt><trkpt lat="45.501506053789825" lon="11.501567929994184"><ele>50.14285714285714</ele><time>2026-03-22T10:21:26.999Z</time></trkpt><trkpt lat="45.501529086003714" lon="11.501656953845801"><ele>49.85714285714286</ele><time>2026-03-22T10:21:28.999Z</time></trkpt><trkpt lat="45.501560197566334" lon="11.50174655653831"><ele>49.57142857142857</ele><time>2026-03-22T10:21:30.999Z</time></trkpt><trkpt lat="45.501617090140684" lon="11.50184140847604"><ele>49.285714285714285</ele><time>2026-03-22T10:21:32.999Z</time></trkpt><trkpt lat="45.50167574069708" lon="11.501876640683975"><ele>49.0</ele><time>2026-03-22T10:21:34.999Z</time></trkpt><trkpt lat="45.50173184622666" lon="11.501952741771788"><ele>49.0</ele><time>2026-03-22T10:21:36.999Z</time></trkpt><trkpt lat="45.50179576907141" lon="11.502011269103395"><ele>49.0</ele><time>2026-03-22T10:21:38.999Z</time></trkpt><trkpt lat="45.501847205734464" lon="11.502068625216396"><ele>49.0</ele><time>2026-03-22T10:21:40.999Z</time></trkpt><trkpt lat="45.50190440032123" lon="11.502120424068483"><ele>49.0</ele><time>2026-03-22T10:21:42.999Z</time></trkpt><trkpt lat="45.50196113082947" lon="11.502182108038602"><ele>49.0</ele><time>2026-03-22T10:21:44.999Z</time></trkpt><trkpt lat="45.502024389594126" lon="11.502242354160167"><ele>49.0</ele><time>2026-03-22T10:21:46.999Z</time></trkpt><trkpt lat="45.50208615576915" lon="11.502341252695587"><ele>49.0</ele><time>2026-03-22T10:21:49.999Z</time></trkpt><trkpt lat="45.502127527266076" lon="11.50240977752553"><ele>48.857142857142854</ele><time>2026-03-22T10:21:51.999Z</time></trkpt><trkpt lat="45.50216442387675" lon="11.50249848751495"><ele>48.714285714285715</ele><time>2026-03-22T10:21:53.999Z</time></trkpt><trkpt lat="45.502185737699826" lon="11.502614151125142"><ele>48.57142857142857</ele><time>2026-03-22T10:21:55.999Z</time></trkpt><trkpt lat="45.50220556700534" lon="11.50270807727965"><ele>48.42857142857143</ele><time>2026-03-22T10:21:57.999Z</time></trkpt><trkpt lat="45.50222256071396" lon="11.502801112756018"><ele>48.285714285714285</ele><time>2026-03-22T10:21:59.999Z</time></trkpt><trkpt lat="45.50223564815999" lon="11.502893638344908"><ele>48.14285714285714</ele><time>2026-03-22T10:22:01.998Z</time></trkpt><trkpt lat="45.5022509534775" lon="11.50299568360971"><ele>48.0</ele><time>2026-03-22T10:22:03.998Z</time></trkpt><trkpt lat="45.50225971633245" lon="11.50308622438686"><ele>48.333333333333336</ele><time>2026-03-22T10:22:05.998Z</time></trkpt><trkpt lat="45.50227473039346" lon="11.503192599781723"><ele>48.66666666666667</ele><time>2026-03-22T10:22:07.998Z</time></trkpt><trkpt lat="45.50227749843839" lon="11.50329128003097"><ele>49.0</ele><time>2026-03-22T10:22:09.998Z</time></trkpt><trkpt lat="45.50228737517217" lon="11.50339520092071"><ele>49.333333333333336</ele><time>2026-03-22T10:22:11.998Z</time></trkpt><trkpt lat="45.50230193156435" lon="11.503530163183244"><ele>49.66666666666667</ele><time>2026-03-22T10:22:14.998Z</time></trkpt><trkpt lat="45.50231195589451" lon="11.503673957379238"><ele>50.0</ele><time>2026-03-22T10:22:17.998Z</time></trkpt><trkpt lat="45.50230985088095" lon="11.503782894288122"><ele>50.00000000000001</ele><time>2026-03-22T10:22:19.998Z</time></trkpt><trkpt lat="45.50230357706119" lon="11.50389182623122"><ele>50.0</ele><time>2026-03-22T10:22:21.998Z</time></trkpt><trkpt lat="45.50227366606969" lon="11.504028151443181"><ele>50.0</ele><time>2026-03-22T10:22:24.998Z</time></trkpt><trkpt lat="45.502231637628256" lon="11.504124679992113"><ele>50.0</ele><time>2026-03-22T10:22:26.998Z</time></trkpt><trkpt lat="45.50219990135035" lon="11.504221252651972"><ele>50.00000000000001</ele><time>2026-03-22T10:22:28.998Z</time></trkpt><trkpt lat="45.502163253291734" lon="11.504310661594962"><ele>50.0</ele><time>2026-03-22T10:22:30.998Z</time></trkpt><trkpt lat="45.50213595112057" lon="11.504408701357924"><ele>50.00000000000001</ele><time>2026-03-22T10:22:32.998Z</time></trkpt><trkpt lat="45.50211652433906" lon="11.504516009181568"><ele>50.0</ele><time>2026-03-22T10:22:34.998Z</time></trkpt><trkpt lat="45.50210112881364" lon="11.5046167809114"><ele>50.0</ele><time>2026-03-22T10:22:36.998Z</time></trkpt><trkpt lat="45.502098223791464" lon="11.504734453095422"><ele>50.0</ele><time>2026-03-22T10:22:39.997Z</time></trkpt><trkpt lat="45.50211446425332" lon="11.50483113015168"><ele>50.0</ele><time>2026-03-22T10:22:41.997Z</time></trkpt><trkpt lat="45.50214087963126" lon="11.504941178900493"><ele>50.00000000000001</ele><time>2026-03-22T10:22:43.997Z</time></trkpt><trkpt lat="45.50214565404819" lon="11.505034553573076"><ele>50.0</ele><time>2026-03-22T10:22:45.997Z</time></trkpt><trkpt lat="45.502159581895725" lon="11.505148183114377"><ele>49.0</ele><time>2026-03-22T10:22:49.997Z</time></trkpt><trkpt lat="45.502169327426174" lon="11.50525041314168"><ele>48.0</ele><time>2026-03-22T10:22:52.997Z</time></trkpt><trkpt lat="45.50220010078086" lon="11.505338662883828"><ele>47.0</ele><time>2026-03-22T10:24:00.999Z</time></trkpt><trkpt lat="45.50226413619592" lon="11.505403729382527"><ele>46.0</ele><time>2026-03-22T10:24:02.999Z</time></trkpt><trkpt lat="45.50244058781424" lon="11.505383163040491"><ele>45.0</ele><time>2026-03-22T10:24:07.998Z</time></trkpt><trkpt lat="45.50257190636042" lon="11.505378391538883"><ele>45.0</ele><time>2026-03-22T10:24:11.998Z</time></trkpt><trkpt lat="45.50267260801947" lon="11.505365379137906"><ele>45.0</ele><time>2026-03-22T10:24:14.998Z</time></trkpt><trkpt lat="45.50290893114786" lon="11.505356977250145"><ele>45.0</ele><time>2026-03-22T10:24:20.998Z</time></trkpt><trkpt lat="45.50305670216469" lon="11.50535694843907"><ele>46.833333333333336</ele><time>2026-03-22T10:24:24.998Z</time></trkpt><trkpt lat="45.50313594013265" lon="11.50535257651795"><ele>48.66666666666667</ele><time>2026-03-22T10:24:26.998Z</time></trkpt><trkpt lat="45.50322268729497" lon="11.505362879340053"><ele>50.5</ele><time>2026-03-22T10:24:28.998Z</time></trkpt><trkpt lat="45.50329982019272" lon="11.505397134586483"><ele>52.333333333333336</ele><time>2026-03-22T10:24:30.998Z</time></trkpt><trkpt lat="45.50337410676199" lon="11.505421627965926"><ele>54.16666666666667</ele><time>2026-03-22T10:24:32.998Z</time></trkpt><trkpt lat="45.50346170787565" lon="11.505437516065367"><ele>56.0</ele><time>2026-03-22T10:24:34.998Z</time></trkpt><trkpt lat="45.5035592060021" lon="11.505463552021153"><ele>52.199999999999996</ele><time>2026-03-22T10:24:36.998Z</time></trkpt><trkpt lat="45.503635739356405" lon="11.505484921191952"><ele>48.39999999999999</ele><time>2026-03-22T10:24:38.998Z</time></trkpt><trkpt lat="45.503705302900144" lon="11.505477889258659"><ele>44.6</ele><time>2026-03-22T10:24:41.998Z</time></trkpt><trkpt lat="45.50378908358385" lon="11.505491736353465"><ele>40.8</ele><time>2026-03-22T10:24:44.998Z</time></trkpt><trkpt lat="45.503879057910574" lon="11.505507960476804"><ele>37.0</ele><time>2026-03-22T10:24:47.997Z</time></trkpt><trkpt lat="45.50406758746699" lon="11.505541429317052"><ele>37.0</ele><time>2026-03-22T10:24:48.997Z</time></trkpt><trkpt lat="45.50415804732319" lon="11.50557674984773"><ele>37.0</ele><time>2026-03-22T10:24:50.997Z</time></trkpt><trkpt lat="45.50425572886346" lon="11.505606398153372"><ele>37.0</ele><time>2026-03-22T10:24:52.997Z</time></trkpt><trkpt lat="45.50434794899049" lon="11.505638256698523"><ele>37.0</ele><time>2026-03-22T10:24:54.997Z</time></trkpt><trkpt lat="45.50444795880148" lon="11.505673183593784"><ele>37.0</ele><time>2026-03-22T10:24:56.997Z</time></trkpt><trkpt lat="45.504569491460636" lon="11.50570120674439"><ele>38.0</ele><time>2026-03-22T10:24:58.997Z</time></trkpt><trkpt lat="45.5046326160549" lon="11.50571138586044"><ele>39.0</ele><time>2026-03-22T10:24:59.997Z</time></trkpt><trkpt lat="45.50475395651735" lon="11.505711703301085"><ele>40.0</ele><time>2026-03-22T10:25:01.997Z</time></trkpt><trkpt lat="45.50487030293372" lon="11.505698156810254"><ele>41.0</ele><time>2026-03-22T10:25:04Z</time></trkpt><trkpt lat="45.504969040821656" lon="11.50562513060591"><ele>42.0</ele><time>2026-03-22T10:25:06Z</time></trkpt><trkpt lat="45.50506901828865" lon="11.50560895913832"><ele>42.0</ele><time>2026-03-22T10:25:08Z</time></trkpt><trkpt lat="45.50512893043416" lon="11.505657945093091"><ele>42.0</ele><time>2026-03-22T10:25:09Z</time></trkpt><trkpt lat="45.50518927592928" lon="11.505683533391387"><ele>42.0</ele><time>2026-03-22T10:25:10Z</time></trkpt><trkpt lat="45.50525746460599" lon="11.505702671498806"><ele>42.0</ele><time>2026-03-22T10:25:11Z</time></trkpt><trkpt lat="45.50532721821368" lon="11.505707495933901"><ele>42.0</ele><time>2026-03-22T10:25:12Z</time></trkpt><trkpt lat="45.505428603782654" lon="11.505715981165771"><ele>42.0</ele><time>2026-03-22T10:25:14Z</time></trkpt><trkpt lat="45.505527121942684" lon="11.505710588704824"><ele>42.8</ele><time>2026-03-22T10:25:16Z</time></trkpt><trkpt lat="45.505645583206025" lon="11.505708150496055"><ele>43.6</ele><time>2026-03-22T10:25:18Z</time></trkpt><trkpt lat="45.505750637454646" lon="11.505708554576364"><ele>44.4</ele><time>2026-03-22T10:25:20Z</time></trkpt><trkpt lat="45.50582042948225" lon="11.505707909666434"><ele>45.199999999999996</ele><time>2026-03-22T10:25:21Z</time></trkpt><trkpt lat="45.50591740182364" lon="11.505717192136169"><ele>46.0</ele><time>2026-03-22T10:25:23Z</time></trkpt><trkpt lat="45.50603569752255" lon="11.505714217329649"><ele>46.0</ele><time>2026-03-22T10:25:25Z</time></trkpt><trkpt lat="45.506155028175286" lon="11.5057239381638"><ele>46.0</ele><time>2026-03-22T10:25:27Z</time></trkpt><trkpt lat="45.50625172995066" lon="11.505713999382353"><ele>46.0</ele><time>2026-03-22T10:25:29Z</time></trkpt><trkpt lat="45.506361817853765" lon="11.505710523159525"><ele>46.0</ele><time>2026-03-22T10:25:31Z</time></trkpt><trkpt lat="45.50648633142591" lon="11.505714334222905"><ele>45.8</ele><time>2026-03-22T10:25:33Z</time></trkpt><trkpt lat="45.50656083985773" lon="11.50570984855306"><ele>45.599999999999994</ele><time>2026-03-22T10:25:35Z</time></trkpt><trkpt lat="45.506685699589625" lon="11.505700872163667"><ele>45.4</ele><time>2026-03-22T10:25:36.999Z</time></trkpt><trkpt lat="45.50679191458515" lon="11.505683848778741"><ele>45.2</ele><time>2026-03-22T10:25:38.999Z</time></trkpt><trkpt lat="45.50685076858619" lon="11.505733427191169"><ele>45.0</ele><time>2026-03-22T10:25:39.999Z</time></trkpt><trkpt lat="45.506972552033595" lon="11.50573810526107"><ele>45.5</ele><time>2026-03-22T10:25:41.999Z</time></trkpt><trkpt lat="45.507090018476305" lon="11.505742972138073"><ele>46.0</ele><time>2026-03-22T10:25:43.999Z</time></trkpt><trkpt lat="45.507205810309685" lon="11.505755042922544"><ele>46.5</ele><time>2026-03-22T10:25:45.999Z</time></trkpt><trkpt lat="45.50731042577767" lon="11.505775824464388"><ele>47.0</ele><time>2026-03-22T10:25:47.999Z</time></trkpt><trkpt lat="45.50742270588381" lon="11.505755285847341"><ele>47.0</ele><time>2026-03-22T10:25:49.999Z</time></trkpt><trkpt lat="45.5075244050358" lon="11.505784268627968"><ele>47.0</ele><time>2026-03-22T10:25:51.999Z</time></trkpt><trkpt lat="45.50758738933372" lon="11.505817157536747"><ele>47.0</ele><time>2026-03-22T10:25:52.999Z</time></trkpt><trkpt lat="45.50769967105996" lon="11.505845328962238"><ele>47.0</ele><time>2026-03-22T10:25:54.999Z</time></trkpt><trkpt lat="45.507807433202714" lon="11.505885794465403"><ele>47.0</ele><time>2026-03-22T10:25:56.999Z</time></trkpt><trkpt lat="45.50792810766284" lon="11.50595019931298"><ele>49.5</ele><time>2026-03-22T10:25:58.999Z</time></trkpt><trkpt lat="45.5080281573834" lon="11.505966660412982"><ele>52.0</ele><time>2026-03-22T10:26:00.999Z</time></trkpt><trkpt lat="45.50815604764631" lon="11.506038759511872"><ele>54.5</ele><time>2026-03-22T10:26:02.999Z</time></trkpt><trkpt lat="45.50826531056763" lon="11.506067974988984"><ele>57.0</ele><time>2026-03-22T10:26:04.999Z</time></trkpt><trkpt lat="45.50837878335972" lon="11.506113882334692"><ele>57.0</ele><time>2026-03-22T10:26:06.999Z</time></trkpt><trkpt lat="45.50848888079411" lon="11.506138824667643"><ele>57.0</ele><time>2026-03-22T10:26:08.999Z</time></trkpt><trkpt lat="45.508593509996295" lon="11.506167992557614"><ele>57.0</ele><time>2026-03-22T10:26:10.999Z</time></trkpt><trkpt lat="45.50869565518658" lon="11.506185264169666"><ele>57.0</ele><time>2026-03-22T10:26:12.999Z</time></trkpt><trkpt lat="45.508787250829435" lon="11.506212785997707"><ele>57.0</ele><time>2026-03-22T10:26:14.998Z</time></trkpt><trkpt lat="45.508889985420595" lon="11.50621509991101"><ele>57.5</ele><time>2026-03-22T10:26:16.998Z</time></trkpt><trkpt lat="45.50897906916894" lon="11.506232464785056"><ele>58.0</ele><time>2026-03-22T10:26:18.998Z</time></trkpt><trkpt lat="45.50907893286619" lon="11.506253576012133"><ele>58.5</ele><time>2026-03-22T10:26:20.998Z</time></trkpt><trkpt lat="45.5091560067398" lon="11.506309794398584"><ele>59.0</ele><time>2026-03-22T10:26:22.998Z</time></trkpt><trkpt lat="45.50921414190206" lon="11.506417487766837"><ele>59.5</ele><time>2026-03-22T10:26:27.998Z</time></trkpt><trkpt lat="45.5092768022647" lon="11.50646031130032"><ele>60.0</ele><time>2026-03-22T10:26:29.998Z</time></trkpt><trkpt lat="45.50937304054457" lon="11.506473410538362"><ele>55.2</ele><time>2026-03-22T10:26:31.998Z</time></trkpt><trkpt lat="45.50946357881982" lon="11.506459468294619"><ele>50.4</ele><time>2026-03-22T10:26:33.998Z</time></trkpt><trkpt lat="45.50956139744058" lon="11.506438269608266"><ele>45.6</ele><time>2026-03-22T10:26:35.998Z</time></trkpt><trkpt lat="45.50965389043953" lon="11.506459850219281"><ele>40.8</ele><time>2026-03-22T10:26:37.998Z</time></trkpt><trkpt lat="45.50975560972404" lon="11.506495406664781"><ele>36.0</ele><time>2026-03-22T10:26:39.998Z</time></trkpt><trkpt lat="45.5098181119546" lon="11.506517265918212"><ele>36.0</ele><time>2026-03-22T10:26:40.998Z</time></trkpt><trkpt lat="45.509925067842104" lon="11.506544055805847"><ele>36.0</ele><time>2026-03-22T10:26:42.998Z</time></trkpt><trkpt lat="45.51002210261342" lon="11.50657520635244"><ele>36.0</ele><time>2026-03-22T10:26:44.998Z</time></trkpt><trkpt lat="45.51011814685562" lon="11.506604385031778"><ele>36.0</ele><time>2026-03-22T10:26:46.998Z</time></trkpt><trkpt lat="45.510227725560796" lon="11.506660848755475"><ele>36.0</ele><time>2026-03-22T10:26:48.998Z</time></trkpt><trkpt lat="45.51031913038161" lon="11.50670868796798"><ele>36.0</ele><time>2026-03-22T10:26:50.998Z</time></trkpt><trkpt lat="45.51040380294291" lon="11.506751058454265"><ele>36.0</ele><time>2026-03-22T10:26:52.997Z</time></trkpt><trkpt lat="45.51050105443217" lon="11.50678796022824"><ele>36.0</ele><time>2026-03-22T10:26:54.997Z</time></trkpt><trkpt lat="45.510612214642556" lon="11.506827727754965"><ele>36.0</ele><time>2026-03-22T10:26:56.997Z</time></trkpt><trkpt lat="45.51072399075316" lon="11.506882808102233"><ele>36.0</ele><time>2026-03-22T10:26:58.997Z</time></trkpt><trkpt lat="45.51082907931109" lon="11.50690927793273"><ele>35.6</ele><time>2026-03-22T10:27:00.997Z</time></trkpt><trkpt lat="45.51093441691642" lon="11.506958466350975"><ele>35.2</ele><time>2026-03-22T10:27:02.997Z</time></trkpt><trkpt lat="45.51102741503979" lon="11.507011372379052"><ele>34.8</ele><time>2026-03-22T10:27:04.997Z</time></trkpt><trkpt lat="45.511113189632425" lon="11.50705923334004"><ele>34.4</ele><time>2026-03-22T10:27:06.997Z</time></trkpt><trkpt lat="45.511199681323895" lon="11.50710923984963"><ele>34.0</ele><time>2026-03-22T10:27:09Z</time></trkpt><trkpt lat="45.51127504700187" lon="11.5070352854602"><ele>33.75</ele><time>2026-03-22T10:27:10Z</time></trkpt><trkpt lat="45.51135925828534" lon="11.506993730613603"><ele>33.5</ele><time>2026-03-22T10:27:12Z</time></trkpt><trkpt lat="45.51139969435269" lon="11.506830623997809"><ele>33.25</ele><time>2026-03-22T10:27:14Z</time></trkpt><trkpt lat="45.51145282681546" lon="11.506668571943909"><ele>33.0</ele><time>2026-03-22T10:27:16Z</time></trkpt><trkpt lat="45.51147291227301" lon="11.506505546030377"><ele>33.0</ele><time>2026-03-22T10:27:18Z</time></trkpt><trkpt lat="45.511535960334314" lon="11.50637781606845"><ele>33.0</ele><time>2026-03-22T10:27:20Z</time></trkpt><trkpt lat="45.51157360265033" lon="11.506245852952183"><ele>33.0</ele><time>2026-03-22T10:27:22Z</time></trkpt><trkpt lat="45.511614324385874" lon="11.506119007013115"><ele>33.0</ele><time>2026-03-22T10:27:24Z</time></trkpt><trkpt lat="45.51167029728047" lon="11.506052305513613"><ele>33.0</ele><time>2026-03-22T10:27:26Z</time></trkpt><trkpt lat="45.51182080599317" lon="11.506113128844309"><ele>33.0</ele><time>2026-03-22T10:27:29Z</time></trkpt><trkpt lat="45.51190536436773" lon="11.506218218597262"><ele>33.0</ele><time>2026-03-22T10:27:31Z</time></trkpt><trkpt lat="45.51200458840967" lon="11.5062771619029"><ele>33.0</ele><time>2026-03-22T10:27:33Z</time></trkpt><trkpt lat="45.512097083264514" lon="11.50633311687183"><ele>33.0</ele><time>2026-03-22T10:27:35Z</time></trkpt><trkpt lat="45.51218803060566" lon="11.506390775263341"><ele>33.0</ele><time>2026-03-22T10:27:37Z</time></trkpt><trkpt lat="45.51227178161528" lon="11.506443871347145"><ele>33.199999999999996</ele><time>2026-03-22T10:27:39Z</time></trkpt><trkpt lat="45.51238026938114" lon="11.506469258550446"><ele>33.4</ele><time>2026-03-22T10:27:41Z</time></trkpt><trkpt lat="45.512469402660074" lon="11.506538650551427"><ele>33.599999999999994</ele><time>2026-03-22T10:27:42.999Z</time></trkpt><trkpt lat="45.51255496854789" lon="11.506596204160642"><ele>33.8</ele><time>2026-03-22T10:27:44.999Z</time></trkpt><trkpt lat="45.51264045032924" lon="11.506657466720053"><ele>34.0</ele><time>2026-03-22T10:27:46.999Z</time></trkpt><trkpt lat="45.512724370366854" lon="11.50671938310676"><ele>34.0</ele><time>2026-03-22T10:27:48.999Z</time></trkpt><trkpt lat="45.512816737443885" lon="11.50678467978529"><ele>34.0</ele><time>2026-03-22T10:27:50.999Z</time></trkpt><trkpt lat="45.51287913093482" lon="11.506867450319794"><ele>34.0</ele><time>2026-03-22T10:27:52.999Z</time></trkpt><trkpt lat="45.51298842331545" lon="11.506905596427215"><ele>34.0</ele><time>2026-03-22T10:27:54.999Z</time></trkpt><trkpt lat="45.51307029351581" lon="11.506964452480155"><ele>34.0</ele><time>2026-03-22T10:27:56.999Z</time></trkpt><trkpt lat="45.51316230980268" lon="11.507009883505019"><ele>33.4</ele><time>2026-03-22T10:27:58.999Z</time></trkpt><trkpt lat="45.513270645283534" lon="11.507049274422329"><ele>32.8</ele><time>2026-03-22T10:28:00.999Z</time></trkpt><trkpt lat="45.513373045503954" lon="11.507053539267844"><ele>32.2</ele><time>2026-03-22T10:28:02.999Z</time></trkpt><trkpt lat="45.513470771597525" lon="11.50702019237939"><ele>31.6</ele><time>2026-03-22T10:28:04.999Z</time></trkpt><trkpt lat="45.51356571565923" lon="11.5070047322336"><ele>31.0</ele><time>2026-03-22T10:28:06.999Z</time></trkpt><trkpt lat="45.51365673376772" lon="11.506983731328688"><ele>31.000000000000004</ele><time>2026-03-22T10:28:08.999Z</time></trkpt><trkpt lat="45.513726099106435" lon="11.506936142869064"><ele>31.0</ele><time>2026-03-22T10:28:10.999Z</time></trkpt><trkpt lat="45.51377782879234" lon="11.506857731141489"><ele>31.0</ele><time>2026-03-22T10:28:13.999Z</time></trkpt><trkpt lat="45.51374584429647" lon="11.506742443918421"><ele>31.0</ele><time>2026-03-22T10:28:15.999Z</time></trkpt><trkpt lat="45.51373290209626" lon="11.50661438775144"><ele>31.000000000000004</ele><time>2026-03-22T10:28:17.999Z</time></trkpt><trkpt lat="45.5137199847693" lon="11.506467760266883"><ele>31.0</ele><time>2026-03-22T10:28:19.998Z</time></trkpt><trkpt lat="45.513693944853486" lon="11.506318196111781"><ele>32.4</ele><time>2026-03-22T10:28:21.998Z</time></trkpt><trkpt lat="45.513671129594655" lon="11.50615899154686"><ele>33.8</ele><time>2026-03-22T10:28:23.998Z</time></trkpt><trkpt lat="45.51364656089498" lon="11.506000987496927"><ele>35.199999999999996</ele><time>2026-03-22T10:28:25.998Z</time></trkpt><trkpt lat="45.51362140972843" lon="11.505838605560141"><ele>36.6</ele><time>2026-03-22T10:28:27.998Z</time></trkpt><trkpt lat="45.51358424350185" lon="11.505763380696793"><ele>38.0</ele><time>2026-03-22T10:28:28.998Z</time></trkpt><trkpt lat="45.51356054346992" lon="11.5056107832799"><ele>38.0</ele><time>2026-03-22T10:28:30.998Z</time></trkpt><trkpt lat="45.51357398531762" lon="11.505519452416998"><ele>38.0</ele><time>2026-03-22T10:28:31.998Z</time></trkpt><trkpt lat="45.51354224274018" lon="11.50535020286978"><ele>38.0</ele><time>2026-03-22T10:28:33.998Z</time></trkpt><trkpt lat="45.51351812187129" lon="11.505195306800527"><ele>38.0</ele><time>2026-03-22T10:28:35.998Z</time></trkpt><trkpt lat="45.51348993524533" lon="11.505053210246313"><ele>38.0</ele><time>2026-03-22T10:28:37.998Z</time></trkpt><trkpt lat="45.513458182061946" lon="11.504909985711125"><ele>38.199999999999996</ele><time>2026-03-22T10:28:39.998Z</time></trkpt><trkpt lat="45.51342275021777" lon="11.504774454867253"><ele>38.4</ele><time>2026-03-22T10:28:41.998Z</time></trkpt><trkpt lat="45.513371637104335" lon="11.5046829597903"><ele>38.599999999999994</ele><time>2026-03-22T10:28:43.998Z</time></trkpt><trkpt lat="45.51332134858747" lon="11.504620251117993"><ele>38.8</ele><time>2026-03-22T10:28:47.998Z</time></trkpt><trkpt lat="45.51322359476744" lon="11.504472139633487"><ele>39.0</ele><time>2026-03-22T10:29:21Z</time></trkpt><trkpt lat="45.51312834946621" lon="11.504349521156964"><ele>37.2</ele><time>2026-03-22T10:29:23Z</time></trkpt><trkpt lat="45.513085715609165" lon="11.504272957986368"><ele>35.4</ele><time>2026-03-22T10:29:24Z</time></trkpt><trkpt lat="45.512991585981645" lon="11.504134789919144"><ele>33.6</ele><time>2026-03-22T10:29:26Z</time></trkpt><trkpt lat="45.512949456338426" lon="11.504062062818722"><ele>31.8</ele><time>2026-03-22T10:29:27Z</time></trkpt><trkpt lat="45.512911542830466" lon="11.50398790849179"><ele>30.0</ele><time>2026-03-22T10:29:28Z</time></trkpt><trkpt lat="45.512826023108175" lon="11.503857115438452"><ele>33.6</ele><time>2026-03-22T10:29:30Z</time></trkpt><trkpt lat="45.51278888678541" lon="11.503784283372383"><ele>37.2</ele><time>2026-03-22T10:29:31Z</time></trkpt><trkpt lat="45.512755327528254" lon="11.503707098429523"><ele>40.8</ele><time>2026-03-22T10:29:32Z</time></trkpt><trkpt lat="45.512691933785014" lon="11.503554560692375"><ele>44.4</ele><time>2026-03-22T10:29:34Z</time></trkpt><trkpt lat="45.51262955168941" lon="11.503406592274409"><ele>48.0</ele><time>2026-03-22T10:29:36Z</time></trkpt><trkpt lat="45.5125680492338" lon="11.503267367487815"><ele>48.0</ele><time>2026-03-22T10:29:38Z</time></trkpt><trkpt lat="45.51250864745672" lon="11.503124267426248"><ele>48.0</ele><time>2026-03-22T10:29:40Z</time></trkpt><trkpt lat="45.51249412321425" lon="11.50303089823809"><ele>48.0</ele><time>2026-03-22T10:29:41Z</time></trkpt><trkpt lat="45.51243089671452" lon="11.502885567334602"><ele>48.0</ele><time>2026-03-22T10:29:43Z</time></trkpt><trkpt lat="45.51237974916885" lon="11.502741825919394"><ele>48.0</ele><time>2026-03-22T10:29:44.999Z</time></trkpt><trkpt lat="45.51240621012459" lon="11.502633452535619"><ele>44.4</ele><time>2026-03-22T10:29:45.999Z</time></trkpt><trkpt lat="45.51232311329579" lon="11.502606897742124"><ele>40.8</ele><time>2026-03-22T10:29:46.999Z</time></trkpt><trkpt lat="45.512264832069015" lon="11.5024821108928"><ele>37.2</ele><time>2026-03-22T10:29:48.999Z</time></trkpt><trkpt lat="45.51225729770039" lon="11.502284391272873"><ele>33.6</ele><time>2026-03-22T10:29:50.999Z</time></trkpt><trkpt lat="45.51219306336496" lon="11.502148633604754"><ele>30.0</ele><time>2026-03-22T10:29:52.999Z</time></trkpt><trkpt lat="45.512109902453496" lon="11.502123718830592"><ele>34.2</ele><time>2026-03-22T10:29:53.999Z</time></trkpt><trkpt lat="45.51206718915076" lon="11.501972729830037"><ele>38.4</ele><time>2026-03-22T10:29:55.999Z</time></trkpt><trkpt lat="45.5120374592002" lon="11.501827759127487"><ele>42.599999999999994</ele><time>2026-03-22T10:29:57.999Z</time></trkpt><trkpt lat="45.51201215938003" lon="11.501685162316871"><ele>46.8</ele><time>2026-03-22T10:29:59.999Z</time></trkpt><trkpt lat="45.51201160360789" lon="11.501579208189984"><ele>51.0</ele><time>2026-03-22T10:30:00.999Z</time></trkpt><trkpt lat="45.512004896345225" lon="11.501417651468271"><ele>50.5</ele><time>2026-03-22T10:30:02.999Z</time></trkpt><trkpt lat="45.5120031132622" lon="11.501248648359592"><ele>50.0</ele><time>2026-03-22T10:30:04.999Z</time></trkpt><trkpt lat="45.511991706627896" lon="11.50109046241564"><ele>49.5</ele><time>2026-03-22T10:30:06.999Z</time></trkpt><trkpt lat="45.51198871059504" lon="11.500922735458575"><ele>49.0</ele><time>2026-03-22T10:30:08.999Z</time></trkpt><trkpt lat="45.51198772001889" lon="11.500740116144035"><ele>49.0</ele><time>2026-03-22T10:30:10.999Z</time></trkpt><trkpt lat="45.5119730933686" lon="11.500557567475278"><ele>49.0</ele><time>2026-03-22T10:30:12.999Z</time></trkpt><trkpt lat="45.51195606670591" lon="11.500400718523574"><ele>49.0</ele><time>2026-03-22T10:30:14.999Z</time></trkpt><trkpt lat="45.51193533969834" lon="11.500252625675587"><ele>49.0</ele><time>2026-03-22T10:30:16.999Z</time></trkpt><trkpt lat="45.51192438781965" lon="11.500106656982227"><ele>49.0</ele><time>2026-03-22T10:30:18.999Z</time></trkpt><trkpt lat="45.51189882519976" lon="11.499941873430213"><ele>48.0</ele><time>2026-03-22T10:30:20.999Z</time></trkpt><trkpt lat="45.511879175271574" lon="11.499775146572858"><ele>47.0</ele><time>2026-03-22T10:30:22.998Z</time></trkpt><trkpt lat="45.51185940188511" lon="11.499618580248749"><ele>46.0</ele><time>2026-03-22T10:30:24.998Z</time></trkpt><trkpt lat="45.51184672821281" lon="11.499525373324953"><ele>45.0</ele><time>2026-03-22T10:30:25.998Z</time></trkpt><trkpt lat="45.51183641863938" lon="11.499363356406006"><ele>44.0</ele><time>2026-03-22T10:30:27.998Z</time></trkpt><trkpt lat="45.51179300988696" lon="11.499221162264826"><ele>43.400000000000006</ele><time>2026-03-22T10:30:29.998Z</time></trkpt><trkpt lat="45.51174792749413" lon="11.499063695500448"><ele>42.8</ele><time>2026-03-22T10:30:31.998Z</time></trkpt><trkpt lat="45.511694511256216" lon="11.498926241197553"><ele>42.2</ele><time>2026-03-22T10:30:33.998Z</time></trkpt><trkpt lat="45.51164612645618" lon="11.49879015787201"><ele>41.599999999999994</ele><time>2026-03-22T10:30:35.998Z</time></trkpt><trkpt lat="45.51160333506808" lon="11.498666017992305"><ele>41.0</ele><time>2026-03-22T10:30:37.998Z</time></trkpt><trkpt lat="45.5115748418627" lon="11.498531743898683"><ele>41.0</ele><time>2026-03-22T10:30:39.998Z</time></trkpt><trkpt lat="45.51156936597844" lon="11.498371673996283"><ele>41.0</ele><time>2026-03-22T10:30:41.998Z</time></trkpt><trkpt lat="45.511575904805305" lon="11.498219672299175"><ele>41.0</ele><time>2026-03-22T10:30:43.998Z</time></trkpt><trkpt lat="45.51160614897227" lon="11.498057203269882"><ele>41.0</ele><time>2026-03-22T10:30:45.998Z</time></trkpt><trkpt lat="45.51165270421136" lon="11.497891877487353"><ele>43.4</ele><time>2026-03-22T10:30:47.998Z</time></trkpt><trkpt lat="45.511715102342464" lon="11.497762373546081"><ele>45.8</ele><time>2026-03-22T10:30:49.998Z</time></trkpt><trkpt lat="45.51176112293745" lon="11.497646026777371"><ele>48.199999999999996</ele><time>2026-03-22T10:30:51.998Z</time></trkpt><trkpt lat="45.51183544947227" lon="11.497525367799923"><ele>50.599999999999994</ele><time>2026-03-22T10:30:53.998Z</time></trkpt><trkpt lat="45.51191689810433" lon="11.49741471413462"><ele>53.0</ele><time>2026-03-22T10:30:55.998Z</time></trkpt><trkpt lat="45.511982201364134" lon="11.49731004328725"><ele>53.0</ele><time>2026-03-22T10:30:57.998Z</time></trkpt><trkpt lat="45.512037003632656" lon="11.49718676631469"><ele>53.0</ele><time>2026-03-22T10:30:59.998Z</time></trkpt><trkpt lat="45.51211665746159" lon="11.497073985051255"><ele>53.0</ele><time>2026-03-22T10:31:01.997Z</time></trkpt><trkpt lat="45.51218444765419" lon="11.496941486184095"><ele>53.0</ele><time>2026-03-22T10:31:03.997Z</time></trkpt><trkpt lat="45.51226071719364" lon="11.49682257935437"><ele>53.0</ele><time>2026-03-22T10:31:05.997Z</time></trkpt><trkpt lat="45.512332105940736" lon="11.496693982518252"><ele>50.25</ele><time>2026-03-22T10:31:07.997Z</time></trkpt><trkpt lat="45.51239325876125" lon="11.496557919711373"><ele>47.5</ele><time>2026-03-22T10:31:09.997Z</time></trkpt><trkpt lat="45.512450396795735" lon="11.496413024209112"><ele>44.75</ele><time>2026-03-22T10:31:11.997Z</time></trkpt><trkpt lat="45.512470006598924" lon="11.496243087995047"><ele>42.0</ele><time>2026-03-22T10:31:13.997Z</time></trkpt><trkpt lat="45.51245600789726" lon="11.496078584545215"><ele>41.8</ele><time>2026-03-22T10:31:15.997Z</time></trkpt><trkpt lat="45.512435976221674" lon="11.495929577041268"><ele>41.6</ele><time>2026-03-22T10:31:17.997Z</time></trkpt><trkpt lat="45.5123972798689" lon="11.495810298323901"><ele>41.4</ele><time>2026-03-22T10:31:20Z</time></trkpt><trkpt lat="45.51235601820775" lon="11.495665117759254"><ele>41.199999999999996</ele><time>2026-03-22T10:31:22Z</time></trkpt><trkpt lat="45.51230672820542" lon="11.49551758967546"><ele>41.0</ele><time>2026-03-22T10:31:24Z</time></trkpt><trkpt lat="45.512247212183034" lon="11.495376798330234"><ele>40.599999999999994</ele><time>2026-03-22T10:31:26Z</time></trkpt><trkpt lat="45.51219152182996" lon="11.495252363859134"><ele>40.199999999999996</ele><time>2026-03-22T10:31:28Z</time></trkpt><trkpt lat="45.51215231508461" lon="11.495119784254271"><ele>39.8</ele><time>2026-03-22T10:31:30Z</time></trkpt><trkpt lat="45.51208733162329" lon="11.494999033808083"><ele>39.4</ele><time>2026-03-22T10:31:32Z</time></trkpt><trkpt lat="45.51202820427969" lon="11.494881934643212"><ele>39.0</ele><time>2026-03-22T10:31:34Z</time></trkpt><trkpt lat="45.51196952177421" lon="11.49476880967548"><ele>39.8</ele><time>2026-03-22T10:31:36Z</time></trkpt><trkpt lat="45.51191200989415" lon="11.49465346087923"><ele>40.599999999999994</ele><time>2026-03-22T10:31:38Z</time></trkpt><trkpt lat="45.511847252583" lon="11.494532385898438"><ele>41.4</ele><time>2026-03-22T10:31:40Z</time></trkpt><trkpt lat="45.511795698062414" lon="11.494416545612546"><ele>42.199999999999996</ele><time>2026-03-22T10:31:42Z</time></trkpt><trkpt lat="45.51173320657167" lon="11.49428604127046"><ele>43.0</ele><time>2026-03-22T10:31:44Z</time></trkpt><trkpt lat="45.51168380754576" lon="11.494139703042713"><ele>43.0</ele><time>2026-03-22T10:31:46Z</time></trkpt><trkpt lat="45.51164142324026" lon="11.493998981758152"><ele>43.0</ele><time>2026-03-22T10:31:48Z</time></trkpt><trkpt lat="45.51161598553776" lon="11.49391593606123"><ele>43.0</ele><time>2026-03-22T10:31:49Z</time></trkpt><trkpt lat="45.51156791698321" lon="11.49375518280416"><ele>43.0</ele><time>2026-03-22T10:31:51Z</time></trkpt><trkpt lat="45.51152241273849" lon="11.493609923309553"><ele>43.0</ele><time>2026-03-22T10:31:52.999Z</time></trkpt><trkpt lat="45.51148164691326" lon="11.493470297031573"><ele>41.8</ele><time>2026-03-22T10:31:54.999Z</time></trkpt><trkpt lat="45.5114399780242" lon="11.493331575353318"><ele>40.599999999999994</ele><time>2026-03-22T10:31:56.999Z</time></trkpt><trkpt lat="45.511396221098124" lon="11.493201884771464"><ele>39.400000000000006</ele><time>2026-03-22T10:31:58.999Z</time></trkpt><trkpt lat="45.51136241941278" lon="11.493070703669957"><ele>38.2</ele><time>2026-03-22T10:32:00.999Z</time></trkpt><trkpt lat="45.51131047839279" lon="11.49295322703734"><ele>37.0</ele><time>2026-03-22T10:32:02.999Z</time></trkpt><trkpt lat="45.51124820964495" lon="11.492828997874184"><ele>38.5</ele><time>2026-03-22T10:32:04.999Z</time></trkpt><trkpt lat="45.51117333031116" lon="11.49270470421957"><ele>40.0</ele><time>2026-03-22T10:32:06.999Z</time></trkpt><trkpt lat="45.51113789738257" lon="11.492627373068485"><ele>41.5</ele><time>2026-03-22T10:32:07.999Z</time></trkpt><trkpt lat="45.51109202150655" lon="11.492565130389414"><ele>43.0</ele><time>2026-03-22T10:32:08.999Z</time></trkpt><trkpt lat="45.51103801581195" lon="11.492502005315313"><ele>44.5</ele><time>2026-03-22T10:32:09.999Z</time></trkpt><trkpt lat="45.510948815950634" lon="11.492409699287206"><ele>46.0</ele><time>2026-03-22T10:32:11.999Z</time></trkpt><trkpt lat="45.51085329700636" lon="11.492312073705326"><ele>46.0</ele><time>2026-03-22T10:32:13.999Z</time></trkpt><trkpt lat="45.51075632412709" lon="11.492217177891034"><ele>46.0</ele><time>2026-03-22T10:32:15.999Z</time></trkpt><trkpt lat="45.51065767268664" lon="11.492122065608658"><ele>46.0</ele><time>2026-03-22T10:32:17.999Z</time></trkpt><trkpt lat="45.51056842102325" lon="11.492037441804936"><ele>46.0</ele><time>2026-03-22T10:32:19.999Z</time></trkpt><trkpt lat="45.510484830135674" lon="11.491960751040564"><ele>46.0</ele><time>2026-03-22T10:32:21.999Z</time></trkpt><trkpt lat="45.51039447497831" lon="11.491878744681005"><ele>47.0</ele><time>2026-03-22T10:32:23.999Z</time></trkpt><trkpt lat="45.5102901446753" lon="11.491810103508183"><ele>48.0</ele><time>2026-03-22T10:32:25.999Z</time></trkpt><trkpt lat="45.51020195680487" lon="11.491705284016176"><ele>49.0</ele><time>2026-03-22T10:32:27.999Z</time></trkpt><trkpt lat="45.510099261531195" lon="11.491613147271469"><ele>50.0</ele><time>2026-03-22T10:32:29.998Z</time></trkpt><trkpt lat="45.509988555657685" lon="11.49154738707777"><ele>50.0</ele><time>2026-03-22T10:32:31.998Z</time></trkpt><trkpt lat="45.509898296455226" lon="11.491450911590027"><ele>50.0</ele><time>2026-03-22T10:32:33.998Z</time></trkpt><trkpt lat="45.5098423210071" lon="11.491399294339487"><ele>50.0</ele><time>2026-03-22T10:32:34.998Z</time></trkpt><trkpt lat="45.50975155303491" lon="11.491299524302297"><ele>50.0</ele><time>2026-03-22T10:32:36.998Z</time></trkpt><trkpt lat="45.509707628801216" lon="11.49122942350733"><ele>50.0</ele><time>2026-03-22T10:32:37.998Z</time></trkpt><trkpt lat="45.50963389591331" lon="11.491120448478293"><ele>50.6</ele><time>2026-03-22T10:32:39.998Z</time></trkpt><trkpt lat="45.509565448830074" lon="11.491026056068819"><ele>51.2</ele><time>2026-03-22T10:32:41.998Z</time></trkpt><trkpt lat="45.50950855610653" lon="11.490926811019964"><ele>51.8</ele><time>2026-03-22T10:32:43.998Z</time></trkpt><trkpt lat="45.50943876151936" lon="11.490818029924482"><ele>52.4</ele><time>2026-03-22T10:32:45.998Z</time></trkpt><trkpt lat="45.509357700884195" lon="11.490718187468717"><ele>53.0</ele><time>2026-03-22T10:32:47.998Z</time></trkpt><trkpt lat="45.50927885420091" lon="11.490607671933645"><ele>53.00000000000001</ele><time>2026-03-22T10:32:49.998Z</time></trkpt><trkpt lat="45.50923295076095" lon="11.490540425419656"><ele>53.0</ele><time>2026-03-22T10:32:50.998Z</time></trkpt><trkpt lat="45.509142362869866" lon="11.490417872248704"><ele>53.0</ele><time>2026-03-22T10:32:52.998Z</time></trkpt><trkpt lat="45.509093623823986" lon="11.490360760925297"><ele>53.0</ele><time>2026-03-22T10:32:53.998Z</time></trkpt><trkpt lat="45.50904866135282" lon="11.490297124778813"><ele>53.00000000000001</ele><time>2026-03-22T10:32:54.998Z</time></trkpt><trkpt lat="45.5089602665865" lon="11.490176351668246"><ele>53.0</ele><time>2026-03-22T10:32:56.998Z</time></trkpt><trkpt lat="45.508868059516146" lon="11.490068813390797"><ele>55.5</ele><time>2026-03-22T10:32:58.998Z</time></trkpt><trkpt lat="45.508779584296875" lon="11.489954075045606"><ele>58.0</ele><time>2026-03-22T10:33:00.998Z</time></trkpt><trkpt lat="45.508697190127165" lon="11.489843943799793"><ele>60.5</ele><time>2026-03-22T10:33:02.998Z</time></trkpt><trkpt lat="45.508616192041444" lon="11.489737222065962"><ele>63.0</ele><time>2026-03-22T10:33:04.998Z</time></trkpt><trkpt lat="45.50853730111758" lon="11.489628154145963"><ele>59.8</ele><time>2026-03-22T10:33:06.998Z</time></trkpt><trkpt lat="45.50846101034088" lon="11.48952804017443"><ele>56.599999999999994</ele><time>2026-03-22T10:33:08.997Z</time></trkpt><trkpt lat="45.50836590217971" lon="11.489409944304926"><ele>53.400000000000006</ele><time>2026-03-22T10:33:10.997Z</time></trkpt><trkpt lat="45.50831592044747" lon="11.489353322450048"><ele>50.2</ele><time>2026-03-22T10:33:11.997Z</time></trkpt><trkpt lat="45.50823966088917" lon="11.489223546667123"><ele>47.0</ele><time>2026-03-22T10:33:13.997Z</time></trkpt><trkpt lat="45.50816118972766" lon="11.489102284804062"><ele>47.0</ele><time>2026-03-22T10:33:15.997Z</time></trkpt><trkpt lat="45.5080813626824" lon="11.488991400794946"><ele>47.0</ele><time>2026-03-22T10:33:17.997Z</time></trkpt><trkpt lat="45.50800523219267" lon="11.488873212067439"><ele>47.0</ele><time>2026-03-22T10:33:19.997Z</time></trkpt><trkpt lat="45.50792170042588" lon="11.488753196520484"><ele>47.0</ele><time>2026-03-22T10:33:21.997Z</time></trkpt><trkpt lat="45.50784741277009" lon="11.488617483299185"><ele>48.0</ele><time>2026-03-22T10:33:23.997Z</time></trkpt><trkpt lat="45.50777162485359" lon="11.488494628620336"><ele>49.0</ele><time>2026-03-22T10:33:26Z</time></trkpt><trkpt lat="45.50770112267508" lon="11.488379013219584"><ele>50.0</ele><time>2026-03-22T10:33:28Z</time></trkpt><trkpt lat="45.50762409439735" lon="11.48826575226896"><ele>51.0</ele><time>2026-03-22T10:33:30Z</time></trkpt><trkpt lat="45.507553680130954" lon="11.48813266296147"><ele>51.0</ele><time>2026-03-22T10:33:32Z</time></trkpt><trkpt lat="45.50747615252102" lon="11.488015994541817"><ele>51.0</ele><time>2026-03-22T10:33:34Z</time></trkpt><trkpt lat="45.50739875342042" lon="11.487901003658797"><ele>51.0</ele><time>2026-03-22T10:33:36Z</time></trkpt><trkpt lat="45.50732383804529" lon="11.48777999649299"><ele>51.0</ele><time>2026-03-22T10:33:38Z</time></trkpt><trkpt lat="45.50725946036264" lon="11.487639087444123"><ele>49.599999999999994</ele><time>2026-03-22T10:33:40Z</time></trkpt><trkpt lat="45.5071921698856" lon="11.487517794567125"><ele>48.2</ele><time>2026-03-22T10:33:42Z</time></trkpt><trkpt lat="45.50712525775188" lon="11.487396943333653"><ele>46.8</ele><time>2026-03-22T10:33:44Z</time></trkpt><trkpt lat="45.50705936481023" lon="11.487273781759635"><ele>45.400000000000006</ele><time>2026-03-22T10:33:46Z</time></trkpt><trkpt lat="45.507002821686164" lon="11.487142081234486"><ele>44.0</ele><time>2026-03-22T10:33:48Z</time></trkpt><trkpt lat="45.50695354973924" lon="11.48699991926169"><ele>44.0</ele><time>2026-03-22T10:33:50Z</time></trkpt><trkpt lat="45.50689679985012" lon="11.486854210848197"><ele>44.0</ele><time>2026-03-22T10:33:52Z</time></trkpt><trkpt lat="45.50687254102315" lon="11.486675648786692"><ele>44.0</ele><time>2026-03-22T10:33:54Z</time></trkpt><trkpt lat="45.506860954190884" lon="11.486495357912242"><ele>44.0</ele><time>2026-03-22T10:33:56Z</time></trkpt><trkpt lat="45.50685681103564" lon="11.486402685947102"><ele>44.0</ele><time>2026-03-22T10:33:56.999Z</time></trkpt><trkpt lat="45.506852749947605" lon="11.486310576993342"><ele>42.0</ele><time>2026-03-22T10:33:57.999Z</time></trkpt><trkpt lat="45.506842171509895" lon="11.486135594870401"><ele>40.0</ele><time>2026-03-22T10:33:59.999Z</time></trkpt><trkpt lat="45.50682449139638" lon="11.485973686104842"><ele>38.0</ele><time>2026-03-22T10:34:01.999Z</time></trkpt><trkpt lat="45.506787327184966" lon="11.4858272948784"><ele>36.0</ele><time>2026-03-22T10:34:03.999Z</time></trkpt><trkpt lat="45.50673784050565" lon="11.485687619170722"><ele>36.0</ele><time>2026-03-22T10:34:05.999Z</time></trkpt><trkpt lat="45.50668391557721" lon="11.485558709022122"><ele>36.0</ele><time>2026-03-22T10:34:07.999Z</time></trkpt><trkpt lat="45.50662572925071" lon="11.485434527910092"><ele>36.0</ele><time>2026-03-22T10:34:09.999Z</time></trkpt><trkpt lat="45.506558135760486" lon="11.48530324988486"><ele>36.0</ele><time>2026-03-22T10:34:11.999Z</time></trkpt><trkpt lat="45.506493466174256" lon="11.485188017305001"><ele>36.0</ele><time>2026-03-22T10:34:13.999Z</time></trkpt><trkpt lat="45.5064290016764" lon="11.485086402879386"><ele>35.4</ele><time>2026-03-22T10:34:15.999Z</time></trkpt><trkpt lat="45.50638117744369" lon="11.484980609558459"><ele>34.8</ele><time>2026-03-22T10:34:17.999Z</time></trkpt><trkpt lat="45.506301190655805" lon="11.484857130393587"><ele>34.199999999999996</ele><time>2026-03-22T10:34:19.999Z</time></trkpt><trkpt lat="45.506350343508046" lon="11.484740788094411"><ele>33.6</ele><time>2026-03-22T10:34:20.999Z</time></trkpt><trkpt lat="45.50644104981845" lon="11.484696171085043"><ele>33.0</ele><time>2026-03-22T10:34:21.999Z</time></trkpt><trkpt lat="45.50650459312167" lon="11.48467645199439"><ele>33.0</ele><time>2026-03-22T10:34:22.999Z</time></trkpt><trkpt lat="45.50660749515126" lon="11.484618519669487"><ele>33.0</ele><time>2026-03-22T10:34:24.999Z</time></trkpt><trkpt lat="45.506720473116424" lon="11.484603260816849"><ele>33.0</ele><time>2026-03-22T10:34:26.999Z</time></trkpt><trkpt lat="45.50681298746122" lon="11.484548413797167"><ele>33.0</ele><time>2026-03-22T10:34:28.999Z</time></trkpt><trkpt lat="45.5069033309075" lon="11.484483904190524"><ele>33.0</ele><time>2026-03-22T10:34:30.999Z</time></trkpt><trkpt lat="45.50700180391241" lon="11.484408588942218"><ele>33.25</ele><time>2026-03-22T10:34:32.999Z</time></trkpt><trkpt lat="45.50711089862942" lon="11.484320904397952"><ele>33.5</ele><time>2026-03-22T10:34:34.998Z</time></trkpt><trkpt lat="45.50721522507499" lon="11.48426091625184"><ele>33.75</ele><time>2026-03-22T10:34:36.998Z</time></trkpt><trkpt lat="45.50730073981083" lon="11.484159003015657"><ele>34.0</ele><time>2026-03-22T10:34:38.998Z</time></trkpt><trkpt lat="45.50739856378333" lon="11.484118021762075"><ele>34.0</ele><time>2026-03-22T10:34:40.998Z</time></trkpt><trkpt lat="45.50749639764812" lon="11.48404967770376"><ele>34.0</ele><time>2026-03-22T10:34:42.998Z</time></trkpt><trkpt lat="45.507587049401245" lon="11.483998116087342"><ele>34.0</ele><time>2026-03-22T10:34:44.998Z</time></trkpt><trkpt lat="45.50766963629702" lon="11.483944787990783"><ele>34.0</ele><time>2026-03-22T10:34:46.998Z</time></trkpt><trkpt lat="45.507750008240684" lon="11.483899118216002"><ele>34.0</ele><time>2026-03-22T10:34:48.998Z</time></trkpt><trkpt lat="45.507834007430354" lon="11.483848383792232"><ele>33.6</ele><time>2026-03-22T10:34:50.998Z</time></trkpt><trkpt lat="45.50793301420677" lon="11.483794751385538"><ele>33.2</ele><time>2026-03-22T10:34:52.998Z</time></trkpt><trkpt lat="45.50803126278089" lon="11.48373203744065"><ele>32.800000000000004</ele><time>2026-03-22T10:34:54.998Z</time></trkpt><trkpt lat="45.508131457541154" lon="11.483664076729438"><ele>32.4</ele><time>2026-03-22T10:34:56.998Z</time></trkpt><trkpt lat="45.50822319867524" lon="11.483609912471012"><ele>32.0</ele><time>2026-03-22T10:34:58.998Z</time></trkpt><trkpt lat="45.508304095169606" lon="11.483549378819163"><ele>32.0</ele><time>2026-03-22T10:35:00.998Z</time></trkpt><trkpt lat="45.50839633889188" lon="11.483487861550653"><ele>32.0</ele><time>2026-03-22T10:35:02.998Z</time></trkpt><trkpt lat="45.50847839450586" lon="11.483423514857222"><ele>32.0</ele><time>2026-03-22T10:35:04.998Z</time></trkpt><trkpt lat="45.508564068285864" lon="11.483364675141836"><ele>32.0</ele><time>2026-03-22T10:35:06.998Z</time></trkpt><trkpt lat="45.50865503944307" lon="11.48328711998649"><ele>32.0</ele><time>2026-03-22T10:35:08.998Z</time></trkpt><trkpt lat="45.50867520483571" lon="11.483195960605421"><ele>32.2</ele><time>2026-03-22T10:35:09.998Z</time></trkpt><trkpt lat="45.50875792430956" lon="11.483105657159442"><ele>32.400000000000006</ele><time>2026-03-22T10:35:11.998Z</time></trkpt><trkpt lat="45.50883488274357" lon="11.483010249056623"><ele>32.599999999999994</ele><time>2026-03-22T10:35:13.997Z</time></trkpt><trkpt lat="45.508904198152536" lon="11.482918701118919"><ele>32.8</ele><time>2026-03-22T10:35:15.997Z</time></trkpt><trkpt lat="45.508972692336634" lon="11.482835633705703"><ele>33.0</ele><time>2026-03-22T10:35:17.997Z</time></trkpt><trkpt lat="45.50905227993368" lon="11.482739112580306"><ele>33.6</ele><time>2026-03-22T10:35:19.997Z</time></trkpt><trkpt lat="45.5091358777078" lon="11.482637623199452"><ele>34.199999999999996</ele><time>2026-03-22T10:35:21.997Z</time></trkpt><trkpt lat="45.509211821565806" lon="11.482533440724817"><ele>34.8</ele><time>2026-03-22T10:35:23.997Z</time></trkpt><trkpt lat="45.50927797801273" lon="11.482407889758722"><ele>35.4</ele><time>2026-03-22T10:35:25.997Z</time></trkpt><trkpt lat="45.50932689509997" lon="11.482268498287091"><ele>36.0</ele><time>2026-03-22T10:35:27.997Z</time></trkpt><trkpt lat="45.50934684292721" lon="11.482115070797274"><ele>36.5</ele><time>2026-03-22T10:35:29.997Z</time></trkpt><trkpt lat="45.50933700575011" lon="11.48195680842797"><ele>37.0</ele><time>2026-03-22T10:35:32Z</time></trkpt><trkpt lat="45.509310589383894" lon="11.48178333344882"><ele>37.5</ele><time>2026-03-22T10:35:34Z</time></trkpt><trkpt lat="45.50928357403982" lon="11.481619624723345"><ele>38.0</ele><time>2026-03-22T10:35:36Z</time></trkpt><trkpt lat="45.50925607467816" lon="11.481457028662819"><ele>38.0</ele><time>2026-03-22T10:35:38Z</time></trkpt><trkpt lat="45.509230456782376" lon="11.481300298986348"><ele>38.0</ele><time>2026-03-22T10:35:40Z</time></trkpt><trkpt lat="45.5092122865074" lon="11.481149428988761"><ele>38.0</ele><time>2026-03-22T10:35:42Z</time></trkpt><trkpt lat="45.50920391337146" lon="11.481010271549653"><ele>38.0</ele><time>2026-03-22T10:35:44Z</time></trkpt><trkpt lat="45.50920299064414" lon="11.480917555202087"><ele>38.0</ele><time>2026-03-22T10:35:45Z</time></trkpt><trkpt lat="45.5092153065632" lon="11.480732658288252"><ele>38.199999999999996</ele><time>2026-03-22T10:35:47Z</time></trkpt><trkpt lat="45.509237798308575" lon="11.48056989232143"><ele>38.4</ele><time>2026-03-22T10:35:49Z</time></trkpt><trkpt lat="45.50926465034392" lon="11.480430963130111"><ele>38.599999999999994</ele><time>2026-03-22T10:35:51Z</time></trkpt><trkpt lat="45.50930486469194" lon="11.480268326541928"><ele>38.8</ele><time>2026-03-22T10:35:53Z</time></trkpt><trkpt lat="45.509340757272646" lon="11.480127776886208"><ele>39.0</ele><time>2026-03-22T10:35:55Z</time></trkpt><trkpt lat="45.5093791922869" lon="11.479988667634336"><ele>39.0</ele><time>2026-03-22T10:35:57Z</time></trkpt><trkpt lat="45.50941909262517" lon="11.47984428117229"><ele>39.0</ele><time>2026-03-22T10:35:59Z</time></trkpt><trkpt lat="45.509459125810956" lon="11.479693677074696"><ele>39.0</ele><time>2026-03-22T10:36:01Z</time></trkpt><trkpt lat="45.50952601388965" lon="11.479563996402536"><ele>39.0</ele><time>2026-03-22T10:36:03Z</time></trkpt><trkpt lat="45.509564922072734" lon="11.479449229596264"><ele>39.0</ele><time>2026-03-22T10:36:04.999Z</time></trkpt><trkpt lat="45.509568373644306" lon="11.479338000800361"><ele>38.714285714285715</ele><time>2026-03-22T10:36:07.999Z</time></trkpt><trkpt lat="45.509519977457934" lon="11.4792500466539"><ele>38.42857142857142</ele><time>2026-03-22T10:36:09.999Z</time></trkpt><trkpt lat="45.509477033792265" lon="11.479171666498567"><ele>38.14285714285714</ele><time>2026-03-22T10:36:10.999Z</time></trkpt><trkpt lat="45.50946249356684" lon="11.479074459322796"><ele>37.85714285714286</ele><time>2026-03-22T10:36:12.999Z</time></trkpt><trkpt lat="45.509460833330756" lon="11.478982105939743"><ele>37.57142857142857</ele><time>2026-03-22T10:36:59.998Z</time></trkpt><trkpt lat="45.50943716607461" lon="11.47888166545723"><ele>37.285714285714285</ele><time>2026-03-22T10:37:39Z</time></trkpt><trkpt lat="45.5094722753238" lon="11.478788871001722"><ele>37.0</ele><time>2026-03-22T10:37:41Z</time></trkpt><trkpt lat="45.50950297223972" lon="11.478709008769453"><ele>37.0</ele><time>2026-03-22T10:37:44Z</time></trkpt><trkpt lat="45.50953439460672" lon="11.478612166413585"><ele>37.0</ele><time>2026-03-22T10:37:53Z</time></trkpt><trkpt lat="45.5095787922055" lon="11.478493854412463"><ele>37.0</ele><time>2026-03-22T10:37:56Z</time></trkpt><trkpt lat="45.5095635088134" lon="11.478372778775334"><ele>37.0</ele><time>2026-03-22T10:37:58Z</time></trkpt><trkpt lat="45.5095448344394" lon="11.478249201300134"><ele>37.0</ele><time>2026-03-22T10:38:00Z</time></trkpt><trkpt lat="45.50952450111766" lon="11.478109829675773"><ele>37.0</ele><time>2026-03-22T10:38:02Z</time></trkpt><trkpt lat="45.509478738730216" lon="11.477974102712086"><ele>37.0</ele><time>2026-03-22T10:38:04Z</time></trkpt><trkpt lat="45.50943334914037" lon="11.47784081858334"><ele>37.0</ele><time>2026-03-22T10:38:06Z</time></trkpt><trkpt lat="45.50938376054635" lon="11.477687527662084"><ele>37.0</ele><time>2026-03-22T10:38:07.999Z</time></trkpt><trkpt lat="45.50933283839867" lon="11.47754706839626"><ele>37.0</ele><time>2026-03-22T10:38:09.999Z</time></trkpt><trkpt lat="45.5092839616676" lon="11.477410273799867"><ele>37.0</ele><time>2026-03-22T10:38:11.999Z</time></trkpt><trkpt lat="45.509232301058006" lon="11.477280775850414"><ele>37.0</ele><time>2026-03-22T10:38:13.999Z</time></trkpt><trkpt lat="45.50918223333553" lon="11.477126110548054"><ele>37.0</ele><time>2026-03-22T10:38:15.999Z</time></trkpt><trkpt lat="45.50913338523639" lon="11.476981975285396"><ele>37.0</ele><time>2026-03-22T10:38:17.999Z</time></trkpt><trkpt lat="45.50908164293131" lon="11.476847774028329"><ele>37.0</ele><time>2026-03-22T10:38:19.999Z</time></trkpt><trkpt lat="45.509033449053724" lon="11.476714484936725"><ele>37.0</ele><time>2026-03-22T10:38:21.999Z</time></trkpt><trkpt lat="45.50898359990999" lon="11.47659272032111"><ele>37.2</ele><time>2026-03-22T10:38:23.999Z</time></trkpt><trkpt lat="45.50892498663379" lon="11.476474410611026"><ele>37.400000000000006</ele><time>2026-03-22T10:38:25.999Z</time></trkpt><trkpt lat="45.50887954361649" lon="11.476350981755315"><ele>37.599999999999994</ele><time>2026-03-22T10:38:27.999Z</time></trkpt><trkpt lat="45.508831617885214" lon="11.476240939361361"><ele>37.8</ele><time>2026-03-22T10:38:29.999Z</time></trkpt><trkpt lat="45.50878354684596" lon="11.476128573625859"><ele>38.0</ele><time>2026-03-22T10:38:31.999Z</time></trkpt><trkpt lat="45.50874226824307" lon="11.475972127588973"><ele>38.0</ele><time>2026-03-22T10:38:33.999Z</time></trkpt><trkpt lat="45.50869083629641" lon="11.475831094483043"><ele>38.0</ele><time>2026-03-22T10:38:35.999Z</time></trkpt><trkpt lat="45.50864505647235" lon="11.475707941222213"><ele>38.0</ele><time>2026-03-22T10:38:37.999Z</time></trkpt><trkpt lat="45.50860605526792" lon="11.475583800200889"><ele>38.0</ele><time>2026-03-22T10:38:39.999Z</time></trkpt><trkpt lat="45.50857099183225" lon="11.475469523528945"><ele>38.0</ele><time>2026-03-22T10:38:41.999Z</time></trkpt><trkpt lat="45.50852933539862" lon="11.475345461627347"><ele>38.0</ele><time>2026-03-22T10:38:43.999Z</time></trkpt><trkpt lat="45.508486186832776" lon="11.475214021964634"><ele>38.0</ele><time>2026-03-22T10:38:45.998Z</time></trkpt><trkpt lat="45.508440507428865" lon="11.475070848846043"><ele>38.0</ele><time>2026-03-22T10:38:47.998Z</time></trkpt><trkpt lat="45.50839063199458" lon="11.474946820391196"><ele>38.0</ele><time>2026-03-22T10:38:49.998Z</time></trkpt><trkpt lat="45.508329733736225" lon="11.47491782375535"><ele>38.0</ele><time>2026-03-22T10:38:50.998Z</time></trkpt><trkpt lat="45.50828647021228" lon="11.474801564724395"><ele>38.0</ele><time>2026-03-22T10:38:52.998Z</time></trkpt><trkpt lat="45.508253635995246" lon="11.474641913986318"><ele>38.0</ele><time>2026-03-22T10:38:54.998Z</time></trkpt><trkpt lat="45.50822971757938" lon="11.4745556897077"><ele>38.0</ele><time>2026-03-22T10:38:55.998Z</time></trkpt><trkpt lat="45.50817211230318" lon="11.474409638309853"><ele>38.0</ele><time>2026-03-22T10:38:57.998Z</time></trkpt><trkpt lat="45.50811956029925" lon="11.474263642137885"><ele>38.0</ele><time>2026-03-22T10:38:59.998Z</time></trkpt><trkpt lat="45.50806389481179" lon="11.474120260982351"><ele>38.0</ele><time>2026-03-22T10:39:01.998Z</time></trkpt><trkpt lat="45.50800640563222" lon="11.473977085183645"><ele>38.0</ele><time>2026-03-22T10:39:03.998Z</time></trkpt><trkpt lat="45.50795091765766" lon="11.473831781183238"><ele>38.0</ele><time>2026-03-22T10:39:05.998Z</time></trkpt><trkpt lat="45.507900589355785" lon="11.473695526187468"><ele>38.0</ele><time>2026-03-22T10:39:07.998Z</time></trkpt><trkpt lat="45.50783221375698" lon="11.473591815837235"><ele>38.0</ele><time>2026-03-22T10:39:09.998Z</time></trkpt><trkpt lat="45.507776855163065" lon="11.473444788800595"><ele>38.25</ele><time>2026-03-22T10:39:11.998Z</time></trkpt><trkpt lat="45.50772460761505" lon="11.473313355877103"><ele>38.5</ele><time>2026-03-22T10:39:13.998Z</time></trkpt><trkpt lat="45.50770602265472" lon="11.473195434061795"><ele>38.75</ele><time>2026-03-22T10:39:14.998Z</time></trkpt><trkpt lat="45.50772772657389" lon="11.473087990322137"><ele>39.0</ele><time>2026-03-22T10:39:15.998Z</time></trkpt><trkpt lat="45.50789360712786" lon="11.472922245243302"><ele>39.333333333333336</ele><time>2026-03-22T10:39:17.998Z</time></trkpt><trkpt lat="45.50795150532971" lon="11.472864083893686"><ele>39.666666666666664</ele><time>2026-03-22T10:39:18.998Z</time></trkpt><trkpt lat="45.50801198273496" lon="11.472806340228654"><ele>40.0</ele><time>2026-03-22T10:39:19.998Z</time></trkpt><trkpt lat="45.50806204259308" lon="11.472733621141451"><ele>40.33333333333333</ele><time>2026-03-22T10:39:20.998Z</time></trkpt><trkpt lat="45.508168657996755" lon="11.47261703360916"><ele>40.666666666666664</ele><time>2026-03-22T10:39:22.998Z</time></trkpt><trkpt lat="45.508223893654474" lon="11.472530309328377"><ele>41.0</ele><time>2026-03-22T10:39:25.997Z</time></trkpt><trkpt lat="45.50832564597449" lon="11.47244510916779"><ele>41.0</ele><time>2026-03-22T10:39:27.997Z</time></trkpt><trkpt lat="45.50820783258396" lon="11.472310333240602"><ele>41.0</ele><time>2026-03-22T10:39:31.997Z</time></trkpt><trkpt lat="45.50812629891754" lon="11.47221644331598"><ele>41.0</ele><time>2026-03-22T10:39:33.997Z</time></trkpt><trkpt lat="45.5080470472114" lon="11.4721772225062"><ele>41.0</ele><time>2026-03-22T10:39:35.997Z</time></trkpt><trkpt lat="45.50803177528236" lon="11.472031781090873"><ele>41.0</ele><time>2026-03-22T10:39:36.997Z</time></trkpt><trkpt lat="45.50799912702755" lon="11.4718898001762"><ele>41.199999999999996</ele><time>2026-03-22T10:39:38.997Z</time></trkpt><trkpt lat="45.50794159689352" lon="11.471775311129969"><ele>41.4</ele><time>2026-03-22T10:39:40.997Z</time></trkpt><trkpt lat="45.50790683480328" lon="11.471646620137463"><ele>41.6</ele><time>2026-03-22T10:39:42.997Z</time></trkpt><trkpt lat="45.507847810193006" lon="11.471541012582502"><ele>41.8</ele><time>2026-03-22T10:39:45Z</time></trkpt><trkpt lat="45.50780585836057" lon="11.471414079801697"><ele>42.0</ele><time>2026-03-22T10:39:47Z</time></trkpt><trkpt lat="45.50770577507814" lon="11.4713197803619"><ele>42.166666666666664</ele><time>2026-03-22T10:39:49Z</time></trkpt><trkpt lat="45.50765594065646" lon="11.471207571220312"><ele>42.333333333333336</ele><time>2026-03-22T10:39:51Z</time></trkpt><trkpt lat="45.50760732116327" lon="11.471118753288353"><ele>42.5</ele><time>2026-03-22T10:39:53Z</time></trkpt><trkpt lat="45.50756531340731" lon="11.471009023942248"><ele>42.66666666666667</ele><time>2026-03-22T10:39:55Z</time></trkpt><trkpt lat="45.507542992307904" lon="11.470896481690897"><ele>42.833333333333336</ele><time>2026-03-22T10:39:57Z</time></trkpt><trkpt lat="45.50749559426455" lon="11.470786516494938"><ele>43.0</ele><time>2026-03-22T10:39:59Z</time></trkpt><trkpt lat="45.50745595404895" lon="11.47066710279184"><ele>43.0</ele><time>2026-03-22T10:40:01Z</time></trkpt><trkpt lat="45.50743071168907" lon="11.470547257294696"><ele>43.0</ele><time>2026-03-22T10:40:03Z</time></trkpt><trkpt lat="45.50739825971812" lon="11.470450754071287"><ele>43.0</ele><time>2026-03-22T10:40:05Z</time></trkpt><trkpt lat="45.50734223233409" lon="11.470402527698168"><ele>43.0</ele><time>2026-03-22T10:40:09Z</time></trkpt><trkpt lat="45.50739574238811" lon="11.470297673014498"><ele>43.0</ele><time>2026-03-22T10:40:12Z</time></trkpt><trkpt lat="45.50746695788142" lon="11.470257747553614"><ele>43.0</ele><time>2026-03-22T10:40:13.999Z</time></trkpt><trkpt lat="45.50754247077527" lon="11.470176883427763"><ele>43.0</ele><time>2026-03-22T10:40:15.999Z</time></trkpt><trkpt lat="45.507606067485796" lon="11.470056367136793"><ele>43.0</ele><time>2026-03-22T10:40:17.999Z</time></trkpt><trkpt lat="45.50767320824302" lon="11.469964042227621"><ele>43.0</ele><time>2026-03-22T10:40:19.999Z</time></trkpt><trkpt lat="45.50774806793323" lon="11.469885863736502"><ele>43.0</ele><time>2026-03-22T10:40:21.999Z</time></trkpt><trkpt lat="45.507811897465544" lon="11.46979998578258"><ele>43.0</ele><time>2026-03-22T10:40:23.999Z</time></trkpt><trkpt lat="45.50788761030453" lon="11.469725561347616"><ele>42.833333333333336</ele><time>2026-03-22T10:40:25.999Z</time></trkpt><trkpt lat="45.507928674096426" lon="11.469635841406708"><ele>42.66666666666667</ele><time>2026-03-22T10:40:31.999Z</time></trkpt><trkpt lat="45.50786840713646" lon="11.469556074008041"><ele>42.5</ele><time>2026-03-22T10:40:33.999Z</time></trkpt><trkpt lat="45.50779919483628" lon="11.46947197706263"><ele>42.333333333333336</ele><time>2026-03-22T10:40:35.999Z</time></trkpt><trkpt lat="45.50771934127522" lon="11.469402416069375"><ele>42.166666666666664</ele><time>2026-03-22T10:40:37.999Z</time></trkpt><trkpt lat="45.507647641843846" lon="11.46932844654149"><ele>42.0</ele><time>2026-03-22T10:40:39.999Z</time></trkpt><trkpt lat="45.50759519276928" lon="11.469226939865681"><ele>42.0</ele><time>2026-03-22T10:40:41.999Z</time></trkpt><trkpt lat="45.50755551074134" lon="11.46912362859797"><ele>42.0</ele><time>2026-03-22T10:40:43.999Z</time></trkpt><trkpt lat="45.50752082741446" lon="11.469000129544115"><ele>42.0</ele><time>2026-03-22T10:40:45.999Z</time></trkpt><trkpt lat="45.507479366845004" lon="11.468866487636879"><ele>42.0</ele><time>2026-03-22T10:40:47.999Z</time></trkpt><trkpt lat="45.507423021624426" lon="11.468749984434526"><ele>42.0</ele><time>2026-03-22T10:40:49.999Z</time></trkpt><trkpt lat="45.50738274521634" lon="11.468620199355428"><ele>42.2</ele><time>2026-03-22T10:40:51.998Z</time></trkpt><trkpt lat="45.507330317072075" lon="11.468502284097186"><ele>42.400000000000006</ele><time>2026-03-22T10:40:53.998Z</time></trkpt><trkpt lat="45.50729350835335" lon="11.468377979919508"><ele>42.599999999999994</ele><time>2026-03-22T10:40:55.998Z</time></trkpt><trkpt lat="45.50724907779839" lon="11.46820838141702"><ele>42.8</ele><time>2026-03-22T10:40:57.998Z</time></trkpt><trkpt lat="45.50722820464637" lon="11.468117449125995"><ele>43.0</ele><time>2026-03-22T10:40:58.998Z</time></trkpt><trkpt lat="45.50720810855397" lon="11.468029432071654"><ele>42.8</ele><time>2026-03-22T10:40:59.998Z</time></trkpt><trkpt lat="45.50716179894276" lon="11.467873316528651"><ele>42.599999999999994</ele><time>2026-03-22T10:41:01.998Z</time></trkpt><trkpt lat="45.50711375411888" lon="11.4677285093312"><ele>42.400000000000006</ele><time>2026-03-22T10:41:03.998Z</time></trkpt><trkpt lat="45.50705320298772" lon="11.467604313075714"><ele>42.2</ele><time>2026-03-22T10:41:05.998Z</time></trkpt><trkpt lat="45.50702836636999" lon="11.467464758362901"><ele>42.0</ele><time>2026-03-22T10:41:07.998Z</time></trkpt><trkpt lat="45.50698947211807" lon="11.467338004088528"><ele>41.8</ele><time>2026-03-22T10:41:09.998Z</time></trkpt><trkpt lat="45.50693777559031" lon="11.46721863716635"><ele>41.6</ele><time>2026-03-22T10:41:11.998Z</time></trkpt><trkpt lat="45.506901712571675" lon="11.46706051821504"><ele>41.4</ele><time>2026-03-22T10:41:13.998Z</time></trkpt><trkpt lat="45.506865807044164" lon="11.466921544119188"><ele>41.199999999999996</ele><time>2026-03-22T10:41:15.998Z</time></trkpt><trkpt lat="45.506843247749124" lon="11.466837428655802"><ele>41.0</ele><time>2026-03-22T10:41:16.998Z</time></trkpt><trkpt lat="45.50679703008677" lon="11.466682548160454"><ele>41.0</ele><time>2026-03-22T10:41:18.998Z</time></trkpt><trkpt lat="45.50677630972909" lon="11.466594380703622"><ele>41.0</ele><time>2026-03-22T10:41:19.998Z</time></trkpt><trkpt lat="45.50672560985924" lon="11.466435537947074"><ele>41.0</ele><time>2026-03-22T10:41:21.998Z</time></trkpt><trkpt lat="45.50668622298455" lon="11.46628403470751"><ele>41.0</ele><time>2026-03-22T10:41:23.998Z</time></trkpt><trkpt lat="45.506623596525856" lon="11.466145024446595"><ele>41.0</ele><time>2026-03-22T10:41:25.998Z</time></trkpt><trkpt lat="45.5065804004763" lon="11.46599220666282"><ele>41.25</ele><time>2026-03-22T10:41:27.998Z</time></trkpt><trkpt lat="45.50654172130174" lon="11.46585532439652"><ele>41.5</ele><time>2026-03-22T10:41:29.998Z</time></trkpt><trkpt lat="45.5064966113695" lon="11.465692089168158"><ele>41.75</ele><time>2026-03-22T10:41:31.997Z</time></trkpt><trkpt lat="45.50645395566732" lon="11.465534040832102"><ele>42.0</ele><time>2026-03-22T10:41:33.997Z</time></trkpt><trkpt lat="45.506407821708926" lon="11.46536310477196"><ele>42.5</ele><time>2026-03-22T10:41:35.997Z</time></trkpt><trkpt lat="45.50636727904427" lon="11.465211530322108"><ele>43.0</ele><time>2026-03-22T10:41:37.997Z</time></trkpt><trkpt lat="45.506328576284034" lon="11.465066394981697"><ele>43.5</ele><time>2026-03-22T10:41:39.997Z</time></trkpt><trkpt lat="45.506284291789584" lon="11.46490032812693"><ele>44.0</ele><time>2026-03-22T10:41:41.997Z</time></trkpt><trkpt lat="45.50624304930152" lon="11.46474437598428"><ele>43.5</ele><time>2026-03-22T10:41:43.997Z</time></trkpt><trkpt lat="45.50620255155554" lon="11.464588953352001"><ele>43.0</ele><time>2026-03-22T10:41:45.997Z</time></trkpt><trkpt lat="45.506158788668834" lon="11.464420327122129"><ele>42.5</ele><time>2026-03-22T10:41:47.997Z</time></trkpt><trkpt lat="45.50611784243138" lon="11.464251508593337"><ele>42.0</ele><time>2026-03-22T10:41:50Z</time></trkpt><trkpt lat="45.50608543303322" lon="11.46409536083935"><ele>42.0</ele><time>2026-03-22T10:41:52Z</time></trkpt><trkpt lat="45.506056058029756" lon="11.463926763936774"><ele>42.0</ele><time>2026-03-22T10:41:54Z</time></trkpt><trkpt lat="45.506029107265235" lon="11.463772080889196"><ele>42.0</ele><time>2026-03-22T10:41:56Z</time></trkpt><trkpt lat="45.506002200841856" lon="11.463617652334207"><ele>42.0</ele><time>2026-03-22T10:41:58Z</time></trkpt><trkpt lat="45.5059766274859" lon="11.463458311749594"><ele>41.8</ele><time>2026-03-22T10:42:00Z</time></trkpt><trkpt lat="45.50595768096558" lon="11.463311176750267"><ele>41.6</ele><time>2026-03-22T10:42:02Z</time></trkpt><trkpt lat="45.50594172015945" lon="11.463150913024656"><ele>41.4</ele><time>2026-03-22T10:42:04Z</time></trkpt><trkpt lat="45.50592945278112" lon="11.463004845345957"><ele>41.199999999999996</ele><time>2026-03-22T10:42:06Z</time></trkpt><trkpt lat="45.50595346735261" lon="11.462867036471252"><ele>41.0</ele><time>2026-03-22T10:42:08Z</time></trkpt><trkpt lat="45.505949762421196" lon="11.462730492489923"><ele>41.0</ele><time>2026-03-22T10:42:10Z</time></trkpt><trkpt lat="45.50593731670299" lon="11.462582484612467"><ele>41.0</ele><time>2026-03-22T10:42:12Z</time></trkpt><trkpt lat="45.50589020766619" lon="11.462430430610667"><ele>41.0</ele><time>2026-03-22T10:42:14Z</time></trkpt><trkpt lat="45.505871795310775" lon="11.462285972012912"><ele>41.0</ele><time>2026-03-22T10:42:16Z</time></trkpt><trkpt lat="45.50585252353181" lon="11.462164297390173"><ele>41.0</ele><time>2026-03-22T10:42:18Z</time></trkpt><trkpt lat="45.505896237401416" lon="11.462081566658698"><ele>41.0</ele><time>2026-03-22T10:42:20Z</time></trkpt><trkpt lat="45.50598325470452" lon="11.462035639510438"><ele>41.0</ele><time>2026-03-22T10:42:21.999Z</time></trkpt><trkpt lat="45.50608451800572" lon="11.461998304946075"><ele>41.0</ele><time>2026-03-22T10:42:23.999Z</time></trkpt><trkpt lat="45.50618609419764" lon="11.461965209907554"><ele>41.0</ele><time>2026-03-22T10:42:25.999Z</time></trkpt><trkpt lat="45.506278756530016" lon="11.46190409146567"><ele>41.0</ele><time>2026-03-22T10:42:27.999Z</time></trkpt><trkpt lat="45.50639432226578" lon="11.461853003745203"><ele>41.8</ele><time>2026-03-22T10:42:29.999Z</time></trkpt><trkpt lat="45.5064991725854" lon="11.46181449667852"><ele>42.599999999999994</ele><time>2026-03-22T10:42:31.999Z</time></trkpt><trkpt lat="45.50658797376033" lon="11.461784045013486"><ele>43.4</ele><time>2026-03-22T10:42:33.999Z</time></trkpt><trkpt lat="45.506648382191585" lon="11.461752424635721"><ele>44.2</ele><time>2026-03-22T10:42:34.999Z</time></trkpt><trkpt lat="45.506749713493235" lon="11.461698659961279"><ele>45.0</ele><time>2026-03-22T10:42:36.999Z</time></trkpt><trkpt lat="45.506845855376966" lon="11.461649005068493"><ele>45.0</ele><time>2026-03-22T10:42:38.999Z</time></trkpt><trkpt lat="45.50691677178672" lon="11.46165314523331"><ele>45.0</ele><time>2026-03-22T10:42:40.999Z</time></trkpt><trkpt lat="45.507013177006556" lon="11.461603624830747"><ele>45.0</ele><time>2026-03-22T10:42:42.999Z</time></trkpt><trkpt lat="45.50711381689203" lon="11.461559767334991"><ele>45.0</ele><time>2026-03-22T10:42:44.999Z</time></trkpt><trkpt lat="45.507198563949665" lon="11.461520166747817"><ele>45.0</ele><time>2026-03-22T10:42:46.999Z</time></trkpt><trkpt lat="45.50729973404708" lon="11.461493751808739"><ele>44.6</ele><time>2026-03-22T10:42:48.999Z</time></trkpt><trkpt lat="45.50738111720918" lon="11.46145169754965"><ele>44.2</ele><time>2026-03-22T10:42:50.999Z</time></trkpt><trkpt lat="45.507477879883794" lon="11.461399105050413"><ele>43.8</ele><time>2026-03-22T10:42:52.999Z</time></trkpt><trkpt lat="45.507560449404544" lon="11.461371292419894"><ele>43.4</ele><time>2026-03-22T10:42:54.999Z</time></trkpt><trkpt lat="45.507650894215665" lon="11.461356519014211"><ele>43.0</ele><time>2026-03-22T10:42:56.999Z</time></trkpt><trkpt lat="45.50774168652409" lon="11.461311599660954"><ele>42.599999999999994</ele><time>2026-03-22T10:42:58.999Z</time></trkpt><trkpt lat="45.50783255436311" lon="11.461272009056552"><ele>42.199999999999996</ele><time>2026-03-22T10:43:00.998Z</time></trkpt><trkpt lat="45.50793875967307" lon="11.461233515900409"><ele>41.8</ele><time>2026-03-22T10:43:02.998Z</time></trkpt><trkpt lat="45.50804150207907" lon="11.461191303383025"><ele>41.4</ele><time>2026-03-22T10:43:04.998Z</time></trkpt><trkpt lat="45.508130317506556" lon="11.461155516070422"><ele>41.0</ele><time>2026-03-22T10:43:06.998Z</time></trkpt><trkpt lat="45.508217454373636" lon="11.46113147202201"><ele>41.0</ele><time>2026-03-22T10:43:08.998Z</time></trkpt><trkpt lat="45.50831034676236" lon="11.461126052091101"><ele>41.0</ele><time>2026-03-22T10:43:10.998Z</time></trkpt><trkpt lat="45.508417262088614" lon="11.46109001850162"><ele>41.0</ele><time>2026-03-22T10:43:12.998Z</time></trkpt><trkpt lat="45.5085233056892" lon="11.461019618604123"><ele>41.0</ele><time>2026-03-22T10:43:14.998Z</time></trkpt><trkpt lat="45.50863709086707" lon="11.460986094551473"><ele>41.0</ele><time>2026-03-22T10:43:16.998Z</time></trkpt><trkpt lat="45.50872937647445" lon="11.460950827633344"><ele>41.4</ele><time>2026-03-22T10:43:18.998Z</time></trkpt><trkpt lat="45.508822985862714" lon="11.460939095043777"><ele>41.8</ele><time>2026-03-22T10:43:20.998Z</time></trkpt><trkpt lat="45.508923661453274" lon="11.460904855027893"><ele>42.199999999999996</ele><time>2026-03-22T10:43:22.998Z</time></trkpt><trkpt lat="45.50902282018639" lon="11.460867143273408"><ele>42.599999999999994</ele><time>2026-03-22T10:43:24.998Z</time></trkpt><trkpt lat="45.50910573907599" lon="11.460833800594294"><ele>43.0</ele><time>2026-03-22T10:43:26.998Z</time></trkpt><trkpt lat="45.509185192424255" lon="11.460792750365805"><ele>43.0</ele><time>2026-03-22T10:43:28.998Z</time></trkpt><trkpt lat="45.509303361139594" lon="11.46077321578996"><ele>43.0</ele><time>2026-03-22T10:43:30.998Z</time></trkpt><trkpt lat="45.509386245335506" lon="11.460730245935101"><ele>43.0</ele><time>2026-03-22T10:43:32.998Z</time></trkpt><trkpt lat="45.50944677100524" lon="11.460672571175287"><ele>43.0</ele><time>2026-03-22T10:43:34.998Z</time></trkpt><trkpt lat="45.50951108349316" lon="11.460690001629803"><ele>43.0</ele><time>2026-03-22T10:43:36.998Z</time></trkpt><trkpt lat="45.50956639051406" lon="11.460775616057944"><ele>43.0</ele><time>2026-03-22T10:43:38.997Z</time></trkpt><trkpt lat="45.50961439608106" lon="11.460856244550076"><ele>43.16666666666667</ele><time>2026-03-22T10:43:40.997Z</time></trkpt><trkpt lat="45.50968388451739" lon="11.460803649239946"><ele>43.333333333333336</ele><time>2026-03-22T10:43:42.997Z</time></trkpt><trkpt lat="45.50975823296796" lon="11.460708201792125"><ele>43.5</ele><time>2026-03-22T10:43:44.997Z</time></trkpt><trkpt lat="45.509843998425296" lon="11.46063929908767"><ele>43.666666666666664</ele><time>2026-03-22T10:43:46.997Z</time></trkpt><trkpt lat="45.50988311990398" lon="11.460545789391542"><ele>43.83333333333333</ele><time>2026-03-22T10:43:48.997Z</time></trkpt><trkpt lat="45.50984539950515" lon="11.460421197798945"><ele>44.0</ele><time>2026-03-22T10:43:50.997Z</time></trkpt><trkpt lat="45.509809347791034" lon="11.460271698167688"><ele>44.6</ele><time>2026-03-22T10:43:52.997Z</time></trkpt><trkpt lat="45.5097779498232" lon="11.460135393488208"><ele>45.2</ele><time>2026-03-22T10:43:54.997Z</time></trkpt><trkpt lat="45.50974678480708" lon="11.46000484959666"><ele>45.800000000000004</ele><time>2026-03-22T10:43:57Z</time></trkpt><trkpt lat="45.50971264020547" lon="11.459870007228028"><ele>46.400000000000006</ele><time>2026-03-22T10:43:59Z</time></trkpt><trkpt lat="45.50969016385854" lon="11.45973373834951"><ele>47.0</ele><time>2026-03-22T10:44:01Z</time></trkpt><trkpt lat="45.50966219464353" lon="11.459612967344869"><ele>47.400000000000006</ele><time>2026-03-22T10:44:03Z</time></trkpt><trkpt lat="45.50963711001958" lon="11.459507402217758"><ele>47.800000000000004</ele><time>2026-03-22T10:44:05Z</time></trkpt><trkpt lat="45.50973416418349" lon="11.45942743940615"><ele>48.2</ele><time>2026-03-22T10:44:07Z</time></trkpt><trkpt lat="45.50984821772002" lon="11.459407446804729"><ele>48.6</ele><time>2026-03-22T10:44:09Z</time></trkpt><trkpt lat="45.50995175727213" lon="11.459365330711524"><ele>49.0</ele><time>2026-03-22T10:44:11Z</time></trkpt><trkpt lat="45.51005905743734" lon="11.459336901324138"><ele>49.0</ele><time>2026-03-22T10:44:13Z</time></trkpt><trkpt lat="45.51016542286039" lon="11.459278210890918"><ele>49.0</ele><time>2026-03-22T10:44:15Z</time></trkpt><trkpt lat="45.510282262228145" lon="11.459258090977222"><ele>49.0</ele><time>2026-03-22T10:44:17Z</time></trkpt><trkpt lat="45.51039200061973" lon="11.459194314662895"><ele>49.0</ele><time>2026-03-22T10:44:19Z</time></trkpt><trkpt lat="45.51050305252895" lon="11.459148520531283"><ele>48.0</ele><time>2026-03-22T10:44:21Z</time></trkpt><trkpt lat="45.5105834164889" lon="11.459065083285406"><ele>47.0</ele><time>2026-03-22T10:44:23Z</time></trkpt><trkpt lat="45.51059775343745" lon="11.459280484581994"><ele>46.0</ele><time>2026-03-22T10:44:26Z</time></trkpt><trkpt lat="45.51062283631171" lon="11.459434724426195"><ele>45.0</ele><time>2026-03-22T10:44:28Z</time></trkpt><trkpt lat="45.510652771104134" lon="11.459595789759062"><ele>45.0</ele><time>2026-03-22T10:44:29.999Z</time></trkpt><trkpt lat="45.51067081111919" lon="11.459682955212514"><ele>45.0</ele><time>2026-03-22T10:44:30.999Z</time></trkpt><trkpt lat="45.51070299229014" lon="11.459841628858458"><ele>45.0</ele><time>2026-03-22T10:44:32.999Z</time></trkpt><trkpt lat="45.510735788544444" lon="11.460003335241066"><ele>45.0</ele><time>2026-03-22T10:44:34.999Z</time></trkpt><trkpt lat="45.51077056286854" lon="11.460174399644643"><ele>45.0</ele><time>2026-03-22T10:44:36.999Z</time></trkpt><trkpt lat="45.51079995483251" lon="11.46031859244078"><ele>45.0</ele><time>2026-03-22T10:44:38.999Z</time></trkpt><trkpt lat="45.51082657484421" lon="11.460448953124185"><ele>45.0</ele><time>2026-03-22T10:44:40.999Z</time></trkpt><trkpt lat="45.51085678682451" lon="11.460596904009186"><ele>45.0</ele><time>2026-03-22T10:44:42.999Z</time></trkpt><trkpt lat="45.510903977517366" lon="11.460745307805677"><ele>45.0</ele><time>2026-03-22T10:44:44.999Z</time></trkpt><trkpt lat="45.51092177327066" lon="11.460915148670232"><ele>45.0</ele><time>2026-03-22T10:44:46.999Z</time></trkpt><trkpt lat="45.510946301987175" lon="11.461011527421375"><ele>45.0</ele><time>2026-03-22T10:44:47.999Z</time></trkpt><trkpt lat="45.51096808427896" lon="11.461141937982267"><ele>45.0</ele><time>2026-03-22T10:44:49.999Z</time></trkpt><trkpt lat="45.51099617119484" lon="11.461299552519382"><ele>45.0</ele><time>2026-03-22T10:44:51.999Z</time></trkpt><trkpt lat="45.510985247861726" lon="11.461470316732948"><ele>45.0</ele><time>2026-03-22T10:44:53.999Z</time></trkpt><trkpt lat="45.51101242709067" lon="11.461560721830256"><ele>45.0</ele><time>2026-03-22T10:44:54.999Z</time></trkpt><trkpt lat="45.5110549601303" lon="11.4617068994712"><ele>45.0</ele><time>2026-03-22T10:44:56.999Z</time></trkpt><trkpt lat="45.51108777543638" lon="11.461841572977164"><ele>45.0</ele><time>2026-03-22T10:44:58.999Z</time></trkpt><trkpt lat="45.51110976424171" lon="11.461981934725449"><ele>45.0</ele><time>2026-03-22T10:45:00.999Z</time></trkpt><trkpt lat="45.51107096336268" lon="11.462080229200028"><ele>45.0</ele><time>2026-03-22T10:45:02.999Z</time></trkpt><trkpt lat="45.51119119270277" lon="11.46212833036949"><ele>45.0</ele><time>2026-03-22T10:45:03.999Z</time></trkpt><trkpt lat="45.51093469721673" lon="11.46212201840923"><ele>45.0</ele><time>2026-03-22T10:45:05.999Z</time></trkpt><trkpt lat="45.510889274741565" lon="11.46221935499067"><ele>45.0</ele><time>2026-03-22T10:45:07.998Z</time></trkpt><trkpt lat="45.51091412198795" lon="11.46236233224709"><ele>45.0</ele><time>2026-03-22T10:45:09.998Z</time></trkpt><trkpt lat="45.51094489221858" lon="11.462515055229558"><ele>45.0</ele><time>2026-03-22T10:45:11.998Z</time></trkpt><trkpt lat="45.51097707838488" lon="11.462662071829492"><ele>45.0</ele><time>2026-03-22T10:45:13.998Z</time></trkpt><trkpt lat="45.510992401923744" lon="11.46279548459936"><ele>45.0</ele><time>2026-03-22T10:45:15.998Z</time></trkpt><trkpt lat="45.51099289166999" lon="11.462925504471212"><ele>45.0</ele><time>2026-03-22T10:45:17.998Z</time></trkpt><trkpt lat="45.510951480758436" lon="11.463036225470898"><ele>45.0</ele><time>2026-03-22T10:45:19.998Z</time></trkpt><trkpt lat="45.51088168331506" lon="11.463099982412329"><ele>45.0</ele><time>2026-03-22T10:45:21.998Z</time></trkpt><trkpt lat="45.51079558434377" lon="11.463133908015497"><ele>45.0</ele><time>2026-03-22T10:45:23.998Z</time></trkpt><trkpt lat="45.51078518070809" lon="11.463255527454573"><ele>45.0</ele><time>2026-03-22T10:45:25.998Z</time></trkpt><trkpt lat="45.510779099216805" lon="11.463387898849103"><ele>45.2</ele><time>2026-03-22T10:45:27.998Z</time></trkpt><trkpt lat="45.510691188796855" lon="11.46346610912775"><ele>45.4</ele><time>2026-03-22T10:45:29.998Z</time></trkpt><trkpt lat="45.510598697510346" lon="11.46351543681821"><ele>45.599999999999994</ele><time>2026-03-22T10:45:31.998Z</time></trkpt><trkpt lat="45.51049048740255" lon="11.463480487685079"><ele>45.8</ele><time>2026-03-22T10:45:33.998Z</time></trkpt><trkpt lat="45.51039674049825" lon="11.463554392158105"><ele>46.0</ele><time>2026-03-22T10:45:35.998Z</time></trkpt><trkpt lat="45.51030812492513" lon="11.463668252986302"><ele>45.66666666666667</ele><time>2026-03-22T10:45:37.998Z</time></trkpt><trkpt lat="45.51026978862511" lon="11.463749480205673"><ele>45.333333333333336</ele><time>2026-03-22T10:45:38.998Z</time></trkpt><trkpt lat="45.51023392168188" lon="11.463858950883214"><ele>45.0</ele><time>2026-03-22T10:45:39.998Z</time></trkpt><trkpt lat="45.510211275057486" lon="11.463947938397318"><ele>44.666666666666664</ele><time>2026-03-22T10:45:40.998Z</time></trkpt><trkpt lat="45.51017304709732" lon="11.464100670820395"><ele>44.33333333333333</ele><time>2026-03-22T10:45:42.998Z</time></trkpt><trkpt lat="45.51013952837213" lon="11.464244263321271"><ele>44.0</ele><time>2026-03-22T10:45:44.998Z</time></trkpt><trkpt lat="45.510099194010216" lon="11.464424541514303"><ele>44.0</ele><time>2026-03-22T10:45:46.997Z</time></trkpt><trkpt lat="45.51007994918446" lon="11.464514692104114"><ele>44.0</ele><time>2026-03-22T10:45:47.997Z</time></trkpt><trkpt lat="45.510049527675676" lon="11.46465719883553"><ele>44.0</ele><time>2026-03-22T10:45:49.997Z</time></trkpt><trkpt lat="45.5100171085841" lon="11.464809063005807"><ele>44.0</ele><time>2026-03-22T10:45:51.997Z</time></trkpt><trkpt lat="45.50998136659113" lon="11.46496563088132"><ele>44.0</ele><time>2026-03-22T10:45:53.997Z</time></trkpt><trkpt lat="45.509946751775225" lon="11.465112990371477"><ele>44.5</ele><time>2026-03-22T10:45:55.997Z</time></trkpt><trkpt lat="45.50991168344038" lon="11.465257694091878"><ele>45.0</ele><time>2026-03-22T10:45:57.997Z</time></trkpt><trkpt lat="45.5098781031259" lon="11.46539625789112"><ele>45.5</ele><time>2026-03-22T10:45:59.997Z</time></trkpt><trkpt lat="45.50996819670611" lon="11.465579295368034"><ele>46.0</ele><time>2026-03-22T10:46:02Z</time></trkpt><trkpt lat="45.509831288877685" lon="11.465589429391738"><ele>46.0</ele><time>2026-03-22T10:46:03Z</time></trkpt><trkpt lat="45.509788409146736" lon="11.46576635682102"><ele>46.0</ele><time>2026-03-22T10:46:05Z</time></trkpt><trkpt lat="45.50976735301928" lon="11.465853233721546"><ele>46.0</ele><time>2026-03-22T10:46:06Z</time></trkpt><trkpt lat="45.509744590685905" lon="11.465947150371681"><ele>46.0</ele><time>2026-03-22T10:46:07Z</time></trkpt><trkpt lat="45.5097045453809" lon="11.466112376000709"><ele>46.0</ele><time>2026-03-22T10:46:09Z</time></trkpt><trkpt lat="45.5097117161687" lon="11.466203027493089"><ele>45.8</ele><time>2026-03-22T10:46:10Z</time></trkpt><trkpt lat="45.5096757518922" lon="11.466351844471552"><ele>45.599999999999994</ele><time>2026-03-22T10:46:12Z</time></trkpt><trkpt lat="45.50972593915513" lon="11.46646926512992"><ele>45.4</ele><time>2026-03-22T10:46:13Z</time></trkpt><trkpt lat="45.50970151475262" lon="11.466577790868092"><ele>45.2</ele><time>2026-03-22T10:46:15Z</time></trkpt><trkpt lat="45.50967628119188" lon="11.466711251125522"><ele>45.0</ele><time>2026-03-22T10:46:17Z</time></trkpt><trkpt lat="45.50957551165509" lon="11.466753556901606"><ele>45.4</ele><time>2026-03-22T10:46:18Z</time></trkpt><trkpt lat="45.509537889995975" lon="11.466859760454764"><ele>45.8</ele><time>2026-03-22T10:46:20Z</time></trkpt><trkpt lat="45.50949937525888" lon="11.466961729334418"><ele>46.2</ele><time>2026-03-22T10:46:22Z</time></trkpt><trkpt lat="45.5094284096439" lon="11.467058292535349"><ele>46.6</ele><time>2026-03-22T10:46:24Z</time></trkpt><trkpt lat="45.509357144623905" lon="11.467185950456022"><ele>47.0</ele><time>2026-03-22T10:46:26Z</time></trkpt><trkpt lat="45.50928248114026" lon="11.467318909253278"><ele>46.0</ele><time>2026-03-22T10:46:28Z</time></trkpt><trkpt lat="45.50921424492661" lon="11.46743976929753"><ele>45.0</ele><time>2026-03-22T10:46:30Z</time></trkpt><trkpt lat="45.50913979013475" lon="11.467569907326533"><ele>44.0</ele><time>2026-03-22T10:46:32Z</time></trkpt><trkpt lat="45.50906786643777" lon="11.467716176321105"><ele>43.0</ele><time>2026-03-22T10:46:34Z</time></trkpt><trkpt lat="45.50899636081159" lon="11.4678414235569"><ele>43.0</ele><time>2026-03-22T10:46:35.999Z</time></trkpt><trkpt lat="45.50893136105408" lon="11.467987412044183"><ele>43.0</ele><time>2026-03-22T10:46:37.999Z</time></trkpt><trkpt lat="45.508898425481796" lon="11.468089899200654"><ele>43.0</ele><time>2026-03-22T10:46:38.999Z</time></trkpt><trkpt lat="45.50886513930172" lon="11.46823450860937"><ele>43.0</ele><time>2026-03-22T10:46:40.999Z</time></trkpt><trkpt lat="45.50883675175281" lon="11.468374570073163"><ele>43.0</ele><time>2026-03-22T10:46:42.999Z</time></trkpt><trkpt lat="45.50873734177193" lon="11.46832417970193"><ele>43.0</ele><time>2026-03-22T10:46:48.999Z</time></trkpt><trkpt lat="45.50863956128307" lon="11.468311092345527"><ele>43.0</ele><time>2026-03-22T10:46:50.999Z</time></trkpt><trkpt lat="45.50856689861383" lon="11.46833962957627"><ele>43.0</ele><time>2026-03-22T10:46:52.999Z</time></trkpt><trkpt lat="45.50848306910542" lon="11.468361356478946"><ele>43.0</ele><time>2026-03-22T10:46:54.999Z</time></trkpt><trkpt lat="45.50841408834149" lon="11.468378810527396"><ele>43.0</ele><time>2026-03-22T10:46:55.999Z</time></trkpt><trkpt lat="45.508349571865914" lon="11.468350956880343"><ele>43.0</ele><time>2026-03-22T10:46:57.999Z</time></trkpt><trkpt lat="45.50827659224349" lon="11.468349916194775"><ele>43.0</ele><time>2026-03-22T10:46:59.999Z</time></trkpt><trkpt lat="45.50820210138547" lon="11.46830280927985"><ele>43.0</ele><time>2026-03-22T10:47:01.999Z</time></trkpt><trkpt lat="45.50814477111125" lon="11.468178302264942"><ele>43.0</ele><time>2026-03-22T10:47:03.999Z</time></trkpt><trkpt lat="45.50808019828922" lon="11.468061828056992"><ele>43.0</ele><time>2026-03-22T10:47:05.999Z</time></trkpt><trkpt lat="45.5080410627122" lon="11.467966224542137"><ele>43.0</ele><time>2026-03-22T10:47:07.999Z</time></trkpt><trkpt lat="45.507966516210686" lon="11.468022118754531"><ele>43.0</ele><time>2026-03-22T10:47:10.999Z</time></trkpt><trkpt lat="45.50788127959855" lon="11.468047442872098"><ele>43.0</ele><time>2026-03-22T10:47:12.999Z</time></trkpt><trkpt lat="45.50778109404842" lon="11.468059610724694"><ele>43.0</ele><time>2026-03-22T10:47:14.998Z</time></trkpt><trkpt lat="45.50767584645743" lon="11.46812709308808"><ele>43.0</ele><time>2026-03-22T10:47:16.998Z</time></trkpt><trkpt lat="45.50759882563539" lon="11.468051843491745"><ele>43.0</ele><time>2026-03-22T10:47:18.998Z</time></trkpt><trkpt lat="45.50760117185482" lon="11.467911951049006"><ele>42.833333333333336</ele><time>2026-03-22T10:47:20.998Z</time></trkpt><trkpt lat="45.507595191537945" lon="11.467778950502037"><ele>42.66666666666667</ele><time>2026-03-22T10:47:23.998Z</time></trkpt><trkpt lat="45.5075676950828" lon="11.467675618818026"><ele>42.5</ele><time>2026-03-22T10:47:25.998Z</time></trkpt><trkpt lat="45.507551395676245" lon="11.467576421653702"><ele>42.333333333333336</ele><time>2026-03-22T10:47:27.998Z</time></trkpt><trkpt lat="45.50753923371254" lon="11.467447203003195"><ele>42.166666666666664</ele><time>2026-03-22T10:47:29.998Z</time></trkpt><trkpt lat="45.50752414892753" lon="11.467338536161979"><ele>42.0</ele><time>2026-03-22T10:47:31.998Z</time></trkpt><trkpt lat="45.507518720077414" lon="11.467224546184827"><ele>42.0</ele><time>2026-03-22T10:47:33.998Z</time></trkpt><trkpt lat="45.507527572367216" lon="11.46712504112193"><ele>42.0</ele><time>2026-03-22T10:47:35.998Z</time></trkpt><trkpt lat="45.50758569745298" lon="11.467049742187504"><ele>42.0</ele><time>2026-03-22T10:47:37.998Z</time></trkpt><trkpt lat="45.50768014792408" lon="11.467036227890203"><ele>42.0</ele><time>2026-03-22T10:47:39.998Z</time></trkpt><trkpt lat="45.507759208261234" lon="11.467022234797454"><ele>42.0</ele><time>2026-03-22T10:47:41.998Z</time></trkpt><trkpt lat="45.507811181372524" lon="11.467077339724392"><ele>42.0</ele><time>2026-03-22T10:47:43.998Z</time></trkpt><trkpt lat="45.507810232292" lon="11.467208526298993"><ele>42.0</ele><time>2026-03-22T10:47:45.998Z</time></trkpt><trkpt lat="45.507828105161174" lon="11.467400452698481"><ele>42.0</ele><time>2026-03-22T10:47:47.998Z</time></trkpt><trkpt lat="45.507836607540405" lon="11.467512685161303"><ele>42.0</ele><time>2026-03-22T10:47:48.998Z</time></trkpt><trkpt lat="45.50785163177575" lon="11.467602322028588"><ele>42.0</ele><time>2026-03-22T10:47:50.998Z</time></trkpt><trkpt lat="45.50782595446257" lon="11.467689963156683"><ele>42.0</ele><time>2026-03-22T10:47:56.024Z</time></trkpt><trkpt lat="45.507612900396" lon="11.467770472265265"><ele>42.0</ele><time>2026-03-22T10:48:18.021Z</time></trkpt><trkpt lat="45.50767009110697" lon="11.4675328166252"><ele>42.0</ele><time>2026-03-22T10:50:00.621Z</time></trkpt><trkpt lat="45.507175228038605" lon="11.467368221464225"><ele>42.0</ele><time>2026-03-22T10:50:12.862Z</time></trkpt><trkpt lat="45.50758172989298" lon="11.467348702583289"><ele>42.0</ele><time>2026-03-22T10:50:24.021Z</time></trkpt><trkpt lat="45.50765608174053" lon="11.467413844313146"><ele>42.0</ele><time>2026-03-22T10:50:32.993Z</time></trkpt><trkpt lat="45.50767986234638" lon="11.46773575314073"><ele>42.0</ele><time>2026-03-22T10:52:04.015Z</time></trkpt><trkpt lat="45.50772403244073" lon="11.46781955565157"><ele>42.0</ele><time>2026-03-22T10:52:05.023Z</time></trkpt><trkpt lat="45.50778387699364" lon="11.46790561117432"><ele>42.0</ele><time>2026-03-22T10:52:05.991Z</time></trkpt><trkpt lat="45.50786356798562" lon="11.46777899104551"><ele>42.0</ele><time>2026-03-22T10:52:07.991Z</time></trkpt><trkpt lat="45.50779837448045" lon="11.467791674554878"><ele>42.0</ele><time>2026-03-22T10:52:12Z</time></trkpt><trkpt lat="45.50785716873026" lon="11.467839234983042"><ele>42.0</ele><time>2026-03-22T10:52:19Z</time></trkpt><trkpt lat="45.50780286622615" lon="11.467790493156873"><ele>42.0</ele><time>2026-03-22T10:52:39Z</time></trkpt><trkpt lat="45.50746962898019" lon="11.467701075609279"><ele>42.0</ele><time>2026-03-22T10:53:30.998Z</time></trkpt><trkpt lat="45.50781151405031" lon="11.467646822253792"><ele>42.0</ele><time>2026-03-22T10:53:32.998Z</time></trkpt><trkpt lat="45.50775086104275" lon="11.467671060264854"><ele>42.0</ele><time>2026-03-22T11:05:11Z</time></trkpt><trkpt lat="45.50767772618998" lon="11.467679504500502"><ele>42.0</ele><time>2026-03-22T11:05:13Z</time></trkpt><trkpt lat="45.50760378843589" lon="11.467688041440073"><ele>42.0</ele><time>2026-03-22T11:05:13.999Z</time></trkpt><trkpt lat="45.50751090225674" lon="11.467698766186965"><ele>42.0</ele><time>2026-03-22T11:05:14.999Z</time></trkpt><trkpt lat="45.50743577760027" lon="11.467707440167674"><ele>42.0</ele><time>2026-03-22T11:05:15.999Z</time></trkpt><trkpt lat="45.507500844361516" lon="11.467702114323911"><ele>42.0</ele><time>2026-03-22T11:08:42.997Z</time></trkpt><trkpt lat="45.50759527440138" lon="11.467663968643901"><ele>42.0</ele><time>2026-03-22T11:08:46.997Z</time></trkpt><trkpt lat="45.50759527440138" lon="11.467663968643901"><ele>42.0</ele><time>2026-03-22T11:08:46.997Z</time></trkpt></trkseg></trk></gpx>